<?xml version='1.0' encoding='UTF-8'?><gpx version="1.1" creator="JPX - https://github.com/jenetics/jpx" xmlns="http://www.topografix.com/GPX/1/1"><trk><trkseg><trkpt lat="44.4092892" lon="7.8598768"><ele>336.0</ele><time>2026-04-24T08:13:52Z</time></trkpt><trkpt lat="44.4091838" lon="7.85979"><ele>336.0</ele><time>2026-04-24T08:13:54.001Z</time></trkpt><trkpt lat="44.4091193" lon="7.8597499"><ele>336.0</ele><time>2026-04-24T08:13:55.002Z</time></trkpt><trkpt lat="44.4090367" lon="7.8597618"><ele>336.0</ele><time>2026-04-24T08:13:56Z</time></trkpt><trkpt lat="44.4089521" lon="7.8597942"><ele>336.0</ele><time>2026-04-24T08:13:57.006Z</time></trkpt><trkpt lat="44.4088595" lon="7.8598552"><ele>337.4</ele><time>2026-04-24T08:13:58.001Z</time></trkpt><trkpt lat="44.4087557" lon="7.8599181"><ele>338.8</ele><time>2026-04-24T08:13:59.001Z</time></trkpt><trkpt lat="44.4086556" lon="7.8599706"><ele>340.2</ele><time>2026-04-24T08:14:00.003Z</time></trkpt><trkpt lat="44.4085686" lon="7.860023"><ele>341.59999999999997</ele><time>2026-04-24T08:14:00.999Z</time></trkpt><trkpt lat="44.4084798" lon="7.860074"><ele>343.0</ele><time>2026-04-24T08:14:02.006Z</time></trkpt><trkpt lat="44.4083966" lon="7.8601449"><ele>343.66666666666663</ele><time>2026-04-24T08:14:03.002Z</time></trkpt><trkpt lat="44.4083206" lon="7.8602084"><ele>344.3333333333333</ele><time>2026-04-24T08:14:04.001Z</time></trkpt><trkpt lat="44.4082657" lon="7.8602699"><ele>345.0</ele><time>2026-04-24T08:14:04.999Z</time></trkpt><trkpt lat="44.4082171" lon="7.8603491"><ele>345.6666666666667</ele><time>2026-04-24T08:14:06.004Z</time></trkpt><trkpt lat="44.4081845" lon="7.8604435"><ele>346.33333333333337</ele><time>2026-04-24T08:14:07.002Z</time></trkpt><trkpt lat="44.4081463" lon="7.8605537"><ele>347.0</ele><time>2026-04-24T08:14:08.003Z</time></trkpt><trkpt lat="44.4081077" lon="7.8606443"><ele>347.0</ele><time>2026-04-24T08:14:08.999Z</time></trkpt><trkpt lat="44.4080696" lon="7.8607166"><ele>347.0</ele><time>2026-04-24T08:14:10.002Z</time></trkpt><trkpt lat="44.4079451" lon="7.8607944"><ele>347.0</ele><time>2026-04-24T08:14:11.998Z</time></trkpt><trkpt lat="44.407881" lon="7.8608174"><ele>347.0</ele><time>2026-04-24T08:14:13.004Z</time></trkpt><trkpt lat="44.4078167" lon="7.8608586"><ele>347.0</ele><time>2026-04-24T08:14:14.001Z</time></trkpt><trkpt lat="44.407746" lon="7.8609047"><ele>347.0</ele><time>2026-04-24T08:14:14.998Z</time></trkpt><trkpt lat="44.4076686" lon="7.8609249"><ele>349.6</ele><time>2026-04-24T08:14:15.998Z</time></trkpt><trkpt lat="44.407584" lon="7.8609498"><ele>352.20000000000005</ele><time>2026-04-24T08:14:17Z</time></trkpt><trkpt lat="44.4074946" lon="7.8609426"><ele>354.8</ele><time>2026-04-24T08:14:18.001Z</time></trkpt><trkpt lat="44.4073855" lon="7.8609507"><ele>357.4</ele><time>2026-04-24T08:14:19.003Z</time></trkpt><trkpt lat="44.4072829" lon="7.8609668"><ele>360.0</ele><time>2026-04-24T08:14:19.997Z</time></trkpt><trkpt lat="44.4071867" lon="7.8609866"><ele>367.0</ele><time>2026-04-24T08:14:21Z</time></trkpt><trkpt lat="44.4070806" lon="7.860995"><ele>374.0</ele><time>2026-04-24T08:14:22.001Z</time></trkpt><trkpt lat="44.406973" lon="7.8609967"><ele>381.0</ele><time>2026-04-24T08:14:23Z</time></trkpt><trkpt lat="44.4068884" lon="7.861002"><ele>388.0</ele><time>2026-04-24T08:14:24Z</time></trkpt><trkpt lat="44.4068088" lon="7.8610115"><ele>395.0</ele><time>2026-04-24T08:14:25.008Z</time></trkpt><trkpt lat="44.4067182" lon="7.8610219"><ele>395.0</ele><time>2026-04-24T08:14:26.001Z</time></trkpt><trkpt lat="44.4066049" lon="7.8610143"><ele>395.0</ele><time>2026-04-24T08:14:26.996Z</time></trkpt><trkpt lat="44.4065021" lon="7.8610241"><ele>395.0</ele><time>2026-04-24T08:14:28.001Z</time></trkpt><trkpt lat="44.4064146" lon="7.8610458"><ele>395.0</ele><time>2026-04-24T08:14:29.002Z</time></trkpt><trkpt lat="44.4063381" lon="7.8610192"><ele>395.0</ele><time>2026-04-24T08:14:29.998Z</time></trkpt><trkpt lat="44.4062199" lon="7.8609526"><ele>391.0</ele><time>2026-04-24T08:14:32.005Z</time></trkpt><trkpt lat="44.406154" lon="7.8609133"><ele>387.0</ele><time>2026-04-24T08:14:33.003Z</time></trkpt><trkpt lat="44.4060773" lon="7.8608649"><ele>383.0</ele><time>2026-04-24T08:14:34.001Z</time></trkpt><trkpt lat="44.4059872" lon="7.8607482"><ele>379.0</ele><time>2026-04-24T08:14:36.001Z</time></trkpt><trkpt lat="44.4059037" lon="7.8606785"><ele>375.0</ele><time>2026-04-24T08:14:38.001Z</time></trkpt><trkpt lat="44.4058004" lon="7.8605979"><ele>375.0</ele><time>2026-04-24T08:14:39.998Z</time></trkpt><trkpt lat="44.405738" lon="7.860558"><ele>375.0</ele><time>2026-04-24T08:14:41.012Z</time></trkpt><trkpt lat="44.4056636" lon="7.8605205"><ele>375.0</ele><time>2026-04-24T08:14:42.003Z</time></trkpt><trkpt lat="44.4055582" lon="7.8605029"><ele>375.0</ele><time>2026-04-24T08:14:43.998Z</time></trkpt><trkpt lat="44.4054429" lon="7.8605138"><ele>375.0</ele><time>2026-04-24T08:14:45.997Z</time></trkpt><trkpt lat="44.405351" lon="7.8604975"><ele>376.2</ele><time>2026-04-24T08:14:48.002Z</time></trkpt><trkpt lat="44.405238" lon="7.8604636"><ele>377.4</ele><time>2026-04-24T08:14:50.002Z</time></trkpt><trkpt lat="44.4051562" lon="7.8604071"><ele>378.6</ele><time>2026-04-24T08:14:51.002Z</time></trkpt><trkpt lat="44.4050957" lon="7.8603702"><ele>379.8</ele><time>2026-04-24T08:14:52.008Z</time></trkpt><trkpt lat="44.404971" lon="7.8602827"><ele>381.0</ele><time>2026-04-24T08:14:53.998Z</time></trkpt><trkpt lat="44.4048983" lon="7.86024"><ele>381.0</ele><time>2026-04-24T08:14:55.001Z</time></trkpt><trkpt lat="44.4047919" lon="7.8601621"><ele>381.0</ele><time>2026-04-24T08:14:56.997Z</time></trkpt><trkpt lat="44.4046923" lon="7.8601042"><ele>381.0</ele><time>2026-04-24T08:14:58.997Z</time></trkpt><trkpt lat="44.4046012" lon="7.8600499"><ele>381.0</ele><time>2026-04-24T08:15:00.997Z</time></trkpt><trkpt lat="44.4045365" lon="7.8600079"><ele>381.0</ele><time>2026-04-24T08:15:01.999Z</time></trkpt><trkpt lat="44.4044552" lon="7.859984"><ele>376.5</ele><time>2026-04-24T08:15:03.003Z</time></trkpt><trkpt lat="44.4043802" lon="7.8599496"><ele>372.0</ele><time>2026-04-24T08:15:04.002Z</time></trkpt><trkpt lat="44.4043004" lon="7.8599112"><ele>367.5</ele><time>2026-04-24T08:15:04.998Z</time></trkpt><trkpt lat="44.4042324" lon="7.8598822"><ele>363.0</ele><time>2026-04-24T08:15:06.004Z</time></trkpt><trkpt lat="44.4041208" lon="7.8598782"><ele>358.5</ele><time>2026-04-24T08:15:07.999Z</time></trkpt><trkpt lat="44.404039" lon="7.8598817"><ele>354.0</ele><time>2026-04-24T08:15:10.005Z</time></trkpt><trkpt lat="44.4039519" lon="7.8599052"><ele>354.0</ele><time>2026-04-24T08:15:19.998Z</time></trkpt><trkpt lat="44.4038501" lon="7.8599604"><ele>354.0</ele><time>2026-04-24T08:15:22.009Z</time></trkpt><trkpt lat="44.4037716" lon="7.8599673"><ele>354.0</ele><time>2026-04-24T08:15:24.003Z</time></trkpt><trkpt lat="44.4036801" lon="7.8599321"><ele>354.0</ele><time>2026-04-24T08:15:27.002Z</time></trkpt><trkpt lat="44.4035993" lon="7.8598389"><ele>354.0</ele><time>2026-04-24T08:15:28.997Z</time></trkpt><trkpt lat="44.4035224" lon="7.8597507"><ele>355.6</ele><time>2026-04-24T08:15:31.007Z</time></trkpt><trkpt lat="44.4034605" lon="7.8597198"><ele>357.2</ele><time>2026-04-24T08:15:33Z</time></trkpt><trkpt lat="44.4033741" lon="7.8597664"><ele>358.8</ele><time>2026-04-24T08:15:35.008Z</time></trkpt><trkpt lat="44.4032972" lon="7.8598885"><ele>360.40000000000003</ele><time>2026-04-24T08:15:37.004Z</time></trkpt><trkpt lat="44.4032359" lon="7.8599987"><ele>362.0</ele><time>2026-04-24T08:15:38.999Z</time></trkpt><trkpt lat="44.403184" lon="7.8601282"><ele>363.40000000000003</ele><time>2026-04-24T08:15:40.996Z</time></trkpt><trkpt lat="44.4031128" lon="7.860236"><ele>364.8</ele><time>2026-04-24T08:15:43.005Z</time></trkpt><trkpt lat="44.4030484" lon="7.8603645"><ele>366.2</ele><time>2026-04-24T08:15:45.005Z</time></trkpt><trkpt lat="44.4029633" lon="7.8604203"><ele>367.6</ele><time>2026-04-24T08:15:47Z</time></trkpt><trkpt lat="44.402835" lon="7.860405"><ele>369.0</ele><time>2026-04-24T08:15:49.004Z</time></trkpt><trkpt lat="44.4027483" lon="7.8603873"><ele>370.5</ele><time>2026-04-24T08:15:50.005Z</time></trkpt><trkpt lat="44.4026599" lon="7.8603735"><ele>372.0</ele><time>2026-04-24T08:15:51.013Z</time></trkpt><trkpt lat="44.4025762" lon="7.8603584"><ele>373.5</ele><time>2026-04-24T08:15:51.999Z</time></trkpt><trkpt lat="44.4024852" lon="7.8603563"><ele>375.0</ele><time>2026-04-24T08:15:53.002Z</time></trkpt><trkpt lat="44.40241" lon="7.8603531"><ele>376.5</ele><time>2026-04-24T08:15:54.002Z</time></trkpt><trkpt lat="44.402309" lon="7.8603444"><ele>378.0</ele><time>2026-04-24T08:15:55.997Z</time></trkpt><trkpt lat="44.4022221" lon="7.860292"><ele>377.8333333333333</ele><time>2026-04-24T08:15:58.001Z</time></trkpt><trkpt lat="44.402133" lon="7.8602099"><ele>377.6666666666667</ele><time>2026-04-24T08:15:59.003Z</time></trkpt><trkpt lat="44.4020602" lon="7.8601729"><ele>377.5</ele><time>2026-04-24T08:16:00.007Z</time></trkpt><trkpt lat="44.4019772" lon="7.8601469"><ele>377.33333333333337</ele><time>2026-04-24T08:16:01.996Z</time></trkpt><trkpt lat="44.4018897" lon="7.8601141"><ele>377.1666666666667</ele><time>2026-04-24T08:17:15.004Z</time></trkpt><trkpt lat="44.4018223" lon="7.8601352"><ele>377.0</ele><time>2026-04-24T08:17:17.999Z</time></trkpt><trkpt lat="44.4017417" lon="7.8601774"><ele>377.75</ele><time>2026-04-24T08:17:20.997Z</time></trkpt><trkpt lat="44.4015264" lon="7.8603136"><ele>378.5</ele><time>2026-04-24T08:17:22Z</time></trkpt><trkpt lat="44.4013945" lon="7.8603561"><ele>379.25</ele><time>2026-04-24T08:17:24.001Z</time></trkpt><trkpt lat="44.4013315" lon="7.860363"><ele>380.0</ele><time>2026-04-24T08:17:25.007Z</time></trkpt><trkpt lat="44.4012242" lon="7.8604049"><ele>381.83333333333337</ele><time>2026-04-24T08:17:26.002Z</time></trkpt><trkpt lat="44.4011458" lon="7.8604353"><ele>383.6666666666667</ele><time>2026-04-24T08:17:27.007Z</time></trkpt><trkpt lat="44.4010565" lon="7.8604604"><ele>385.5</ele><time>2026-04-24T08:17:28.001Z</time></trkpt><trkpt lat="44.4009722" lon="7.8605008"><ele>387.33333333333337</ele><time>2026-04-24T08:17:29.003Z</time></trkpt><trkpt lat="44.4009003" lon="7.8605362"><ele>389.1666666666667</ele><time>2026-04-24T08:17:30.003Z</time></trkpt><trkpt lat="44.4008357" lon="7.8605577"><ele>391.0</ele><time>2026-04-24T08:17:31.002Z</time></trkpt><trkpt lat="44.400731" lon="7.8605585"><ele>391.0</ele><time>2026-04-24T08:17:33.004Z</time></trkpt><trkpt lat="44.4006254" lon="7.8604933"><ele>391.0</ele><time>2026-04-24T08:17:35.002Z</time></trkpt><trkpt lat="44.4005601" lon="7.8604585"><ele>391.0</ele><time>2026-04-24T08:17:36.002Z</time></trkpt><trkpt lat="44.400437" lon="7.8603974"><ele>391.0</ele><time>2026-04-24T08:17:37.998Z</time></trkpt><trkpt lat="44.4003619" lon="7.8603511"><ele>391.0</ele><time>2026-04-24T08:17:38.998Z</time></trkpt><trkpt lat="44.4002921" lon="7.860324"><ele>393.8</ele><time>2026-04-24T08:17:39.997Z</time></trkpt><trkpt lat="44.4001737" lon="7.86029"><ele>396.6</ele><time>2026-04-24T08:17:42.008Z</time></trkpt><trkpt lat="44.4000956" lon="7.8602682"><ele>399.4</ele><time>2026-04-24T08:17:43.004Z</time></trkpt><trkpt lat="44.4000171" lon="7.8602487"><ele>402.2</ele><time>2026-04-24T08:17:43.998Z</time></trkpt><trkpt lat="44.3999328" lon="7.8602337"><ele>405.0</ele><time>2026-04-24T08:17:45.001Z</time></trkpt><trkpt lat="44.3998403" lon="7.8602349"><ele>405.0</ele><time>2026-04-24T08:17:46Z</time></trkpt><trkpt lat="44.3997505" lon="7.8602396"><ele>405.0</ele><time>2026-04-24T08:17:46.998Z</time></trkpt><trkpt lat="44.399666" lon="7.8602483"><ele>405.0</ele><time>2026-04-24T08:17:47.997Z</time></trkpt><trkpt lat="44.3995869" lon="7.8602514"><ele>405.0</ele><time>2026-04-24T08:17:49Z</time></trkpt><trkpt lat="44.399509" lon="7.8602435"><ele>405.0</ele><time>2026-04-24T08:17:50.01Z</time></trkpt><trkpt lat="44.3994371" lon="7.8602349"><ele>405.0</ele><time>2026-04-24T08:17:51Z</time></trkpt><trkpt lat="44.3993581" lon="7.8602101"><ele>406.0</ele><time>2026-04-24T08:17:52.003Z</time></trkpt><trkpt lat="44.3992886" lon="7.860172"><ele>407.0</ele><time>2026-04-24T08:17:52.997Z</time></trkpt><trkpt lat="44.3992145" lon="7.860117"><ele>408.0</ele><time>2026-04-24T08:17:54.998Z</time></trkpt><trkpt lat="44.3991035" lon="7.8600662"><ele>409.0</ele><time>2026-04-24T08:17:57.004Z</time></trkpt><trkpt lat="44.3990476" lon="7.8600209"><ele>410.0</ele><time>2026-04-24T08:18:16.998Z</time></trkpt><trkpt lat="44.3989578" lon="7.8599717"><ele>411.0</ele><time>2026-04-24T08:18:18.999Z</time></trkpt><trkpt lat="44.3988489" lon="7.8598428"><ele>412.8</ele><time>2026-04-24T08:18:21.006Z</time></trkpt><trkpt lat="44.3987819" lon="7.8597609"><ele>414.6</ele><time>2026-04-24T08:18:22.004Z</time></trkpt><trkpt lat="44.3987026" lon="7.859702"><ele>416.4</ele><time>2026-04-24T08:18:23.006Z</time></trkpt><trkpt lat="44.3986211" lon="7.8596364"><ele>418.2</ele><time>2026-04-24T08:18:23.999Z</time></trkpt><trkpt lat="44.3985265" lon="7.8595814"><ele>420.0</ele><time>2026-04-24T08:18:24.998Z</time></trkpt><trkpt lat="44.3984316" lon="7.859541"><ele>420.0</ele><time>2026-04-24T08:18:26.003Z</time></trkpt><trkpt lat="44.3983588" lon="7.8595145"><ele>420.0</ele><time>2026-04-24T08:18:26.999Z</time></trkpt><trkpt lat="44.3982835" lon="7.8594553"><ele>420.0</ele><time>2026-04-24T08:18:28.005Z</time></trkpt><trkpt lat="44.3982105" lon="7.8594053"><ele>420.0</ele><time>2026-04-24T08:18:29Z</time></trkpt><trkpt lat="44.3981421" lon="7.8593334"><ele>420.0</ele><time>2026-04-24T08:18:29.998Z</time></trkpt><trkpt lat="44.398083" lon="7.8592615"><ele>420.0</ele><time>2026-04-24T08:18:31.003Z</time></trkpt><trkpt lat="44.3980122" lon="7.8591858"><ele>419.4</ele><time>2026-04-24T08:18:32.001Z</time></trkpt><trkpt lat="44.3979375" lon="7.8591112"><ele>418.8</ele><time>2026-04-24T08:18:32.998Z</time></trkpt><trkpt lat="44.3978407" lon="7.8590152"><ele>418.20000000000005</ele><time>2026-04-24T08:18:34.003Z</time></trkpt><trkpt lat="44.3977529" lon="7.8589487"><ele>417.6</ele><time>2026-04-24T08:18:35Z</time></trkpt><trkpt lat="44.3976681" lon="7.858886"><ele>417.0</ele><time>2026-04-24T08:18:36.008Z</time></trkpt><trkpt lat="44.397585" lon="7.8588142"><ele>417.0</ele><time>2026-04-24T08:18:37.001Z</time></trkpt><trkpt lat="44.3975001" lon="7.8587343"><ele>417.0</ele><time>2026-04-24T08:18:38.006Z</time></trkpt><trkpt lat="44.3974052" lon="7.8586501"><ele>417.0</ele><time>2026-04-24T08:18:39.002Z</time></trkpt><trkpt lat="44.3973316" lon="7.8585867"><ele>417.0</ele><time>2026-04-24T08:18:40.002Z</time></trkpt><trkpt lat="44.3972538" lon="7.8585024"><ele>417.0</ele><time>2026-04-24T08:18:41.001Z</time></trkpt><trkpt lat="44.3971886" lon="7.858409"><ele>415.8</ele><time>2026-04-24T08:18:42.001Z</time></trkpt><trkpt lat="44.3971259" lon="7.8583022"><ele>414.6</ele><time>2026-04-24T08:18:43.006Z</time></trkpt><trkpt lat="44.3970534" lon="7.8581962"><ele>413.40000000000003</ele><time>2026-04-24T08:18:44Z</time></trkpt><trkpt lat="44.3969742" lon="7.8580954"><ele>412.20000000000005</ele><time>2026-04-24T08:18:45.001Z</time></trkpt><trkpt lat="44.3969136" lon="7.8580134"><ele>411.0</ele><time>2026-04-24T08:18:46.003Z</time></trkpt><trkpt lat="44.3968535" lon="7.8579419"><ele>411.0</ele><time>2026-04-24T08:18:46.998Z</time></trkpt><trkpt lat="44.3968" lon="7.8578848"><ele>411.0</ele><time>2026-04-24T08:18:48.007Z</time></trkpt><trkpt lat="44.3967345" lon="7.8578276"><ele>411.0</ele><time>2026-04-24T08:18:49Z</time></trkpt><trkpt lat="44.3966645" lon="7.8577585"><ele>411.0</ele><time>2026-04-24T08:18:50.001Z</time></trkpt><trkpt lat="44.3965873" lon="7.8576925"><ele>411.0</ele><time>2026-04-24T08:18:51.004Z</time></trkpt><trkpt lat="44.3965133" lon="7.8576441"><ele>411.0</ele><time>2026-04-24T08:18:52.004Z</time></trkpt><trkpt lat="44.3964288" lon="7.8576139"><ele>411.20000000000005</ele><time>2026-04-24T08:18:53.002Z</time></trkpt><trkpt lat="44.3963304" lon="7.8575799"><ele>411.40000000000003</ele><time>2026-04-24T08:18:54.003Z</time></trkpt><trkpt lat="44.3962359" lon="7.8575488"><ele>411.6</ele><time>2026-04-24T08:18:55.004Z</time></trkpt><trkpt lat="44.3961337" lon="7.8575076"><ele>411.8</ele><time>2026-04-24T08:18:56.001Z</time></trkpt><trkpt lat="44.3960315" lon="7.8574765"><ele>412.0</ele><time>2026-04-24T08:18:57Z</time></trkpt><trkpt lat="44.3959268" lon="7.8574451"><ele>412.00000000000006</ele><time>2026-04-24T08:18:58Z</time></trkpt><trkpt lat="44.3958386" lon="7.857412"><ele>412.0</ele><time>2026-04-24T08:18:59.001Z</time></trkpt><trkpt lat="44.3957363" lon="7.857364"><ele>412.0</ele><time>2026-04-24T08:19:00.001Z</time></trkpt><trkpt lat="44.3956595" lon="7.8573241"><ele>412.0</ele><time>2026-04-24T08:19:01.002Z</time></trkpt><trkpt lat="44.3955757" lon="7.8572872"><ele>412.00000000000006</ele><time>2026-04-24T08:19:02.002Z</time></trkpt><trkpt lat="44.3955085" lon="7.857253"><ele>412.0</ele><time>2026-04-24T08:19:03.004Z</time></trkpt><trkpt lat="44.3954325" lon="7.8572371"><ele>412.50000000000006</ele><time>2026-04-24T08:19:04.001Z</time></trkpt><trkpt lat="44.395352" lon="7.857208"><ele>413.0</ele><time>2026-04-24T08:19:05.003Z</time></trkpt><trkpt lat="44.3952712" lon="7.8571918"><ele>413.5</ele><time>2026-04-24T08:19:05.998Z</time></trkpt><trkpt lat="44.3951872" lon="7.8571816"><ele>414.0</ele><time>2026-04-24T08:19:07.001Z</time></trkpt><trkpt lat="44.3951086" lon="7.8571785"><ele>414.50000000000006</ele><time>2026-04-24T08:19:08.004Z</time></trkpt><trkpt lat="44.3950295" lon="7.8571857"><ele>415.0</ele><time>2026-04-24T08:19:09.005Z</time></trkpt><trkpt lat="44.3949541" lon="7.8572011"><ele>415.00000000000006</ele><time>2026-04-24T08:19:10.004Z</time></trkpt><trkpt lat="44.3948788" lon="7.8572717"><ele>415.0</ele><time>2026-04-24T08:19:10.999Z</time></trkpt><trkpt lat="44.3948056" lon="7.8573461"><ele>415.0</ele><time>2026-04-24T08:19:12.002Z</time></trkpt><trkpt lat="44.394734" lon="7.8574306"><ele>415.0</ele><time>2026-04-24T08:19:13.004Z</time></trkpt><trkpt lat="44.3946927" lon="7.8575007"><ele>415.00000000000006</ele><time>2026-04-24T08:19:14.002Z</time></trkpt><trkpt lat="44.3946591" lon="7.8575915"><ele>415.0</ele><time>2026-04-24T08:19:15.005Z</time></trkpt><trkpt lat="44.3946349" lon="7.8576953"><ele>414.42857142857144</ele><time>2026-04-24T08:19:16.002Z</time></trkpt><trkpt lat="44.3946107" lon="7.8577972"><ele>413.8571428571429</ele><time>2026-04-24T08:19:16.999Z</time></trkpt><trkpt lat="44.3945826" lon="7.8578996"><ele>413.2857142857143</ele><time>2026-04-24T08:19:18.007Z</time></trkpt><trkpt lat="44.3945655" lon="7.8579853"><ele>412.7142857142857</ele><time>2026-04-24T08:19:19Z</time></trkpt><trkpt lat="44.3945509" lon="7.85808"><ele>412.1428571428571</ele><time>2026-04-24T08:19:20.008Z</time></trkpt><trkpt lat="44.3945226" lon="7.8582003"><ele>411.57142857142856</ele><time>2026-04-24T08:19:21.004Z</time></trkpt><trkpt lat="44.3945027" lon="7.8582944"><ele>411.0</ele><time>2026-04-24T08:19:21.999Z</time></trkpt><trkpt lat="44.394523" lon="7.8584808"><ele>411.0</ele><time>2026-04-24T08:19:24Z</time></trkpt><trkpt lat="44.3945467" lon="7.858602"><ele>411.0</ele><time>2026-04-24T08:19:25.005Z</time></trkpt><trkpt lat="44.3945816" lon="7.8587448"><ele>411.0</ele><time>2026-04-24T08:19:26.002Z</time></trkpt><trkpt lat="44.394607" lon="7.8588796"><ele>411.0</ele><time>2026-04-24T08:19:26.999Z</time></trkpt><trkpt lat="44.3946261" lon="7.8589986"><ele>411.0</ele><time>2026-04-24T08:19:27.999Z</time></trkpt><trkpt lat="44.3946357" lon="7.8591107"><ele>411.0</ele><time>2026-04-24T08:19:29.001Z</time></trkpt><trkpt lat="44.3946496" lon="7.8592224"><ele>411.0</ele><time>2026-04-24T08:19:30Z</time></trkpt><trkpt lat="44.3946835" lon="7.8593276"><ele>411.0</ele><time>2026-04-24T08:19:30.997Z</time></trkpt><trkpt lat="44.3946823" lon="7.8594312"><ele>411.0</ele><time>2026-04-24T08:19:32.006Z</time></trkpt><trkpt lat="44.3946869" lon="7.8595256"><ele>411.0</ele><time>2026-04-24T08:19:33Z</time></trkpt><trkpt lat="44.3946956" lon="7.8596462"><ele>411.0</ele><time>2026-04-24T08:19:33.998Z</time></trkpt><trkpt lat="44.394706" lon="7.8597623"><ele>414.3333333333333</ele><time>2026-04-24T08:19:35.001Z</time></trkpt><trkpt lat="44.394716" lon="7.8598611"><ele>417.66666666666663</ele><time>2026-04-24T08:19:36.001Z</time></trkpt><trkpt lat="44.394723" lon="7.859949"><ele>421.0</ele><time>2026-04-24T08:19:37.002Z</time></trkpt><trkpt lat="44.394727" lon="7.8600562"><ele>424.3333333333333</ele><time>2026-04-24T08:19:38.999Z</time></trkpt><trkpt lat="44.3947473" lon="7.8602412"><ele>427.66666666666663</ele><time>2026-04-24T08:19:41.004Z</time></trkpt><trkpt lat="44.3947728" lon="7.8603325"><ele>431.0</ele><time>2026-04-24T08:19:42.015Z</time></trkpt><trkpt lat="44.3948158" lon="7.8604377"><ele>433.16666666666663</ele><time>2026-04-24T08:19:43.012Z</time></trkpt><trkpt lat="44.394829" lon="7.8605479"><ele>435.3333333333333</ele><time>2026-04-24T08:19:44.005Z</time></trkpt><trkpt lat="44.3948779" lon="7.8606504"><ele>437.5</ele><time>2026-04-24T08:19:45.001Z</time></trkpt><trkpt lat="44.3949271" lon="7.8607393"><ele>439.66666666666663</ele><time>2026-04-24T08:19:46.005Z</time></trkpt><trkpt lat="44.394976" lon="7.860824"><ele>441.8333333333333</ele><time>2026-04-24T08:19:47.002Z</time></trkpt><trkpt lat="44.3950041" lon="7.8609405"><ele>444.0</ele><time>2026-04-24T08:19:47.998Z</time></trkpt><trkpt lat="44.3950176" lon="7.8610273"><ele>446.4</ele><time>2026-04-24T08:19:49.001Z</time></trkpt><trkpt lat="44.3950454" lon="7.8611347"><ele>448.79999999999995</ele><time>2026-04-24T08:19:50.999Z</time></trkpt><trkpt lat="44.3950672" lon="7.8613097"><ele>451.20000000000005</ele><time>2026-04-24T08:20:50.999Z</time></trkpt><trkpt lat="44.3951084" lon="7.8614485"><ele>453.6</ele><time>2026-04-24T08:20:53.003Z</time></trkpt><trkpt lat="44.3951587" lon="7.8616066"><ele>456.0</ele><time>2026-04-24T08:20:55.005Z</time></trkpt><trkpt lat="44.3952006" lon="7.8616897"><ele>456.4</ele><time>2026-04-24T08:20:56.004Z</time></trkpt><trkpt lat="44.3952464" lon="7.8617994"><ele>456.8</ele><time>2026-04-24T08:20:56.997Z</time></trkpt><trkpt lat="44.3953028" lon="7.8619062"><ele>457.19999999999993</ele><time>2026-04-24T08:20:58Z</time></trkpt><trkpt lat="44.3953744" lon="7.8620191"><ele>457.59999999999997</ele><time>2026-04-24T08:20:58.999Z</time></trkpt><trkpt lat="44.3954265" lon="7.8620987"><ele>458.0</ele><time>2026-04-24T08:21:00.012Z</time></trkpt><trkpt lat="44.3954584" lon="7.8622126"><ele>457.99999999999994</ele><time>2026-04-24T08:21:01.003Z</time></trkpt><trkpt lat="44.3954775" lon="7.8623271"><ele>458.0</ele><time>2026-04-24T08:21:01.998Z</time></trkpt><trkpt lat="44.3955026" lon="7.8624672"><ele>458.0</ele><time>2026-04-24T08:21:03.005Z</time></trkpt><trkpt lat="44.3955085" lon="7.8625955"><ele>458.0</ele><time>2026-04-24T08:21:04.001Z</time></trkpt><trkpt lat="44.3955164" lon="7.8626981"><ele>457.99999999999994</ele><time>2026-04-24T08:21:04.999Z</time></trkpt><trkpt lat="44.3955273" lon="7.8627939"><ele>458.0</ele><time>2026-04-24T08:21:06Z</time></trkpt><trkpt lat="44.3955389" lon="7.8629271"><ele>462.25</ele><time>2026-04-24T08:21:07Z</time></trkpt><trkpt lat="44.3955428" lon="7.8630737"><ele>466.5</ele><time>2026-04-24T08:21:08Z</time></trkpt><trkpt lat="44.3955461" lon="7.8632419"><ele>470.75</ele><time>2026-04-24T08:21:09.001Z</time></trkpt><trkpt lat="44.3955603" lon="7.863428"><ele>475.0</ele><time>2026-04-24T08:21:10.002Z</time></trkpt><trkpt lat="44.3955668" lon="7.8635737"><ele>477.2</ele><time>2026-04-24T08:21:10.997Z</time></trkpt><trkpt lat="44.3955891" lon="7.8637052"><ele>479.4</ele><time>2026-04-24T08:21:12.002Z</time></trkpt><trkpt lat="44.3955891" lon="7.8638587"><ele>481.6</ele><time>2026-04-24T08:21:12.999Z</time></trkpt><trkpt lat="44.3955888" lon="7.8640068"><ele>483.8</ele><time>2026-04-24T08:21:14.003Z</time></trkpt><trkpt lat="44.3955682" lon="7.8641825"><ele>486.0</ele><time>2026-04-24T08:21:15.003Z</time></trkpt><trkpt lat="44.3955553" lon="7.8643665"><ele>484.5</ele><time>2026-04-24T08:21:16.002Z</time></trkpt><trkpt lat="44.3955366" lon="7.8645615"><ele>483.0</ele><time>2026-04-24T08:21:16.998Z</time></trkpt><trkpt lat="44.3955141" lon="7.8647373"><ele>481.5</ele><time>2026-04-24T08:21:18Z</time></trkpt><trkpt lat="44.395493" lon="7.8648938"><ele>480.0</ele><time>2026-04-24T08:21:19Z</time></trkpt><trkpt lat="44.3954786" lon="7.8650446"><ele>479.6</ele><time>2026-04-24T08:21:19.997Z</time></trkpt><trkpt lat="44.3954953" lon="7.8651809"><ele>479.2</ele><time>2026-04-24T08:21:21.002Z</time></trkpt><trkpt lat="44.3955202" lon="7.8653034"><ele>478.79999999999995</ele><time>2026-04-24T08:21:22Z</time></trkpt><trkpt lat="44.3955634" lon="7.8654256"><ele>478.4</ele><time>2026-04-24T08:21:23.002Z</time></trkpt><trkpt lat="44.395614" lon="7.865546"><ele>478.0</ele><time>2026-04-24T08:21:23.999Z</time></trkpt><trkpt lat="44.3956877" lon="7.865651"><ele>483.0</ele><time>2026-04-24T08:21:25Z</time></trkpt><trkpt lat="44.3957689" lon="7.8657821"><ele>488.0</ele><time>2026-04-24T08:21:26.004Z</time></trkpt><trkpt lat="44.3958758" lon="7.8659263"><ele>493.0</ele><time>2026-04-24T08:21:27Z</time></trkpt><trkpt lat="44.3959595" lon="7.8660459"><ele>498.0</ele><time>2026-04-24T08:21:28.02Z</time></trkpt><trkpt lat="44.3960467" lon="7.866185"><ele>498.0</ele><time>2026-04-24T08:21:29.002Z</time></trkpt><trkpt lat="44.3961277" lon="7.8663298"><ele>498.0</ele><time>2026-04-24T08:21:30.001Z</time></trkpt><trkpt lat="44.3962016" lon="7.8665227"><ele>498.0</ele><time>2026-04-24T08:21:31Z</time></trkpt><trkpt lat="44.3962824" lon="7.8667138"><ele>498.0</ele><time>2026-04-24T08:21:31.999Z</time></trkpt><trkpt lat="44.3963543" lon="7.8668647"><ele>502.0</ele><time>2026-04-24T08:21:33.009Z</time></trkpt><trkpt lat="44.3963996" lon="7.8669838"><ele>505.99999999999994</ele><time>2026-04-24T08:21:34Z</time></trkpt><trkpt lat="44.3964487" lon="7.8670928"><ele>509.99999999999994</ele><time>2026-04-24T08:21:35.001Z</time></trkpt><trkpt lat="44.3964959" lon="7.867218"><ele>514.0</ele><time>2026-04-24T08:21:36Z</time></trkpt><trkpt lat="44.3965377" lon="7.8673339"><ele>518.0</ele><time>2026-04-24T08:21:37.004Z</time></trkpt><trkpt lat="44.3965812" lon="7.8674475"><ele>518.0</ele><time>2026-04-24T08:21:38Z</time></trkpt><trkpt lat="44.3966274" lon="7.8675831"><ele>518.0</ele><time>2026-04-24T08:21:39.005Z</time></trkpt><trkpt lat="44.3966802" lon="7.8677311"><ele>518.0</ele><time>2026-04-24T08:21:40.002Z</time></trkpt><trkpt lat="44.3967466" lon="7.8678925"><ele>518.0</ele><time>2026-04-24T08:21:41Z</time></trkpt><trkpt lat="44.3968175" lon="7.8680466"><ele>515.75</ele><time>2026-04-24T08:21:42Z</time></trkpt><trkpt lat="44.3968738" lon="7.868197"><ele>513.5</ele><time>2026-04-24T08:21:43.002Z</time></trkpt><trkpt lat="44.3969238" lon="7.8683388"><ele>511.25</ele><time>2026-04-24T08:21:44.002Z</time></trkpt><trkpt lat="44.3969752" lon="7.868501"><ele>509.0</ele><time>2026-04-24T08:21:45.006Z</time></trkpt><trkpt lat="44.397009" lon="7.8686529"><ele>507.5</ele><time>2026-04-24T08:21:46.003Z</time></trkpt><trkpt lat="44.3970385" lon="7.8688072"><ele>506.0</ele><time>2026-04-24T08:21:47.004Z</time></trkpt><trkpt lat="44.3970543" lon="7.8689742"><ele>504.5</ele><time>2026-04-24T08:21:47.999Z</time></trkpt><trkpt lat="44.3970435" lon="7.8691455"><ele>503.0</ele><time>2026-04-24T08:21:49.004Z</time></trkpt><trkpt lat="44.3970194" lon="7.8693061"><ele>502.0</ele><time>2026-04-24T08:21:50.003Z</time></trkpt><trkpt lat="44.3969842" lon="7.8694527"><ele>501.0</ele><time>2026-04-24T08:21:51.005Z</time></trkpt><trkpt lat="44.3969643" lon="7.8696158"><ele>500.0</ele><time>2026-04-24T08:21:52.001Z</time></trkpt><trkpt lat="44.3969608" lon="7.8697968"><ele>499.0</ele><time>2026-04-24T08:21:53Z</time></trkpt><trkpt lat="44.3969617" lon="7.8699937"><ele>499.75</ele><time>2026-04-24T08:21:54.003Z</time></trkpt><trkpt lat="44.3969628" lon="7.8701908"><ele>500.5</ele><time>2026-04-24T08:21:55.004Z</time></trkpt><trkpt lat="44.3969603" lon="7.8703857"><ele>501.25</ele><time>2026-04-24T08:21:56.007Z</time></trkpt><trkpt lat="44.3969653" lon="7.8705779"><ele>502.0</ele><time>2026-04-24T08:21:57.004Z</time></trkpt><trkpt lat="44.3969621" lon="7.8707661"><ele>503.25</ele><time>2026-04-24T08:21:58.001Z</time></trkpt><trkpt lat="44.396954" lon="7.8709555"><ele>504.5</ele><time>2026-04-24T08:21:59.003Z</time></trkpt><trkpt lat="44.3969519" lon="7.8711388"><ele>505.75</ele><time>2026-04-24T08:22:00.002Z</time></trkpt><trkpt lat="44.3969576" lon="7.8713113"><ele>507.0</ele><time>2026-04-24T08:22:01.003Z</time></trkpt><trkpt lat="44.3969753" lon="7.8714796"><ele>507.0</ele><time>2026-04-24T08:22:02.004Z</time></trkpt><trkpt lat="44.3970045" lon="7.8716459"><ele>507.00000000000006</ele><time>2026-04-24T08:22:03.007Z</time></trkpt><trkpt lat="44.3970077" lon="7.8717918"><ele>507.00000000000006</ele><time>2026-04-24T08:22:04.001Z</time></trkpt><trkpt lat="44.3969961" lon="7.8719375"><ele>507.0</ele><time>2026-04-24T08:22:05.007Z</time></trkpt><trkpt lat="44.396979" lon="7.8720867"><ele>507.0</ele><time>2026-04-24T08:22:06.002Z</time></trkpt><trkpt lat="44.3969617" lon="7.8722373"><ele>509.25</ele><time>2026-04-24T08:22:07.004Z</time></trkpt><trkpt lat="44.3969403" lon="7.8723962"><ele>511.5</ele><time>2026-04-24T08:22:07.998Z</time></trkpt><trkpt lat="44.3969209" lon="7.8725581"><ele>513.75</ele><time>2026-04-24T08:22:08.999Z</time></trkpt><trkpt lat="44.3968877" lon="7.8727261"><ele>516.0</ele><time>2026-04-24T08:22:10.004Z</time></trkpt><trkpt lat="44.3968602" lon="7.8728891"><ele>518.0</ele><time>2026-04-24T08:22:11.005Z</time></trkpt><trkpt lat="44.3968283" lon="7.8730616"><ele>520.0</ele><time>2026-04-24T08:22:12Z</time></trkpt><trkpt lat="44.3967867" lon="7.8732303"><ele>522.0</ele><time>2026-04-24T08:22:13.005Z</time></trkpt><trkpt lat="44.3967448" lon="7.8733939"><ele>524.0</ele><time>2026-04-24T08:22:14.003Z</time></trkpt><trkpt lat="44.3967036" lon="7.8735492"><ele>526.2</ele><time>2026-04-24T08:22:14.999Z</time></trkpt><trkpt lat="44.3966713" lon="7.8736903"><ele>528.4</ele><time>2026-04-24T08:22:15.997Z</time></trkpt><trkpt lat="44.3966388" lon="7.8738229"><ele>530.6</ele><time>2026-04-24T08:22:16.999Z</time></trkpt><trkpt lat="44.3966098" lon="7.8739496"><ele>532.8</ele><time>2026-04-24T08:22:17.997Z</time></trkpt><trkpt lat="44.3965743" lon="7.8740683"><ele>535.0</ele><time>2026-04-24T08:22:19.003Z</time></trkpt><trkpt lat="44.3965301" lon="7.8741866"><ele>536.0</ele><time>2026-04-24T08:22:20.004Z</time></trkpt><trkpt lat="44.3964732" lon="7.8742964"><ele>537.0</ele><time>2026-04-24T08:22:20.998Z</time></trkpt><trkpt lat="44.3964166" lon="7.8743878"><ele>538.0</ele><time>2026-04-24T08:22:21.999Z</time></trkpt><trkpt lat="44.3963543" lon="7.8744973"><ele>539.0</ele><time>2026-04-24T08:22:22.999Z</time></trkpt><trkpt lat="44.3962714" lon="7.8746143"><ele>540.0</ele><time>2026-04-24T08:22:24.004Z</time></trkpt><trkpt lat="44.3961941" lon="7.8747287"><ele>540.0</ele><time>2026-04-24T08:22:24.999Z</time></trkpt><trkpt lat="44.3961142" lon="7.8748211"><ele>540.0</ele><time>2026-04-24T08:22:25.998Z</time></trkpt><trkpt lat="44.3960278" lon="7.8749133"><ele>540.0</ele><time>2026-04-24T08:22:26.999Z</time></trkpt><trkpt lat="44.3959495" lon="7.8750094"><ele>540.0</ele><time>2026-04-24T08:22:28.002Z</time></trkpt><trkpt lat="44.3958702" lon="7.8751195"><ele>540.0</ele><time>2026-04-24T08:22:29.007Z</time></trkpt><trkpt lat="44.3958114" lon="7.8752214"><ele>541.0</ele><time>2026-04-24T08:22:30.001Z</time></trkpt><trkpt lat="44.3957713" lon="7.8753365"><ele>542.0</ele><time>2026-04-24T08:22:31.008Z</time></trkpt><trkpt lat="44.3957164" lon="7.8754462"><ele>543.0</ele><time>2026-04-24T08:22:32Z</time></trkpt><trkpt lat="44.3956829" lon="7.8755483"><ele>544.0</ele><time>2026-04-24T08:22:33Z</time></trkpt><trkpt lat="44.3956277" lon="7.8756871"><ele>545.0</ele><time>2026-04-24T08:22:34.999Z</time></trkpt><trkpt lat="44.3955983" lon="7.8758246"><ele>544.3333333333333</ele><time>2026-04-24T08:22:36.999Z</time></trkpt><trkpt lat="44.3956402" lon="7.8759474"><ele>543.6666666666666</ele><time>2026-04-24T08:22:38.009Z</time></trkpt><trkpt lat="44.39563" lon="7.8760589"><ele>543.0</ele><time>2026-04-24T08:22:39.002Z</time></trkpt><trkpt lat="44.3956128" lon="7.876153"><ele>542.3333333333334</ele><time>2026-04-24T08:22:40.002Z</time></trkpt><trkpt lat="44.3955601" lon="7.8762521"><ele>541.6666666666667</ele><time>2026-04-24T08:22:41.001Z</time></trkpt><trkpt lat="44.3954887" lon="7.8763331"><ele>541.0</ele><time>2026-04-24T08:22:42.001Z</time></trkpt><trkpt lat="44.3954176" lon="7.876455"><ele>543.5</ele><time>2026-04-24T08:22:42.998Z</time></trkpt><trkpt lat="44.395332" lon="7.87662"><ele>546.0</ele><time>2026-04-24T08:22:44Z</time></trkpt><trkpt lat="44.3952533" lon="7.8767727"><ele>548.5</ele><time>2026-04-24T08:22:45.003Z</time></trkpt><trkpt lat="44.3952152" lon="7.8769318"><ele>551.0</ele><time>2026-04-24T08:22:45.999Z</time></trkpt><trkpt lat="44.3951768" lon="7.8771107"><ele>553.25</ele><time>2026-04-24T08:22:46.998Z</time></trkpt><trkpt lat="44.3951425" lon="7.8773064"><ele>555.5</ele><time>2026-04-24T08:22:47.999Z</time></trkpt><trkpt lat="44.3951454" lon="7.877497"><ele>557.75</ele><time>2026-04-24T08:22:49Z</time></trkpt><trkpt lat="44.3951819" lon="7.877663"><ele>560.0</ele><time>2026-04-24T08:22:49.998Z</time></trkpt><trkpt lat="44.395246" lon="7.8778089"><ele>561.0</ele><time>2026-04-24T08:22:50.999Z</time></trkpt><trkpt lat="44.3953221" lon="7.8779095"><ele>562.0</ele><time>2026-04-24T08:22:52Z</time></trkpt><trkpt lat="44.3953816" lon="7.8780157"><ele>563.0</ele><time>2026-04-24T08:22:52.997Z</time></trkpt><trkpt lat="44.3954005" lon="7.8781218"><ele>564.0</ele><time>2026-04-24T08:22:54.011Z</time></trkpt><trkpt lat="44.3953846" lon="7.8782164"><ele>565.0</ele><time>2026-04-24T08:22:55.002Z</time></trkpt><trkpt lat="44.395283" lon="7.878271"><ele>565.0</ele><time>2026-04-24T08:22:57.001Z</time></trkpt><trkpt lat="44.3952109" lon="7.8782292"><ele>565.0</ele><time>2026-04-24T08:22:58.005Z</time></trkpt><trkpt lat="44.3951245" lon="7.8781699"><ele>565.0</ele><time>2026-04-24T08:22:59.003Z</time></trkpt><trkpt lat="44.395038" lon="7.8781152"><ele>565.0</ele><time>2026-04-24T08:23:00.002Z</time></trkpt><trkpt lat="44.3949385" lon="7.878079"><ele>565.0</ele><time>2026-04-24T08:23:00.996Z</time></trkpt><trkpt lat="44.3948353" lon="7.8780464"><ele>565.0</ele><time>2026-04-24T08:23:02.001Z</time></trkpt><trkpt lat="44.3947278" lon="7.8780179"><ele>565.0</ele><time>2026-04-24T08:23:03Z</time></trkpt><trkpt lat="44.3946014" lon="7.8780023"><ele>565.0</ele><time>2026-04-24T08:23:04.006Z</time></trkpt><trkpt lat="44.3944805" lon="7.8779967"><ele>565.0</ele><time>2026-04-24T08:23:04.999Z</time></trkpt><trkpt lat="44.3943404" lon="7.8780424"><ele>566.6666666666667</ele><time>2026-04-24T08:23:06.006Z</time></trkpt><trkpt lat="44.3941971" lon="7.8780891"><ele>568.3333333333334</ele><time>2026-04-24T08:23:07.002Z</time></trkpt><trkpt lat="44.3940538" lon="7.8781493"><ele>570.0</ele><time>2026-04-24T08:23:08.001Z</time></trkpt><trkpt lat="44.3938859" lon="7.8782157"><ele>569.5</ele><time>2026-04-24T08:23:09.005Z</time></trkpt><trkpt lat="44.3937471" lon="7.8782649"><ele>569.0</ele><time>2026-04-24T08:23:10.003Z</time></trkpt><trkpt lat="44.3936183" lon="7.8783122"><ele>568.5</ele><time>2026-04-24T08:23:11.001Z</time></trkpt><trkpt lat="44.3934842" lon="7.8783742"><ele>568.0</ele><time>2026-04-24T08:23:12.008Z</time></trkpt><trkpt lat="44.3933515" lon="7.8784502"><ele>568.0</ele><time>2026-04-24T08:23:13.003Z</time></trkpt><trkpt lat="44.3932176" lon="7.8785438"><ele>568.0</ele><time>2026-04-24T08:23:14.002Z</time></trkpt><trkpt lat="44.3930821" lon="7.8786583"><ele>568.0</ele><time>2026-04-24T08:23:15Z</time></trkpt><trkpt lat="44.3929567" lon="7.8787951"><ele>570.0</ele><time>2026-04-24T08:23:16.002Z</time></trkpt><trkpt lat="44.3928451" lon="7.8789547"><ele>572.0</ele><time>2026-04-24T08:23:17.002Z</time></trkpt><trkpt lat="44.3927425" lon="7.8791436"><ele>574.0</ele><time>2026-04-24T08:23:18.003Z</time></trkpt><trkpt lat="44.3926357" lon="7.8793252"><ele>574.0</ele><time>2026-04-24T08:23:19.001Z</time></trkpt><trkpt lat="44.3925451" lon="7.8794894"><ele>574.0</ele><time>2026-04-24T08:23:20.002Z</time></trkpt><trkpt lat="44.3924474" lon="7.8796406"><ele>574.0</ele><time>2026-04-24T08:23:21.006Z</time></trkpt><trkpt lat="44.3923267" lon="7.8797647"><ele>574.0</ele><time>2026-04-24T08:23:22.001Z</time></trkpt><trkpt lat="44.3922011" lon="7.8798931"><ele>574.6666666666667</ele><time>2026-04-24T08:23:23.012Z</time></trkpt><trkpt lat="44.3920714" lon="7.8800345"><ele>575.3333333333334</ele><time>2026-04-24T08:23:24.003Z</time></trkpt><trkpt lat="44.3919464" lon="7.8801926"><ele>576.0</ele><time>2026-04-24T08:23:25Z</time></trkpt><trkpt lat="44.3918336" lon="7.8803754"><ele>576.0</ele><time>2026-04-24T08:23:26.003Z</time></trkpt><trkpt lat="44.3917168" lon="7.8805602"><ele>576.0</ele><time>2026-04-24T08:23:27.004Z</time></trkpt><trkpt lat="44.3915958" lon="7.8807526"><ele>576.0</ele><time>2026-04-24T08:23:28.004Z</time></trkpt><trkpt lat="44.3914768" lon="7.8809506"><ele>576.3333333333334</ele><time>2026-04-24T08:23:29.001Z</time></trkpt><trkpt lat="44.3913578" lon="7.8811506"><ele>576.6666666666667</ele><time>2026-04-24T08:23:29.999Z</time></trkpt><trkpt lat="44.3912381" lon="7.8813459"><ele>577.0</ele><time>2026-04-24T08:23:31Z</time></trkpt><trkpt lat="44.3911157" lon="7.8815339"><ele>577.0</ele><time>2026-04-24T08:23:32.004Z</time></trkpt><trkpt lat="44.3909985" lon="7.8817069"><ele>577.0</ele><time>2026-04-24T08:23:33.003Z</time></trkpt><trkpt lat="44.3908861" lon="7.8818616"><ele>577.0</ele><time>2026-04-24T08:23:34.007Z</time></trkpt><trkpt lat="44.390778" lon="7.8820111"><ele>578.5</ele><time>2026-04-24T08:23:35.001Z</time></trkpt><trkpt lat="44.3906873" lon="7.8821389"><ele>580.0</ele><time>2026-04-24T08:23:36.005Z</time></trkpt><trkpt lat="44.3906105" lon="7.8822481"><ele>581.5</ele><time>2026-04-24T08:23:38Z</time></trkpt><trkpt lat="44.3905518" lon="7.8824075"><ele>583.0</ele><time>2026-04-24T08:23:40.002Z</time></trkpt><trkpt lat="44.3905339" lon="7.8825576"><ele>584.5</ele><time>2026-04-24T08:23:42.004Z</time></trkpt><trkpt lat="44.39047" lon="7.8826584"><ele>586.0</ele><time>2026-04-24T08:23:44.004Z</time></trkpt><trkpt lat="44.3904183" lon="7.882709"><ele>587.5</ele><time>2026-04-24T08:23:45.008Z</time></trkpt><trkpt lat="44.3903387" lon="7.8827522"><ele>589.0</ele><time>2026-04-24T08:23:46.014Z</time></trkpt><trkpt lat="44.3902673" lon="7.8828035"><ele>590.5</ele><time>2026-04-24T08:23:47.006Z</time></trkpt><trkpt lat="44.3901959" lon="7.8828701"><ele>592.0</ele><time>2026-04-24T08:23:48.007Z</time></trkpt><trkpt lat="44.3901237" lon="7.8829452"><ele>592.0</ele><time>2026-04-24T08:23:49.009Z</time></trkpt><trkpt lat="44.3900696" lon="7.8830041"><ele>592.0</ele><time>2026-04-24T08:23:50.003Z</time></trkpt><trkpt lat="44.3899873" lon="7.8830855"><ele>592.0</ele><time>2026-04-24T08:23:51.998Z</time></trkpt><trkpt lat="44.3899339" lon="7.8831767"><ele>592.0</ele><time>2026-04-24T08:23:53.999Z</time></trkpt><trkpt lat="44.3898982" lon="7.8832594"><ele>592.0</ele><time>2026-04-24T08:23:58.003Z</time></trkpt><trkpt lat="44.3898331" lon="7.8833462"><ele>592.0</ele><time>2026-04-24T08:24:09.999Z</time></trkpt><trkpt lat="44.3897733" lon="7.8834181"><ele>593.0</ele><time>2026-04-24T08:24:12.997Z</time></trkpt><trkpt lat="44.3897137" lon="7.8834968"><ele>594.0</ele><time>2026-04-24T08:24:16.004Z</time></trkpt><trkpt lat="44.3896549" lon="7.8835392"><ele>595.0</ele><time>2026-04-24T08:24:17.007Z</time></trkpt><trkpt lat="44.3893159" lon="7.8838284"><ele>597.0</ele><time>2026-04-24T08:24:18Z</time></trkpt><trkpt lat="44.3892272" lon="7.8838477"><ele>599.0</ele><time>2026-04-24T08:24:19Z</time></trkpt><trkpt lat="44.3891291" lon="7.8838883"><ele>601.0</ele><time>2026-04-24T08:24:19.998Z</time></trkpt><trkpt lat="44.3890409" lon="7.883916"><ele>603.0</ele><time>2026-04-24T08:24:21.002Z</time></trkpt><trkpt lat="44.3889495" lon="7.8839509"><ele>605.0</ele><time>2026-04-24T08:24:22.003Z</time></trkpt><trkpt lat="44.3888643" lon="7.8839837"><ele>604.8333333333333</ele><time>2026-04-24T08:24:23.001Z</time></trkpt><trkpt lat="44.3887886" lon="7.8840027"><ele>604.6666666666666</ele><time>2026-04-24T08:24:24.005Z</time></trkpt><trkpt lat="44.3887063" lon="7.884042"><ele>604.5</ele><time>2026-04-24T08:24:24.999Z</time></trkpt><trkpt lat="44.3886232" lon="7.8841149"><ele>604.3333333333334</ele><time>2026-04-24T08:24:26.001Z</time></trkpt><trkpt lat="44.3885469" lon="7.8841934"><ele>604.1666666666667</ele><time>2026-04-24T08:24:26.999Z</time></trkpt><trkpt lat="44.3884876" lon="7.8842558"><ele>604.0</ele><time>2026-04-24T08:24:28Z</time></trkpt><trkpt lat="44.3884165" lon="7.8842875"><ele>605.1666666666667</ele><time>2026-04-24T08:24:28.998Z</time></trkpt><trkpt lat="44.388341" lon="7.8843389"><ele>606.3333333333334</ele><time>2026-04-24T08:24:30.001Z</time></trkpt><trkpt lat="44.3882607" lon="7.884377"><ele>607.5</ele><time>2026-04-24T08:24:31.005Z</time></trkpt><trkpt lat="44.3881732" lon="7.8844062"><ele>608.6666666666666</ele><time>2026-04-24T08:24:32.002Z</time></trkpt><trkpt lat="44.388083" lon="7.884427"><ele>609.8333333333333</ele><time>2026-04-24T08:24:33Z</time></trkpt><trkpt lat="44.3880035" lon="7.8844344"><ele>611.0</ele><time>2026-04-24T08:24:34Z</time></trkpt><trkpt lat="44.387939" lon="7.8844469"><ele>611.0</ele><time>2026-04-24T08:24:35.001Z</time></trkpt><trkpt lat="44.3878479" lon="7.8844867"><ele>611.0</ele><time>2026-04-24T08:24:37Z</time></trkpt><trkpt lat="44.3878046" lon="7.8845665"><ele>611.0</ele><time>2026-04-24T08:24:39.001Z</time></trkpt><trkpt lat="44.3878232" lon="7.884668"><ele>611.0</ele><time>2026-04-24T08:24:42.004Z</time></trkpt><trkpt lat="44.3879016" lon="7.8847066"><ele>611.0</ele><time>2026-04-24T08:24:44.005Z</time></trkpt><trkpt lat="44.3879693" lon="7.8847597"><ele>611.0</ele><time>2026-04-24T08:24:46Z</time></trkpt><trkpt lat="44.388035" lon="7.8848112"><ele>611.0</ele><time>2026-04-24T08:24:48.002Z</time></trkpt><trkpt lat="44.3880985" lon="7.8847551"><ele>611.0</ele><time>2026-04-24T08:25:00.002Z</time></trkpt><trkpt lat="44.388021" lon="7.8846979"><ele>611.0</ele><time>2026-04-24T08:25:03.006Z</time></trkpt><trkpt lat="44.387918" lon="7.8846621"><ele>611.0</ele><time>2026-04-24T08:25:05.005Z</time></trkpt><trkpt lat="44.3878475" lon="7.8846393"><ele>611.0</ele><time>2026-04-24T08:25:07.002Z</time></trkpt><trkpt lat="44.387801" lon="7.8847022"><ele>611.0</ele><time>2026-04-24T08:25:12.003Z</time></trkpt><trkpt lat="44.3878152" lon="7.8848182"><ele>609.8571428571429</ele><time>2026-04-24T08:25:15.007Z</time></trkpt><trkpt lat="44.3878249" lon="7.8849107"><ele>608.7142857142858</ele><time>2026-04-24T08:25:26.001Z</time></trkpt><trkpt lat="44.3878412" lon="7.8850127"><ele>607.5714285714287</ele><time>2026-04-24T08:25:31.007Z</time></trkpt><trkpt lat="44.3878763" lon="7.8850961"><ele>606.4285714285714</ele><time>2026-04-24T08:25:34.007Z</time></trkpt><trkpt lat="44.3879218" lon="7.885179"><ele>605.2857142857142</ele><time>2026-04-24T08:25:36.998Z</time></trkpt><trkpt lat="44.3879693" lon="7.8852643"><ele>604.1428571428572</ele><time>2026-04-24T08:25:39.999Z</time></trkpt><trkpt lat="44.3880105" lon="7.8853432"><ele>603.0</ele><time>2026-04-24T08:25:43.002Z</time></trkpt><trkpt lat="44.3880299" lon="7.8854415"><ele>603.0</ele><time>2026-04-24T08:25:46Z</time></trkpt><trkpt lat="44.3880183" lon="7.8855338"><ele>603.0</ele><time>2026-04-24T08:25:49.998Z</time></trkpt><trkpt lat="44.3879807" lon="7.8856097"><ele>603.0</ele><time>2026-04-24T08:26:00.001Z</time></trkpt><trkpt lat="44.3879542" lon="7.8857044"><ele>603.0</ele><time>2026-04-24T08:26:04.002Z</time></trkpt><trkpt lat="44.3878986" lon="7.8857959"><ele>603.0</ele><time>2026-04-24T08:26:08.005Z</time></trkpt><trkpt lat="44.3878529" lon="7.8858777"><ele>603.0</ele><time>2026-04-24T08:26:13.001Z</time></trkpt><trkpt lat="44.3878045" lon="7.8859634"><ele>603.0</ele><time>2026-04-24T08:26:16.999Z</time></trkpt><trkpt lat="44.3877585" lon="7.8860451"><ele>599.7142857142858</ele><time>2026-04-24T08:26:21.004Z</time></trkpt><trkpt lat="44.3877072" lon="7.8861205"><ele>596.4285714285713</ele><time>2026-04-24T08:26:25.004Z</time></trkpt><trkpt lat="44.3876544" lon="7.886181"><ele>593.1428571428571</ele><time>2026-04-24T08:26:29.004Z</time></trkpt><trkpt lat="44.3876078" lon="7.8862467"><ele>589.8571428571429</ele><time>2026-04-24T08:26:33.997Z</time></trkpt><trkpt lat="44.3875542" lon="7.8863114"><ele>586.5714285714287</ele><time>2026-04-24T08:26:38Z</time></trkpt><trkpt lat="44.3874992" lon="7.886372"><ele>583.2857142857143</ele><time>2026-04-24T08:26:42.997Z</time></trkpt><trkpt lat="44.387452" lon="7.8864324"><ele>580.0</ele><time>2026-04-24T08:26:59Z</time></trkpt><trkpt lat="44.3873952" lon="7.8865082"><ele>580.0</ele><time>2026-04-24T08:27:04.003Z</time></trkpt><trkpt lat="44.3873481" lon="7.8865729"><ele>580.0</ele><time>2026-04-24T08:27:08.001Z</time></trkpt><trkpt lat="44.3872991" lon="7.8866284"><ele>580.0</ele><time>2026-04-24T08:27:12Z</time></trkpt><trkpt lat="44.3872449" lon="7.8867014"><ele>580.0</ele><time>2026-04-24T08:27:16.005Z</time></trkpt><trkpt lat="44.3872004" lon="7.8867688"><ele>580.0</ele><time>2026-04-24T08:27:20.005Z</time></trkpt><trkpt lat="44.3871566" lon="7.8868377"><ele>580.0</ele><time>2026-04-24T08:27:29.996Z</time></trkpt><trkpt lat="44.3871108" lon="7.8868997"><ele>580.0</ele><time>2026-04-24T08:27:33.006Z</time></trkpt><trkpt lat="44.3870619" lon="7.8869656"><ele>579.0</ele><time>2026-04-24T08:27:36.002Z</time></trkpt><trkpt lat="44.3869984" lon="7.8870336"><ele>578.0</ele><time>2026-04-24T08:27:40.002Z</time></trkpt><trkpt lat="44.3869183" lon="7.8870775"><ele>577.0</ele><time>2026-04-24T08:27:44.01Z</time></trkpt><trkpt lat="44.3868541" lon="7.8871227"><ele>576.0</ele><time>2026-04-24T08:27:47Z</time></trkpt><trkpt lat="44.3867964" lon="7.8871832"><ele>575.0</ele><time>2026-04-24T08:27:59.006Z</time></trkpt><trkpt lat="44.3867122" lon="7.8872925"><ele>574.0</ele><time>2026-04-24T08:28:01.002Z</time></trkpt><trkpt lat="44.3866365" lon="7.8873831"><ele>574.0</ele><time>2026-04-24T08:28:03.004Z</time></trkpt><trkpt lat="44.3865854" lon="7.8874368"><ele>574.0</ele><time>2026-04-24T08:28:05.007Z</time></trkpt><trkpt lat="44.3865368" lon="7.8875324"><ele>574.0</ele><time>2026-04-24T08:28:06.995Z</time></trkpt><trkpt lat="44.3865134" lon="7.8876228"><ele>574.0</ele><time>2026-04-24T08:28:08.008Z</time></trkpt><trkpt lat="44.3865029" lon="7.8877237"><ele>574.0</ele><time>2026-04-24T08:28:09.007Z</time></trkpt><trkpt lat="44.3865008" lon="7.8878304"><ele>574.0</ele><time>2026-04-24T08:28:10.007Z</time></trkpt><trkpt lat="44.3865" lon="7.8879473"><ele>574.0</ele><time>2026-04-24T08:28:11.004Z</time></trkpt><trkpt lat="44.3864985" lon="7.8880627"><ele>573.2</ele><time>2026-04-24T08:28:12.002Z</time></trkpt><trkpt lat="44.3864935" lon="7.8881842"><ele>572.4</ele><time>2026-04-24T08:28:13Z</time></trkpt><trkpt lat="44.3864859" lon="7.8883181"><ele>571.6</ele><time>2026-04-24T08:28:14.003Z</time></trkpt><trkpt lat="44.3864723" lon="7.8884587"><ele>570.8</ele><time>2026-04-24T08:28:15.003Z</time></trkpt><trkpt lat="44.3864544" lon="7.8886019"><ele>570.0</ele><time>2026-04-24T08:28:16.004Z</time></trkpt><trkpt lat="44.386439" lon="7.8887432"><ele>568.5</ele><time>2026-04-24T08:28:17.001Z</time></trkpt><trkpt lat="44.3864196" lon="7.8888848"><ele>567.0</ele><time>2026-04-24T08:28:18.007Z</time></trkpt><trkpt lat="44.3863861" lon="7.8890344"><ele>565.5</ele><time>2026-04-24T08:28:18.996Z</time></trkpt><trkpt lat="44.3863577" lon="7.8892"><ele>564.0</ele><time>2026-04-24T08:28:20.001Z</time></trkpt><trkpt lat="44.3863378" lon="7.8893746"><ele>563.25</ele><time>2026-04-24T08:28:20.999Z</time></trkpt><trkpt lat="44.3863118" lon="7.8895474"><ele>562.5</ele><time>2026-04-24T08:28:22.003Z</time></trkpt><trkpt lat="44.3862871" lon="7.8897175"><ele>561.75</ele><time>2026-04-24T08:28:22.999Z</time></trkpt><trkpt lat="44.3862622" lon="7.8898839"><ele>561.0</ele><time>2026-04-24T08:28:23.998Z</time></trkpt><trkpt lat="44.3862422" lon="7.8900531"><ele>560.5</ele><time>2026-04-24T08:28:25.004Z</time></trkpt><trkpt lat="44.3862227" lon="7.8902338"><ele>560.0</ele><time>2026-04-24T08:28:25.999Z</time></trkpt><trkpt lat="44.3862155" lon="7.8904188"><ele>559.5</ele><time>2026-04-24T08:28:27.003Z</time></trkpt><trkpt lat="44.3862194" lon="7.8906031"><ele>559.0</ele><time>2026-04-24T08:28:28.001Z</time></trkpt><trkpt lat="44.386233" lon="7.8907821"><ele>558.0</ele><time>2026-04-24T08:28:28.998Z</time></trkpt><trkpt lat="44.386253" lon="7.8909438"><ele>557.0</ele><time>2026-04-24T08:28:29.999Z</time></trkpt><trkpt lat="44.3862731" lon="7.8911002"><ele>556.0</ele><time>2026-04-24T08:28:30.998Z</time></trkpt><trkpt lat="44.3862892" lon="7.8912435"><ele>555.0</ele><time>2026-04-24T08:28:31.998Z</time></trkpt><trkpt lat="44.3863115" lon="7.891376"><ele>554.0</ele><time>2026-04-24T08:28:33.013Z</time></trkpt><trkpt lat="44.386336" lon="7.8914989"><ele>554.0</ele><time>2026-04-24T08:28:34.005Z</time></trkpt><trkpt lat="44.3863662" lon="7.8916047"><ele>554.0</ele><time>2026-04-24T08:28:34.997Z</time></trkpt><trkpt lat="44.3864" lon="7.891705"><ele>554.0</ele><time>2026-04-24T08:28:36.001Z</time></trkpt><trkpt lat="44.3864277" lon="7.8918068"><ele>554.0</ele><time>2026-04-24T08:28:37.007Z</time></trkpt><trkpt lat="44.3864595" lon="7.8919247"><ele>554.0</ele><time>2026-04-24T08:28:37.999Z</time></trkpt><trkpt lat="44.3864763" lon="7.8920532"><ele>554.0</ele><time>2026-04-24T08:28:39.002Z</time></trkpt><trkpt lat="44.3864657" lon="7.8921912"><ele>554.5</ele><time>2026-04-24T08:28:40.001Z</time></trkpt><trkpt lat="44.3864714" lon="7.8923445"><ele>555.0</ele><time>2026-04-24T08:28:41Z</time></trkpt><trkpt lat="44.3864866" lon="7.8925074"><ele>555.5</ele><time>2026-04-24T08:28:41.999Z</time></trkpt><trkpt lat="44.3865322" lon="7.8926824"><ele>556.0</ele><time>2026-04-24T08:28:43.004Z</time></trkpt><trkpt lat="44.3865619" lon="7.8928538"><ele>557.0</ele><time>2026-04-24T08:28:44.001Z</time></trkpt><trkpt lat="44.3865656" lon="7.8930321"><ele>558.0</ele><time>2026-04-24T08:28:45.004Z</time></trkpt><trkpt lat="44.3865525" lon="7.8932048"><ele>559.0</ele><time>2026-04-24T08:28:45.999Z</time></trkpt><trkpt lat="44.3865352" lon="7.8933512"><ele>560.0</ele><time>2026-04-24T08:28:47.001Z</time></trkpt><trkpt lat="44.3865021" lon="7.8935011"><ele>560.25</ele><time>2026-04-24T08:28:48.002Z</time></trkpt><trkpt lat="44.3864503" lon="7.8936542"><ele>560.5</ele><time>2026-04-24T08:28:49.004Z</time></trkpt><trkpt lat="44.3863845" lon="7.8938145"><ele>560.75</ele><time>2026-04-24T08:28:50.001Z</time></trkpt><trkpt lat="44.3862958" lon="7.8939602"><ele>561.0</ele><time>2026-04-24T08:28:51.001Z</time></trkpt><trkpt lat="44.3862045" lon="7.8940873"><ele>560.0</ele><time>2026-04-24T08:28:52.002Z</time></trkpt><trkpt lat="44.3861224" lon="7.8941849"><ele>559.0</ele><time>2026-04-24T08:28:52.997Z</time></trkpt><trkpt lat="44.3860514" lon="7.8942866"><ele>558.0</ele><time>2026-04-24T08:28:54Z</time></trkpt><trkpt lat="44.3859758" lon="7.8944057"><ele>557.0</ele><time>2026-04-24T08:28:55.002Z</time></trkpt><trkpt lat="44.3858859" lon="7.8945436"><ele>556.75</ele><time>2026-04-24T08:28:55.999Z</time></trkpt><trkpt lat="44.3857902" lon="7.8946867"><ele>556.5</ele><time>2026-04-24T08:28:57.001Z</time></trkpt><trkpt lat="44.3856827" lon="7.8948387"><ele>556.25</ele><time>2026-04-24T08:28:57.999Z</time></trkpt><trkpt lat="44.3855768" lon="7.8949891"><ele>556.0</ele><time>2026-04-24T08:28:59Z</time></trkpt><trkpt lat="44.3854712" lon="7.8951329"><ele>559.0</ele><time>2026-04-24T08:29:02.438Z</time></trkpt><trkpt lat="44.3850173" lon="7.8955621"><ele>559.0</ele><time>2026-04-24T08:29:03.998Z</time></trkpt><trkpt lat="44.3849082" lon="7.8956364"><ele>559.0</ele><time>2026-04-24T08:29:05.004Z</time></trkpt><trkpt lat="44.384785" lon="7.8956851"><ele>559.0</ele><time>2026-04-24T08:29:06.001Z</time></trkpt><trkpt lat="44.3846558" lon="7.8957361"><ele>559.0</ele><time>2026-04-24T08:29:07.01Z</time></trkpt><trkpt lat="44.3845468" lon="7.8957986"><ele>557.0</ele><time>2026-04-24T08:29:07.999Z</time></trkpt><trkpt lat="44.3844419" lon="7.8958532"><ele>555.0</ele><time>2026-04-24T08:29:09.004Z</time></trkpt><trkpt lat="44.3843357" lon="7.8958949"><ele>553.0</ele><time>2026-04-24T08:29:10.005Z</time></trkpt><trkpt lat="44.3842416" lon="7.8959083"><ele>551.0</ele><time>2026-04-24T08:29:11.001Z</time></trkpt><trkpt lat="44.384099" lon="7.8959107"><ele>551.0</ele><time>2026-04-24T08:29:12.005Z</time></trkpt><trkpt lat="44.3839924" lon="7.8959059"><ele>551.0</ele><time>2026-04-24T08:29:13.003Z</time></trkpt><trkpt lat="44.3838784" lon="7.8958955"><ele>551.0</ele><time>2026-04-24T08:29:14.011Z</time></trkpt><trkpt lat="44.3837594" lon="7.8959039"><ele>551.0</ele><time>2026-04-24T08:29:15.002Z</time></trkpt><trkpt lat="44.3836526" lon="7.8959198"><ele>551.0</ele><time>2026-04-24T08:29:16.002Z</time></trkpt><trkpt lat="44.3835558" lon="7.8959257"><ele>550.8</ele><time>2026-04-24T08:29:17.004Z</time></trkpt><trkpt lat="44.3834652" lon="7.8959405"><ele>550.6</ele><time>2026-04-24T08:29:18.003Z</time></trkpt><trkpt lat="44.3833837" lon="7.8959586"><ele>550.4</ele><time>2026-04-24T08:29:19.006Z</time></trkpt><trkpt lat="44.3832954" lon="7.8959853"><ele>550.2</ele><time>2026-04-24T08:29:20.003Z</time></trkpt><trkpt lat="44.3832002" lon="7.8960054"><ele>550.0</ele><time>2026-04-24T08:29:21.006Z</time></trkpt><trkpt lat="44.3831058" lon="7.89602"><ele>550.0</ele><time>2026-04-24T08:29:22.006Z</time></trkpt><trkpt lat="44.3830179" lon="7.8960391"><ele>550.0</ele><time>2026-04-24T08:29:23Z</time></trkpt><trkpt lat="44.3829386" lon="7.8960791"><ele>550.0</ele><time>2026-04-24T08:29:24.006Z</time></trkpt><trkpt lat="44.3828672" lon="7.896137"><ele>550.0</ele><time>2026-04-24T08:29:25.001Z</time></trkpt><trkpt lat="44.3828027" lon="7.8962036"><ele>550.0</ele><time>2026-04-24T08:29:26.015Z</time></trkpt><trkpt lat="44.3827296" lon="7.8962769"><ele>550.0</ele><time>2026-04-24T08:29:27.001Z</time></trkpt><trkpt lat="44.3826629" lon="7.8963559"><ele>550.3333333333334</ele><time>2026-04-24T08:29:28.003Z</time></trkpt><trkpt lat="44.3826019" lon="7.8964517"><ele>550.6666666666667</ele><time>2026-04-24T08:29:29.001Z</time></trkpt><trkpt lat="44.3825551" lon="7.8965631"><ele>551.0</ele><time>2026-04-24T08:29:30.004Z</time></trkpt><trkpt lat="44.3825079" lon="7.8966601"><ele>551.3333333333334</ele><time>2026-04-24T08:29:31.008Z</time></trkpt><trkpt lat="44.3824589" lon="7.896752"><ele>551.6666666666666</ele><time>2026-04-24T08:29:32.001Z</time></trkpt><trkpt lat="44.3824029" lon="7.8968412"><ele>552.0</ele><time>2026-04-24T08:29:33.004Z</time></trkpt><trkpt lat="44.3823541" lon="7.8969071"><ele>550.8333333333334</ele><time>2026-04-24T08:29:34Z</time></trkpt><trkpt lat="44.3823034" lon="7.8969681"><ele>549.6666666666666</ele><time>2026-04-24T08:29:35.004Z</time></trkpt><trkpt lat="44.3822185" lon="7.8970619"><ele>548.5</ele><time>2026-04-24T08:29:37.005Z</time></trkpt><trkpt lat="44.3821369" lon="7.8970649"><ele>547.3333333333333</ele><time>2026-04-24T08:29:38.998Z</time></trkpt><trkpt lat="44.3820687" lon="7.8969608"><ele>546.1666666666666</ele><time>2026-04-24T08:29:41.003Z</time></trkpt><trkpt lat="44.3820363" lon="7.8968663"><ele>545.0</ele><time>2026-04-24T08:29:42.006Z</time></trkpt><trkpt lat="44.382005" lon="7.8967507"><ele>542.6</ele><time>2026-04-24T08:29:43.016Z</time></trkpt><trkpt lat="44.3819729" lon="7.8966228"><ele>540.2</ele><time>2026-04-24T08:29:44.003Z</time></trkpt><trkpt lat="44.3819229" lon="7.8965013"><ele>537.8</ele><time>2026-04-24T08:29:45.002Z</time></trkpt><trkpt lat="44.381875" lon="7.8963631"><ele>535.4</ele><time>2026-04-24T08:29:46.004Z</time></trkpt><trkpt lat="44.3818232" lon="7.8962387"><ele>533.0</ele><time>2026-04-24T08:29:47.005Z</time></trkpt><trkpt lat="44.3817695" lon="7.896126"><ele>533.0</ele><time>2026-04-24T08:29:47.998Z</time></trkpt><trkpt lat="44.381709" lon="7.8960296"><ele>533.0</ele><time>2026-04-24T08:29:49.004Z</time></trkpt><trkpt lat="44.3816301" lon="7.8959249"><ele>533.0</ele><time>2026-04-24T08:29:50.001Z</time></trkpt><trkpt lat="44.3815507" lon="7.8958288"><ele>533.0</ele><time>2026-04-24T08:29:50.998Z</time></trkpt><trkpt lat="44.3814689" lon="7.8957534"><ele>533.0</ele><time>2026-04-24T08:29:52.002Z</time></trkpt><trkpt lat="44.3813813" lon="7.8956642"><ele>530.5</ele><time>2026-04-24T08:29:52.997Z</time></trkpt><trkpt lat="44.3813111" lon="7.8955966"><ele>528.0</ele><time>2026-04-24T08:29:54.003Z</time></trkpt><trkpt lat="44.3812433" lon="7.8955201"><ele>525.5</ele><time>2026-04-24T08:29:54.998Z</time></trkpt><trkpt lat="44.3811925" lon="7.8954341"><ele>523.0</ele><time>2026-04-24T08:29:56Z</time></trkpt><trkpt lat="44.3811588" lon="7.8953482"><ele>520.5</ele><time>2026-04-24T08:29:56.998Z</time></trkpt><trkpt lat="44.3811387" lon="7.8951959"><ele>518.0</ele><time>2026-04-24T08:29:59Z</time></trkpt><trkpt lat="44.3811307" lon="7.895072"><ele>518.0</ele><time>2026-04-24T08:30:01.001Z</time></trkpt><trkpt lat="44.3810762" lon="7.8950245"><ele>518.0</ele><time>2026-04-24T08:30:35.999Z</time></trkpt><trkpt lat="44.3810024" lon="7.8950002"><ele>518.0</ele><time>2026-04-24T08:30:49.003Z</time></trkpt><trkpt lat="44.3809215" lon="7.8949465"><ele>518.0</ele><time>2026-04-24T08:30:53.002Z</time></trkpt><trkpt lat="44.3808572" lon="7.8949266"><ele>518.0</ele><time>2026-04-24T08:30:55.001Z</time></trkpt><trkpt lat="44.3807806" lon="7.8949097"><ele>518.0</ele><time>2026-04-24T08:30:57.002Z</time></trkpt><trkpt lat="44.3806951" lon="7.8949038"><ele>518.0</ele><time>2026-04-24T08:30:59.002Z</time></trkpt><trkpt lat="44.3805949" lon="7.8949208"><ele>518.0</ele><time>2026-04-24T08:31:01.005Z</time></trkpt><trkpt lat="44.3804811" lon="7.8949424"><ele>518.0</ele><time>2026-04-24T08:31:03.006Z</time></trkpt><trkpt lat="44.3803559" lon="7.8949523"><ele>518.0</ele><time>2026-04-24T08:31:05.005Z</time></trkpt><trkpt lat="44.380236" lon="7.8949739"><ele>514.8</ele><time>2026-04-24T08:31:07.002Z</time></trkpt><trkpt lat="44.380128" lon="7.8950101"><ele>511.59999999999997</ele><time>2026-04-24T08:31:09.002Z</time></trkpt><trkpt lat="44.380048" lon="7.8950481"><ele>508.40000000000003</ele><time>2026-04-24T08:31:10.004Z</time></trkpt><trkpt lat="44.3799564" lon="7.8950925"><ele>505.20000000000005</ele><time>2026-04-24T08:31:11.995Z</time></trkpt><trkpt lat="44.3798762" lon="7.8951367"><ele>502.0</ele><time>2026-04-24T08:31:14.002Z</time></trkpt><trkpt lat="44.3798077" lon="7.8951669"><ele>501.00000000000006</ele><time>2026-04-24T08:31:16.004Z</time></trkpt><trkpt lat="44.3797436" lon="7.8951795"><ele>500.0</ele><time>2026-04-24T08:31:19.003Z</time></trkpt><trkpt lat="44.3796416" lon="7.8951854"><ele>499.0</ele><time>2026-04-24T08:31:22.004Z</time></trkpt><trkpt lat="44.3795743" lon="7.895189"><ele>498.0</ele><time>2026-04-24T08:31:23.002Z</time></trkpt><trkpt lat="44.3795054" lon="7.8951917"><ele>497.00000000000006</ele><time>2026-04-24T08:31:24.008Z</time></trkpt><trkpt lat="44.3794386" lon="7.8951962"><ele>496.0</ele><time>2026-04-24T08:31:25Z</time></trkpt><trkpt lat="44.3792759" lon="7.8952107"><ele>494.0</ele><time>2026-04-24T08:31:27.003Z</time></trkpt><trkpt lat="44.379202" lon="7.8952154"><ele>492.0</ele><time>2026-04-24T08:31:28.001Z</time></trkpt><trkpt lat="44.379081" lon="7.8951849"><ele>490.0</ele><time>2026-04-24T08:31:29.998Z</time></trkpt><trkpt lat="44.3789653" lon="7.8951401"><ele>488.0</ele><time>2026-04-24T08:31:32Z</time></trkpt><trkpt lat="44.3788615" lon="7.8950995"><ele>486.0</ele><time>2026-04-24T08:31:33.999Z</time></trkpt><trkpt lat="44.378775" lon="7.8950933"><ele>485.5</ele><time>2026-04-24T08:31:35.999Z</time></trkpt><trkpt lat="44.3786798" lon="7.8951071"><ele>485.0</ele><time>2026-04-24T08:31:38.005Z</time></trkpt><trkpt lat="44.3785986" lon="7.8951313"><ele>484.5</ele><time>2026-04-24T08:31:41.003Z</time></trkpt><trkpt lat="44.3785261" lon="7.895103"><ele>484.0</ele><time>2026-04-24T08:32:03.002Z</time></trkpt><trkpt lat="44.3784465" lon="7.89507"><ele>483.5</ele><time>2026-04-24T08:32:06.002Z</time></trkpt><trkpt lat="44.3783811" lon="7.89505"><ele>483.0</ele><time>2026-04-24T08:32:07.999Z</time></trkpt><trkpt lat="44.3783104" lon="7.8950346"><ele>482.59999999999997</ele><time>2026-04-24T08:32:10.004Z</time></trkpt><trkpt lat="44.3782381" lon="7.8949848"><ele>482.19999999999993</ele><time>2026-04-24T08:32:13.008Z</time></trkpt><trkpt lat="44.3781626" lon="7.894946"><ele>481.8</ele><time>2026-04-24T08:32:15.003Z</time></trkpt><trkpt lat="44.378045" lon="7.8949002"><ele>481.4</ele><time>2026-04-24T08:32:17.005Z</time></trkpt><trkpt lat="44.3779354" lon="7.8948624"><ele>481.0</ele><time>2026-04-24T08:32:19Z</time></trkpt><trkpt lat="44.3778221" lon="7.8948261"><ele>480.4</ele><time>2026-04-24T08:32:21.003Z</time></trkpt><trkpt lat="44.377711" lon="7.8947942"><ele>479.8</ele><time>2026-04-24T08:32:23.005Z</time></trkpt><trkpt lat="44.3775995" lon="7.8947564"><ele>479.19999999999993</ele><time>2026-04-24T08:32:24.999Z</time></trkpt><trkpt lat="44.3775087" lon="7.894745"><ele>478.59999999999997</ele><time>2026-04-24T08:32:27.003Z</time></trkpt><trkpt lat="44.3774044" lon="7.8947604"><ele>478.0</ele><time>2026-04-24T08:32:28.997Z</time></trkpt><trkpt lat="44.3773069" lon="7.8947696"><ele>478.00000000000006</ele><time>2026-04-24T08:32:31.005Z</time></trkpt><trkpt lat="44.3772304" lon="7.8947829"><ele>478.0</ele><time>2026-04-24T08:32:33.004Z</time></trkpt><trkpt lat="44.3771514" lon="7.8948224"><ele>478.0</ele><time>2026-04-24T08:32:35.002Z</time></trkpt><trkpt lat="44.3770907" lon="7.8948787"><ele>478.0</ele><time>2026-04-24T08:32:37.005Z</time></trkpt><trkpt lat="44.3770381" lon="7.8949885"><ele>478.00000000000006</ele><time>2026-04-24T08:32:40.003Z</time></trkpt><trkpt lat="44.3769863" lon="7.895087"><ele>478.0</ele><time>2026-04-24T08:32:42.002Z</time></trkpt><trkpt lat="44.3768839" lon="7.895125"><ele>478.7142857142858</ele><time>2026-04-24T08:32:44.005Z</time></trkpt><trkpt lat="44.3768171" lon="7.8951456"><ele>479.42857142857144</ele><time>2026-04-24T08:32:44.999Z</time></trkpt><trkpt lat="44.3767494" lon="7.8951714"><ele>480.14285714285717</ele><time>2026-04-24T08:32:46.003Z</time></trkpt><trkpt lat="44.376674" lon="7.8951913"><ele>480.8571428571429</ele><time>2026-04-24T08:32:46.997Z</time></trkpt><trkpt lat="44.3766075" lon="7.8952175"><ele>481.57142857142856</ele><time>2026-04-24T08:32:47.998Z</time></trkpt><trkpt lat="44.3765432" lon="7.8952452"><ele>482.2857142857143</ele><time>2026-04-24T08:32:49.005Z</time></trkpt><trkpt lat="44.3764771" lon="7.8952742"><ele>483.0</ele><time>2026-04-24T08:32:50.001Z</time></trkpt><trkpt lat="44.3764131" lon="7.8952801"><ele>481.2</ele><time>2026-04-24T08:32:51.009Z</time></trkpt><trkpt lat="44.3763001" lon="7.8953096"><ele>479.4</ele><time>2026-04-24T08:32:53.005Z</time></trkpt><trkpt lat="44.3762296" lon="7.8953363"><ele>477.59999999999997</ele><time>2026-04-24T08:32:54.002Z</time></trkpt><trkpt lat="44.376135" lon="7.8953719"><ele>475.79999999999995</ele><time>2026-04-24T08:32:55.004Z</time></trkpt><trkpt lat="44.3760501" lon="7.8954131"><ele>474.0</ele><time>2026-04-24T08:32:56.004Z</time></trkpt><trkpt lat="44.3759706" lon="7.8954591"><ele>474.0</ele><time>2026-04-24T08:32:57.003Z</time></trkpt><trkpt lat="44.3758773" lon="7.8955214"><ele>474.0</ele><time>2026-04-24T08:32:57.999Z</time></trkpt><trkpt lat="44.3757736" lon="7.8955956"><ele>474.0</ele><time>2026-04-24T08:32:59.001Z</time></trkpt><trkpt lat="44.3756868" lon="7.8956605"><ele>474.0</ele><time>2026-04-24T08:32:59.999Z</time></trkpt><trkpt lat="44.3755968" lon="7.895732"><ele>474.0</ele><time>2026-04-24T08:33:00.999Z</time></trkpt><trkpt lat="44.3755034" lon="7.8958027"><ele>473.4</ele><time>2026-04-24T08:33:02.001Z</time></trkpt><trkpt lat="44.3754061" lon="7.8958959"><ele>472.79999999999995</ele><time>2026-04-24T08:33:03.002Z</time></trkpt><trkpt lat="44.3753114" lon="7.8959829"><ele>472.20000000000005</ele><time>2026-04-24T08:33:04.008Z</time></trkpt><trkpt lat="44.3752307" lon="7.8960559"><ele>471.6</ele><time>2026-04-24T08:33:04.997Z</time></trkpt><trkpt lat="44.3751409" lon="7.8961367"><ele>471.0</ele><time>2026-04-24T08:33:06.002Z</time></trkpt><trkpt lat="44.375047" lon="7.8962347"><ele>471.0</ele><time>2026-04-24T08:33:07.001Z</time></trkpt><trkpt lat="44.3749587" lon="7.8963379"><ele>471.0</ele><time>2026-04-24T08:33:07.999Z</time></trkpt><trkpt lat="44.374877" lon="7.8964335"><ele>471.0</ele><time>2026-04-24T08:33:09.001Z</time></trkpt><trkpt lat="44.3748035" lon="7.8965246"><ele>471.0</ele><time>2026-04-24T08:33:10.007Z</time></trkpt><trkpt lat="44.3747488" lon="7.8965941"><ele>471.0</ele><time>2026-04-24T08:33:11.002Z</time></trkpt><trkpt lat="44.3746886" lon="7.8966965"><ele>470.0</ele><time>2026-04-24T08:33:13.001Z</time></trkpt><trkpt lat="44.3746371" lon="7.8967571"><ele>469.0</ele><time>2026-04-24T08:33:14.997Z</time></trkpt><trkpt lat="44.374557" lon="7.896745"><ele>468.0</ele><time>2026-04-24T08:33:18.002Z</time></trkpt><trkpt lat="44.3744944" lon="7.8967632"><ele>467.0</ele><time>2026-04-24T08:33:20.002Z</time></trkpt><trkpt lat="44.3743998" lon="7.8968324"><ele>466.0</ele><time>2026-04-24T08:33:21.998Z</time></trkpt><trkpt lat="44.3743412" lon="7.8969237"><ele>465.0</ele><time>2026-04-24T08:33:23.005Z</time></trkpt><trkpt lat="44.3742875" lon="7.897057"><ele>465.0</ele><time>2026-04-24T08:33:24.001Z</time></trkpt><trkpt lat="44.3742341" lon="7.897219"><ele>465.0</ele><time>2026-04-24T08:33:25.001Z</time></trkpt><trkpt lat="44.3741728" lon="7.8973914"><ele>465.0</ele><time>2026-04-24T08:33:25.999Z</time></trkpt><trkpt lat="44.3741115" lon="7.897574"><ele>465.0</ele><time>2026-04-24T08:33:27Z</time></trkpt><trkpt lat="44.3740468" lon="7.897764"><ele>466.66666666666663</ele><time>2026-04-24T08:33:28Z</time></trkpt><trkpt lat="44.3739786" lon="7.8979546"><ele>468.3333333333333</ele><time>2026-04-24T08:33:28.997Z</time></trkpt><trkpt lat="44.3739089" lon="7.8981473"><ele>470.0</ele><time>2026-04-24T08:33:29.998Z</time></trkpt><trkpt lat="44.3738432" lon="7.8983352"><ele>466.0</ele><time>2026-04-24T08:33:31.004Z</time></trkpt><trkpt lat="44.373774" lon="7.8985249"><ele>462.0</ele><time>2026-04-24T08:33:32.003Z</time></trkpt><trkpt lat="44.3737066" lon="7.8987098"><ele>458.0</ele><time>2026-04-24T08:33:33.001Z</time></trkpt><trkpt lat="44.373639" lon="7.8988878"><ele>454.0</ele><time>2026-04-24T08:33:34.01Z</time></trkpt><trkpt lat="44.3735783" lon="7.899063"><ele>454.0</ele><time>2026-04-24T08:33:34.998Z</time></trkpt><trkpt lat="44.3735158" lon="7.8992307"><ele>454.0</ele><time>2026-04-24T08:33:36.003Z</time></trkpt><trkpt lat="44.3734484" lon="7.8993953"><ele>454.0</ele><time>2026-04-24T08:33:37.001Z</time></trkpt><trkpt lat="44.3733802" lon="7.8995738"><ele>454.0</ele><time>2026-04-24T08:33:37.996Z</time></trkpt><trkpt lat="44.3733146" lon="7.8997585"><ele>455.5</ele><time>2026-04-24T08:33:39.004Z</time></trkpt><trkpt lat="44.37325" lon="7.8999429"><ele>457.0</ele><time>2026-04-24T08:33:39.999Z</time></trkpt><trkpt lat="44.3731886" lon="7.9001192"><ele>458.5</ele><time>2026-04-24T08:33:40.999Z</time></trkpt><trkpt lat="44.3731323" lon="7.9002892"><ele>460.0</ele><time>2026-04-24T08:33:42Z</time></trkpt><trkpt lat="44.373081" lon="7.90046"><ele>460.0</ele><time>2026-04-24T08:33:42.999Z</time></trkpt><trkpt lat="44.3730346" lon="7.900626"><ele>460.0</ele><time>2026-04-24T08:33:43.999Z</time></trkpt><trkpt lat="44.3729979" lon="7.9007944"><ele>460.0</ele><time>2026-04-24T08:33:45.003Z</time></trkpt><trkpt lat="44.3729688" lon="7.9009419"><ele>460.0</ele><time>2026-04-24T08:33:45.997Z</time></trkpt><trkpt lat="44.3729459" lon="7.9010794"><ele>457.6666666666667</ele><time>2026-04-24T08:33:47.008Z</time></trkpt><trkpt lat="44.3729113" lon="7.9012014"><ele>455.33333333333337</ele><time>2026-04-24T08:33:47.999Z</time></trkpt><trkpt lat="44.3728564" lon="7.9013106"><ele>453.0</ele><time>2026-04-24T08:33:48.999Z</time></trkpt><trkpt lat="44.3727885" lon="7.9013964"><ele>450.66666666666663</ele><time>2026-04-24T08:33:50.003Z</time></trkpt><trkpt lat="44.3727333" lon="7.9014839"><ele>448.3333333333333</ele><time>2026-04-24T08:33:51.002Z</time></trkpt><trkpt lat="44.3727133" lon="7.9015846"><ele>446.0</ele><time>2026-04-24T08:33:52.002Z</time></trkpt><trkpt lat="44.3727307" lon="7.9017023"><ele>445.25</ele><time>2026-04-24T08:33:53.001Z</time></trkpt><trkpt lat="44.3727807" lon="7.9018144"><ele>444.5</ele><time>2026-04-24T08:33:53.999Z</time></trkpt><trkpt lat="44.372846" lon="7.9019478"><ele>443.75</ele><time>2026-04-24T08:33:54.998Z</time></trkpt><trkpt lat="44.3728872" lon="7.902121"><ele>443.0</ele><time>2026-04-24T08:33:56.003Z</time></trkpt><trkpt lat="44.3729146" lon="7.9023108"><ele>443.0</ele><time>2026-04-24T08:33:56.999Z</time></trkpt><trkpt lat="44.3729254" lon="7.9025038"><ele>443.0</ele><time>2026-04-24T08:33:58.001Z</time></trkpt><trkpt lat="44.372926" lon="7.9027001"><ele>443.0</ele><time>2026-04-24T08:33:58.996Z</time></trkpt><trkpt lat="44.3729227" lon="7.9028987"><ele>443.0</ele><time>2026-04-24T08:34:00.002Z</time></trkpt><trkpt lat="44.3728992" lon="7.9031056"><ele>442.66666666666663</ele><time>2026-04-24T08:34:01.011Z</time></trkpt><trkpt lat="44.3728624" lon="7.9033222"><ele>442.33333333333337</ele><time>2026-04-24T08:34:02.002Z</time></trkpt><trkpt lat="44.3728237" lon="7.903538"><ele>442.0</ele><time>2026-04-24T08:34:02.998Z</time></trkpt><trkpt lat="44.3727674" lon="7.9037532"><ele>442.0</ele><time>2026-04-24T08:34:04.002Z</time></trkpt><trkpt lat="44.3727026" lon="7.9039607"><ele>442.0</ele><time>2026-04-24T08:34:05.004Z</time></trkpt><trkpt lat="44.372632" lon="7.9041688"><ele>442.0</ele><time>2026-04-24T08:34:06.006Z</time></trkpt><trkpt lat="44.372556" lon="7.904382"><ele>442.0</ele><time>2026-04-24T08:34:06.999Z</time></trkpt><trkpt lat="44.3724802" lon="7.9046063"><ele>442.0</ele><time>2026-04-24T08:34:08Z</time></trkpt><trkpt lat="44.3724015" lon="7.9048362"><ele>442.0</ele><time>2026-04-24T08:34:09Z</time></trkpt><trkpt lat="44.3723223" lon="7.9050601"><ele>441.6666666666667</ele><time>2026-04-24T08:34:10.002Z</time></trkpt><trkpt lat="44.3722436" lon="7.9052916"><ele>441.33333333333337</ele><time>2026-04-24T08:34:11.001Z</time></trkpt><trkpt lat="44.3721652" lon="7.9055165"><ele>441.0</ele><time>2026-04-24T08:34:11.996Z</time></trkpt><trkpt lat="44.372093" lon="7.9057414"><ele>439.33333333333337</ele><time>2026-04-24T08:34:13.003Z</time></trkpt><trkpt lat="44.3720355" lon="7.9059595"><ele>437.6666666666667</ele><time>2026-04-24T08:34:14.004Z</time></trkpt><trkpt lat="44.371996" lon="7.9061867"><ele>436.0</ele><time>2026-04-24T08:34:14.997Z</time></trkpt><trkpt lat="44.3719733" lon="7.9064288"><ele>436.0</ele><time>2026-04-24T08:34:16.008Z</time></trkpt><trkpt lat="44.371966" lon="7.9066736"><ele>436.0</ele><time>2026-04-24T08:34:17.001Z</time></trkpt><trkpt lat="44.3719726" lon="7.9069273"><ele>436.0</ele><time>2026-04-24T08:34:17.999Z</time></trkpt><trkpt lat="44.3719948" lon="7.9071897"><ele>435.33333333333337</ele><time>2026-04-24T08:34:19.002Z</time></trkpt><trkpt lat="44.3720422" lon="7.907454"><ele>434.66666666666663</ele><time>2026-04-24T08:34:20.001Z</time></trkpt><trkpt lat="44.3721015" lon="7.9077091"><ele>434.0</ele><time>2026-04-24T08:34:21.003Z</time></trkpt><trkpt lat="44.3721622" lon="7.9079692"><ele>433.0</ele><time>2026-04-24T08:34:22Z</time></trkpt><trkpt lat="44.3722219" lon="7.908225"><ele>432.0</ele><time>2026-04-24T08:34:23.005Z</time></trkpt><trkpt lat="44.3722824" lon="7.9084765"><ele>431.0</ele><time>2026-04-24T08:34:24Z</time></trkpt><trkpt lat="44.3723351" lon="7.9087239"><ele>428.66666666666663</ele><time>2026-04-24T08:34:24.995Z</time></trkpt><trkpt lat="44.3723864" lon="7.9089733"><ele>426.33333333333337</ele><time>2026-04-24T08:34:25.999Z</time></trkpt><trkpt lat="44.3724358" lon="7.9092069"><ele>424.0</ele><time>2026-04-24T08:34:26.998Z</time></trkpt><trkpt lat="44.3724823" lon="7.9094236"><ele>422.6666666666667</ele><time>2026-04-24T08:34:28.005Z</time></trkpt><trkpt lat="44.372526" lon="7.9096368"><ele>421.33333333333337</ele><time>2026-04-24T08:34:29.006Z</time></trkpt><trkpt lat="44.3725742" lon="7.9098533"><ele>420.0</ele><time>2026-04-24T08:34:29.998Z</time></trkpt><trkpt lat="44.3726213" lon="7.9100664"><ele>419.66666666666663</ele><time>2026-04-24T08:34:30.998Z</time></trkpt><trkpt lat="44.3726724" lon="7.910286"><ele>419.3333333333333</ele><time>2026-04-24T08:34:32Z</time></trkpt><trkpt lat="44.3727244" lon="7.9105136"><ele>419.0</ele><time>2026-04-24T08:34:32.999Z</time></trkpt><trkpt lat="44.3727747" lon="7.9107432"><ele>419.66666666666663</ele><time>2026-04-24T08:34:34.01Z</time></trkpt><trkpt lat="44.3728231" lon="7.910961"><ele>420.33333333333337</ele><time>2026-04-24T08:34:35.003Z</time></trkpt><trkpt lat="44.3728733" lon="7.9111826"><ele>421.0</ele><time>2026-04-24T08:34:36Z</time></trkpt><trkpt lat="44.3729277" lon="7.911412"><ele>421.0</ele><time>2026-04-24T08:34:36.996Z</time></trkpt><trkpt lat="44.372979" lon="7.9116472"><ele>421.0</ele><time>2026-04-24T08:34:37.997Z</time></trkpt><trkpt lat="44.3730289" lon="7.9118823"><ele>421.0</ele><time>2026-04-24T08:34:38.997Z</time></trkpt><trkpt lat="44.3730806" lon="7.912127"><ele>421.33333333333337</ele><time>2026-04-24T08:34:40.006Z</time></trkpt><trkpt lat="44.3731353" lon="7.9123743"><ele>421.66666666666663</ele><time>2026-04-24T08:34:40.999Z</time></trkpt><trkpt lat="44.3731908" lon="7.9126231"><ele>422.0</ele><time>2026-04-24T08:34:42.001Z</time></trkpt><trkpt lat="44.3732442" lon="7.9128657"><ele>422.66666666666663</ele><time>2026-04-24T08:34:43.008Z</time></trkpt><trkpt lat="44.373298" lon="7.9131112"><ele>423.33333333333337</ele><time>2026-04-24T08:34:44Z</time></trkpt><trkpt lat="44.3733488" lon="7.9133442"><ele>424.0</ele><time>2026-04-24T08:34:45.003Z</time></trkpt><trkpt lat="44.3733985" lon="7.9135697"><ele>425.33333333333337</ele><time>2026-04-24T08:34:46Z</time></trkpt><trkpt lat="44.3734505" lon="7.9137855"><ele>426.66666666666663</ele><time>2026-04-24T08:34:47.001Z</time></trkpt><trkpt lat="44.3735007" lon="7.9140133"><ele>428.0</ele><time>2026-04-24T08:34:47.997Z</time></trkpt><trkpt lat="44.373544" lon="7.9142434"><ele>429.0</ele><time>2026-04-24T08:34:48.997Z</time></trkpt><trkpt lat="44.3735899" lon="7.9144766"><ele>430.0</ele><time>2026-04-24T08:34:49.997Z</time></trkpt><trkpt lat="44.3736444" lon="7.9147145"><ele>431.0</ele><time>2026-04-24T08:34:51.001Z</time></trkpt><trkpt lat="44.3737008" lon="7.9149498"><ele>431.66666666666663</ele><time>2026-04-24T08:34:51.998Z</time></trkpt><trkpt lat="44.3737527" lon="7.9152017"><ele>432.33333333333337</ele><time>2026-04-24T08:34:52.999Z</time></trkpt><trkpt lat="44.3738079" lon="7.9154493"><ele>433.0</ele><time>2026-04-24T08:34:54.003Z</time></trkpt><trkpt lat="44.3738662" lon="7.9156991"><ele>432.0</ele><time>2026-04-24T08:34:54.998Z</time></trkpt><trkpt lat="44.3739175" lon="7.9159463"><ele>431.0</ele><time>2026-04-24T08:34:56.006Z</time></trkpt><trkpt lat="44.3739807" lon="7.9161882"><ele>430.0</ele><time>2026-04-24T08:34:57.003Z</time></trkpt><trkpt lat="44.3740446" lon="7.9164152"><ele>430.0</ele><time>2026-04-24T08:34:58.001Z</time></trkpt><trkpt lat="44.3741177" lon="7.9166443"><ele>430.0</ele><time>2026-04-24T08:34:58.999Z</time></trkpt><trkpt lat="44.3742042" lon="7.9168641"><ele>430.0</ele><time>2026-04-24T08:35:00Z</time></trkpt><trkpt lat="44.3742947" lon="7.9170788"><ele>432.0</ele><time>2026-04-24T08:35:01.004Z</time></trkpt><trkpt lat="44.3743846" lon="7.9172926"><ele>434.0</ele><time>2026-04-24T08:35:02.002Z</time></trkpt><trkpt lat="44.3744781" lon="7.9175052"><ele>436.0</ele><time>2026-04-24T08:35:02.998Z</time></trkpt><trkpt lat="44.3745749" lon="7.9177172"><ele>436.6666666666667</ele><time>2026-04-24T08:35:04.001Z</time></trkpt><trkpt lat="44.3746716" lon="7.9179306"><ele>437.33333333333337</ele><time>2026-04-24T08:35:04.996Z</time></trkpt><trkpt lat="44.3747678" lon="7.9181422"><ele>438.0</ele><time>2026-04-24T08:35:05.997Z</time></trkpt><trkpt lat="44.3748626" lon="7.9183564"><ele>436.33333333333337</ele><time>2026-04-24T08:35:06.999Z</time></trkpt><trkpt lat="44.3749636" lon="7.9185642"><ele>434.6666666666667</ele><time>2026-04-24T08:35:07.999Z</time></trkpt><trkpt lat="44.3750672" lon="7.9187696"><ele>433.0</ele><time>2026-04-24T08:35:09.002Z</time></trkpt><trkpt lat="44.3751731" lon="7.918973"><ele>433.0</ele><time>2026-04-24T08:35:10.002Z</time></trkpt><trkpt lat="44.3752784" lon="7.9191732"><ele>433.0</ele><time>2026-04-24T08:35:11.003Z</time></trkpt><trkpt lat="44.3753874" lon="7.9193711"><ele>433.0</ele><time>2026-04-24T08:35:12.003Z</time></trkpt><trkpt lat="44.3754919" lon="7.9195703"><ele>432.6666666666667</ele><time>2026-04-24T08:35:13.006Z</time></trkpt><trkpt lat="44.3756027" lon="7.9197688"><ele>432.33333333333337</ele><time>2026-04-24T08:35:14.003Z</time></trkpt><trkpt lat="44.3757133" lon="7.9199639"><ele>432.0</ele><time>2026-04-24T08:35:15.003Z</time></trkpt><trkpt lat="44.3758208" lon="7.9201536"><ele>433.0</ele><time>2026-04-24T08:35:15.999Z</time></trkpt><trkpt lat="44.3759287" lon="7.9203436"><ele>434.0</ele><time>2026-04-24T08:35:17.007Z</time></trkpt><trkpt lat="44.3760325" lon="7.920527"><ele>435.0</ele><time>2026-04-24T08:35:18.001Z</time></trkpt><trkpt lat="44.3761406" lon="7.9207096"><ele>435.0</ele><time>2026-04-24T08:35:19.002Z</time></trkpt><trkpt lat="44.3762455" lon="7.9208984"><ele>435.0</ele><time>2026-04-24T08:35:20.001Z</time></trkpt><trkpt lat="44.3763519" lon="7.9210862"><ele>435.0</ele><time>2026-04-24T08:35:21Z</time></trkpt><trkpt lat="44.3764603" lon="7.9212673"><ele>435.66666666666663</ele><time>2026-04-24T08:35:22.005Z</time></trkpt><trkpt lat="44.3765624" lon="7.9214486"><ele>436.3333333333333</ele><time>2026-04-24T08:35:22.998Z</time></trkpt><trkpt lat="44.3766616" lon="7.9216285"><ele>437.0</ele><time>2026-04-24T08:35:24.002Z</time></trkpt><trkpt lat="44.3767497" lon="7.9217943"><ele>437.75</ele><time>2026-04-24T08:35:25Z</time></trkpt><trkpt lat="44.3768323" lon="7.9219424"><ele>438.5</ele><time>2026-04-24T08:35:26.002Z</time></trkpt><trkpt lat="44.376906" lon="7.9220799"><ele>439.25</ele><time>2026-04-24T08:35:27.011Z</time></trkpt><trkpt lat="44.3769746" lon="7.9222049"><ele>440.0</ele><time>2026-04-24T08:35:28.004Z</time></trkpt><trkpt lat="44.3770412" lon="7.9223186"><ele>439.99999999999994</ele><time>2026-04-24T08:35:29.003Z</time></trkpt><trkpt lat="44.3771006" lon="7.9224168"><ele>440.0</ele><time>2026-04-24T08:35:30.001Z</time></trkpt><trkpt lat="44.3771519" lon="7.9225093"><ele>440.0</ele><time>2026-04-24T08:35:30.999Z</time></trkpt><trkpt lat="44.3772045" lon="7.922598"><ele>440.0</ele><time>2026-04-24T08:35:32Z</time></trkpt><trkpt lat="44.3772541" lon="7.9226793"><ele>439.99999999999994</ele><time>2026-04-24T08:35:33Z</time></trkpt><trkpt lat="44.3772787" lon="7.9227615"><ele>440.0</ele><time>2026-04-24T08:35:34.013Z</time></trkpt><trkpt lat="44.3772434" lon="7.9228999"><ele>440.0</ele><time>2026-04-24T08:35:36.003Z</time></trkpt><trkpt lat="44.3771837" lon="7.922965"><ele>440.0</ele><time>2026-04-24T08:35:37.003Z</time></trkpt><trkpt lat="44.3771133" lon="7.9230428"><ele>440.0</ele><time>2026-04-24T08:35:38.003Z</time></trkpt><trkpt lat="44.3770335" lon="7.9231423"><ele>440.0</ele><time>2026-04-24T08:35:38.999Z</time></trkpt><trkpt lat="44.376945" lon="7.9232427"><ele>440.0</ele><time>2026-04-24T08:35:39.998Z</time></trkpt><trkpt lat="44.3768501" lon="7.9233515"><ele>440.25</ele><time>2026-04-24T08:35:40.998Z</time></trkpt><trkpt lat="44.3767506" lon="7.9234695"><ele>440.5</ele><time>2026-04-24T08:35:42.001Z</time></trkpt><trkpt lat="44.3766521" lon="7.9235915"><ele>440.75</ele><time>2026-04-24T08:35:43.01Z</time></trkpt><trkpt lat="44.376554" lon="7.9237093"><ele>441.0</ele><time>2026-04-24T08:35:44.004Z</time></trkpt><trkpt lat="44.3764653" lon="7.9238195"><ele>441.0</ele><time>2026-04-24T08:35:44.999Z</time></trkpt><trkpt lat="44.3763709" lon="7.9239265"><ele>441.0</ele><time>2026-04-24T08:35:46.005Z</time></trkpt><trkpt lat="44.3762617" lon="7.9240497"><ele>441.0</ele><time>2026-04-24T08:35:47.004Z</time></trkpt><trkpt lat="44.3761452" lon="7.9241594"><ele>441.0</ele><time>2026-04-24T08:35:48.006Z</time></trkpt><trkpt lat="44.3760177" lon="7.9242787"><ele>442.5</ele><time>2026-04-24T08:35:49.002Z</time></trkpt><trkpt lat="44.3758912" lon="7.9243932"><ele>444.0</ele><time>2026-04-24T08:35:50.001Z</time></trkpt><trkpt lat="44.3757717" lon="7.9244881"><ele>445.5</ele><time>2026-04-24T08:35:51.001Z</time></trkpt><trkpt lat="44.3756594" lon="7.924567"><ele>447.0</ele><time>2026-04-24T08:35:52.001Z</time></trkpt><trkpt lat="44.3755596" lon="7.9246252"><ele>449.20000000000005</ele><time>2026-04-24T08:35:52.998Z</time></trkpt><trkpt lat="44.3754721" lon="7.9246577"><ele>451.40000000000003</ele><time>2026-04-24T08:35:54.002Z</time></trkpt><trkpt lat="44.3753714" lon="7.9246761"><ele>453.59999999999997</ele><time>2026-04-24T08:35:56.002Z</time></trkpt><trkpt lat="44.3753291" lon="7.9247603"><ele>455.79999999999995</ele><time>2026-04-24T08:35:59.006Z</time></trkpt><trkpt lat="44.3752808" lon="7.92489"><ele>458.0</ele><time>2026-04-24T08:36:25.002Z</time></trkpt><trkpt lat="44.3752896" lon="7.9250541"><ele>460.59999999999997</ele><time>2026-04-24T08:36:27.006Z</time></trkpt><trkpt lat="44.3753068" lon="7.9251446"><ele>463.19999999999993</ele><time>2026-04-24T08:36:28.011Z</time></trkpt><trkpt lat="44.3753293" lon="7.9252284"><ele>465.8</ele><time>2026-04-24T08:36:29.003Z</time></trkpt><trkpt lat="44.3753879" lon="7.925397"><ele>468.4</ele><time>2026-04-24T08:36:31.001Z</time></trkpt><trkpt lat="44.3754585" lon="7.9255499"><ele>471.0</ele><time>2026-04-24T08:36:32.998Z</time></trkpt><trkpt lat="44.375515" lon="7.9256323"><ele>472.0</ele><time>2026-04-24T08:36:33.999Z</time></trkpt><trkpt lat="44.3756147" lon="7.9257847"><ele>473.0</ele><time>2026-04-24T08:36:35.999Z</time></trkpt><trkpt lat="44.3756595" lon="7.9258981"><ele>474.0</ele><time>2026-04-24T08:36:37.001Z</time></trkpt><trkpt lat="44.37572" lon="7.9260076"><ele>475.0</ele><time>2026-04-24T08:36:38.003Z</time></trkpt><trkpt lat="44.3757765" lon="7.9261107"><ele>476.0</ele><time>2026-04-24T08:36:39.001Z</time></trkpt><trkpt lat="44.3758352" lon="7.9262075"><ele>476.0</ele><time>2026-04-24T08:36:40.003Z</time></trkpt><trkpt lat="44.3758979" lon="7.9263045"><ele>476.0</ele><time>2026-04-24T08:36:40.996Z</time></trkpt><trkpt lat="44.3759471" lon="7.9263981"><ele>476.0</ele><time>2026-04-24T08:36:42Z</time></trkpt><trkpt lat="44.3760108" lon="7.9264995"><ele>476.0</ele><time>2026-04-24T08:36:42.999Z</time></trkpt><trkpt lat="44.3760824" lon="7.926604"><ele>476.0</ele><time>2026-04-24T08:36:43.999Z</time></trkpt><trkpt lat="44.3761399" lon="7.9266824"><ele>475.75</ele><time>2026-04-24T08:36:45.001Z</time></trkpt><trkpt lat="44.3762345" lon="7.9267453"><ele>475.5</ele><time>2026-04-24T08:36:46.002Z</time></trkpt><trkpt lat="44.3763381" lon="7.9268501"><ele>475.25</ele><time>2026-04-24T08:36:48.002Z</time></trkpt><trkpt lat="44.3764362" lon="7.9269428"><ele>475.0</ele><time>2026-04-24T08:36:49.001Z</time></trkpt><trkpt lat="44.376533" lon="7.9270242"><ele>475.0</ele><time>2026-04-24T08:36:50.001Z</time></trkpt><trkpt lat="44.3766096" lon="7.9270692"><ele>475.0</ele><time>2026-04-24T08:36:51.003Z</time></trkpt><trkpt lat="44.3766867" lon="7.9271163"><ele>475.0</ele><time>2026-04-24T08:36:52.002Z</time></trkpt><trkpt lat="44.3767755" lon="7.927159"><ele>475.0</ele><time>2026-04-24T08:36:53.003Z</time></trkpt><trkpt lat="44.3768461" lon="7.92723"><ele>475.0</ele><time>2026-04-24T08:36:54.002Z</time></trkpt><trkpt lat="44.376919" lon="7.9273294"><ele>475.0</ele><time>2026-04-24T08:36:55.003Z</time></trkpt><trkpt lat="44.3770317" lon="7.9273982"><ele>475.0</ele><time>2026-04-24T08:36:56.003Z</time></trkpt><trkpt lat="44.3771059" lon="7.927475"><ele>475.0</ele><time>2026-04-24T08:36:57.001Z</time></trkpt><trkpt lat="44.3771652" lon="7.927562"><ele>475.0</ele><time>2026-04-24T08:36:58.007Z</time></trkpt><trkpt lat="44.3772267" lon="7.9276655"><ele>475.0</ele><time>2026-04-24T08:36:59.002Z</time></trkpt><trkpt lat="44.3773117" lon="7.9277718"><ele>474.83333333333337</ele><time>2026-04-24T08:37:00.003Z</time></trkpt><trkpt lat="44.3773694" lon="7.9278589"><ele>474.6666666666667</ele><time>2026-04-24T08:37:00.999Z</time></trkpt><trkpt lat="44.3774389" lon="7.927943"><ele>474.5</ele><time>2026-04-24T08:37:02.001Z</time></trkpt><trkpt lat="44.3774743" lon="7.9280561"><ele>474.33333333333337</ele><time>2026-04-24T08:37:03.003Z</time></trkpt><trkpt lat="44.3774726" lon="7.928168"><ele>474.1666666666667</ele><time>2026-04-24T08:37:04.002Z</time></trkpt><trkpt lat="44.3774911" lon="7.928271"><ele>474.0</ele><time>2026-04-24T08:37:04.999Z</time></trkpt><trkpt lat="44.3775344" lon="7.9283871"><ele>476.0</ele><time>2026-04-24T08:37:05.997Z</time></trkpt><trkpt lat="44.3775997" lon="7.9285008"><ele>478.0</ele><time>2026-04-24T08:37:07.001Z</time></trkpt><trkpt lat="44.3776567" lon="7.928632"><ele>480.0</ele><time>2026-04-24T08:37:08.003Z</time></trkpt><trkpt lat="44.3777164" lon="7.9287543"><ele>482.0</ele><time>2026-04-24T08:37:08.999Z</time></trkpt><trkpt lat="44.3777686" lon="7.928875"><ele>484.0</ele><time>2026-04-24T08:37:10.006Z</time></trkpt><trkpt lat="44.3778173" lon="7.9289807"><ele>484.0</ele><time>2026-04-24T08:37:11.001Z</time></trkpt><trkpt lat="44.3778534" lon="7.9290878"><ele>484.0</ele><time>2026-04-24T08:37:12.005Z</time></trkpt><trkpt lat="44.3778814" lon="7.9292117"><ele>484.0</ele><time>2026-04-24T08:37:13.003Z</time></trkpt><trkpt lat="44.3779014" lon="7.9293442"><ele>484.0</ele><time>2026-04-24T08:37:13.999Z</time></trkpt><trkpt lat="44.3779286" lon="7.9294715"><ele>484.0</ele><time>2026-04-24T08:37:15.006Z</time></trkpt><trkpt lat="44.3779555" lon="7.9296055"><ele>484.4</ele><time>2026-04-24T08:37:16.005Z</time></trkpt><trkpt lat="44.3779705" lon="7.9297403"><ele>484.79999999999995</ele><time>2026-04-24T08:37:16.999Z</time></trkpt><trkpt lat="44.3780071" lon="7.9298985"><ele>485.20000000000005</ele><time>2026-04-24T08:37:18.001Z</time></trkpt><trkpt lat="44.3780306" lon="7.9300286"><ele>485.6</ele><time>2026-04-24T08:37:18.997Z</time></trkpt><trkpt lat="44.378063" lon="7.9301532"><ele>486.0</ele><time>2026-04-24T08:37:20.006Z</time></trkpt><trkpt lat="44.378091" lon="7.9302854"><ele>483.6</ele><time>2026-04-24T08:37:21.004Z</time></trkpt><trkpt lat="44.3781529" lon="7.9304176"><ele>481.20000000000005</ele><time>2026-04-24T08:37:22.004Z</time></trkpt><trkpt lat="44.3781768" lon="7.9305432"><ele>478.79999999999995</ele><time>2026-04-24T08:37:22.998Z</time></trkpt><trkpt lat="44.3782046" lon="7.9306652"><ele>476.4</ele><time>2026-04-24T08:37:24.003Z</time></trkpt><trkpt lat="44.3782291" lon="7.9308051"><ele>474.0</ele><time>2026-04-24T08:37:25Z</time></trkpt><trkpt lat="44.3782453" lon="7.9309413"><ele>474.0</ele><time>2026-04-24T08:37:26.001Z</time></trkpt><trkpt lat="44.3782844" lon="7.9310955"><ele>474.0</ele><time>2026-04-24T08:37:27.01Z</time></trkpt><trkpt lat="44.3783203" lon="7.9312446"><ele>474.0</ele><time>2026-04-24T08:37:28.002Z</time></trkpt><trkpt lat="44.3783504" lon="7.931374"><ele>474.0</ele><time>2026-04-24T08:37:29.001Z</time></trkpt><trkpt lat="44.3783737" lon="7.9314914"><ele>474.0</ele><time>2026-04-24T08:37:29.999Z</time></trkpt><trkpt lat="44.3784352" lon="7.9316318"><ele>474.8333333333333</ele><time>2026-04-24T08:37:30.997Z</time></trkpt><trkpt lat="44.3784858" lon="7.9317555"><ele>475.66666666666663</ele><time>2026-04-24T08:37:31.996Z</time></trkpt><trkpt lat="44.3785085" lon="7.9318541"><ele>476.5</ele><time>2026-04-24T08:37:32.998Z</time></trkpt><trkpt lat="44.3785241" lon="7.9319591"><ele>477.3333333333333</ele><time>2026-04-24T08:37:34.006Z</time></trkpt><trkpt lat="44.3784696" lon="7.9320336"><ele>478.16666666666663</ele><time>2026-04-24T08:37:35Z</time></trkpt><trkpt lat="44.3784282" lon="7.9321035"><ele>479.0</ele><time>2026-04-24T08:37:35.999Z</time></trkpt><trkpt lat="44.3783812" lon="7.9321981"><ele>478.99999999999994</ele><time>2026-04-24T08:37:37Z</time></trkpt><trkpt lat="44.3783399" lon="7.9322887"><ele>479.0</ele><time>2026-04-24T08:37:37.998Z</time></trkpt><trkpt lat="44.3783184" lon="7.932398"><ele>479.0</ele><time>2026-04-24T08:37:39.007Z</time></trkpt><trkpt lat="44.3784343" lon="7.9324378"><ele>479.0</ele><time>2026-04-24T08:37:40.998Z</time></trkpt><trkpt lat="44.3785053" lon="7.9324425"><ele>478.99999999999994</ele><time>2026-04-24T08:37:43.003Z</time></trkpt><trkpt lat="44.378582" lon="7.9324513"><ele>479.0</ele><time>2026-04-24T08:38:18.999Z</time></trkpt><trkpt lat="44.3786516" lon="7.9324561"><ele>479.0</ele><time>2026-04-24T08:38:21.002Z</time></trkpt><trkpt lat="44.3787368" lon="7.9324656"><ele>479.0</ele><time>2026-04-24T08:38:24.001Z</time></trkpt><trkpt lat="44.378808" lon="7.9325163"><ele>479.0</ele><time>2026-04-24T08:38:27.005Z</time></trkpt><trkpt lat="44.3789239" lon="7.9325084"><ele>479.0</ele><time>2026-04-24T08:38:28.001Z</time></trkpt><trkpt lat="44.3794217" lon="7.9324913"><ele>477.1428571428571</ele><time>2026-04-24T08:38:29.001Z</time></trkpt><trkpt lat="44.3794856" lon="7.9324304"><ele>475.28571428571433</ele><time>2026-04-24T08:38:29.999Z</time></trkpt><trkpt lat="44.3795446" lon="7.932394"><ele>473.42857142857144</ele><time>2026-04-24T08:38:30.999Z</time></trkpt><trkpt lat="44.3796057" lon="7.9323015"><ele>471.57142857142856</ele><time>2026-04-24T08:38:33.004Z</time></trkpt><trkpt lat="44.3796789" lon="7.932279"><ele>469.71428571428567</ele><time>2026-04-24T08:38:34.003Z</time></trkpt><trkpt lat="44.3797423" lon="7.9322683"><ele>467.8571428571429</ele><time>2026-04-24T08:38:35.008Z</time></trkpt><trkpt lat="44.3798144" lon="7.9322606"><ele>466.0</ele><time>2026-04-24T08:38:36.001Z</time></trkpt><trkpt lat="44.3798693" lon="7.9323565"><ele>463.6666666666667</ele><time>2026-04-24T08:38:39.005Z</time></trkpt><trkpt lat="44.3799418" lon="7.9323328"><ele>461.33333333333337</ele><time>2026-04-24T08:38:41.002Z</time></trkpt><trkpt lat="44.3800031" lon="7.9322595"><ele>459.0</ele><time>2026-04-24T08:38:45.008Z</time></trkpt><trkpt lat="44.3800347" lon="7.9321811"><ele>456.66666666666663</ele><time>2026-04-24T08:38:46.995Z</time></trkpt><trkpt lat="44.3800303" lon="7.9320902"><ele>454.3333333333333</ele><time>2026-04-24T08:38:48.998Z</time></trkpt><trkpt lat="44.3800169" lon="7.9319662"><ele>452.0</ele><time>2026-04-24T08:38:51.006Z</time></trkpt><trkpt lat="44.3800579" lon="7.9317852"><ele>451.20000000000005</ele><time>2026-04-24T08:38:53.01Z</time></trkpt><trkpt lat="44.3801357" lon="7.9316133"><ele>450.40000000000003</ele><time>2026-04-24T08:38:54.004Z</time></trkpt><trkpt lat="44.3801122" lon="7.9314708"><ele>449.59999999999997</ele><time>2026-04-24T08:38:55.993Z</time></trkpt><trkpt lat="44.3800503" lon="7.931413"><ele>448.79999999999995</ele><time>2026-04-24T08:38:58Z</time></trkpt><trkpt lat="44.3800996" lon="7.9314947"><ele>448.0</ele><time>2026-04-24T08:39:12.003Z</time></trkpt><trkpt lat="44.380119" lon="7.9315976"><ele>448.6666666666667</ele><time>2026-04-24T08:39:13Z</time></trkpt><trkpt lat="44.3801053" lon="7.9317606"><ele>449.33333333333337</ele><time>2026-04-24T08:39:15.001Z</time></trkpt><trkpt lat="44.3800715" lon="7.9318943"><ele>450.0</ele><time>2026-04-24T08:39:15.997Z</time></trkpt><trkpt lat="44.3800495" lon="7.9319796"><ele>450.66666666666663</ele><time>2026-04-24T08:39:17.003Z</time></trkpt><trkpt lat="44.3800573" lon="7.9321043"><ele>451.3333333333333</ele><time>2026-04-24T08:39:19.004Z</time></trkpt><trkpt lat="44.3800693" lon="7.9322096"><ele>452.0</ele><time>2026-04-24T08:39:20.998Z</time></trkpt><trkpt lat="44.3800135" lon="7.932293"><ele>451.99999999999994</ele><time>2026-04-24T08:39:25.009Z</time></trkpt><trkpt lat="44.3799141" lon="7.9323338"><ele>452.0</ele><time>2026-04-24T08:39:26.997Z</time></trkpt><trkpt lat="44.3798262" lon="7.9323222"><ele>452.0</ele><time>2026-04-24T08:39:27.999Z</time></trkpt><trkpt lat="44.3797556" lon="7.9322889"><ele>452.0</ele><time>2026-04-24T08:39:28.997Z</time></trkpt><trkpt lat="44.379686" lon="7.9322995"><ele>451.99999999999994</ele><time>2026-04-24T08:39:29.995Z</time></trkpt><trkpt lat="44.3796082" lon="7.9323357"><ele>452.0</ele><time>2026-04-24T08:39:30.999Z</time></trkpt><trkpt lat="44.3795207" lon="7.9323643"><ele>454.8</ele><time>2026-04-24T08:39:31.999Z</time></trkpt><trkpt lat="44.3794136" lon="7.9324329"><ele>457.6</ele><time>2026-04-24T08:39:32.996Z</time></trkpt><trkpt lat="44.3792987" lon="7.9324836"><ele>460.40000000000003</ele><time>2026-04-24T08:39:34.001Z</time></trkpt><trkpt lat="44.3792073" lon="7.9324965"><ele>463.20000000000005</ele><time>2026-04-24T08:39:34.999Z</time></trkpt><trkpt lat="44.3791333" lon="7.9324919"><ele>466.0</ele><time>2026-04-24T08:39:36.001Z</time></trkpt><trkpt lat="44.3790333" lon="7.9324588"><ele>466.0</ele><time>2026-04-24T08:39:36.999Z</time></trkpt><trkpt lat="44.3789185" lon="7.9324544"><ele>466.0</ele><time>2026-04-24T08:39:37.997Z</time></trkpt><trkpt lat="44.3788218" lon="7.9324349"><ele>466.0</ele><time>2026-04-24T08:39:39.004Z</time></trkpt><trkpt lat="44.3787326" lon="7.9324309"><ele>466.0</ele><time>2026-04-24T08:39:40Z</time></trkpt><trkpt lat="44.378634" lon="7.9324221"><ele>466.0</ele><time>2026-04-24T08:39:41.001Z</time></trkpt><trkpt lat="44.3785473" lon="7.9324211"><ele>468.1666666666667</ele><time>2026-04-24T08:39:42.003Z</time></trkpt><trkpt lat="44.3784444" lon="7.9323848"><ele>470.33333333333337</ele><time>2026-04-24T08:39:44Z</time></trkpt><trkpt lat="44.3783796" lon="7.9323065"><ele>472.5</ele><time>2026-04-24T08:39:46Z</time></trkpt><trkpt lat="44.3783891" lon="7.9321734"><ele>474.66666666666663</ele><time>2026-04-24T08:39:48.007Z</time></trkpt><trkpt lat="44.3784153" lon="7.9320668"><ele>476.8333333333333</ele><time>2026-04-24T08:39:50.005Z</time></trkpt><trkpt lat="44.3784521" lon="7.9319652"><ele>479.0</ele><time>2026-04-24T08:39:53.005Z</time></trkpt><trkpt lat="44.3784501" lon="7.9317748"><ele>477.3333333333333</ele><time>2026-04-24T08:39:54.002Z</time></trkpt><trkpt lat="44.3783957" lon="7.9312923"><ele>475.66666666666663</ele><time>2026-04-24T08:39:54.999Z</time></trkpt><trkpt lat="44.3783762" lon="7.9311842"><ele>474.0</ele><time>2026-04-24T08:39:55.996Z</time></trkpt><trkpt lat="44.378336" lon="7.9310515"><ele>473.75</ele><time>2026-04-24T08:39:56.997Z</time></trkpt><trkpt lat="44.3783168" lon="7.9308904"><ele>473.5</ele><time>2026-04-24T08:39:58.001Z</time></trkpt><trkpt lat="44.3782813" lon="7.9307437"><ele>473.25</ele><time>2026-04-24T08:39:59Z</time></trkpt><trkpt lat="44.3782368" lon="7.9305886"><ele>473.0</ele><time>2026-04-24T08:40:00Z</time></trkpt><trkpt lat="44.3782121" lon="7.9304283"><ele>473.0</ele><time>2026-04-24T08:40:01.013Z</time></trkpt><trkpt lat="44.37818" lon="7.9302767"><ele>473.0</ele><time>2026-04-24T08:40:02Z</time></trkpt><trkpt lat="44.3781387" lon="7.9301473"><ele>473.0</ele><time>2026-04-24T08:40:03Z</time></trkpt><trkpt lat="44.3780866" lon="7.9300007"><ele>473.0</ele><time>2026-04-24T08:40:03.998Z</time></trkpt><trkpt lat="44.3780583" lon="7.9298347"><ele>472.3333333333333</ele><time>2026-04-24T08:40:05Z</time></trkpt><trkpt lat="44.3780313" lon="7.9297106"><ele>471.66666666666663</ele><time>2026-04-24T08:40:06.004Z</time></trkpt><trkpt lat="44.378001" lon="7.9296036"><ele>471.0</ele><time>2026-04-24T08:40:07.001Z</time></trkpt><trkpt lat="44.3779758" lon="7.9295049"><ele>470.33333333333337</ele><time>2026-04-24T08:40:08.002Z</time></trkpt><trkpt lat="44.3779441" lon="7.9293996"><ele>469.6666666666667</ele><time>2026-04-24T08:40:08.998Z</time></trkpt><trkpt lat="44.3779226" lon="7.9292572"><ele>469.0</ele><time>2026-04-24T08:40:10.004Z</time></trkpt><trkpt lat="44.377901" lon="7.9291313"><ele>472.0</ele><time>2026-04-24T08:40:11.002Z</time></trkpt><trkpt lat="44.3778626" lon="7.9290139"><ele>475.0</ele><time>2026-04-24T08:40:11.998Z</time></trkpt><trkpt lat="44.3778169" lon="7.9288975"><ele>478.0</ele><time>2026-04-24T08:40:13.005Z</time></trkpt><trkpt lat="44.3777545" lon="7.9287563"><ele>481.0</ele><time>2026-04-24T08:40:13.998Z</time></trkpt><trkpt lat="44.377686" lon="7.9286174"><ele>484.0</ele><time>2026-04-24T08:40:14.997Z</time></trkpt><trkpt lat="44.3776244" lon="7.9284985"><ele>484.00000000000006</ele><time>2026-04-24T08:40:16.001Z</time></trkpt><trkpt lat="44.3775608" lon="7.9284079"><ele>484.0</ele><time>2026-04-24T08:40:17.001Z</time></trkpt><trkpt lat="44.3775168" lon="7.9283186"><ele>484.0</ele><time>2026-04-24T08:40:18.007Z</time></trkpt><trkpt lat="44.3774847" lon="7.9282295"><ele>484.0</ele><time>2026-04-24T08:40:18.997Z</time></trkpt><trkpt lat="44.3774576" lon="7.9281275"><ele>484.00000000000006</ele><time>2026-04-24T08:40:20.001Z</time></trkpt><trkpt lat="44.3774406" lon="7.9280371"><ele>484.0</ele><time>2026-04-24T08:40:21.001Z</time></trkpt><trkpt lat="44.3774401" lon="7.9279427"><ele>482.2</ele><time>2026-04-24T08:40:21.999Z</time></trkpt><trkpt lat="44.377406" lon="7.9278404"><ele>480.4</ele><time>2026-04-24T08:40:23.007Z</time></trkpt><trkpt lat="44.3773437" lon="7.9277444"><ele>478.6</ele><time>2026-04-24T08:40:24.004Z</time></trkpt><trkpt lat="44.3772664" lon="7.9276309"><ele>476.8</ele><time>2026-04-24T08:40:25.003Z</time></trkpt><trkpt lat="44.3771959" lon="7.9275388"><ele>475.0</ele><time>2026-04-24T08:40:25.998Z</time></trkpt><trkpt lat="44.3771258" lon="7.9274493"><ele>475.0</ele><time>2026-04-24T08:40:26.996Z</time></trkpt><trkpt lat="44.3770359" lon="7.9273519"><ele>475.0</ele><time>2026-04-24T08:40:28Z</time></trkpt><trkpt lat="44.3769267" lon="7.9272668"><ele>475.0</ele><time>2026-04-24T08:40:29.006Z</time></trkpt><trkpt lat="44.3768459" lon="7.9271894"><ele>475.0</ele><time>2026-04-24T08:40:29.998Z</time></trkpt><trkpt lat="44.3767528" lon="7.927121"><ele>475.0</ele><time>2026-04-24T08:40:31.002Z</time></trkpt><trkpt lat="44.3766804" lon="7.9270814"><ele>475.0</ele><time>2026-04-24T08:40:31.999Z</time></trkpt><trkpt lat="44.3766055" lon="7.9270291"><ele>475.0</ele><time>2026-04-24T08:40:33.005Z</time></trkpt><trkpt lat="44.3765204" lon="7.9269539"><ele>475.0</ele><time>2026-04-24T08:40:34.026Z</time></trkpt><trkpt lat="44.3764303" lon="7.9268478"><ele>475.0</ele><time>2026-04-24T08:40:34.996Z</time></trkpt><trkpt lat="44.3763714" lon="7.926775"><ele>475.0</ele><time>2026-04-24T08:40:36.005Z</time></trkpt><trkpt lat="44.3762988" lon="7.9267229"><ele>475.1666666666667</ele><time>2026-04-24T08:40:37Z</time></trkpt><trkpt lat="44.3762417" lon="7.9266793"><ele>475.33333333333337</ele><time>2026-04-24T08:40:38Z</time></trkpt><trkpt lat="44.3761768" lon="7.9266207"><ele>475.5</ele><time>2026-04-24T08:40:38.996Z</time></trkpt><trkpt lat="44.3761155" lon="7.9265442"><ele>475.66666666666663</ele><time>2026-04-24T08:40:39.998Z</time></trkpt><trkpt lat="44.3760591" lon="7.9264637"><ele>475.8333333333333</ele><time>2026-04-24T08:40:41.003Z</time></trkpt><trkpt lat="44.376023" lon="7.9263389"><ele>476.0</ele><time>2026-04-24T08:40:42Z</time></trkpt><trkpt lat="44.3759454" lon="7.9262039"><ele>476.0</ele><time>2026-04-24T08:40:43.001Z</time></trkpt><trkpt lat="44.37586" lon="7.9260648"><ele>476.0</ele><time>2026-04-24T08:40:43.995Z</time></trkpt><trkpt lat="44.3757944" lon="7.9259419"><ele>476.0</ele><time>2026-04-24T08:40:45.003Z</time></trkpt><trkpt lat="44.3757234" lon="7.9258458"><ele>476.0</ele><time>2026-04-24T08:40:45.996Z</time></trkpt><trkpt lat="44.3756567" lon="7.925729"><ele>476.0</ele><time>2026-04-24T08:40:46.998Z</time></trkpt><trkpt lat="44.3755962" lon="7.9256333"><ele>475.16666666666663</ele><time>2026-04-24T08:40:47.996Z</time></trkpt><trkpt lat="44.3755408" lon="7.9255572"><ele>474.3333333333333</ele><time>2026-04-24T08:40:48.995Z</time></trkpt><trkpt lat="44.3754803" lon="7.9254609"><ele>473.5</ele><time>2026-04-24T08:40:49.999Z</time></trkpt><trkpt lat="44.3754169" lon="7.9253668"><ele>472.66666666666663</ele><time>2026-04-24T08:40:50.996Z</time></trkpt><trkpt lat="44.3753769" lon="7.9252642"><ele>471.8333333333333</ele><time>2026-04-24T08:40:51.996Z</time></trkpt><trkpt lat="44.3753453" lon="7.9251763"><ele>471.0</ele><time>2026-04-24T08:40:53.007Z</time></trkpt><trkpt lat="44.3753147" lon="7.9250872"><ele>468.4</ele><time>2026-04-24T08:40:53.998Z</time></trkpt><trkpt lat="44.3752894" lon="7.9249518"><ele>465.8</ele><time>2026-04-24T08:40:56.001Z</time></trkpt><trkpt lat="44.3753208" lon="7.9248439"><ele>463.19999999999993</ele><time>2026-04-24T08:40:57.997Z</time></trkpt><trkpt lat="44.3753464" lon="7.9247546"><ele>460.59999999999997</ele><time>2026-04-24T08:40:59.997Z</time></trkpt><trkpt lat="44.3752983" lon="7.9246358"><ele>458.0</ele><time>2026-04-24T08:41:03.997Z</time></trkpt><trkpt lat="44.375143" lon="7.9246181"><ele>458.0</ele><time>2026-04-24T08:41:04.997Z</time></trkpt><trkpt lat="44.3750386" lon="7.9245731"><ele>457.99999999999994</ele><time>2026-04-24T08:41:05.998Z</time></trkpt><trkpt lat="44.3749418" lon="7.9245381"><ele>457.99999999999994</ele><time>2026-04-24T08:41:07.002Z</time></trkpt><trkpt lat="44.3748389" lon="7.9245031"><ele>458.0</ele><time>2026-04-24T08:41:07.996Z</time></trkpt><trkpt lat="44.3747344" lon="7.9244676"><ele>458.0</ele><time>2026-04-24T08:41:09.003Z</time></trkpt><trkpt lat="44.3746218" lon="7.9244268"><ele>460.5</ele><time>2026-04-24T08:41:10.001Z</time></trkpt><trkpt lat="44.374502" lon="7.9243946"><ele>463.0</ele><time>2026-04-24T08:41:10.999Z</time></trkpt><trkpt lat="44.3743849" lon="7.9243621"><ele>465.5</ele><time>2026-04-24T08:41:11.997Z</time></trkpt><trkpt lat="44.3742679" lon="7.9243313"><ele>468.0</ele><time>2026-04-24T08:41:12.997Z</time></trkpt><trkpt lat="44.3741426" lon="7.9243213"><ele>468.0</ele><time>2026-04-24T08:41:13.998Z</time></trkpt><trkpt lat="44.3740149" lon="7.9243308"><ele>468.0</ele><time>2026-04-24T08:41:14.998Z</time></trkpt><trkpt lat="44.3738899" lon="7.9243387"><ele>468.0</ele><time>2026-04-24T08:41:16.004Z</time></trkpt><trkpt lat="44.3737633" lon="7.9243526"><ele>468.0</ele><time>2026-04-24T08:41:17.001Z</time></trkpt><trkpt lat="44.3736294" lon="7.9243729"><ele>471.0</ele><time>2026-04-24T08:41:18.001Z</time></trkpt><trkpt lat="44.3734928" lon="7.9243914"><ele>474.0</ele><time>2026-04-24T08:41:19.003Z</time></trkpt><trkpt lat="44.3733509" lon="7.9244076"><ele>477.0</ele><time>2026-04-24T08:41:19.999Z</time></trkpt><trkpt lat="44.3732065" lon="7.924419"><ele>480.0</ele><time>2026-04-24T08:41:21.009Z</time></trkpt><trkpt lat="44.3730623" lon="7.9244207"><ele>484.33333333333337</ele><time>2026-04-24T08:41:22Z</time></trkpt><trkpt lat="44.3729138" lon="7.9244016"><ele>488.6666666666667</ele><time>2026-04-24T08:41:23.002Z</time></trkpt><trkpt lat="44.3727593" lon="7.924375"><ele>493.0</ele><time>2026-04-24T08:41:24Z</time></trkpt><trkpt lat="44.3726009" lon="7.9243494"><ele>493.0</ele><time>2026-04-24T08:41:25.002Z</time></trkpt><trkpt lat="44.3724415" lon="7.9243188"><ele>493.0</ele><time>2026-04-24T08:41:26.001Z</time></trkpt><trkpt lat="44.3722894" lon="7.9242872"><ele>493.0</ele><time>2026-04-24T08:41:27.001Z</time></trkpt><trkpt lat="44.3721433" lon="7.924254"><ele>490.79999999999995</ele><time>2026-04-24T08:41:28Z</time></trkpt><trkpt lat="44.3720146" lon="7.9242106"><ele>488.59999999999997</ele><time>2026-04-24T08:41:29.007Z</time></trkpt><trkpt lat="44.371914" lon="7.9241552"><ele>486.40000000000003</ele><time>2026-04-24T08:41:29.999Z</time></trkpt><trkpt lat="44.3718295" lon="7.9241062"><ele>484.20000000000005</ele><time>2026-04-24T08:41:31.001Z</time></trkpt><trkpt lat="44.3717533" lon="7.9240988"><ele>482.0</ele><time>2026-04-24T08:41:31.999Z</time></trkpt><trkpt lat="44.3716937" lon="7.9241356"><ele>486.0</ele><time>2026-04-24T08:41:33.001Z</time></trkpt><trkpt lat="44.3716811" lon="7.924281"><ele>490.00000000000006</ele><time>2026-04-24T08:41:34.999Z</time></trkpt><trkpt lat="44.3717148" lon="7.9243568"><ele>494.00000000000006</ele><time>2026-04-24T08:41:36.007Z</time></trkpt><trkpt lat="44.3718155" lon="7.9243953"><ele>498.0</ele><time>2026-04-24T08:41:37Z</time></trkpt><trkpt lat="44.3719368" lon="7.9244439"><ele>502.0</ele><time>2026-04-24T08:41:38.004Z</time></trkpt><trkpt lat="44.3720648" lon="7.924522"><ele>499.0</ele><time>2026-04-24T08:41:39Z</time></trkpt><trkpt lat="44.3722045" lon="7.9246258"><ele>496.0</ele><time>2026-04-24T08:41:40.001Z</time></trkpt><trkpt lat="44.372339" lon="7.9247438"><ele>493.0</ele><time>2026-04-24T08:41:40.997Z</time></trkpt><trkpt lat="44.3724523" lon="7.9248657"><ele>493.0</ele><time>2026-04-24T08:41:41.998Z</time></trkpt><trkpt lat="44.3725678" lon="7.9249685"><ele>493.0</ele><time>2026-04-24T08:41:42.999Z</time></trkpt><trkpt lat="44.3726673" lon="7.9250537"><ele>493.0</ele><time>2026-04-24T08:41:44.001Z</time></trkpt><trkpt lat="44.3727472" lon="7.9251386"><ele>493.0</ele><time>2026-04-24T08:41:45.001Z</time></trkpt><trkpt lat="44.3728222" lon="7.9252261"><ele>495.00000000000006</ele><time>2026-04-24T08:41:45.997Z</time></trkpt><trkpt lat="44.3728765" lon="7.9253131"><ele>497.0</ele><time>2026-04-24T08:41:47.005Z</time></trkpt><trkpt lat="44.3729119" lon="7.9254009"><ele>499.0</ele><time>2026-04-24T08:41:48.002Z</time></trkpt><trkpt lat="44.3729155" lon="7.9255005"><ele>501.0</ele><time>2026-04-24T08:41:49.003Z</time></trkpt><trkpt lat="44.372893" lon="7.9255993"><ele>503.00000000000006</ele><time>2026-04-24T08:41:50.001Z</time></trkpt><trkpt lat="44.3727713" lon="7.9256392"><ele>505.0</ele><time>2026-04-24T08:41:51.998Z</time></trkpt><trkpt lat="44.3727007" lon="7.9255944"><ele>505.0</ele><time>2026-04-24T08:41:53.003Z</time></trkpt><trkpt lat="44.3726281" lon="7.9255092"><ele>505.0</ele><time>2026-04-24T08:41:53.997Z</time></trkpt><trkpt lat="44.3725388" lon="7.9254104"><ele>505.0</ele><time>2026-04-24T08:41:55.005Z</time></trkpt><trkpt lat="44.3724335" lon="7.9252988"><ele>505.0</ele><time>2026-04-24T08:41:55.999Z</time></trkpt><trkpt lat="44.3723211" lon="7.9252101"><ele>505.0</ele><time>2026-04-24T08:41:56.998Z</time></trkpt><trkpt lat="44.3722123" lon="7.925161"><ele>505.0</ele><time>2026-04-24T08:41:57.998Z</time></trkpt><trkpt lat="44.3720962" lon="7.9251287"><ele>505.0</ele><time>2026-04-24T08:41:58.998Z</time></trkpt><trkpt lat="44.3719749" lon="7.9251226"><ele>505.0</ele><time>2026-04-24T08:41:59.997Z</time></trkpt><trkpt lat="44.371845" lon="7.9251442"><ele>506.5</ele><time>2026-04-24T08:42:00.998Z</time></trkpt><trkpt lat="44.371712" lon="7.9251822"><ele>508.0</ele><time>2026-04-24T08:42:02.007Z</time></trkpt><trkpt lat="44.3715776" lon="7.9252446"><ele>509.5</ele><time>2026-04-24T08:42:03Z</time></trkpt><trkpt lat="44.3714556" lon="7.9253375"><ele>511.0</ele><time>2026-04-24T08:42:03.998Z</time></trkpt><trkpt lat="44.3713253" lon="7.9254637"><ele>511.6666666666667</ele><time>2026-04-24T08:42:05.009Z</time></trkpt><trkpt lat="44.3711797" lon="7.9255992"><ele>512.3333333333334</ele><time>2026-04-24T08:42:05.999Z</time></trkpt><trkpt lat="44.3710237" lon="7.9257289"><ele>513.0</ele><time>2026-04-24T08:42:06.996Z</time></trkpt><trkpt lat="44.3708678" lon="7.9258654"><ele>517.3333333333334</ele><time>2026-04-24T08:42:07.998Z</time></trkpt><trkpt lat="44.370694" lon="7.9260097"><ele>521.6666666666667</ele><time>2026-04-24T08:42:09.001Z</time></trkpt><trkpt lat="44.3705302" lon="7.9261326"><ele>526.0</ele><time>2026-04-24T08:42:10.008Z</time></trkpt><trkpt lat="44.3703828" lon="7.9262584"><ele>526.75</ele><time>2026-04-24T08:42:10.998Z</time></trkpt><trkpt lat="44.3702458" lon="7.9263742"><ele>527.5</ele><time>2026-04-24T08:42:12.001Z</time></trkpt><trkpt lat="44.3701206" lon="7.9264658"><ele>528.25</ele><time>2026-04-24T08:42:12.997Z</time></trkpt><trkpt lat="44.3700336" lon="7.9264556"><ele>529.0</ele><time>2026-04-24T08:42:13.995Z</time></trkpt><trkpt lat="44.3699481" lon="7.9264994"><ele>529.0</ele><time>2026-04-24T08:42:15Z</time></trkpt><trkpt lat="44.3698751" lon="7.9265669"><ele>529.0</ele><time>2026-04-24T08:42:16.001Z</time></trkpt><trkpt lat="44.3698418" lon="7.9266558"><ele>529.0</ele><time>2026-04-24T08:42:17.005Z</time></trkpt><trkpt lat="44.3698504" lon="7.9267525"><ele>529.0</ele><time>2026-04-24T08:42:17.999Z</time></trkpt><trkpt lat="44.369863" lon="7.9268526"><ele>529.0</ele><time>2026-04-24T08:42:18.999Z</time></trkpt><trkpt lat="44.3700032" lon="7.9268265"><ele>529.0</ele><time>2026-04-24T08:42:19.997Z</time></trkpt><trkpt lat="44.3701052" lon="7.9268243"><ele>529.0</ele><time>2026-04-24T08:42:20.996Z</time></trkpt><trkpt lat="44.3702156" lon="7.9267781"><ele>529.0</ele><time>2026-04-24T08:42:21.997Z</time></trkpt><trkpt lat="44.3703363" lon="7.9267466"><ele>529.0</ele><time>2026-04-24T08:42:22.998Z</time></trkpt><trkpt lat="44.3704411" lon="7.9267033"><ele>529.0</ele><time>2026-04-24T08:42:24Z</time></trkpt><trkpt lat="44.3705449" lon="7.926701"><ele>528.25</ele><time>2026-04-24T08:42:24.996Z</time></trkpt><trkpt lat="44.3706528" lon="7.926724"><ele>527.5</ele><time>2026-04-24T08:42:26.002Z</time></trkpt><trkpt lat="44.3707537" lon="7.9267732"><ele>526.75</ele><time>2026-04-24T08:42:26.996Z</time></trkpt><trkpt lat="44.3708655" lon="7.9268531"><ele>526.0</ele><time>2026-04-24T08:42:27.999Z</time></trkpt><trkpt lat="44.3709871" lon="7.9269623"><ele>529.0</ele><time>2026-04-24T08:42:28.997Z</time></trkpt><trkpt lat="44.3711126" lon="7.9270752"><ele>532.0</ele><time>2026-04-24T08:42:29.997Z</time></trkpt><trkpt lat="44.3712382" lon="7.9271924"><ele>535.0</ele><time>2026-04-24T08:42:30.994Z</time></trkpt><trkpt lat="44.3713687" lon="7.9273147"><ele>535.0</ele><time>2026-04-24T08:42:32.001Z</time></trkpt><trkpt lat="44.3715037" lon="7.9274425"><ele>535.0</ele><time>2026-04-24T08:42:32.996Z</time></trkpt><trkpt lat="44.3716555" lon="7.9275466"><ele>535.0</ele><time>2026-04-24T08:42:34.005Z</time></trkpt><trkpt lat="44.3717946" lon="7.9275973"><ele>535.5</ele><time>2026-04-24T08:42:34.999Z</time></trkpt><trkpt lat="44.3719287" lon="7.927663"><ele>536.0</ele><time>2026-04-24T08:42:36Z</time></trkpt><trkpt lat="44.3720438" lon="7.9277457"><ele>536.5</ele><time>2026-04-24T08:42:36.997Z</time></trkpt><trkpt lat="44.3721588" lon="7.9278464"><ele>537.0</ele><time>2026-04-24T08:42:38Z</time></trkpt><trkpt lat="44.3722607" lon="7.9279614"><ele>537.0</ele><time>2026-04-24T08:42:38.997Z</time></trkpt><trkpt lat="44.3723444" lon="7.9280726"><ele>537.0</ele><time>2026-04-24T08:42:40.003Z</time></trkpt><trkpt lat="44.3724257" lon="7.9281887"><ele>537.0</ele><time>2026-04-24T08:42:40.998Z</time></trkpt><trkpt lat="44.3725088" lon="7.9283082"><ele>537.0</ele><time>2026-04-24T08:42:42.001Z</time></trkpt><trkpt lat="44.3725952" lon="7.9284151"><ele>539.1666666666666</ele><time>2026-04-24T08:42:42.999Z</time></trkpt><trkpt lat="44.3726726" lon="7.9285307"><ele>541.3333333333334</ele><time>2026-04-24T08:42:43.996Z</time></trkpt><trkpt lat="44.3727125" lon="7.928645"><ele>543.5</ele><time>2026-04-24T08:42:44.999Z</time></trkpt><trkpt lat="44.372735" lon="7.9287408"><ele>545.6666666666667</ele><time>2026-04-24T08:42:46Z</time></trkpt><trkpt lat="44.3727351" lon="7.9288561"><ele>547.8333333333334</ele><time>2026-04-24T08:42:48.006Z</time></trkpt><trkpt lat="44.3726982" lon="7.9289323"><ele>550.0</ele><time>2026-04-24T08:43:07.001Z</time></trkpt><trkpt lat="44.3725723" lon="7.9289408"><ele>550.0</ele><time>2026-04-24T08:43:09.001Z</time></trkpt><trkpt lat="44.3724784" lon="7.9288946"><ele>550.0</ele><time>2026-04-24T08:43:10.005Z</time></trkpt><trkpt lat="44.3723452" lon="7.9288139"><ele>550.0</ele><time>2026-04-24T08:43:11.004Z</time></trkpt><trkpt lat="44.3722288" lon="7.9287309"><ele>550.0</ele><time>2026-04-24T08:43:12.006Z</time></trkpt><trkpt lat="44.3721217" lon="7.9286739"><ele>554.25</ele><time>2026-04-24T08:43:13Z</time></trkpt><trkpt lat="44.3720121" lon="7.9286173"><ele>558.5</ele><time>2026-04-24T08:43:13.997Z</time></trkpt><trkpt lat="44.3719091" lon="7.9285471"><ele>562.75</ele><time>2026-04-24T08:43:15.002Z</time></trkpt><trkpt lat="44.3717941" lon="7.9284777"><ele>567.0</ele><time>2026-04-24T08:43:16Z</time></trkpt><trkpt lat="44.3716648" lon="7.9284075"><ele>567.3333333333334</ele><time>2026-04-24T08:43:17.005Z</time></trkpt><trkpt lat="44.3715275" lon="7.9283251"><ele>567.6666666666667</ele><time>2026-04-24T08:43:18Z</time></trkpt><trkpt lat="44.3713813" lon="7.9282438"><ele>568.0</ele><time>2026-04-24T08:43:18.996Z</time></trkpt><trkpt lat="44.3712383" lon="7.9281557"><ele>568.0</ele><time>2026-04-24T08:43:19.996Z</time></trkpt><trkpt lat="44.3710943" lon="7.9280677"><ele>568.0</ele><time>2026-04-24T08:43:20.996Z</time></trkpt><trkpt lat="44.3709527" lon="7.9279905"><ele>568.0</ele><time>2026-04-24T08:43:21.996Z</time></trkpt><trkpt lat="44.3708111" lon="7.9279081"><ele>568.0</ele><time>2026-04-24T08:43:22.996Z</time></trkpt><trkpt lat="44.3706804" lon="7.9278306"><ele>568.0</ele><time>2026-04-24T08:43:24.004Z</time></trkpt><trkpt lat="44.3705472" lon="7.9277822"><ele>568.0</ele><time>2026-04-24T08:43:24.997Z</time></trkpt><trkpt lat="44.3704026" lon="7.9277588"><ele>568.0</ele><time>2026-04-24T08:43:25.998Z</time></trkpt><trkpt lat="44.370248" lon="7.9277746"><ele>569.25</ele><time>2026-04-24T08:43:27.002Z</time></trkpt><trkpt lat="44.3700904" lon="7.9278157"><ele>570.5</ele><time>2026-04-24T08:43:27.997Z</time></trkpt><trkpt lat="44.3699426" lon="7.927871"><ele>571.75</ele><time>2026-04-24T08:43:28.998Z</time></trkpt><trkpt lat="44.3698156" lon="7.9279133"><ele>573.0</ele><time>2026-04-24T08:43:29.999Z</time></trkpt><trkpt lat="44.3696847" lon="7.9279407"><ele>573.0</ele><time>2026-04-24T08:43:30.998Z</time></trkpt><trkpt lat="44.3695519" lon="7.927929"><ele>573.0</ele><time>2026-04-24T08:43:32.001Z</time></trkpt><trkpt lat="44.3694294" lon="7.927881"><ele>573.0</ele><time>2026-04-24T08:43:33.003Z</time></trkpt><trkpt lat="44.3693214" lon="7.9278415"><ele>573.0</ele><time>2026-04-24T08:43:33.999Z</time></trkpt><trkpt lat="44.3692112" lon="7.9277958"><ele>573.0</ele><time>2026-04-24T08:43:35Z</time></trkpt><trkpt lat="44.3690995" lon="7.9277656"><ele>573.0</ele><time>2026-04-24T08:43:36.002Z</time></trkpt><trkpt lat="44.3689872" lon="7.9277685"><ele>573.0</ele><time>2026-04-24T08:43:36.998Z</time></trkpt><trkpt lat="44.3688794" lon="7.9278149"><ele>573.0</ele><time>2026-04-24T08:43:38.002Z</time></trkpt><trkpt lat="44.3687854" lon="7.9279086"><ele>572.5</ele><time>2026-04-24T08:43:38.997Z</time></trkpt><trkpt lat="44.3687" lon="7.9279844"><ele>572.0</ele><time>2026-04-24T08:43:40.003Z</time></trkpt><trkpt lat="44.3686093" lon="7.9280537"><ele>571.5</ele><time>2026-04-24T08:43:40.999Z</time></trkpt><trkpt lat="44.3684917" lon="7.9281218"><ele>571.0</ele><time>2026-04-24T08:43:41.999Z</time></trkpt><trkpt lat="44.3683662" lon="7.9281689"><ele>571.0</ele><time>2026-04-24T08:43:43.006Z</time></trkpt><trkpt lat="44.3682411" lon="7.9281942"><ele>571.0</ele><time>2026-04-24T08:43:43.997Z</time></trkpt><trkpt lat="44.3681301" lon="7.928192"><ele>571.0</ele><time>2026-04-24T08:43:45.007Z</time></trkpt><trkpt lat="44.3680338" lon="7.9281956"><ele>571.0</ele><time>2026-04-24T08:43:46Z</time></trkpt><trkpt lat="44.3679381" lon="7.9281935"><ele>571.0</ele><time>2026-04-24T08:43:46.995Z</time></trkpt><trkpt lat="44.367854" lon="7.9281937"><ele>571.1666666666667</ele><time>2026-04-24T08:43:47.996Z</time></trkpt><trkpt lat="44.3677818" lon="7.928193"><ele>571.3333333333334</ele><time>2026-04-24T08:43:48.999Z</time></trkpt><trkpt lat="44.3676577" lon="7.9281898"><ele>571.5</ele><time>2026-04-24T08:43:50.995Z</time></trkpt><trkpt lat="44.3675863" lon="7.9282091"><ele>571.6666666666666</ele><time>2026-04-24T08:43:51.997Z</time></trkpt><trkpt lat="44.3675063" lon="7.928253"><ele>571.8333333333333</ele><time>2026-04-24T08:43:53.001Z</time></trkpt><trkpt lat="44.3674352" lon="7.9283169"><ele>572.0</ele><time>2026-04-24T08:43:53.998Z</time></trkpt><trkpt lat="44.3673861" lon="7.928392"><ele>572.3333333333333</ele><time>2026-04-24T08:43:54.998Z</time></trkpt><trkpt lat="44.3673495" lon="7.9284671"><ele>572.6666666666666</ele><time>2026-04-24T08:43:55.997Z</time></trkpt><trkpt lat="44.3673125" lon="7.9285563"><ele>573.0</ele><time>2026-04-24T08:43:56.998Z</time></trkpt><trkpt lat="44.3672875" lon="7.9286551"><ele>573.3333333333334</ele><time>2026-04-24T08:43:57.997Z</time></trkpt><trkpt lat="44.3672693" lon="7.9287752"><ele>573.6666666666667</ele><time>2026-04-24T08:43:59.003Z</time></trkpt><trkpt lat="44.3672308" lon="7.9289123"><ele>574.0</ele><time>2026-04-24T08:43:59.998Z</time></trkpt><trkpt lat="44.3671852" lon="7.9290407"><ele>574.0</ele><time>2026-04-24T08:44:01Z</time></trkpt><trkpt lat="44.3671178" lon="7.9291694"><ele>574.0</ele><time>2026-04-24T08:44:01.998Z</time></trkpt><trkpt lat="44.3670379" lon="7.9292837"><ele>574.0</ele><time>2026-04-24T08:44:02.999Z</time></trkpt><trkpt lat="44.3669436" lon="7.9293981"><ele>574.0</ele><time>2026-04-24T08:44:03.997Z</time></trkpt><trkpt lat="44.3668691" lon="7.929493"><ele>575.8333333333334</ele><time>2026-04-24T08:44:04.998Z</time></trkpt><trkpt lat="44.3667962" lon="7.9295598"><ele>577.6666666666667</ele><time>2026-04-24T08:44:06.009Z</time></trkpt><trkpt lat="44.3667173" lon="7.929601"><ele>579.5</ele><time>2026-04-24T08:44:07Z</time></trkpt><trkpt lat="44.3666421" lon="7.929625"><ele>581.3333333333334</ele><time>2026-04-24T08:44:07.995Z</time></trkpt><trkpt lat="44.3665539" lon="7.9296526"><ele>583.1666666666666</ele><time>2026-04-24T08:44:08.999Z</time></trkpt><trkpt lat="44.3664606" lon="7.9296762"><ele>585.0</ele><time>2026-04-24T08:44:09.997Z</time></trkpt><trkpt lat="44.3663604" lon="7.9296949"><ele>585.0</ele><time>2026-04-24T08:44:11.005Z</time></trkpt><trkpt lat="44.3662596" lon="7.9297048"><ele>585.0</ele><time>2026-04-24T08:44:11.998Z</time></trkpt><trkpt lat="44.3661547" lon="7.9297183"><ele>585.0</ele><time>2026-04-24T08:44:13.009Z</time></trkpt><trkpt lat="44.3660409" lon="7.9297315"><ele>585.0</ele><time>2026-04-24T08:44:13.999Z</time></trkpt><trkpt lat="44.3659299" lon="7.9297438"><ele>585.0</ele><time>2026-04-24T08:44:14.999Z</time></trkpt><trkpt lat="44.3658153" lon="7.9297657"><ele>585.0</ele><time>2026-04-24T08:44:15.995Z</time></trkpt><trkpt lat="44.3657006" lon="7.9297844"><ele>585.0</ele><time>2026-04-24T08:44:16.999Z</time></trkpt><trkpt lat="44.3656051" lon="7.9297959"><ele>585.0</ele><time>2026-04-24T08:44:18.001Z</time></trkpt><trkpt lat="44.3655199" lon="7.9298105"><ele>585.0</ele><time>2026-04-24T08:44:18.999Z</time></trkpt><trkpt lat="44.3654349" lon="7.9298224"><ele>585.0</ele><time>2026-04-24T08:44:20.006Z</time></trkpt><trkpt lat="44.3653422" lon="7.9298381"><ele>585.4</ele><time>2026-04-24T08:44:20.997Z</time></trkpt><trkpt lat="44.3652474" lon="7.9298571"><ele>585.8</ele><time>2026-04-24T08:44:22.001Z</time></trkpt><trkpt lat="44.3651567" lon="7.9298716"><ele>586.2</ele><time>2026-04-24T08:44:23.003Z</time></trkpt><trkpt lat="44.3650706" lon="7.9298838"><ele>586.6</ele><time>2026-04-24T08:44:23.998Z</time></trkpt><trkpt lat="44.3649871" lon="7.9299479"><ele>587.0</ele><time>2026-04-24T08:44:25.999Z</time></trkpt><trkpt lat="44.3649531" lon="7.9300732"><ele>586.1666666666666</ele><time>2026-04-24T08:44:28.001Z</time></trkpt><trkpt lat="44.364958" lon="7.9302073"><ele>585.3333333333333</ele><time>2026-04-24T08:44:30Z</time></trkpt><trkpt lat="44.3649737" lon="7.9303281"><ele>584.5</ele><time>2026-04-24T08:44:31.999Z</time></trkpt><trkpt lat="44.3649627" lon="7.9304235"><ele>583.6666666666666</ele><time>2026-04-24T08:44:34.001Z</time></trkpt><trkpt lat="44.364862" lon="7.9304714"><ele>582.8333333333334</ele><time>2026-04-24T08:44:37.004Z</time></trkpt><trkpt lat="44.3647976" lon="7.9304773"><ele>582.0</ele><time>2026-04-24T08:44:38Z</time></trkpt><trkpt lat="44.364732" lon="7.9304876"><ele>584.0</ele><time>2026-04-24T08:44:39.002Z</time></trkpt><trkpt lat="44.3646289" lon="7.9305277"><ele>586.0</ele><time>2026-04-24T08:44:40.998Z</time></trkpt><trkpt lat="44.3645738" lon="7.9306433"><ele>588.0</ele><time>2026-04-24T08:44:43Z</time></trkpt><trkpt lat="44.3645266" lon="7.9307203"><ele>590.0</ele><time>2026-04-24T08:44:44.002Z</time></trkpt><trkpt lat="44.3644832" lon="7.9308576"><ele>592.0</ele><time>2026-04-24T08:44:45.007Z</time></trkpt><trkpt lat="44.3644385" lon="7.9309943"><ele>592.0</ele><time>2026-04-24T08:44:46.006Z</time></trkpt><trkpt lat="44.3644034" lon="7.9310924"><ele>592.0</ele><time>2026-04-24T08:44:47.001Z</time></trkpt><trkpt lat="44.3643722" lon="7.9311782"><ele>592.0</ele><time>2026-04-24T08:44:48.001Z</time></trkpt><trkpt lat="44.364343" lon="7.9313036"><ele>592.0</ele><time>2026-04-24T08:44:49.008Z</time></trkpt><trkpt lat="44.3643361" lon="7.9314324"><ele>592.0</ele><time>2026-04-24T08:44:50.003Z</time></trkpt><trkpt lat="44.3643363" lon="7.9315554"><ele>592.0</ele><time>2026-04-24T08:44:51.006Z</time></trkpt><trkpt lat="44.3643097" lon="7.9317081"><ele>590.2</ele><time>2026-04-24T08:44:52.003Z</time></trkpt><trkpt lat="44.3643279" lon="7.9318177"><ele>588.4000000000001</ele><time>2026-04-24T08:44:53.001Z</time></trkpt><trkpt lat="44.3643335" lon="7.9319357"><ele>586.5999999999999</ele><time>2026-04-24T08:44:53.998Z</time></trkpt><trkpt lat="44.3643344" lon="7.9320635"><ele>584.8</ele><time>2026-04-24T08:44:54.997Z</time></trkpt><trkpt lat="44.364344" lon="7.9321871"><ele>583.0</ele><time>2026-04-24T08:44:56.009Z</time></trkpt><trkpt lat="44.3643346" lon="7.9323433"><ele>583.0</ele><time>2026-04-24T08:44:57.006Z</time></trkpt><trkpt lat="44.364342" lon="7.9324774"><ele>583.0</ele><time>2026-04-24T08:44:58.001Z</time></trkpt><trkpt lat="44.3643197" lon="7.9325818"><ele>583.0</ele><time>2026-04-24T08:44:59.002Z</time></trkpt><trkpt lat="44.3642558" lon="7.9326756"><ele>583.0</ele><time>2026-04-24T08:44:59.999Z</time></trkpt><trkpt lat="44.3642085" lon="7.9327728"><ele>583.0</ele><time>2026-04-24T08:45:01.002Z</time></trkpt><trkpt lat="44.3641501" lon="7.9328355"><ele>583.0</ele><time>2026-04-24T08:45:02.011Z</time></trkpt><trkpt lat="44.3640895" lon="7.9328805"><ele>581.6666666666667</ele><time>2026-04-24T08:45:02.996Z</time></trkpt><trkpt lat="44.3640187" lon="7.9329462"><ele>580.3333333333334</ele><time>2026-04-24T08:45:03.996Z</time></trkpt><trkpt lat="44.3639235" lon="7.9329859"><ele>579.0</ele><time>2026-04-24T08:45:04.999Z</time></trkpt><trkpt lat="44.3638424" lon="7.9330029"><ele>577.6666666666666</ele><time>2026-04-24T08:45:06.001Z</time></trkpt><trkpt lat="44.3637794" lon="7.9330202"><ele>576.3333333333333</ele><time>2026-04-24T08:45:06.996Z</time></trkpt><trkpt lat="44.3636684" lon="7.933034"><ele>575.0</ele><time>2026-04-24T08:45:09.001Z</time></trkpt><trkpt lat="44.3635336" lon="7.9329499"><ele>575.0</ele><time>2026-04-24T08:45:10.996Z</time></trkpt><trkpt lat="44.3634099" lon="7.9329019"><ele>575.0</ele><time>2026-04-24T08:45:13.01Z</time></trkpt><trkpt lat="44.3633785" lon="7.9330504"><ele>575.0</ele><time>2026-04-24T08:45:15.004Z</time></trkpt><trkpt lat="44.3633747" lon="7.9332406"><ele>575.0</ele><time>2026-04-24T08:45:17.006Z</time></trkpt><trkpt lat="44.3633287" lon="7.9334468"><ele>573.25</ele><time>2026-04-24T08:45:18Z</time></trkpt><trkpt lat="44.3633148" lon="7.9336632"><ele>571.5</ele><time>2026-04-24T08:45:19.003Z</time></trkpt><trkpt lat="44.3633628" lon="7.9338087"><ele>569.75</ele><time>2026-04-24T08:45:19.999Z</time></trkpt><trkpt lat="44.3633759" lon="7.9339624"><ele>568.0</ele><time>2026-04-24T08:45:20.999Z</time></trkpt><trkpt lat="44.3634114" lon="7.9341261"><ele>568.75</ele><time>2026-04-24T08:45:21.998Z</time></trkpt><trkpt lat="44.3634636" lon="7.9342639"><ele>569.5</ele><time>2026-04-24T08:45:23Z</time></trkpt><trkpt lat="44.3635032" lon="7.9344147"><ele>570.25</ele><time>2026-04-24T08:45:23.997Z</time></trkpt><trkpt lat="44.3635583" lon="7.9345595"><ele>571.0</ele><time>2026-04-24T08:45:24.997Z</time></trkpt><trkpt lat="44.3636135" lon="7.9346973"><ele>571.0</ele><time>2026-04-24T08:45:26.002Z</time></trkpt><trkpt lat="44.3636579" lon="7.9347998"><ele>571.0</ele><time>2026-04-24T08:45:26.997Z</time></trkpt><trkpt lat="44.363712" lon="7.9348954"><ele>571.0</ele><time>2026-04-24T08:45:28.002Z</time></trkpt><trkpt lat="44.3637362" lon="7.9350105"><ele>571.0</ele><time>2026-04-24T08:45:29.001Z</time></trkpt><trkpt lat="44.3637747" lon="7.9351277"><ele>571.0</ele><time>2026-04-24T08:45:30.001Z</time></trkpt><trkpt lat="44.3638043" lon="7.9352599"><ele>571.2</ele><time>2026-04-24T08:45:31.003Z</time></trkpt><trkpt lat="44.3638393" lon="7.9353856"><ele>571.4000000000001</ele><time>2026-04-24T08:45:31.997Z</time></trkpt><trkpt lat="44.3638924" lon="7.9355116"><ele>571.6</ele><time>2026-04-24T08:45:33Z</time></trkpt><trkpt lat="44.3639352" lon="7.9356357"><ele>571.8000000000001</ele><time>2026-04-24T08:45:33.999Z</time></trkpt><trkpt lat="44.3639709" lon="7.9357457"><ele>572.0</ele><time>2026-04-24T08:45:35Z</time></trkpt><trkpt lat="44.3639919" lon="7.9358338"><ele>569.1666666666666</ele><time>2026-04-24T08:45:35.996Z</time></trkpt><trkpt lat="44.3640032" lon="7.9359288"><ele>566.3333333333333</ele><time>2026-04-24T08:45:36.997Z</time></trkpt><trkpt lat="44.3639879" lon="7.9361087"><ele>563.5</ele><time>2026-04-24T08:45:39.004Z</time></trkpt><trkpt lat="44.3639614" lon="7.9362059"><ele>560.6666666666666</ele><time>2026-04-24T08:45:40.003Z</time></trkpt><trkpt lat="44.36391" lon="7.9363059"><ele>557.8333333333334</ele><time>2026-04-24T08:45:41.002Z</time></trkpt><trkpt lat="44.3638721" lon="7.9363786"><ele>555.0</ele><time>2026-04-24T08:45:41.999Z</time></trkpt><trkpt lat="44.363813" lon="7.9364382"><ele>555.0</ele><time>2026-04-24T08:45:42.999Z</time></trkpt><trkpt lat="44.3637144" lon="7.9365038"><ele>555.0</ele><time>2026-04-24T08:45:43.999Z</time></trkpt><trkpt lat="44.3636401" lon="7.9365629"><ele>555.0</ele><time>2026-04-24T08:45:45.003Z</time></trkpt><trkpt lat="44.363547" lon="7.9367041"><ele>555.0</ele><time>2026-04-24T08:45:47.003Z</time></trkpt><trkpt lat="44.3634901" lon="7.9367672"><ele>555.0</ele><time>2026-04-24T08:45:48.003Z</time></trkpt><trkpt lat="44.3634167" lon="7.9368321"><ele>549.5</ele><time>2026-04-24T08:45:49Z</time></trkpt><trkpt lat="44.3633411" lon="7.9369061"><ele>544.0</ele><time>2026-04-24T08:45:50.001Z</time></trkpt><trkpt lat="44.3632544" lon="7.9369873"><ele>538.5</ele><time>2026-04-24T08:45:51.006Z</time></trkpt><trkpt lat="44.3631792" lon="7.9370269"><ele>533.0</ele><time>2026-04-24T08:45:52.001Z</time></trkpt><trkpt lat="44.3631147" lon="7.9370418"><ele>527.5</ele><time>2026-04-24T08:45:53.006Z</time></trkpt><trkpt lat="44.3630493" lon="7.9370514"><ele>522.0</ele><time>2026-04-24T08:45:53.999Z</time></trkpt><trkpt lat="44.3629784" lon="7.9370084"><ele>522.0</ele><time>2026-04-24T08:45:55.003Z</time></trkpt><trkpt lat="44.3628989" lon="7.9369554"><ele>522.0</ele><time>2026-04-24T08:45:56.003Z</time></trkpt><trkpt lat="44.3628135" lon="7.9368896"><ele>522.0</ele><time>2026-04-24T08:45:56.999Z</time></trkpt><trkpt lat="44.362736" lon="7.9368421"><ele>522.0</ele><time>2026-04-24T08:45:58.005Z</time></trkpt><trkpt lat="44.3626485" lon="7.936801"><ele>522.0</ele><time>2026-04-24T08:45:59.003Z</time></trkpt><trkpt lat="44.3625435" lon="7.9368465"><ele>522.0</ele><time>2026-04-24T08:45:59.998Z</time></trkpt><trkpt lat="44.3624501" lon="7.9368582"><ele>522.0</ele><time>2026-04-24T08:46:01.001Z</time></trkpt><trkpt lat="44.3623505" lon="7.9368534"><ele>522.0</ele><time>2026-04-24T08:46:02Z</time></trkpt><trkpt lat="44.3622305" lon="7.9368437"><ele>522.0</ele><time>2026-04-24T08:46:03Z</time></trkpt><trkpt lat="44.3621321" lon="7.9368515"><ele>522.0</ele><time>2026-04-24T08:46:04.002Z</time></trkpt><trkpt lat="44.362043" lon="7.9368536"><ele>520.8333333333334</ele><time>2026-04-24T08:46:04.999Z</time></trkpt><trkpt lat="44.3619553" lon="7.9368398"><ele>519.6666666666666</ele><time>2026-04-24T08:46:06.007Z</time></trkpt><trkpt lat="44.3618677" lon="7.9368283"><ele>518.5</ele><time>2026-04-24T08:46:06.997Z</time></trkpt><trkpt lat="44.361795" lon="7.9368073"><ele>517.3333333333333</ele><time>2026-04-24T08:46:07.996Z</time></trkpt><trkpt lat="44.3617209" lon="7.9367881"><ele>516.1666666666666</ele><time>2026-04-24T08:46:08.998Z</time></trkpt><trkpt lat="44.3616586" lon="7.9367599"><ele>515.0</ele><time>2026-04-24T08:46:10Z</time></trkpt><trkpt lat="44.3615741" lon="7.9367"><ele>515.1666666666666</ele><time>2026-04-24T08:46:10.998Z</time></trkpt><trkpt lat="44.3615144" lon="7.9366472"><ele>515.3333333333333</ele><time>2026-04-24T08:46:12.002Z</time></trkpt><trkpt lat="44.3614345" lon="7.9366011"><ele>515.5</ele><time>2026-04-24T08:46:13.003Z</time></trkpt><trkpt lat="44.3613645" lon="7.9365031"><ele>515.6666666666666</ele><time>2026-04-24T08:46:13.998Z</time></trkpt><trkpt lat="44.3612797" lon="7.9364612"><ele>515.8333333333334</ele><time>2026-04-24T08:46:15.007Z</time></trkpt><trkpt lat="44.3612046" lon="7.936443"><ele>516.0</ele><time>2026-04-24T08:46:16.001Z</time></trkpt><trkpt lat="44.3611296" lon="7.9363855"><ele>515.9999999999999</ele><time>2026-04-24T08:46:17.001Z</time></trkpt><trkpt lat="44.3610599" lon="7.9363241"><ele>516.0</ele><time>2026-04-24T08:46:18.001Z</time></trkpt><trkpt lat="44.3609947" lon="7.9362668"><ele>516.0</ele><time>2026-04-24T08:46:19.004Z</time></trkpt><trkpt lat="44.360947" lon="7.9362032"><ele>516.0</ele><time>2026-04-24T08:46:20.005Z</time></trkpt><trkpt lat="44.3608982" lon="7.9361356"><ele>516.0</ele><time>2026-04-24T08:46:21.002Z</time></trkpt><trkpt lat="44.3608588" lon="7.9360617"><ele>515.9999999999999</ele><time>2026-04-24T08:46:22Z</time></trkpt><trkpt lat="44.3608118" lon="7.9359787"><ele>516.0</ele><time>2026-04-24T08:46:22.999Z</time></trkpt><trkpt lat="44.3607706" lon="7.9359077"><ele>518.1666666666666</ele><time>2026-04-24T08:46:24.003Z</time></trkpt><trkpt lat="44.3607054" lon="7.9358708"><ele>520.3333333333334</ele><time>2026-04-24T08:46:25.005Z</time></trkpt><trkpt lat="44.3606372" lon="7.9358741"><ele>522.5</ele><time>2026-04-24T08:46:26.003Z</time></trkpt><trkpt lat="44.3605614" lon="7.9358661"><ele>524.6666666666667</ele><time>2026-04-24T08:46:26.998Z</time></trkpt><trkpt lat="44.3604616" lon="7.9359297"><ele>526.8333333333334</ele><time>2026-04-24T08:46:27.996Z</time></trkpt><trkpt lat="44.3603776" lon="7.9359603"><ele>529.0</ele><time>2026-04-24T08:46:29.003Z</time></trkpt><trkpt lat="44.3602883" lon="7.9359868"><ele>529.5</ele><time>2026-04-24T08:46:30.003Z</time></trkpt><trkpt lat="44.3601676" lon="7.9360115"><ele>530.0</ele><time>2026-04-24T08:46:32.001Z</time></trkpt><trkpt lat="44.3600934" lon="7.9359986"><ele>530.5</ele><time>2026-04-24T08:46:33.998Z</time></trkpt><trkpt lat="44.3600936" lon="7.9360883"><ele>531.0</ele><time>2026-04-24T08:46:36.996Z</time></trkpt><trkpt lat="44.3601479" lon="7.936173"><ele>531.5</ele><time>2026-04-24T08:47:09.997Z</time></trkpt><trkpt lat="44.3601755" lon="7.9362815"><ele>532.0</ele><time>2026-04-24T08:47:13.003Z</time></trkpt><trkpt lat="44.3602195" lon="7.9363877"><ele>532.0</ele><time>2026-04-24T08:47:16.005Z</time></trkpt><trkpt lat="44.3602545" lon="7.9364686"><ele>532.0</ele><time>2026-04-24T08:47:17.999Z</time></trkpt><trkpt lat="44.3602797" lon="7.9365625"><ele>532.0</ele><time>2026-04-24T08:47:20.006Z</time></trkpt><trkpt lat="44.3602968" lon="7.9366608"><ele>532.0</ele><time>2026-04-24T08:47:21.992Z</time></trkpt><trkpt lat="44.3603322" lon="7.9367633"><ele>532.0</ele><time>2026-04-24T08:47:24.001Z</time></trkpt><trkpt lat="44.3603908" lon="7.9368908"><ele>532.0</ele><time>2026-04-24T08:47:26.001Z</time></trkpt><trkpt lat="44.360662" lon="7.937685"><ele>530.0</ele><time>2026-04-24T08:47:28.006Z</time></trkpt><trkpt lat="44.3606983" lon="7.9378207"><ele>528.0</ele><time>2026-04-24T08:47:28.993Z</time></trkpt><trkpt lat="44.3607218" lon="7.9379029"><ele>526.0</ele><time>2026-04-24T08:47:29.998Z</time></trkpt><trkpt lat="44.3607083" lon="7.9379923"><ele>524.0</ele><time>2026-04-24T08:47:31.002Z</time></trkpt><trkpt lat="44.3607558" lon="7.9380672"><ele>522.0</ele><time>2026-04-24T08:47:32.003Z</time></trkpt><trkpt lat="44.3607974" lon="7.938164"><ele>520.0</ele><time>2026-04-24T08:47:33.997Z</time></trkpt><trkpt lat="44.3608456" lon="7.9383167"><ele>519.6</ele><time>2026-04-24T08:47:36Z</time></trkpt><trkpt lat="44.3608872" lon="7.9383904"><ele>519.2</ele><time>2026-04-24T08:47:36.999Z</time></trkpt><trkpt lat="44.3608243" lon="7.9385813"><ele>518.8</ele><time>2026-04-24T08:47:39Z</time></trkpt><trkpt lat="44.3608425" lon="7.9386712"><ele>518.4</ele><time>2026-04-24T08:47:40.007Z</time></trkpt><trkpt lat="44.360787" lon="7.9388286"><ele>518.0</ele><time>2026-04-24T08:47:41.004Z</time></trkpt><trkpt lat="44.3607596" lon="7.9389596"><ele>518.0</ele><time>2026-04-24T08:47:42Z</time></trkpt><trkpt lat="44.3606803" lon="7.9390977"><ele>518.0</ele><time>2026-04-24T08:47:43Z</time></trkpt><trkpt lat="44.3606118" lon="7.9392177"><ele>518.0</ele><time>2026-04-24T08:47:44.001Z</time></trkpt><trkpt lat="44.3605441" lon="7.9393182"><ele>518.0</ele><time>2026-04-24T08:47:45.001Z</time></trkpt><trkpt lat="44.3604533" lon="7.9394238"><ele>521.1999999999999</ele><time>2026-04-24T08:47:45.996Z</time></trkpt><trkpt lat="44.3604092" lon="7.9395371"><ele>524.4</ele><time>2026-04-24T08:47:47.002Z</time></trkpt><trkpt lat="44.3603501" lon="7.9396543"><ele>527.5999999999999</ele><time>2026-04-24T08:47:47.998Z</time></trkpt><trkpt lat="44.3602914" lon="7.9397777"><ele>530.8</ele><time>2026-04-24T08:47:48.999Z</time></trkpt><trkpt lat="44.3602172" lon="7.9398964"><ele>534.0</ele><time>2026-04-24T08:47:50.001Z</time></trkpt><trkpt lat="44.3601663" lon="7.9399994"><ele>532.1666666666666</ele><time>2026-04-24T08:47:50.996Z</time></trkpt><trkpt lat="44.3601736" lon="7.9401148"><ele>530.3333333333334</ele><time>2026-04-24T08:47:51.999Z</time></trkpt><trkpt lat="44.3601091" lon="7.9402285"><ele>528.5</ele><time>2026-04-24T08:47:53.003Z</time></trkpt><trkpt lat="44.3600715" lon="7.9403304"><ele>526.6666666666667</ele><time>2026-04-24T08:47:54.001Z</time></trkpt><trkpt lat="44.3600354" lon="7.9404393"><ele>524.8333333333334</ele><time>2026-04-24T08:47:56.004Z</time></trkpt><trkpt lat="44.3599811" lon="7.9404915"><ele>523.0</ele><time>2026-04-24T08:47:56.998Z</time></trkpt><trkpt lat="44.3599258" lon="7.9405569"><ele>523.0</ele><time>2026-04-24T08:47:57.996Z</time></trkpt><trkpt lat="44.3599705" lon="7.9406533"><ele>523.0</ele><time>2026-04-24T08:48:00.997Z</time></trkpt><trkpt lat="44.3600222" lon="7.9407614"><ele>523.0</ele><time>2026-04-24T08:48:03.996Z</time></trkpt><trkpt lat="44.3600378" lon="7.9408575"><ele>523.0</ele><time>2026-04-24T08:48:07Z</time></trkpt><trkpt lat="44.3600743" lon="7.9410083"><ele>523.0</ele><time>2026-04-24T08:48:09.999Z</time></trkpt><trkpt lat="44.3600997" lon="7.9411195"><ele>523.0</ele><time>2026-04-24T08:48:10.995Z</time></trkpt><trkpt lat="44.3601668" lon="7.9411424"><ele>523.0</ele><time>2026-04-24T08:48:12.997Z</time></trkpt><trkpt lat="44.3602256" lon="7.941073"><ele>523.0</ele><time>2026-04-24T08:48:14.996Z</time></trkpt><trkpt lat="44.3603003" lon="7.9410258"><ele>523.0</ele><time>2026-04-24T08:48:17.994Z</time></trkpt><trkpt lat="44.3603696" lon="7.9409974"><ele>523.0</ele><time>2026-04-24T08:48:21.998Z</time></trkpt><trkpt lat="44.3605524" lon="7.9407496"><ele>525.0</ele><time>2026-04-24T08:48:25Z</time></trkpt><trkpt lat="44.3606701" lon="7.9405718"><ele>527.0</ele><time>2026-04-24T08:48:25.997Z</time></trkpt><trkpt lat="44.3607589" lon="7.9404553"><ele>529.0</ele><time>2026-04-24T08:48:27Z</time></trkpt><trkpt lat="44.3608172" lon="7.9403614"><ele>531.0</ele><time>2026-04-24T08:48:28Z</time></trkpt><trkpt lat="44.360862" lon="7.9402836"><ele>531.0</ele><time>2026-04-24T08:48:28.999Z</time></trkpt><trkpt lat="44.3609355" lon="7.940178"><ele>531.0</ele><time>2026-04-24T08:48:30.996Z</time></trkpt><trkpt lat="44.360978" lon="7.9401035"><ele>531.0</ele><time>2026-04-24T08:48:32.002Z</time></trkpt><trkpt lat="44.3610168" lon="7.9400285"><ele>531.0</ele><time>2026-04-24T08:48:33.002Z</time></trkpt><trkpt lat="44.3610556" lon="7.9399439"><ele>531.0</ele><time>2026-04-24T08:48:34.001Z</time></trkpt><trkpt lat="44.3611009" lon="7.9398553"><ele>531.0</ele><time>2026-04-24T08:48:34.998Z</time></trkpt><trkpt lat="44.3611681" lon="7.9397515"><ele>530.6</ele><time>2026-04-24T08:48:35.999Z</time></trkpt><trkpt lat="44.3612389" lon="7.9396444"><ele>530.2</ele><time>2026-04-24T08:48:36.997Z</time></trkpt><trkpt lat="44.3613169" lon="7.9395627"><ele>529.8</ele><time>2026-04-24T08:48:38.003Z</time></trkpt><trkpt lat="44.3613964" lon="7.939482"><ele>529.4</ele><time>2026-04-24T08:48:38.998Z</time></trkpt><trkpt lat="44.3614632" lon="7.9394174"><ele>529.0</ele><time>2026-04-24T08:48:39.999Z</time></trkpt><trkpt lat="44.3615269" lon="7.9393512"><ele>529.0</ele><time>2026-04-24T08:48:40.997Z</time></trkpt><trkpt lat="44.3615988" lon="7.939287"><ele>529.0</ele><time>2026-04-24T08:48:42.004Z</time></trkpt><trkpt lat="44.3616597" lon="7.9392046"><ele>529.0</ele><time>2026-04-24T08:48:42.998Z</time></trkpt><trkpt lat="44.3617374" lon="7.9391151"><ele>529.0</ele><time>2026-04-24T08:48:44.001Z</time></trkpt><trkpt lat="44.3617899" lon="7.9390242"><ele>529.0</ele><time>2026-04-24T08:48:44.999Z</time></trkpt><trkpt lat="44.3618569" lon="7.9389554"><ele>529.0</ele><time>2026-04-24T08:48:46.001Z</time></trkpt><trkpt lat="44.3619156" lon="7.938908"><ele>529.6666666666667</ele><time>2026-04-24T08:48:47Z</time></trkpt><trkpt lat="44.3619894" lon="7.9388746"><ele>530.3333333333334</ele><time>2026-04-24T08:48:48.997Z</time></trkpt><trkpt lat="44.3620525" lon="7.9388639"><ele>531.0</ele><time>2026-04-24T08:48:51.009Z</time></trkpt><trkpt lat="44.3621146" lon="7.9388805"><ele>531.6666666666666</ele><time>2026-04-24T08:48:54Z</time></trkpt><trkpt lat="44.3621694" lon="7.9389283"><ele>532.3333333333333</ele><time>2026-04-24T08:48:57.002Z</time></trkpt><trkpt lat="44.3622244" lon="7.9390868"><ele>533.0</ele><time>2026-04-24T08:48:59.001Z</time></trkpt><trkpt lat="44.3625217" lon="7.9392869"><ele>533.0</ele><time>2026-04-24T08:49:00.001Z</time></trkpt><trkpt lat="44.3625922" lon="7.9394074"><ele>533.0</ele><time>2026-04-24T08:49:01.999Z</time></trkpt><trkpt lat="44.3626276" lon="7.9395037"><ele>533.0</ele><time>2026-04-24T08:49:04.001Z</time></trkpt><trkpt lat="44.3627424" lon="7.9395623"><ele>533.0</ele><time>2026-04-24T08:49:06.007Z</time></trkpt><trkpt lat="44.3628705" lon="7.939652"><ele>533.0</ele><time>2026-04-24T08:49:08.007Z</time></trkpt><trkpt lat="44.3629571" lon="7.9397041"><ele>533.0</ele><time>2026-04-24T08:49:09.001Z</time></trkpt><trkpt lat="44.3630585" lon="7.9397418"><ele>533.0</ele><time>2026-04-24T08:49:10.001Z</time></trkpt><trkpt lat="44.3631462" lon="7.9397695"><ele>533.0</ele><time>2026-04-24T08:49:11Z</time></trkpt><trkpt lat="44.3632217" lon="7.9398127"><ele>533.0</ele><time>2026-04-24T08:49:12.001Z</time></trkpt><trkpt lat="44.3633091" lon="7.9398909"><ele>531.8</ele><time>2026-04-24T08:49:13.997Z</time></trkpt><trkpt lat="44.3633631" lon="7.9399528"><ele>530.5999999999999</ele><time>2026-04-24T08:49:15.011Z</time></trkpt><trkpt lat="44.3634077" lon="7.9400852"><ele>529.4000000000001</ele><time>2026-04-24T08:49:16.999Z</time></trkpt><trkpt lat="44.363363" lon="7.9402622"><ele>528.2</ele><time>2026-04-24T08:49:18.997Z</time></trkpt><trkpt lat="44.3633529" lon="7.9403531"><ele>527.0</ele><time>2026-04-24T08:49:20.006Z</time></trkpt><trkpt lat="44.3633428" lon="7.9404723"><ele>530.0</ele><time>2026-04-24T08:49:21.006Z</time></trkpt><trkpt lat="44.3633255" lon="7.940592"><ele>533.0</ele><time>2026-04-24T08:49:22.007Z</time></trkpt><trkpt lat="44.3633542" lon="7.9406927"><ele>536.0</ele><time>2026-04-24T08:49:23.002Z</time></trkpt><trkpt lat="44.3633958" lon="7.9407785"><ele>539.0</ele><time>2026-04-24T08:49:24.002Z</time></trkpt><trkpt lat="44.3634321" lon="7.940874"><ele>542.0</ele><time>2026-04-24T08:49:25.001Z</time></trkpt><trkpt lat="44.3634366" lon="7.9409866"><ele>545.0</ele><time>2026-04-24T08:49:26.004Z</time></trkpt><trkpt lat="44.3634238" lon="7.9410887"><ele>546.3333333333333</ele><time>2026-04-24T08:49:26.994Z</time></trkpt><trkpt lat="44.3634288" lon="7.9412433"><ele>547.6666666666666</ele><time>2026-04-24T08:49:29.001Z</time></trkpt><trkpt lat="44.3634177" lon="7.9413603"><ele>549.0</ele><time>2026-04-24T08:49:29.998Z</time></trkpt><trkpt lat="44.3634057" lon="7.9414569"><ele>550.3333333333334</ele><time>2026-04-24T08:49:31.002Z</time></trkpt><trkpt lat="44.3633816" lon="7.9415802"><ele>551.6666666666667</ele><time>2026-04-24T08:49:33.002Z</time></trkpt><trkpt lat="44.3633576" lon="7.9416916"><ele>553.0</ele><time>2026-04-24T08:49:35.001Z</time></trkpt><trkpt lat="44.3633547" lon="7.9417996"><ele>554.8</ele><time>2026-04-24T08:49:36.998Z</time></trkpt><trkpt lat="44.3633435" lon="7.9419282"><ele>556.5999999999999</ele><time>2026-04-24T08:49:39.998Z</time></trkpt><trkpt lat="44.3633553" lon="7.9420537"><ele>558.4000000000001</ele><time>2026-04-24T08:49:41.998Z</time></trkpt><trkpt lat="44.3633414" lon="7.942209"><ele>560.2</ele><time>2026-04-24T08:49:42.999Z</time></trkpt><trkpt lat="44.3633152" lon="7.942315"><ele>562.0</ele><time>2026-04-24T08:49:43.995Z</time></trkpt><trkpt lat="44.363231" lon="7.942399"><ele>562.0</ele><time>2026-04-24T08:49:46.005Z</time></trkpt><trkpt lat="44.3631202" lon="7.9424113"><ele>562.0</ele><time>2026-04-24T08:49:47.999Z</time></trkpt><trkpt lat="44.3630421" lon="7.9424052"><ele>562.0</ele><time>2026-04-24T08:49:51.008Z</time></trkpt><trkpt lat="44.3629609" lon="7.9423594"><ele>562.0</ele><time>2026-04-24T08:49:53.996Z</time></trkpt><trkpt lat="44.3628905" lon="7.9422676"><ele>562.0</ele><time>2026-04-24T08:49:56.996Z</time></trkpt><trkpt lat="44.3628313" lon="7.9421955"><ele>567.75</ele><time>2026-04-24T08:49:58.999Z</time></trkpt><trkpt lat="44.3627492" lon="7.9421269"><ele>573.5</ele><time>2026-04-24T08:50:01.003Z</time></trkpt><trkpt lat="44.3626684" lon="7.9421193"><ele>579.25</ele><time>2026-04-24T08:50:02.999Z</time></trkpt><trkpt lat="44.362593" lon="7.9421447"><ele>585.0</ele><time>2026-04-24T08:50:05.002Z</time></trkpt><trkpt lat="44.362323" lon="7.9421399"><ele>585.0</ele><time>2026-04-24T08:50:06.999Z</time></trkpt><trkpt lat="44.3622141" lon="7.9422428"><ele>585.0</ele><time>2026-04-24T08:50:09.006Z</time></trkpt><trkpt lat="44.3621103" lon="7.9423932"><ele>585.0</ele><time>2026-04-24T08:50:11.004Z</time></trkpt><trkpt lat="44.3620258" lon="7.9424348"><ele>585.0</ele><time>2026-04-24T08:50:12.009Z</time></trkpt><trkpt lat="44.3620258" lon="7.9425487"><ele>583.4</ele><time>2026-04-24T08:50:12.99Z</time></trkpt><trkpt lat="44.3620571" lon="7.9426803"><ele>581.8</ele><time>2026-04-24T08:50:15.001Z</time></trkpt><trkpt lat="44.3621053" lon="7.9428316"><ele>580.2</ele><time>2026-04-24T08:50:17.005Z</time></trkpt><trkpt lat="44.3621358" lon="7.9429209"><ele>578.6</ele><time>2026-04-24T08:50:18.004Z</time></trkpt><trkpt lat="44.3621839" lon="7.9430725"><ele>577.0</ele><time>2026-04-24T08:50:20.004Z</time></trkpt><trkpt lat="44.3622142" lon="7.9431742"><ele>580.4</ele><time>2026-04-24T08:50:21.007Z</time></trkpt><trkpt lat="44.3622527" lon="7.9432866"><ele>583.8000000000001</ele><time>2026-04-24T08:50:21.999Z</time></trkpt><trkpt lat="44.3623139" lon="7.9434014"><ele>587.2</ele><time>2026-04-24T08:50:22.998Z</time></trkpt><trkpt lat="44.3623533" lon="7.9435102"><ele>590.6</ele><time>2026-04-24T08:50:23.999Z</time></trkpt><trkpt lat="44.3623822" lon="7.9435946"><ele>594.0</ele><time>2026-04-24T08:50:24.997Z</time></trkpt><trkpt lat="44.3624255" lon="7.9437476"><ele>595.2857142857143</ele><time>2026-04-24T08:50:27Z</time></trkpt><trkpt lat="44.3624486" lon="7.9438302"><ele>596.5714285714287</ele><time>2026-04-24T08:50:27.997Z</time></trkpt><trkpt lat="44.3624781" lon="7.9439109"><ele>597.8571428571429</ele><time>2026-04-24T08:50:29.001Z</time></trkpt><trkpt lat="44.362503" lon="7.9440127"><ele>599.1428571428571</ele><time>2026-04-24T08:50:30.001Z</time></trkpt><trkpt lat="44.3625259" lon="7.9441139"><ele>600.4285714285713</ele><time>2026-04-24T08:50:30.998Z</time></trkpt><trkpt lat="44.3625338" lon="7.9442187"><ele>601.7142857142858</ele><time>2026-04-24T08:50:32.004Z</time></trkpt><trkpt lat="44.3625372" lon="7.9443101"><ele>603.0</ele><time>2026-04-24T08:50:33.002Z</time></trkpt><trkpt lat="44.3625457" lon="7.9444042"><ele>604.8333333333334</ele><time>2026-04-24T08:50:34Z</time></trkpt><trkpt lat="44.3625497" lon="7.9444943"><ele>606.6666666666666</ele><time>2026-04-24T08:50:35.003Z</time></trkpt><trkpt lat="44.3626063" lon="7.9446511"><ele>608.5</ele><time>2026-04-24T08:50:37.004Z</time></trkpt><trkpt lat="44.3626766" lon="7.9446725"><ele>610.3333333333333</ele><time>2026-04-24T08:50:38.001Z</time></trkpt><trkpt lat="44.3627371" lon="7.9447171"><ele>612.1666666666666</ele><time>2026-04-24T08:50:39.004Z</time></trkpt><trkpt lat="44.3628038" lon="7.9447502"><ele>614.0</ele><time>2026-04-24T08:50:40.001Z</time></trkpt><trkpt lat="44.3628871" lon="7.9448011"><ele>614.0</ele><time>2026-04-24T08:50:41Z</time></trkpt><trkpt lat="44.3629819" lon="7.9448849"><ele>614.0</ele><time>2026-04-24T08:50:42.001Z</time></trkpt><trkpt lat="44.3630827" lon="7.944962"><ele>614.0</ele><time>2026-04-24T08:50:42.998Z</time></trkpt><trkpt lat="44.3631914" lon="7.945046"><ele>614.0</ele><time>2026-04-24T08:50:44Z</time></trkpt><trkpt lat="44.3633015" lon="7.9451063"><ele>618.4</ele><time>2026-04-24T08:50:44.998Z</time></trkpt><trkpt lat="44.3633784" lon="7.9451848"><ele>622.8</ele><time>2026-04-24T08:50:46.001Z</time></trkpt><trkpt lat="44.3634463" lon="7.9452338"><ele>627.2</ele><time>2026-04-24T08:50:46.998Z</time></trkpt><trkpt lat="44.363526" lon="7.945279"><ele>631.6</ele><time>2026-04-24T08:50:48Z</time></trkpt><trkpt lat="44.3636194" lon="7.9453175"><ele>636.0</ele><time>2026-04-24T08:50:49.001Z</time></trkpt><trkpt lat="44.3637139" lon="7.9453503"><ele>636.0</ele><time>2026-04-24T08:50:49.997Z</time></trkpt><trkpt lat="44.3638339" lon="7.9453648"><ele>636.0</ele><time>2026-04-24T08:50:51.002Z</time></trkpt><trkpt lat="44.3639469" lon="7.9453692"><ele>636.0</ele><time>2026-04-24T08:50:52.003Z</time></trkpt><trkpt lat="44.3640579" lon="7.945362"><ele>636.0</ele><time>2026-04-24T08:50:53Z</time></trkpt><trkpt lat="44.3641569" lon="7.9453602"><ele>636.0</ele><time>2026-04-24T08:50:54.005Z</time></trkpt><trkpt lat="44.3642301" lon="7.9453704"><ele>633.4</ele><time>2026-04-24T08:50:54.999Z</time></trkpt><trkpt lat="44.3642934" lon="7.9453852"><ele>630.8</ele><time>2026-04-24T08:50:55.997Z</time></trkpt><trkpt lat="44.3643808" lon="7.9454506"><ele>628.1999999999999</ele><time>2026-04-24T08:50:57.997Z</time></trkpt><trkpt lat="44.3643924" lon="7.9455835"><ele>625.6</ele><time>2026-04-24T08:51:01.004Z</time></trkpt><trkpt lat="44.3643091" lon="7.9456415"><ele>623.0</ele><time>2026-04-24T08:51:02.999Z</time></trkpt><trkpt lat="44.3642055" lon="7.9456848"><ele>623.0</ele><time>2026-04-24T08:51:04.002Z</time></trkpt><trkpt lat="44.3640839" lon="7.9457115"><ele>623.0</ele><time>2026-04-24T08:51:05.007Z</time></trkpt><trkpt lat="44.3639662" lon="7.9457439"><ele>623.0</ele><time>2026-04-24T08:51:06.009Z</time></trkpt><trkpt lat="44.3638451" lon="7.9457874"><ele>623.0</ele><time>2026-04-24T08:51:06.996Z</time></trkpt><trkpt lat="44.3637194" lon="7.9458272"><ele>626.0</ele><time>2026-04-24T08:51:08.003Z</time></trkpt><trkpt lat="44.3636038" lon="7.9458678"><ele>629.0</ele><time>2026-04-24T08:51:08.996Z</time></trkpt><trkpt lat="44.3634952" lon="7.9459281"><ele>632.0</ele><time>2026-04-24T08:51:10.004Z</time></trkpt><trkpt lat="44.3633975" lon="7.9460083"><ele>635.0</ele><time>2026-04-24T08:51:10.999Z</time></trkpt><trkpt lat="44.3633001" lon="7.9461006"><ele>635.0</ele><time>2026-04-24T08:51:11.998Z</time></trkpt><trkpt lat="44.3631936" lon="7.946212"><ele>635.0</ele><time>2026-04-24T08:51:13Z</time></trkpt><trkpt lat="44.3630946" lon="7.9463402"><ele>635.0</ele><time>2026-04-24T08:51:14Z</time></trkpt><trkpt lat="44.363012" lon="7.9464917"><ele>635.0</ele><time>2026-04-24T08:51:14.999Z</time></trkpt><trkpt lat="44.3629281" lon="7.9466543"><ele>639.75</ele><time>2026-04-24T08:51:16Z</time></trkpt><trkpt lat="44.3628711" lon="7.9468072"><ele>644.5</ele><time>2026-04-24T08:51:16.999Z</time></trkpt><trkpt lat="44.3628033" lon="7.9469701"><ele>649.25</ele><time>2026-04-24T08:51:18Z</time></trkpt><trkpt lat="44.3627779" lon="7.9471131"><ele>654.0</ele><time>2026-04-24T08:51:19Z</time></trkpt><trkpt lat="44.3627567" lon="7.9472813"><ele>654.0</ele><time>2026-04-24T08:51:19.997Z</time></trkpt><trkpt lat="44.3627584" lon="7.9474484"><ele>654.0</ele><time>2026-04-24T08:51:21.002Z</time></trkpt><trkpt lat="44.3627667" lon="7.9476405"><ele>654.0</ele><time>2026-04-24T08:51:21.999Z</time></trkpt><trkpt lat="44.3628101" lon="7.9478141"><ele>654.0</ele><time>2026-04-24T08:51:23.003Z</time></trkpt><trkpt lat="44.3628516" lon="7.9479809"><ele>654.0</ele><time>2026-04-24T08:51:24Z</time></trkpt><trkpt lat="44.3629092" lon="7.9481266"><ele>654.0</ele><time>2026-04-24T08:51:24.996Z</time></trkpt><trkpt lat="44.3629898" lon="7.9482993"><ele>654.0</ele><time>2026-04-24T08:51:25.999Z</time></trkpt><trkpt lat="44.3630649" lon="7.9484322"><ele>654.0</ele><time>2026-04-24T08:51:27Z</time></trkpt><trkpt lat="44.3631424" lon="7.9485523"><ele>654.0</ele><time>2026-04-24T08:51:28.003Z</time></trkpt><trkpt lat="44.3632" lon="7.9486564"><ele>654.0</ele><time>2026-04-24T08:51:28.999Z</time></trkpt><trkpt lat="44.3632449" lon="7.9487743"><ele>654.0</ele><time>2026-04-24T08:51:30.001Z</time></trkpt><trkpt lat="44.3632779" lon="7.9488855"><ele>654.0</ele><time>2026-04-24T08:51:30.996Z</time></trkpt><trkpt lat="44.3633057" lon="7.9489911"><ele>654.0</ele><time>2026-04-24T08:51:32.004Z</time></trkpt><trkpt lat="44.3633179" lon="7.9491411"><ele>651.25</ele><time>2026-04-24T08:51:34.004Z</time></trkpt><trkpt lat="44.3632539" lon="7.9492618"><ele>648.5</ele><time>2026-04-24T08:51:35.004Z</time></trkpt><trkpt lat="44.3632085" lon="7.9493923"><ele>645.75</ele><time>2026-04-24T08:51:36.007Z</time></trkpt><trkpt lat="44.3631366" lon="7.9495421"><ele>643.0</ele><time>2026-04-24T08:51:37.003Z</time></trkpt><trkpt lat="44.3630258" lon="7.9496979"><ele>643.0</ele><time>2026-04-24T08:51:37.999Z</time></trkpt><trkpt lat="44.3629294" lon="7.9498246"><ele>643.0</ele><time>2026-04-24T08:51:38.999Z</time></trkpt><trkpt lat="44.3628275" lon="7.9499329"><ele>643.0</ele><time>2026-04-24T08:51:39.998Z</time></trkpt><trkpt lat="44.3626842" lon="7.9501036"><ele>643.0</ele><time>2026-04-24T08:51:41Z</time></trkpt><trkpt lat="44.3625638" lon="7.9502601"><ele>644.25</ele><time>2026-04-24T08:51:42.001Z</time></trkpt><trkpt lat="44.3624879" lon="7.9503807"><ele>645.5</ele><time>2026-04-24T08:51:42.999Z</time></trkpt><trkpt lat="44.3624087" lon="7.9505332"><ele>646.75</ele><time>2026-04-24T08:51:44Z</time></trkpt><trkpt lat="44.3623779" lon="7.9506698"><ele>648.0</ele><time>2026-04-24T08:51:45.001Z</time></trkpt><trkpt lat="44.3623226" lon="7.9508405"><ele>648.75</ele><time>2026-04-24T08:51:46.001Z</time></trkpt><trkpt lat="44.3622655" lon="7.9510084"><ele>649.5</ele><time>2026-04-24T08:51:46.997Z</time></trkpt><trkpt lat="44.3621812" lon="7.9511909"><ele>650.25</ele><time>2026-04-24T08:51:47.999Z</time></trkpt><trkpt lat="44.3621222" lon="7.9513375"><ele>651.0</ele><time>2026-04-24T08:51:48.998Z</time></trkpt><trkpt lat="44.362069" lon="7.9514796"><ele>652.25</ele><time>2026-04-24T08:51:49.998Z</time></trkpt><trkpt lat="44.3620052" lon="7.9516114"><ele>653.5</ele><time>2026-04-24T08:51:51Z</time></trkpt><trkpt lat="44.3619268" lon="7.9517497"><ele>654.75</ele><time>2026-04-24T08:51:52.001Z</time></trkpt><trkpt lat="44.3618388" lon="7.9518744"><ele>656.0</ele><time>2026-04-24T08:51:52.999Z</time></trkpt><trkpt lat="44.3617495" lon="7.9519784"><ele>657.0</ele><time>2026-04-24T08:51:54.001Z</time></trkpt><trkpt lat="44.3616559" lon="7.9520786"><ele>658.0</ele><time>2026-04-24T08:51:55Z</time></trkpt><trkpt lat="44.3615597" lon="7.9521503"><ele>659.0</ele><time>2026-04-24T08:51:55.999Z</time></trkpt><trkpt lat="44.361455" lon="7.9522342"><ele>660.0</ele><time>2026-04-24T08:51:57.005Z</time></trkpt><trkpt lat="44.36134" lon="7.952286"><ele>661.25</ele><time>2026-04-24T08:51:58.001Z</time></trkpt><trkpt lat="44.3612253" lon="7.9523185"><ele>662.5</ele><time>2026-04-24T08:51:58.999Z</time></trkpt><trkpt lat="44.3611094" lon="7.9523382"><ele>663.75</ele><time>2026-04-24T08:52:00.002Z</time></trkpt><trkpt lat="44.3609853" lon="7.952361"><ele>665.0</ele><time>2026-04-24T08:52:00.999Z</time></trkpt><trkpt lat="44.3608946" lon="7.9523952"><ele>665.0</ele><time>2026-04-24T08:52:02.005Z</time></trkpt><trkpt lat="44.3607987" lon="7.9524366"><ele>665.0</ele><time>2026-04-24T08:52:03.998Z</time></trkpt><trkpt lat="44.3607211" lon="7.9525834"><ele>665.0</ele><time>2026-04-24T08:52:06.003Z</time></trkpt><trkpt lat="44.3606922" lon="7.9526968"><ele>665.0</ele><time>2026-04-24T08:52:07.001Z</time></trkpt><trkpt lat="44.3606754" lon="7.95285"><ele>665.0</ele><time>2026-04-24T08:52:08.002Z</time></trkpt><trkpt lat="44.3606545" lon="7.952986"><ele>665.25</ele><time>2026-04-24T08:52:09.002Z</time></trkpt><trkpt lat="44.3606199" lon="7.9531225"><ele>665.5</ele><time>2026-04-24T08:52:10Z</time></trkpt><trkpt lat="44.3605581" lon="7.953243"><ele>665.75</ele><time>2026-04-24T08:52:10.998Z</time></trkpt><trkpt lat="44.3604732" lon="7.9533623"><ele>666.0</ele><time>2026-04-24T08:52:11.998Z</time></trkpt><trkpt lat="44.360369" lon="7.9535039"><ele>667.6666666666666</ele><time>2026-04-24T08:52:13.004Z</time></trkpt><trkpt lat="44.360243" lon="7.9536639"><ele>669.3333333333333</ele><time>2026-04-24T08:52:14.002Z</time></trkpt><trkpt lat="44.3601018" lon="7.9537972"><ele>671.0</ele><time>2026-04-24T08:52:15.01Z</time></trkpt><trkpt lat="44.3599663" lon="7.9539241"><ele>671.0</ele><time>2026-04-24T08:52:15.999Z</time></trkpt><trkpt lat="44.3598581" lon="7.9540455"><ele>671.0</ele><time>2026-04-24T08:52:17Z</time></trkpt><trkpt lat="44.3597611" lon="7.9541658"><ele>671.0</ele><time>2026-04-24T08:52:18.005Z</time></trkpt><trkpt lat="44.3596827" lon="7.9542831"><ele>671.0</ele><time>2026-04-24T08:52:18.999Z</time></trkpt><trkpt lat="44.3596371" lon="7.9543841"><ele>671.1999999999999</ele><time>2026-04-24T08:52:20.011Z</time></trkpt><trkpt lat="44.3595999" lon="7.9544706"><ele>671.4</ele><time>2026-04-24T08:52:21.002Z</time></trkpt><trkpt lat="44.3595302" lon="7.9544553"><ele>671.6</ele><time>2026-04-24T08:52:23.999Z</time></trkpt><trkpt lat="44.3595146" lon="7.9542878"><ele>671.8</ele><time>2026-04-24T08:52:26.002Z</time></trkpt><trkpt lat="44.359513" lon="7.9541804"><ele>672.0</ele><time>2026-04-24T08:52:29.002Z</time></trkpt><trkpt lat="44.3593877" lon="7.9538485"><ele>672.0</ele><time>2026-04-24T08:52:31.003Z</time></trkpt><trkpt lat="44.3593207" lon="7.9536867"><ele>672.0</ele><time>2026-04-24T08:52:32Z</time></trkpt><trkpt lat="44.3592139" lon="7.9534438"><ele>672.0</ele><time>2026-04-24T08:52:33.006Z</time></trkpt><trkpt lat="44.3591519" lon="7.9533077"><ele>672.0</ele><time>2026-04-24T08:52:33.99Z</time></trkpt><trkpt lat="44.3590912" lon="7.9531665"><ele>672.0</ele><time>2026-04-24T08:52:34.993Z</time></trkpt><trkpt lat="44.3590259" lon="7.9530175"><ele>672.0</ele><time>2026-04-24T08:52:36Z</time></trkpt><trkpt lat="44.3589548" lon="7.9528634"><ele>672.0</ele><time>2026-04-24T08:52:36.999Z</time></trkpt><trkpt lat="44.3588832" lon="7.9526953"><ele>668.75</ele><time>2026-04-24T08:52:37.999Z</time></trkpt><trkpt lat="44.3587961" lon="7.9525307"><ele>665.5</ele><time>2026-04-24T08:52:38.999Z</time></trkpt><trkpt lat="44.3587121" lon="7.9523702"><ele>662.25</ele><time>2026-04-24T08:52:40Z</time></trkpt><trkpt lat="44.3586314" lon="7.9522124"><ele>659.0</ele><time>2026-04-24T08:52:41.003Z</time></trkpt><trkpt lat="44.3585533" lon="7.9520786"><ele>659.0</ele><time>2026-04-24T08:52:42.002Z</time></trkpt><trkpt lat="44.3584892" lon="7.9519477"><ele>659.0</ele><time>2026-04-24T08:52:43.003Z</time></trkpt><trkpt lat="44.3584215" lon="7.9518547"><ele>659.0</ele><time>2026-04-24T08:52:43.999Z</time></trkpt><trkpt lat="44.358334" lon="7.9517516"><ele>659.0</ele><time>2026-04-24T08:52:45Z</time></trkpt><trkpt lat="44.3582381" lon="7.9516923"><ele>659.0</ele><time>2026-04-24T08:52:45.998Z</time></trkpt><trkpt lat="44.3581747" lon="7.9516348"><ele>659.0</ele><time>2026-04-24T08:52:47Z</time></trkpt><trkpt lat="44.3582559" lon="7.9517551"><ele>659.0</ele><time>2026-04-24T08:53:02.001Z</time></trkpt><trkpt lat="44.3582208" lon="7.9518283"><ele>659.0</ele><time>2026-04-24T08:53:12.999Z</time></trkpt><trkpt lat="44.3581523" lon="7.9518385"><ele>659.0</ele><time>2026-04-24T08:53:14.997Z</time></trkpt><trkpt lat="44.3580716" lon="7.9518069"><ele>659.0</ele><time>2026-04-24T08:53:16.009Z</time></trkpt><trkpt lat="44.3579855" lon="7.9517838"><ele>659.0</ele><time>2026-04-24T08:53:17.005Z</time></trkpt><trkpt lat="44.3579076" lon="7.9517774"><ele>656.2</ele><time>2026-04-24T08:53:18.006Z</time></trkpt><trkpt lat="44.3578267" lon="7.9517516"><ele>653.4000000000001</ele><time>2026-04-24T08:53:19Z</time></trkpt><trkpt lat="44.3577422" lon="7.951731"><ele>650.6</ele><time>2026-04-24T08:53:19.998Z</time></trkpt><trkpt lat="44.3576463" lon="7.9517284"><ele>647.8</ele><time>2026-04-24T08:53:20.999Z</time></trkpt><trkpt lat="44.3575483" lon="7.9517349"><ele>645.0</ele><time>2026-04-24T08:53:21.998Z</time></trkpt><trkpt lat="44.3574485" lon="7.9517508"><ele>645.0</ele><time>2026-04-24T08:53:23Z</time></trkpt><trkpt lat="44.3573713" lon="7.9517601"><ele>645.0</ele><time>2026-04-24T08:53:24Z</time></trkpt><trkpt lat="44.3573019" lon="7.9517596"><ele>645.0</ele><time>2026-04-24T08:53:24.997Z</time></trkpt><trkpt lat="44.357219" lon="7.9517437"><ele>645.0</ele><time>2026-04-24T08:53:25.999Z</time></trkpt><trkpt lat="44.3571303" lon="7.9517813"><ele>645.0</ele><time>2026-04-24T08:53:27Z</time></trkpt><trkpt lat="44.3570092" lon="7.9518264"><ele>645.0</ele><time>2026-04-24T08:53:27.997Z</time></trkpt><trkpt lat="44.3568896" lon="7.9518541"><ele>643.5</ele><time>2026-04-24T08:53:29.009Z</time></trkpt><trkpt lat="44.3567916" lon="7.9518779"><ele>642.0</ele><time>2026-04-24T08:53:30.003Z</time></trkpt><trkpt lat="44.3567139" lon="7.9518948"><ele>640.5</ele><time>2026-04-24T08:53:31.001Z</time></trkpt><trkpt lat="44.3566347" lon="7.9519048"><ele>639.0</ele><time>2026-04-24T08:53:32Z</time></trkpt><trkpt lat="44.3565687" lon="7.9519139"><ele>637.5</ele><time>2026-04-24T08:53:33.001Z</time></trkpt><trkpt lat="44.3565011" lon="7.9519104"><ele>636.0</ele><time>2026-04-24T08:53:34Z</time></trkpt><trkpt lat="44.3564311" lon="7.9518993"><ele>636.25</ele><time>2026-04-24T08:53:34.999Z</time></trkpt><trkpt lat="44.356326" lon="7.9518214"><ele>636.5</ele><time>2026-04-24T08:53:36.003Z</time></trkpt><trkpt lat="44.3562223" lon="7.9517372"><ele>636.75</ele><time>2026-04-24T08:53:37.001Z</time></trkpt><trkpt lat="44.3561159" lon="7.9516371"><ele>637.0</ele><time>2026-04-24T08:53:37.997Z</time></trkpt><trkpt lat="44.3560124" lon="7.951539"><ele>637.0</ele><time>2026-04-24T08:53:38.998Z</time></trkpt><trkpt lat="44.3559195" lon="7.9514185"><ele>637.0</ele><time>2026-04-24T08:53:39.999Z</time></trkpt><trkpt lat="44.3558137" lon="7.9513107"><ele>637.0</ele><time>2026-04-24T08:53:41.001Z</time></trkpt><trkpt lat="44.3556997" lon="7.9511902"><ele>637.0</ele><time>2026-04-24T08:53:41.999Z</time></trkpt><trkpt lat="44.3555876" lon="7.9511021"><ele>636.75</ele><time>2026-04-24T08:53:43.011Z</time></trkpt><trkpt lat="44.3554654" lon="7.9510447"><ele>636.5</ele><time>2026-04-24T08:53:44.006Z</time></trkpt><trkpt lat="44.3553427" lon="7.9509838"><ele>636.25</ele><time>2026-04-24T08:53:44.995Z</time></trkpt><trkpt lat="44.3552242" lon="7.9509073"><ele>636.0</ele><time>2026-04-24T08:53:46.007Z</time></trkpt><trkpt lat="44.3551227" lon="7.9508635"><ele>636.0</ele><time>2026-04-24T08:53:47.001Z</time></trkpt><trkpt lat="44.355037" lon="7.9508135"><ele>636.0</ele><time>2026-04-24T08:53:47.999Z</time></trkpt><trkpt lat="44.354949" lon="7.950759"><ele>636.0</ele><time>2026-04-24T08:53:48.999Z</time></trkpt><trkpt lat="44.354853" lon="7.9507118"><ele>636.0</ele><time>2026-04-24T08:53:49.999Z</time></trkpt><trkpt lat="44.3547598" lon="7.9506485"><ele>636.0</ele><time>2026-04-24T08:53:51.009Z</time></trkpt><trkpt lat="44.3546755" lon="7.9506269"><ele>637.8</ele><time>2026-04-24T08:53:51.999Z</time></trkpt><trkpt lat="44.3545399" lon="7.9505716"><ele>639.6</ele><time>2026-04-24T08:53:53.995Z</time></trkpt><trkpt lat="44.3544553" lon="7.9505528"><ele>641.4</ele><time>2026-04-24T08:53:54.997Z</time></trkpt><trkpt lat="44.3543449" lon="7.9505105"><ele>643.2</ele><time>2026-04-24T08:53:57.002Z</time></trkpt><trkpt lat="44.3543725" lon="7.9506327"><ele>645.0</ele><time>2026-04-24T08:53:58.998Z</time></trkpt><trkpt lat="44.3544217" lon="7.9507519"><ele>644.5</ele><time>2026-04-24T08:54:00.002Z</time></trkpt><trkpt lat="44.3544509" lon="7.9509073"><ele>644.0</ele><time>2026-04-24T08:54:01.004Z</time></trkpt><trkpt lat="44.3545298" lon="7.9511161"><ele>643.5</ele><time>2026-04-24T08:54:02.005Z</time></trkpt><trkpt lat="44.3545563" lon="7.9512808"><ele>643.0</ele><time>2026-04-24T08:54:03.001Z</time></trkpt><trkpt lat="44.3545938" lon="7.9514562"><ele>643.0</ele><time>2026-04-24T08:54:03.996Z</time></trkpt><trkpt lat="44.3546303" lon="7.9516174"><ele>643.0</ele><time>2026-04-24T08:54:05.005Z</time></trkpt><trkpt lat="44.3546781" lon="7.9517706"><ele>643.0</ele><time>2026-04-24T08:54:06.002Z</time></trkpt><trkpt lat="44.3547067" lon="7.9518963"><ele>643.0</ele><time>2026-04-24T08:54:06.996Z</time></trkpt><trkpt lat="44.3547723" lon="7.9520419"><ele>637.4</ele><time>2026-04-24T08:54:07.997Z</time></trkpt><trkpt lat="44.354808" lon="7.9521807"><ele>631.8</ele><time>2026-04-24T08:54:08.997Z</time></trkpt><trkpt lat="44.3548265" lon="7.9523194"><ele>626.2</ele><time>2026-04-24T08:54:10.005Z</time></trkpt><trkpt lat="44.3548451" lon="7.9524362"><ele>620.6</ele><time>2026-04-24T08:54:10.994Z</time></trkpt><trkpt lat="44.354895" lon="7.9526014"><ele>615.0</ele><time>2026-04-24T08:54:13.003Z</time></trkpt><trkpt lat="44.3549571" lon="7.9526444"><ele>614.2</ele><time>2026-04-24T08:54:14.005Z</time></trkpt><trkpt lat="44.3550121" lon="7.9527398"><ele>613.4</ele><time>2026-04-24T08:54:14.996Z</time></trkpt><trkpt lat="44.3550697" lon="7.9529026"><ele>612.6</ele><time>2026-04-24T08:54:16.008Z</time></trkpt><trkpt lat="44.3551037" lon="7.9530464"><ele>611.8</ele><time>2026-04-24T08:54:17.007Z</time></trkpt><trkpt lat="44.3551324" lon="7.9531795"><ele>611.0</ele><time>2026-04-24T08:54:17.995Z</time></trkpt><trkpt lat="44.3551282" lon="7.9533163"><ele>611.0</ele><time>2026-04-24T08:54:19.003Z</time></trkpt><trkpt lat="44.3551617" lon="7.9534404"><ele>611.0</ele><time>2026-04-24T08:54:19.992Z</time></trkpt><trkpt lat="44.3552137" lon="7.95358"><ele>611.0</ele><time>2026-04-24T08:54:20.995Z</time></trkpt><trkpt lat="44.3552428" lon="7.9537133"><ele>611.0</ele><time>2026-04-24T08:54:21.996Z</time></trkpt><trkpt lat="44.3552808" lon="7.9538352"><ele>611.0</ele><time>2026-04-24T08:54:22.997Z</time></trkpt><trkpt lat="44.3553184" lon="7.9539414"><ele>611.0</ele><time>2026-04-24T08:54:23.996Z</time></trkpt><trkpt lat="44.3553395" lon="7.9540519"><ele>611.0</ele><time>2026-04-24T08:54:24.994Z</time></trkpt><trkpt lat="44.355348" lon="7.9541542"><ele>611.0</ele><time>2026-04-24T08:54:25.998Z</time></trkpt><trkpt lat="44.355392" lon="7.9542528"><ele>611.0</ele><time>2026-04-24T08:54:26.997Z</time></trkpt><trkpt lat="44.3554275" lon="7.9543645"><ele>611.0</ele><time>2026-04-24T08:54:28Z</time></trkpt><trkpt lat="44.3554546" lon="7.9544652"><ele>611.0</ele><time>2026-04-24T08:54:28.994Z</time></trkpt><trkpt lat="44.3555345" lon="7.9546485"><ele>604.6</ele><time>2026-04-24T08:54:31Z</time></trkpt><trkpt lat="44.3555641" lon="7.9547334"><ele>598.2</ele><time>2026-04-24T08:54:31.996Z</time></trkpt><trkpt lat="44.3556028" lon="7.954833"><ele>591.8</ele><time>2026-04-24T08:54:33.002Z</time></trkpt><trkpt lat="44.3556526" lon="7.9549467"><ele>585.4</ele><time>2026-04-24T08:54:33.996Z</time></trkpt><trkpt lat="44.3556751" lon="7.955084"><ele>579.0</ele><time>2026-04-24T08:54:34.996Z</time></trkpt><trkpt lat="44.3557064" lon="7.9552511"><ele>576.5</ele><time>2026-04-24T08:54:35.998Z</time></trkpt><trkpt lat="44.3557211" lon="7.9554424"><ele>574.0</ele><time>2026-04-24T08:54:36.999Z</time></trkpt><trkpt lat="44.3557387" lon="7.9555813"><ele>571.5</ele><time>2026-04-24T08:54:37.996Z</time></trkpt><trkpt lat="44.3557459" lon="7.9557587"><ele>569.0</ele><time>2026-04-24T08:54:39.003Z</time></trkpt><trkpt lat="44.3557667" lon="7.9559096"><ele>567.0</ele><time>2026-04-24T08:54:39.996Z</time></trkpt><trkpt lat="44.3557667" lon="7.9560889"><ele>565.0</ele><time>2026-04-24T08:54:40.995Z</time></trkpt><trkpt lat="44.3557964" lon="7.9562366"><ele>563.0</ele><time>2026-04-24T08:54:41.997Z</time></trkpt><trkpt lat="44.3558052" lon="7.9563798"><ele>561.0</ele><time>2026-04-24T08:54:42.998Z</time></trkpt><trkpt lat="44.3557902" lon="7.9564724"><ele>559.0</ele><time>2026-04-24T08:54:44Z</time></trkpt><trkpt lat="44.3557662" lon="7.9565969"><ele>557.2</ele><time>2026-04-24T08:54:44.994Z</time></trkpt><trkpt lat="44.3557167" lon="7.9567346"><ele>555.4</ele><time>2026-04-24T08:54:46Z</time></trkpt><trkpt lat="44.3556579" lon="7.9568342"><ele>553.6</ele><time>2026-04-24T08:54:47Z</time></trkpt><trkpt lat="44.3556365" lon="7.9569488"><ele>551.8</ele><time>2026-04-24T08:54:47.997Z</time></trkpt><trkpt lat="44.355626" lon="7.9570557"><ele>550.0</ele><time>2026-04-24T08:54:48.997Z</time></trkpt><trkpt lat="44.3557083" lon="7.9571049"><ele>550.0</ele><time>2026-04-24T08:54:50.996Z</time></trkpt><trkpt lat="44.3558267" lon="7.9571864"><ele>550.0</ele><time>2026-04-24T08:54:52.999Z</time></trkpt><trkpt lat="44.3558664" lon="7.9573358"><ele>550.0</ele><time>2026-04-24T08:54:55.002Z</time></trkpt><trkpt lat="44.3558652" lon="7.9574779"><ele>550.0</ele><time>2026-04-24T08:54:55.999Z</time></trkpt><trkpt lat="44.3558894" lon="7.9576534"><ele>548.0</ele><time>2026-04-24T08:54:57.999Z</time></trkpt><trkpt lat="44.3558443" lon="7.9578018"><ele>546.0</ele><time>2026-04-24T08:54:58.995Z</time></trkpt><trkpt lat="44.3557852" lon="7.9579064"><ele>544.0</ele><time>2026-04-24T08:55:00Z</time></trkpt><trkpt lat="44.355716" lon="7.9580249"><ele>542.0</ele><time>2026-04-24T08:55:01Z</time></trkpt><trkpt lat="44.3556739" lon="7.9581028"><ele>540.0</ele><time>2026-04-24T08:55:01.999Z</time></trkpt><trkpt lat="44.3555878" lon="7.9581751"><ele>540.8</ele><time>2026-04-24T08:55:02.998Z</time></trkpt><trkpt lat="44.3555266" lon="7.958268"><ele>541.6</ele><time>2026-04-24T08:55:03.998Z</time></trkpt><trkpt lat="44.3554529" lon="7.9584076"><ele>542.4</ele><time>2026-04-24T08:55:04.998Z</time></trkpt><trkpt lat="44.3554061" lon="7.9585344"><ele>543.2</ele><time>2026-04-24T08:55:06.008Z</time></trkpt><trkpt lat="44.3553892" lon="7.9587038"><ele>544.0</ele><time>2026-04-24T08:55:07Z</time></trkpt><trkpt lat="44.3553758" lon="7.958824"><ele>544.0</ele><time>2026-04-24T08:55:07.996Z</time></trkpt><trkpt lat="44.3553594" lon="7.958966"><ele>544.0</ele><time>2026-04-24T08:55:09Z</time></trkpt><trkpt lat="44.3553433" lon="7.9591044"><ele>544.0</ele><time>2026-04-24T08:55:09.999Z</time></trkpt><trkpt lat="44.3553362" lon="7.9592572"><ele>544.0</ele><time>2026-04-24T08:55:10.996Z</time></trkpt><trkpt lat="44.355302" lon="7.9594032"><ele>544.0</ele><time>2026-04-24T08:55:11.997Z</time></trkpt><trkpt lat="44.3552565" lon="7.9595627"><ele>541.4</ele><time>2026-04-24T08:55:13.005Z</time></trkpt><trkpt lat="44.355224" lon="7.9596963"><ele>538.8</ele><time>2026-04-24T08:55:13.995Z</time></trkpt><trkpt lat="44.3551663" lon="7.9598721"><ele>536.2</ele><time>2026-04-24T08:55:15.999Z</time></trkpt><trkpt lat="44.3551275" lon="7.9599714"><ele>533.6</ele><time>2026-04-24T08:55:16.996Z</time></trkpt><trkpt lat="44.3550566" lon="7.9600911"><ele>531.0</ele><time>2026-04-24T08:55:18.002Z</time></trkpt><trkpt lat="44.3549964" lon="7.9602143"><ele>528.6666666666666</ele><time>2026-04-24T08:55:18.998Z</time></trkpt><trkpt lat="44.3549442" lon="7.9602809"><ele>526.3333333333334</ele><time>2026-04-24T08:55:20.006Z</time></trkpt><trkpt lat="44.3548895" lon="7.9603861"><ele>524.0</ele><time>2026-04-24T08:55:21.001Z</time></trkpt><trkpt lat="44.3548737" lon="7.9604881"><ele>521.6666666666667</ele><time>2026-04-24T08:55:21.995Z</time></trkpt><trkpt lat="44.3548433" lon="7.9606036"><ele>519.3333333333334</ele><time>2026-04-24T08:55:23.002Z</time></trkpt><trkpt lat="44.3547835" lon="7.960711"><ele>517.0</ele><time>2026-04-24T08:55:23.994Z</time></trkpt><trkpt lat="44.3547197" lon="7.9607873"><ele>517.25</ele><time>2026-04-24T08:55:24.994Z</time></trkpt><trkpt lat="44.3546569" lon="7.9608637"><ele>517.5</ele><time>2026-04-24T08:55:25.996Z</time></trkpt><trkpt lat="44.3545625" lon="7.9609926"><ele>517.75</ele><time>2026-04-24T08:55:27.993Z</time></trkpt><trkpt lat="44.354551" lon="7.9611577"><ele>518.0</ele><time>2026-04-24T08:55:30.001Z</time></trkpt><trkpt lat="44.3544727" lon="7.9612962"><ele>518.0</ele><time>2026-04-24T08:55:32.001Z</time></trkpt><trkpt lat="44.3544207" lon="7.9613696"><ele>518.0</ele><time>2026-04-24T08:55:33.004Z</time></trkpt><trkpt lat="44.3543453" lon="7.9614178"><ele>518.0</ele><time>2026-04-24T08:55:34.003Z</time></trkpt><trkpt lat="44.3542523" lon="7.9615385"><ele>518.0</ele><time>2026-04-24T08:55:36.002Z</time></trkpt><trkpt lat="44.3542" lon="7.9617068"><ele>518.0</ele><time>2026-04-24T08:55:38Z</time></trkpt><trkpt lat="44.3541749" lon="7.9618174"><ele>518.1666666666666</ele><time>2026-04-24T08:55:38.997Z</time></trkpt><trkpt lat="44.3541209" lon="7.9619113"><ele>518.3333333333333</ele><time>2026-04-24T08:55:40.003Z</time></trkpt><trkpt lat="44.3540618" lon="7.9619804"><ele>518.5</ele><time>2026-04-24T08:55:41.004Z</time></trkpt><trkpt lat="44.3540008" lon="7.9620583"><ele>518.6666666666666</ele><time>2026-04-24T08:55:41.998Z</time></trkpt><trkpt lat="44.3539596" lon="7.9621455"><ele>518.8333333333334</ele><time>2026-04-24T08:55:43Z</time></trkpt><trkpt lat="44.3539298" lon="7.9622573"><ele>519.0</ele><time>2026-04-24T08:55:44.002Z</time></trkpt><trkpt lat="44.3538696" lon="7.9624317"><ele>513.8</ele><time>2026-04-24T08:55:44.999Z</time></trkpt><trkpt lat="44.3538269" lon="7.9625655"><ele>508.59999999999997</ele><time>2026-04-24T08:55:45.997Z</time></trkpt><trkpt lat="44.3537875" lon="7.9626987"><ele>503.4</ele><time>2026-04-24T08:55:46.997Z</time></trkpt><trkpt lat="44.3537415" lon="7.9628386"><ele>498.2</ele><time>2026-04-24T08:55:47.998Z</time></trkpt><trkpt lat="44.353718" lon="7.9629655"><ele>493.0</ele><time>2026-04-24T08:55:49.004Z</time></trkpt><trkpt lat="44.3536668" lon="7.9630892"><ele>493.0</ele><time>2026-04-24T08:55:49.999Z</time></trkpt><trkpt lat="44.3536446" lon="7.9631871"><ele>492.99999999999994</ele><time>2026-04-24T08:55:51.007Z</time></trkpt><trkpt lat="44.3535673" lon="7.9633105"><ele>492.99999999999994</ele><time>2026-04-24T08:55:51.998Z</time></trkpt><trkpt lat="44.3535149" lon="7.9634021"><ele>493.0</ele><time>2026-04-24T08:55:52.998Z</time></trkpt><trkpt lat="44.3534385" lon="7.963511"><ele>493.0</ele><time>2026-04-24T08:55:55Z</time></trkpt><trkpt lat="44.353346" lon="7.9636113"><ele>489.79999999999995</ele><time>2026-04-24T08:55:56.996Z</time></trkpt><trkpt lat="44.3532488" lon="7.9636955"><ele>486.59999999999997</ele><time>2026-04-24T08:55:59.003Z</time></trkpt><trkpt lat="44.3531699" lon="7.9637365"><ele>483.40000000000003</ele><time>2026-04-24T08:55:59.999Z</time></trkpt><trkpt lat="44.3531026" lon="7.9637599"><ele>480.20000000000005</ele><time>2026-04-24T08:56:01.002Z</time></trkpt><trkpt lat="44.3530946" lon="7.9638773"><ele>477.0</ele><time>2026-04-24T08:56:03Z</time></trkpt><trkpt lat="44.3531803" lon="7.963976"><ele>477.0</ele><time>2026-04-24T08:56:05.002Z</time></trkpt><trkpt lat="44.3532664" lon="7.9640922"><ele>477.0</ele><time>2026-04-24T08:56:07.01Z</time></trkpt><trkpt lat="44.3533244" lon="7.9641727"><ele>477.0</ele><time>2026-04-24T08:56:08.998Z</time></trkpt><trkpt lat="44.3533139" lon="7.9642665"><ele>477.0</ele><time>2026-04-24T08:56:23Z</time></trkpt><trkpt lat="44.3533866" lon="7.9643407"><ele>477.0</ele><time>2026-04-24T08:56:24.003Z</time></trkpt><trkpt lat="44.3534474" lon="7.9643716"><ele>477.0</ele><time>2026-04-24T08:56:25.005Z</time></trkpt><trkpt lat="44.3535438" lon="7.9643784"><ele>475.3333333333333</ele><time>2026-04-24T08:56:26.998Z</time></trkpt><trkpt lat="44.3535857" lon="7.9644451"><ele>473.66666666666663</ele><time>2026-04-24T08:56:30.999Z</time></trkpt><trkpt lat="44.3535213" lon="7.9644598"><ele>472.0</ele><time>2026-04-24T09:00:17.998Z</time></trkpt><trkpt lat="44.353566" lon="7.9645252"><ele>470.3333333333333</ele><time>2026-04-24T09:10:46.997Z</time></trkpt><trkpt lat="44.3536292" lon="7.9645884"><ele>468.66666666666663</ele><time>2026-04-24T09:10:48.002Z</time></trkpt><trkpt lat="44.3537129" lon="7.9646501"><ele>467.0</ele><time>2026-04-24T09:10:49.006Z</time></trkpt><trkpt lat="44.3538297" lon="7.9647005"><ele>468.25</ele><time>2026-04-24T09:10:50.005Z</time></trkpt><trkpt lat="44.3539696" lon="7.9647501"><ele>469.5</ele><time>2026-04-24T09:10:50.996Z</time></trkpt><trkpt lat="44.354111" lon="7.9647928"><ele>470.75</ele><time>2026-04-24T09:10:51.995Z</time></trkpt><trkpt lat="44.3542611" lon="7.964839"><ele>472.0</ele><time>2026-04-24T09:10:52.994Z</time></trkpt><trkpt lat="44.3544174" lon="7.964881"><ele>472.0</ele><time>2026-04-24T09:10:53.998Z</time></trkpt><trkpt lat="44.3545821" lon="7.9649211"><ele>472.0</ele><time>2026-04-24T09:10:54.996Z</time></trkpt><trkpt lat="44.354752" lon="7.9649975"><ele>472.0</ele><time>2026-04-24T09:10:56.006Z</time></trkpt><trkpt lat="44.354913" lon="7.9651028"><ele>470.0</ele><time>2026-04-24T09:10:56.995Z</time></trkpt><trkpt lat="44.3550737" lon="7.9652196"><ele>468.0</ele><time>2026-04-24T09:10:57.995Z</time></trkpt><trkpt lat="44.355231" lon="7.9653494"><ele>466.0</ele><time>2026-04-24T09:10:58.997Z</time></trkpt><trkpt lat="44.3553851" lon="7.9654713"><ele>468.33333333333337</ele><time>2026-04-24T09:10:59.996Z</time></trkpt><trkpt lat="44.3555511" lon="7.9655868"><ele>470.66666666666663</ele><time>2026-04-24T09:11:01Z</time></trkpt><trkpt lat="44.3557169" lon="7.9657056"><ele>473.0</ele><time>2026-04-24T09:11:01.994Z</time></trkpt><trkpt lat="44.3558761" lon="7.9658417"><ele>469.3333333333333</ele><time>2026-04-24T09:11:02.998Z</time></trkpt><trkpt lat="44.3560385" lon="7.9659745"><ele>465.66666666666663</ele><time>2026-04-24T09:11:03.996Z</time></trkpt><trkpt lat="44.356197" lon="7.9660967"><ele>462.0</ele><time>2026-04-24T09:11:04.998Z</time></trkpt><trkpt lat="44.3563438" lon="7.9662091"><ele>463.66666666666663</ele><time>2026-04-24T09:11:05.996Z</time></trkpt><trkpt lat="44.3564834" lon="7.9663172"><ele>465.3333333333333</ele><time>2026-04-24T09:11:06.995Z</time></trkpt><trkpt lat="44.356618" lon="7.9664147"><ele>467.0</ele><time>2026-04-24T09:11:07.996Z</time></trkpt><trkpt lat="44.3567458" lon="7.9664998"><ele>467.0</ele><time>2026-04-24T09:11:09.001Z</time></trkpt><trkpt lat="44.356877" lon="7.9665746"><ele>467.0</ele><time>2026-04-24T09:11:09.995Z</time></trkpt><trkpt lat="44.3570048" lon="7.966651"><ele>467.0</ele><time>2026-04-24T09:11:11.001Z</time></trkpt><trkpt lat="44.3571386" lon="7.9667215"><ele>467.0</ele><time>2026-04-24T09:11:11.998Z</time></trkpt><trkpt lat="44.3572649" lon="7.9667871"><ele>465.5</ele><time>2026-04-24T09:11:12.994Z</time></trkpt><trkpt lat="44.3573989" lon="7.9668433"><ele>464.0</ele><time>2026-04-24T09:11:13.997Z</time></trkpt><trkpt lat="44.3575456" lon="7.9668933"><ele>462.5</ele><time>2026-04-24T09:11:14.996Z</time></trkpt><trkpt lat="44.3576987" lon="7.9669406"><ele>461.0</ele><time>2026-04-24T09:11:15.998Z</time></trkpt><trkpt lat="44.3578576" lon="7.9670021"><ele>461.0</ele><time>2026-04-24T09:11:16.999Z</time></trkpt><trkpt lat="44.3580273" lon="7.967057"><ele>461.0</ele><time>2026-04-24T09:11:17.995Z</time></trkpt><trkpt lat="44.3582011" lon="7.9671223"><ele>461.0</ele><time>2026-04-24T09:11:18.999Z</time></trkpt><trkpt lat="44.3583743" lon="7.9672497"><ele>460.3333333333333</ele><time>2026-04-24T09:11:20.001Z</time></trkpt><trkpt lat="44.3585375" lon="7.9674031"><ele>459.66666666666663</ele><time>2026-04-24T09:11:21.001Z</time></trkpt><trkpt lat="44.3586854" lon="7.9675745"><ele>459.0</ele><time>2026-04-24T09:11:21.998Z</time></trkpt><trkpt lat="44.3588293" lon="7.967746"><ele>459.33333333333337</ele><time>2026-04-24T09:11:22.997Z</time></trkpt><trkpt lat="44.3589737" lon="7.9679158"><ele>459.6666666666667</ele><time>2026-04-24T09:11:23.998Z</time></trkpt><trkpt lat="44.3591246" lon="7.9680883"><ele>460.0</ele><time>2026-04-24T09:11:24.998Z</time></trkpt><trkpt lat="44.3592719" lon="7.968264"><ele>460.0</ele><time>2026-04-24T09:11:25.999Z</time></trkpt><trkpt lat="44.359418" lon="7.9684439"><ele>460.0</ele><time>2026-04-24T09:11:26.997Z</time></trkpt><trkpt lat="44.3595631" lon="7.9686241"><ele>460.0</ele><time>2026-04-24T09:11:27.994Z</time></trkpt><trkpt lat="44.3597103" lon="7.9688014"><ele>460.0</ele><time>2026-04-24T09:11:28.996Z</time></trkpt><trkpt lat="44.3598602" lon="7.9689749"><ele>460.0</ele><time>2026-04-24T09:11:29.997Z</time></trkpt><trkpt lat="44.3600077" lon="7.9691531"><ele>460.0</ele><time>2026-04-24T09:11:31.002Z</time></trkpt><trkpt lat="44.3601461" lon="7.9693217"><ele>463.33333333333337</ele><time>2026-04-24T09:11:31.997Z</time></trkpt><trkpt lat="44.36027" lon="7.969483"><ele>466.66666666666663</ele><time>2026-04-24T09:11:33.006Z</time></trkpt><trkpt lat="44.3603891" lon="7.969636"><ele>470.0</ele><time>2026-04-24T09:11:33.998Z</time></trkpt><trkpt lat="44.3605039" lon="7.9697704"><ele>468.0</ele><time>2026-04-24T09:11:34.996Z</time></trkpt><trkpt lat="44.3606118" lon="7.9698843"><ele>466.0</ele><time>2026-04-24T09:11:35.998Z</time></trkpt><trkpt lat="44.3607169" lon="7.9699658"><ele>464.0</ele><time>2026-04-24T09:11:36.997Z</time></trkpt><trkpt lat="44.3608099" lon="7.9700414"><ele>462.0</ele><time>2026-04-24T09:11:38Z</time></trkpt><trkpt lat="44.3608758" lon="7.970099"><ele>460.0</ele><time>2026-04-24T09:11:39Z</time></trkpt><trkpt lat="44.3609543" lon="7.9701704"><ele>460.0</ele><time>2026-04-24T09:11:41Z</time></trkpt><trkpt lat="44.360947" lon="7.9700775"><ele>460.0</ele><time>2026-04-24T09:11:45.002Z</time></trkpt><trkpt lat="44.3608272" lon="7.9699986"><ele>460.0</ele><time>2026-04-24T09:11:47.001Z</time></trkpt><trkpt lat="44.3607467" lon="7.96991"><ele>460.0</ele><time>2026-04-24T09:11:49.01Z</time></trkpt><trkpt lat="44.36066" lon="7.9698832"><ele>460.0</ele><time>2026-04-24T09:12:03.997Z</time></trkpt><trkpt lat="44.3605504" lon="7.9699458"><ele>461.6666666666667</ele><time>2026-04-24T09:12:06.003Z</time></trkpt><trkpt lat="44.3604886" lon="7.970014"><ele>463.33333333333337</ele><time>2026-04-24T09:12:07.002Z</time></trkpt><trkpt lat="44.3604271" lon="7.9700719"><ele>465.0</ele><time>2026-04-24T09:12:08.006Z</time></trkpt><trkpt lat="44.360354" lon="7.970104"><ele>466.66666666666663</ele><time>2026-04-24T09:12:09.002Z</time></trkpt><trkpt lat="44.3602816" lon="7.9701355"><ele>468.3333333333333</ele><time>2026-04-24T09:12:09.997Z</time></trkpt><trkpt lat="44.3602042" lon="7.9701731"><ele>470.0</ele><time>2026-04-24T09:12:11Z</time></trkpt><trkpt lat="44.3601507" lon="7.9702248"><ele>471.8</ele><time>2026-04-24T09:12:11.998Z</time></trkpt><trkpt lat="44.3601025" lon="7.9703167"><ele>473.6</ele><time>2026-04-24T09:12:13.003Z</time></trkpt><trkpt lat="44.36002" lon="7.9704346"><ele>475.4</ele><time>2026-04-24T09:12:14.001Z</time></trkpt><trkpt lat="44.3599639" lon="7.9705376"><ele>477.2</ele><time>2026-04-24T09:12:15.005Z</time></trkpt><trkpt lat="44.3598938" lon="7.9706525"><ele>479.0</ele><time>2026-04-24T09:12:16.004Z</time></trkpt><trkpt lat="44.3598227" lon="7.9707471"><ele>478.99999999999994</ele><time>2026-04-24T09:12:17.001Z</time></trkpt><trkpt lat="44.3597567" lon="7.9708124"><ele>479.0</ele><time>2026-04-24T09:12:17.998Z</time></trkpt><trkpt lat="44.3596841" lon="7.9708774"><ele>479.0</ele><time>2026-04-24T09:12:18.997Z</time></trkpt><trkpt lat="44.3596185" lon="7.9709469"><ele>479.0</ele><time>2026-04-24T09:12:19.999Z</time></trkpt><trkpt lat="44.3595414" lon="7.970986"><ele>478.99999999999994</ele><time>2026-04-24T09:12:21.005Z</time></trkpt><trkpt lat="44.3594712" lon="7.9710149"><ele>479.0</ele><time>2026-04-24T09:12:21.998Z</time></trkpt><trkpt lat="44.3594008" lon="7.9709967"><ele>484.79999999999995</ele><time>2026-04-24T09:12:23Z</time></trkpt><trkpt lat="44.3593125" lon="7.9709793"><ele>490.59999999999997</ele><time>2026-04-24T09:12:24.007Z</time></trkpt><trkpt lat="44.3592515" lon="7.970867"><ele>496.4</ele><time>2026-04-24T09:12:25.998Z</time></trkpt><trkpt lat="44.3592074" lon="7.9706356"><ele>502.2</ele><time>2026-04-24T09:12:27.994Z</time></trkpt><trkpt lat="44.3591655" lon="7.9705573"><ele>508.0</ele><time>2026-04-24T09:12:29.008Z</time></trkpt><trkpt lat="44.3591194" lon="7.9704776"><ele>508.00000000000006</ele><time>2026-04-24T09:12:30.008Z</time></trkpt><trkpt lat="44.3590487" lon="7.9704418"><ele>508.0</ele><time>2026-04-24T09:12:30.996Z</time></trkpt><trkpt lat="44.3589688" lon="7.97042"><ele>508.0</ele><time>2026-04-24T09:12:32.003Z</time></trkpt><trkpt lat="44.3588684" lon="7.9703977"><ele>508.0</ele><time>2026-04-24T09:12:32.994Z</time></trkpt><trkpt lat="44.3587689" lon="7.9703527"><ele>508.00000000000006</ele><time>2026-04-24T09:12:33.995Z</time></trkpt><trkpt lat="44.3586855" lon="7.970327"><ele>508.0</ele><time>2026-04-24T09:12:34.996Z</time></trkpt><trkpt lat="44.3586235" lon="7.9703051"><ele>511.83333333333337</ele><time>2026-04-24T09:12:35.996Z</time></trkpt><trkpt lat="44.3585601" lon="7.9702822"><ele>515.6666666666667</ele><time>2026-04-24T09:12:36.998Z</time></trkpt><trkpt lat="44.358482" lon="7.970308"><ele>519.5</ele><time>2026-04-24T09:12:37.995Z</time></trkpt><trkpt lat="44.3584168" lon="7.9703393"><ele>523.3333333333334</ele><time>2026-04-24T09:12:39.003Z</time></trkpt><trkpt lat="44.3583806" lon="7.9704251"><ele>527.1666666666666</ele><time>2026-04-24T09:12:39.997Z</time></trkpt><trkpt lat="44.3583593" lon="7.970542"><ele>531.0</ele><time>2026-04-24T09:12:40.995Z</time></trkpt><trkpt lat="44.3583792" lon="7.9707148"><ele>531.0</ele><time>2026-04-24T09:12:41.999Z</time></trkpt><trkpt lat="44.3583801" lon="7.9708413"><ele>531.0</ele><time>2026-04-24T09:12:43.001Z</time></trkpt><trkpt lat="44.3583578" lon="7.9709406"><ele>531.0</ele><time>2026-04-24T09:12:43.995Z</time></trkpt><trkpt lat="44.3583225" lon="7.9710489"><ele>531.0</ele><time>2026-04-24T09:12:45.993Z</time></trkpt><trkpt lat="44.3582121" lon="7.9710461"><ele>531.0</ele><time>2026-04-24T09:12:47.997Z</time></trkpt><trkpt lat="44.3581169" lon="7.9709962"><ele>540.0</ele><time>2026-04-24T09:12:49.003Z</time></trkpt><trkpt lat="44.3579729" lon="7.9710201"><ele>549.0</ele><time>2026-04-24T09:12:50.001Z</time></trkpt><trkpt lat="44.3578486" lon="7.971041"><ele>558.0</ele><time>2026-04-24T09:12:50.995Z</time></trkpt><trkpt lat="44.3577442" lon="7.9710524"><ele>567.0</ele><time>2026-04-24T09:12:52.001Z</time></trkpt><trkpt lat="44.3576201" lon="7.9710555"><ele>567.0</ele><time>2026-04-24T09:12:53.002Z</time></trkpt><trkpt lat="44.3575426" lon="7.9710028"><ele>567.0</ele><time>2026-04-24T09:12:53.997Z</time></trkpt><trkpt lat="44.3574478" lon="7.9709662"><ele>567.0</ele><time>2026-04-24T09:12:54.996Z</time></trkpt><trkpt lat="44.3573869" lon="7.9709153"><ele>567.0</ele><time>2026-04-24T09:12:55.996Z</time></trkpt><trkpt lat="44.3572918" lon="7.9708245"><ele>567.0</ele><time>2026-04-24T09:12:57Z</time></trkpt><trkpt lat="44.3571877" lon="7.9707134"><ele>564.5</ele><time>2026-04-24T09:12:57.997Z</time></trkpt><trkpt lat="44.3571161" lon="7.9705918"><ele>562.0</ele><time>2026-04-24T09:12:59.007Z</time></trkpt><trkpt lat="44.3570526" lon="7.9705347"><ele>559.5</ele><time>2026-04-24T09:12:59.997Z</time></trkpt><trkpt lat="44.3569468" lon="7.9705795"><ele>557.0</ele><time>2026-04-24T09:13:01.997Z</time></trkpt><trkpt lat="44.3568519" lon="7.9707519"><ele>561.25</ele><time>2026-04-24T09:13:03.998Z</time></trkpt><trkpt lat="44.3568131" lon="7.9709194"><ele>565.5</ele><time>2026-04-24T09:13:04.999Z</time></trkpt><trkpt lat="44.3567557" lon="7.9711008"><ele>569.75</ele><time>2026-04-24T09:13:05.999Z</time></trkpt><trkpt lat="44.3567046" lon="7.9712772"><ele>574.0</ele><time>2026-04-24T09:13:06.997Z</time></trkpt><trkpt lat="44.3566528" lon="7.9714443"><ele>574.0</ele><time>2026-04-24T09:13:08Z</time></trkpt><trkpt lat="44.3566009" lon="7.9716077"><ele>574.0</ele><time>2026-04-24T09:13:08.997Z</time></trkpt><trkpt lat="44.3565579" lon="7.9717648"><ele>574.0</ele><time>2026-04-24T09:13:09.997Z</time></trkpt><trkpt lat="44.3564919" lon="7.9719081"><ele>574.0</ele><time>2026-04-24T09:13:10.999Z</time></trkpt><trkpt lat="44.3564446" lon="7.9720428"><ele>577.0</ele><time>2026-04-24T09:13:11.995Z</time></trkpt><trkpt lat="44.356407" lon="7.9722111"><ele>580.0</ele><time>2026-04-24T09:13:13.016Z</time></trkpt><trkpt lat="44.3563765" lon="7.9723498"><ele>583.0</ele><time>2026-04-24T09:13:13.997Z</time></trkpt><trkpt lat="44.3563457" lon="7.9724724"><ele>586.0</ele><time>2026-04-24T09:13:14.998Z</time></trkpt><trkpt lat="44.3563415" lon="7.972573"><ele>589.0</ele><time>2026-04-24T09:13:15.998Z</time></trkpt><trkpt lat="44.3563282" lon="7.9726676"><ele>597.5</ele><time>2026-04-24T09:13:16.998Z</time></trkpt><trkpt lat="44.3562516" lon="7.972792"><ele>606.0</ele><time>2026-04-24T09:13:19Z</time></trkpt><trkpt lat="44.3561943" lon="7.9728526"><ele>614.5</ele><time>2026-04-24T09:13:19.999Z</time></trkpt><trkpt lat="44.3561046" lon="7.9728719"><ele>623.0</ele><time>2026-04-24T09:13:22.006Z</time></trkpt><trkpt lat="44.3559359" lon="7.9728447"><ele>623.0</ele><time>2026-04-24T09:13:23.994Z</time></trkpt><trkpt lat="44.3558534" lon="7.9728253"><ele>623.0</ele><time>2026-04-24T09:13:25.01Z</time></trkpt><trkpt lat="44.3557577" lon="7.9728078"><ele>623.0</ele><time>2026-04-24T09:13:25.999Z</time></trkpt><trkpt lat="44.3556585" lon="7.9727183"><ele>623.0</ele><time>2026-04-24T09:13:26.993Z</time></trkpt><trkpt lat="44.3555607" lon="7.9726801"><ele>623.0</ele><time>2026-04-24T09:13:27.996Z</time></trkpt><trkpt lat="44.3554465" lon="7.9726273"><ele>626.6666666666666</ele><time>2026-04-24T09:13:28.993Z</time></trkpt><trkpt lat="44.3553213" lon="7.9725868"><ele>630.3333333333334</ele><time>2026-04-24T09:13:29.992Z</time></trkpt><trkpt lat="44.3551249" lon="7.9725618"><ele>634.0</ele><time>2026-04-24T09:13:31.004Z</time></trkpt><trkpt lat="44.354996" lon="7.9725105"><ele>632.75</ele><time>2026-04-24T09:13:31.996Z</time></trkpt><trkpt lat="44.3548895" lon="7.9724407"><ele>631.5</ele><time>2026-04-24T09:13:32.996Z</time></trkpt><trkpt lat="44.3547478" lon="7.9723671"><ele>630.25</ele><time>2026-04-24T09:13:33.999Z</time></trkpt><trkpt lat="44.3546168" lon="7.9722751"><ele>629.0</ele><time>2026-04-24T09:13:35Z</time></trkpt><trkpt lat="44.3545059" lon="7.9721349"><ele>629.0</ele><time>2026-04-24T09:13:35.994Z</time></trkpt><trkpt lat="44.3544115" lon="7.9720572"><ele>629.0</ele><time>2026-04-24T09:13:37.004Z</time></trkpt><trkpt lat="44.3543295" lon="7.9719547"><ele>629.0</ele><time>2026-04-24T09:13:38.005Z</time></trkpt><trkpt lat="44.3542548" lon="7.9718582"><ele>629.0</ele><time>2026-04-24T09:13:39.002Z</time></trkpt><trkpt lat="44.3541782" lon="7.9717494"><ele>629.0</ele><time>2026-04-24T09:13:39.998Z</time></trkpt><trkpt lat="44.3541579" lon="7.9716191"><ele>629.0</ele><time>2026-04-24T09:13:40.998Z</time></trkpt><trkpt lat="44.354126" lon="7.9715052"><ele>629.0</ele><time>2026-04-24T09:13:41.996Z</time></trkpt><trkpt lat="44.3541119" lon="7.9714151"><ele>629.0</ele><time>2026-04-24T09:13:43.995Z</time></trkpt><trkpt lat="44.3540463" lon="7.9713906"><ele>629.0</ele><time>2026-04-24T09:13:49.998Z</time></trkpt><trkpt lat="44.3541122" lon="7.9714759"><ele>629.0</ele><time>2026-04-24T09:14:25.997Z</time></trkpt><trkpt lat="44.3541855" lon="7.9715808"><ele>629.0</ele><time>2026-04-24T09:14:27.999Z</time></trkpt><trkpt lat="44.3542187" lon="7.9718079"><ele>629.0</ele><time>2026-04-24T09:14:29.996Z</time></trkpt><trkpt lat="44.3542937" lon="7.9719307"><ele>629.0</ele><time>2026-04-24T09:14:30.996Z</time></trkpt><trkpt lat="44.3543798" lon="7.9720357"><ele>629.0</ele><time>2026-04-24T09:14:31.997Z</time></trkpt><trkpt lat="44.3544626" lon="7.9721446"><ele>629.0</ele><time>2026-04-24T09:14:33Z</time></trkpt><trkpt lat="44.3545499" lon="7.9722298"><ele>629.0</ele><time>2026-04-24T09:14:33.997Z</time></trkpt><trkpt lat="44.3546794" lon="7.9723196"><ele>629.0</ele><time>2026-04-24T09:14:35.003Z</time></trkpt><trkpt lat="44.3548164" lon="7.9723729"><ele>629.0</ele><time>2026-04-24T09:14:35.998Z</time></trkpt><trkpt lat="44.354924" lon="7.9724499"><ele>629.0</ele><time>2026-04-24T09:14:36.996Z</time></trkpt><trkpt lat="44.3550551" lon="7.9724888"><ele>630.25</ele><time>2026-04-24T09:14:38Z</time></trkpt><trkpt lat="44.3551673" lon="7.9725202"><ele>631.5</ele><time>2026-04-24T09:14:39.006Z</time></trkpt><trkpt lat="44.3552953" lon="7.9725391"><ele>632.75</ele><time>2026-04-24T09:14:39.997Z</time></trkpt><trkpt lat="44.3554106" lon="7.9725712"><ele>634.0</ele><time>2026-04-24T09:14:41.001Z</time></trkpt><trkpt lat="44.3555179" lon="7.9726063"><ele>631.25</ele><time>2026-04-24T09:14:42Z</time></trkpt><trkpt lat="44.3556355" lon="7.9726673"><ele>628.5</ele><time>2026-04-24T09:14:42.994Z</time></trkpt><trkpt lat="44.3557778" lon="7.9727311"><ele>625.75</ele><time>2026-04-24T09:14:43.998Z</time></trkpt><trkpt lat="44.3559036" lon="7.9727998"><ele>623.0</ele><time>2026-04-24T09:14:44.996Z</time></trkpt><trkpt lat="44.3560485" lon="7.9728265"><ele>623.0</ele><time>2026-04-24T09:14:45.999Z</time></trkpt><trkpt lat="44.3561177" lon="7.9728487"><ele>623.0</ele><time>2026-04-24T09:14:46.998Z</time></trkpt><trkpt lat="44.3561914" lon="7.9728684"><ele>623.0</ele><time>2026-04-24T09:14:48.002Z</time></trkpt><trkpt lat="44.3562605" lon="7.9728879"><ele>623.0</ele><time>2026-04-24T09:14:48.993Z</time></trkpt><trkpt lat="44.3562299" lon="7.9729718"><ele>623.0</ele><time>2026-04-24T09:15:00.015Z</time></trkpt><trkpt lat="44.3561488" lon="7.9729966"><ele>623.0</ele><time>2026-04-24T09:15:03.001Z</time></trkpt><trkpt lat="44.3560192" lon="7.9729475"><ele>623.0</ele><time>2026-04-24T09:15:06.003Z</time></trkpt><trkpt lat="44.3556843" lon="7.9730379"><ele>623.0</ele><time>2026-04-24T09:15:07Z</time></trkpt><trkpt lat="44.3555852" lon="7.9730468"><ele>623.0</ele><time>2026-04-24T09:15:07.991Z</time></trkpt><trkpt lat="44.3555088" lon="7.9730824"><ele>624.8333333333333</ele><time>2026-04-24T09:15:08.995Z</time></trkpt><trkpt lat="44.3554169" lon="7.9731676"><ele>626.6666666666666</ele><time>2026-04-24T09:15:10.994Z</time></trkpt><trkpt lat="44.3553204" lon="7.9732099"><ele>628.5</ele><time>2026-04-24T09:15:12.999Z</time></trkpt><trkpt lat="44.3552578" lon="7.9732501"><ele>630.3333333333334</ele><time>2026-04-24T09:15:14.014Z</time></trkpt><trkpt lat="44.355271" lon="7.9733362"><ele>632.1666666666667</ele><time>2026-04-24T09:15:30.991Z</time></trkpt><trkpt lat="44.3552676" lon="7.973429"><ele>634.0</ele><time>2026-04-24T09:15:38.996Z</time></trkpt><trkpt lat="44.3551706" lon="7.9734542"><ele>635.8</ele><time>2026-04-24T09:15:44.996Z</time></trkpt><trkpt lat="44.3551108" lon="7.9734973"><ele>637.5999999999999</ele><time>2026-04-24T09:16:32.993Z</time></trkpt><trkpt lat="44.3550344" lon="7.9735115"><ele>639.4</ele><time>2026-04-24T09:16:37.995Z</time></trkpt><trkpt lat="44.3549564" lon="7.9735255"><ele>641.1999999999999</ele><time>2026-04-24T09:16:41.994Z</time></trkpt><trkpt lat="44.3548788" lon="7.9735196"><ele>643.0</ele><time>2026-04-24T09:16:44.994Z</time></trkpt><trkpt lat="44.3543191" lon="7.9735781"><ele>643.0</ele><time>2026-04-24T09:16:47.991Z</time></trkpt><trkpt lat="44.3542373" lon="7.9735904"><ele>643.0</ele><time>2026-04-24T09:16:48.989Z</time></trkpt><trkpt lat="44.3541527" lon="7.9735777"><ele>643.0</ele><time>2026-04-24T09:16:49.99Z</time></trkpt><trkpt lat="44.3540859" lon="7.9735636"><ele>643.0</ele><time>2026-04-24T09:16:51.002Z</time></trkpt><trkpt lat="44.3540149" lon="7.9735362"><ele>643.0</ele><time>2026-04-24T09:16:51.996Z</time></trkpt><trkpt lat="44.3539437" lon="7.9735035"><ele>643.0</ele><time>2026-04-24T09:16:52.995Z</time></trkpt><trkpt lat="44.3538547" lon="7.9734695"><ele>645.8</ele><time>2026-04-24T09:16:54Z</time></trkpt><trkpt lat="44.3537601" lon="7.9734185"><ele>648.5999999999999</ele><time>2026-04-24T09:16:54.997Z</time></trkpt><trkpt lat="44.3536743" lon="7.9733616"><ele>651.4000000000001</ele><time>2026-04-24T09:16:55.999Z</time></trkpt><trkpt lat="44.3535861" lon="7.9733022"><ele>654.2</ele><time>2026-04-24T09:16:56.996Z</time></trkpt><trkpt lat="44.3535033" lon="7.9732621"><ele>657.0</ele><time>2026-04-24T09:16:57.997Z</time></trkpt><trkpt lat="44.3534277" lon="7.9732043"><ele>658.0</ele><time>2026-04-24T09:16:58.997Z</time></trkpt><trkpt lat="44.35335" lon="7.9731674"><ele>659.0</ele><time>2026-04-24T09:16:59.998Z</time></trkpt><trkpt lat="44.353247" lon="7.9730992"><ele>660.0</ele><time>2026-04-24T09:17:02.997Z</time></trkpt><trkpt lat="44.3531603" lon="7.973108"><ele>661.0</ele><time>2026-04-24T09:17:04.995Z</time></trkpt><trkpt lat="44.3530925" lon="7.9730811"><ele>662.0</ele><time>2026-04-24T09:17:28.996Z</time></trkpt><trkpt lat="44.3530159" lon="7.9731114"><ele>663.0</ele><time>2026-04-24T09:17:32.993Z</time></trkpt><trkpt lat="44.3529299" lon="7.9732976"><ele>667.3333333333334</ele><time>2026-04-24T09:17:35.997Z</time></trkpt><trkpt lat="44.3527704" lon="7.9737077"><ele>671.6666666666667</ele><time>2026-04-24T09:17:36.995Z</time></trkpt><trkpt lat="44.3527113" lon="7.9737824"><ele>676.0</ele><time>2026-04-24T09:17:37.995Z</time></trkpt><trkpt lat="44.3526344" lon="7.9738686"><ele>676.0</ele><time>2026-04-24T09:17:38.997Z</time></trkpt><trkpt lat="44.3525404" lon="7.9739517"><ele>676.0</ele><time>2026-04-24T09:17:40.007Z</time></trkpt><trkpt lat="44.3524493" lon="7.9740193"><ele>676.0</ele><time>2026-04-24T09:17:40.999Z</time></trkpt><trkpt lat="44.3523593" lon="7.974073"><ele>676.0</ele><time>2026-04-24T09:17:42.004Z</time></trkpt><trkpt lat="44.3522667" lon="7.9741258"><ele>676.0</ele><time>2026-04-24T09:17:42.998Z</time></trkpt><trkpt lat="44.352184" lon="7.9741944"><ele>679.1999999999999</ele><time>2026-04-24T09:17:43.998Z</time></trkpt><trkpt lat="44.3520842" lon="7.9742713"><ele>682.4</ele><time>2026-04-24T09:17:44.999Z</time></trkpt><trkpt lat="44.3519897" lon="7.9743414"><ele>685.6</ele><time>2026-04-24T09:17:46.003Z</time></trkpt><trkpt lat="44.351898" lon="7.9743945"><ele>688.8</ele><time>2026-04-24T09:17:46.998Z</time></trkpt><trkpt lat="44.3518093" lon="7.9744325"><ele>692.0</ele><time>2026-04-24T09:17:48Z</time></trkpt><trkpt lat="44.351719" lon="7.9744692"><ele>692.0</ele><time>2026-04-24T09:17:48.999Z</time></trkpt><trkpt lat="44.3516365" lon="7.9745099"><ele>692.0</ele><time>2026-04-24T09:17:49.999Z</time></trkpt><trkpt lat="44.3515794" lon="7.974567"><ele>692.0</ele><time>2026-04-24T09:17:51.009Z</time></trkpt><trkpt lat="44.3515161" lon="7.974618"><ele>692.0</ele><time>2026-04-24T09:17:52.001Z</time></trkpt><trkpt lat="44.3514873" lon="7.9747034"><ele>692.0</ele><time>2026-04-24T09:17:53.002Z</time></trkpt><trkpt lat="44.3514343" lon="7.9748212"><ele>692.0</ele><time>2026-04-24T09:17:54.995Z</time></trkpt><trkpt lat="44.3513372" lon="7.9749249"><ele>694.0</ele><time>2026-04-24T09:17:57.001Z</time></trkpt><trkpt lat="44.3512686" lon="7.9749856"><ele>696.0</ele><time>2026-04-24T09:17:58.004Z</time></trkpt><trkpt lat="44.3512056" lon="7.9750495"><ele>698.0</ele><time>2026-04-24T09:17:59Z</time></trkpt><trkpt lat="44.3510845" lon="7.9750854"><ele>700.0</ele><time>2026-04-24T09:18:00.994Z</time></trkpt><trkpt lat="44.3510033" lon="7.9751106"><ele>702.0</ele><time>2026-04-24T09:18:02.004Z</time></trkpt><trkpt lat="44.3509039" lon="7.975164"><ele>705.1666666666666</ele><time>2026-04-24T09:18:02.999Z</time></trkpt><trkpt lat="44.3508385" lon="7.9752315"><ele>708.3333333333334</ele><time>2026-04-24T09:18:03.998Z</time></trkpt><trkpt lat="44.3507729" lon="7.9752534"><ele>711.5</ele><time>2026-04-24T09:18:05.004Z</time></trkpt><trkpt lat="44.3506994" lon="7.975289"><ele>714.6666666666667</ele><time>2026-04-24T09:18:06.002Z</time></trkpt><trkpt lat="44.3506146" lon="7.9752883"><ele>717.8333333333334</ele><time>2026-04-24T09:18:07.006Z</time></trkpt><trkpt lat="44.3504898" lon="7.9753128"><ele>721.0</ele><time>2026-04-24T09:18:08.996Z</time></trkpt><trkpt lat="44.3504228" lon="7.9753641"><ele>722.4</ele><time>2026-04-24T09:18:09.997Z</time></trkpt><trkpt lat="44.3503323" lon="7.9754566"><ele>723.8</ele><time>2026-04-24T09:18:11.001Z</time></trkpt><trkpt lat="44.3502606" lon="7.9755454"><ele>725.1999999999999</ele><time>2026-04-24T09:18:11.993Z</time></trkpt><trkpt lat="44.3502206" lon="7.9756149"><ele>726.5999999999999</ele><time>2026-04-24T09:18:13.006Z</time></trkpt><trkpt lat="44.3501643" lon="7.9756918"><ele>728.0</ele><time>2026-04-24T09:18:13.997Z</time></trkpt><trkpt lat="44.3501109" lon="7.9758111"><ele>732.0</ele><time>2026-04-24T09:18:14.995Z</time></trkpt><trkpt lat="44.3500403" lon="7.9759112"><ele>736.0</ele><time>2026-04-24T09:18:15.992Z</time></trkpt><trkpt lat="44.349965" lon="7.9759918"><ele>740.0</ele><time>2026-04-24T09:18:16.996Z</time></trkpt><trkpt lat="44.3498887" lon="7.976061"><ele>744.0</ele><time>2026-04-24T09:18:18.002Z</time></trkpt><trkpt lat="44.3497324" lon="7.9760891"><ele>748.0</ele><time>2026-04-24T09:18:19.993Z</time></trkpt><trkpt lat="44.3496468" lon="7.9761097"><ele>748.0</ele><time>2026-04-24T09:18:20.992Z</time></trkpt><trkpt lat="44.3495878" lon="7.9761407"><ele>748.0</ele><time>2026-04-24T09:18:21.991Z</time></trkpt><trkpt lat="44.3495317" lon="7.9761929"><ele>748.0</ele><time>2026-04-24T09:18:22.993Z</time></trkpt><trkpt lat="44.3494513" lon="7.9762153"><ele>748.0</ele><time>2026-04-24T09:18:24.007Z</time></trkpt><trkpt lat="44.3493662" lon="7.976247"><ele>748.0</ele><time>2026-04-24T09:18:24.996Z</time></trkpt><trkpt lat="44.3492568" lon="7.976291"><ele>748.0</ele><time>2026-04-24T09:18:25.995Z</time></trkpt><trkpt lat="44.3491619" lon="7.976314"><ele>748.0</ele><time>2026-04-24T09:18:26.992Z</time></trkpt><trkpt lat="44.349047" lon="7.9763345"><ele>748.0</ele><time>2026-04-24T09:18:27.993Z</time></trkpt><trkpt lat="44.3489202" lon="7.9763597"><ele>748.0</ele><time>2026-04-24T09:18:28.992Z</time></trkpt><trkpt lat="44.3488264" lon="7.9763415"><ele>748.0</ele><time>2026-04-24T09:18:29.994Z</time></trkpt><trkpt lat="44.3487394" lon="7.9763284"><ele>748.0</ele><time>2026-04-24T09:18:30.998Z</time></trkpt><trkpt lat="44.3486502" lon="7.9763005"><ele>748.5</ele><time>2026-04-24T09:18:31.993Z</time></trkpt><trkpt lat="44.34856" lon="7.976251"><ele>749.0</ele><time>2026-04-24T09:18:32.994Z</time></trkpt><trkpt lat="44.3484912" lon="7.9762232"><ele>749.5</ele><time>2026-04-24T09:18:33.999Z</time></trkpt><trkpt lat="44.3484259" lon="7.9761559"><ele>750.0</ele><time>2026-04-24T09:18:34.993Z</time></trkpt><trkpt lat="44.3483441" lon="7.9760978"><ele>750.5</ele><time>2026-04-24T09:18:36.995Z</time></trkpt><trkpt lat="44.3482634" lon="7.976062"><ele>751.0</ele><time>2026-04-24T09:18:39.002Z</time></trkpt><trkpt lat="44.3481551" lon="7.9759959"><ele>750.8</ele><time>2026-04-24T09:18:40.995Z</time></trkpt><trkpt lat="44.3480216" lon="7.9759144"><ele>750.5999999999999</ele><time>2026-04-24T09:18:42.999Z</time></trkpt><trkpt lat="44.3479487" lon="7.9758822"><ele>750.4</ele><time>2026-04-24T09:18:43.998Z</time></trkpt><trkpt lat="44.3478628" lon="7.9758397"><ele>750.2</ele><time>2026-04-24T09:18:44.994Z</time></trkpt><trkpt lat="44.3477919" lon="7.9758106"><ele>750.0</ele><time>2026-04-24T09:18:45.995Z</time></trkpt><trkpt lat="44.3477186" lon="7.9757757"><ele>750.0</ele><time>2026-04-24T09:18:46.998Z</time></trkpt><trkpt lat="44.3476462" lon="7.975749"><ele>750.0</ele><time>2026-04-24T09:18:47.994Z</time></trkpt><trkpt lat="44.3475713" lon="7.9757222"><ele>750.0</ele><time>2026-04-24T09:18:48.995Z</time></trkpt><trkpt lat="44.3474825" lon="7.975725"><ele>750.0</ele><time>2026-04-24T09:18:50.007Z</time></trkpt><trkpt lat="44.347377" lon="7.9757302"><ele>750.0</ele><time>2026-04-24T09:18:50.996Z</time></trkpt><trkpt lat="44.3472849" lon="7.9757357"><ele>750.0</ele><time>2026-04-24T09:18:51.994Z</time></trkpt><trkpt lat="44.347192" lon="7.9757384"><ele>752.0</ele><time>2026-04-24T09:18:52.993Z</time></trkpt><trkpt lat="44.3470909" lon="7.9757387"><ele>754.0</ele><time>2026-04-24T09:18:53.995Z</time></trkpt><trkpt lat="44.3470087" lon="7.9757382"><ele>756.0</ele><time>2026-04-24T09:18:54.996Z</time></trkpt><trkpt lat="44.3469223" lon="7.9757132"><ele>758.0</ele><time>2026-04-24T09:18:55.994Z</time></trkpt><trkpt lat="44.3468116" lon="7.9757218"><ele>760.0</ele><time>2026-04-24T09:18:57.006Z</time></trkpt><trkpt lat="44.3467263" lon="7.9757196"><ele>760.0</ele><time>2026-04-24T09:18:57.994Z</time></trkpt><trkpt lat="44.3466338" lon="7.9757177"><ele>760.0</ele><time>2026-04-24T09:18:58.994Z</time></trkpt><trkpt lat="44.3465326" lon="7.975672"><ele>760.0</ele><time>2026-04-24T09:18:59.995Z</time></trkpt><trkpt lat="44.3464428" lon="7.9756114"><ele>760.0</ele><time>2026-04-24T09:19:00.996Z</time></trkpt><trkpt lat="44.3463656" lon="7.9755446"><ele>760.0</ele><time>2026-04-24T09:19:01.999Z</time></trkpt><trkpt lat="44.3462946" lon="7.9754631"><ele>760.0</ele><time>2026-04-24T09:19:02.998Z</time></trkpt><trkpt lat="44.3462216" lon="7.9754086"><ele>760.0</ele><time>2026-04-24T09:19:03.999Z</time></trkpt><trkpt lat="44.3461554" lon="7.9754172"><ele>760.0</ele><time>2026-04-24T09:19:04.997Z</time></trkpt><trkpt lat="44.3461007" lon="7.9754671"><ele>760.0</ele><time>2026-04-24T09:19:06.999Z</time></trkpt><trkpt lat="44.3461288" lon="7.9755638"><ele>760.0</ele><time>2026-04-24T09:19:08.998Z</time></trkpt><trkpt lat="44.346065" lon="7.9755813"><ele>760.0</ele><time>2026-04-24T09:19:14.999Z</time></trkpt><trkpt lat="44.345989" lon="7.9755624"><ele>760.0</ele><time>2026-04-24T09:19:17.004Z</time></trkpt><trkpt lat="44.3458014" lon="7.9755958"><ele>759.6666666666667</ele><time>2026-04-24T09:19:17.998Z</time></trkpt><trkpt lat="44.3455061" lon="7.9755575"><ele>759.3333333333334</ele><time>2026-04-24T09:19:18.996Z</time></trkpt><trkpt lat="44.3454196" lon="7.9755987"><ele>759.0</ele><time>2026-04-24T09:19:20.003Z</time></trkpt><trkpt lat="44.3453301" lon="7.975638"><ele>759.0</ele><time>2026-04-24T09:19:21Z</time></trkpt><trkpt lat="44.3452079" lon="7.9756552"><ele>759.0</ele><time>2026-04-24T09:19:22.004Z</time></trkpt><trkpt lat="44.3450867" lon="7.9756578"><ele>759.0</ele><time>2026-04-24T09:19:23.001Z</time></trkpt><trkpt lat="44.3449755" lon="7.975644"><ele>759.0</ele><time>2026-04-24T09:19:23.997Z</time></trkpt><trkpt lat="44.3448687" lon="7.975656"><ele>759.0</ele><time>2026-04-24T09:19:24.999Z</time></trkpt><trkpt lat="44.3447505" lon="7.9756769"><ele>759.0</ele><time>2026-04-24T09:19:26.002Z</time></trkpt><trkpt lat="44.3446419" lon="7.9756965"><ele>759.0</ele><time>2026-04-24T09:19:26.995Z</time></trkpt><trkpt lat="44.3445516" lon="7.9757202"><ele>759.0</ele><time>2026-04-24T09:19:28.012Z</time></trkpt><trkpt lat="44.3444545" lon="7.9757279"><ele>759.0</ele><time>2026-04-24T09:19:28.999Z</time></trkpt><trkpt lat="44.344334" lon="7.9757748"><ele>759.8000000000001</ele><time>2026-04-24T09:19:30.002Z</time></trkpt><trkpt lat="44.3442151" lon="7.9758177"><ele>760.6</ele><time>2026-04-24T09:19:30.996Z</time></trkpt><trkpt lat="44.3441062" lon="7.9758713"><ele>761.4</ele><time>2026-04-24T09:19:32.001Z</time></trkpt><trkpt lat="44.3440095" lon="7.9759188"><ele>762.2</ele><time>2026-04-24T09:19:32.993Z</time></trkpt><trkpt lat="44.3439218" lon="7.9759757"><ele>763.0</ele><time>2026-04-24T09:19:33.993Z</time></trkpt><trkpt lat="44.3438637" lon="7.9760338"><ele>759.8</ele><time>2026-04-24T09:19:34.999Z</time></trkpt><trkpt lat="44.3437913" lon="7.9761497"><ele>756.5999999999999</ele><time>2026-04-24T09:19:37.014Z</time></trkpt><trkpt lat="44.3437521" lon="7.9762818"><ele>753.4000000000001</ele><time>2026-04-24T09:19:38.996Z</time></trkpt><trkpt lat="44.3437069" lon="7.9764135"><ele>750.2</ele><time>2026-04-24T09:19:39.994Z</time></trkpt><trkpt lat="44.343663" lon="7.9765305"><ele>747.0</ele><time>2026-04-24T09:19:41.001Z</time></trkpt><trkpt lat="44.3435709" lon="7.9766657"><ele>751.5</ele><time>2026-04-24T09:19:42Z</time></trkpt><trkpt lat="44.3434841" lon="7.9768008"><ele>756.0</ele><time>2026-04-24T09:19:42.995Z</time></trkpt><trkpt lat="44.3433992" lon="7.9769675"><ele>760.5</ele><time>2026-04-24T09:19:44Z</time></trkpt><trkpt lat="44.3433311" lon="7.9771498"><ele>765.0</ele><time>2026-04-24T09:19:44.991Z</time></trkpt><trkpt lat="44.3432598" lon="7.9772987"><ele>765.0</ele><time>2026-04-24T09:19:46.002Z</time></trkpt><trkpt lat="44.3431882" lon="7.977442"><ele>765.0</ele><time>2026-04-24T09:19:46.997Z</time></trkpt><trkpt lat="44.3431172" lon="7.9775383"><ele>765.0</ele><time>2026-04-24T09:19:47.992Z</time></trkpt><trkpt lat="44.3430445" lon="7.9776391"><ele>765.0</ele><time>2026-04-24T09:19:48.992Z</time></trkpt><trkpt lat="44.3429765" lon="7.977724"><ele>765.0</ele><time>2026-04-24T09:19:49.994Z</time></trkpt><trkpt lat="44.3429146" lon="7.9778167"><ele>762.2</ele><time>2026-04-24T09:19:50.995Z</time></trkpt><trkpt lat="44.3428645" lon="7.9779325"><ele>759.4</ele><time>2026-04-24T09:19:51.993Z</time></trkpt><trkpt lat="44.3428069" lon="7.978059"><ele>756.5999999999999</ele><time>2026-04-24T09:19:52.994Z</time></trkpt><trkpt lat="44.3427492" lon="7.9781785"><ele>753.8</ele><time>2026-04-24T09:19:53.994Z</time></trkpt><trkpt lat="44.3426673" lon="7.9782906"><ele>751.0</ele><time>2026-04-24T09:19:54.996Z</time></trkpt><trkpt lat="44.3426069" lon="7.9783857"><ele>751.0</ele><time>2026-04-24T09:19:55.993Z</time></trkpt><trkpt lat="44.3425463" lon="7.978487"><ele>751.0</ele><time>2026-04-24T09:19:56.994Z</time></trkpt><trkpt lat="44.3424755" lon="7.9785818"><ele>751.0</ele><time>2026-04-24T09:19:58Z</time></trkpt><trkpt lat="44.3424075" lon="7.9786886"><ele>751.0</ele><time>2026-04-24T09:19:58.992Z</time></trkpt><trkpt lat="44.3423159" lon="7.9787943"><ele>751.0</ele><time>2026-04-24T09:19:59.995Z</time></trkpt><trkpt lat="44.3422284" lon="7.9789128"><ele>752.5999999999999</ele><time>2026-04-24T09:20:00.994Z</time></trkpt><trkpt lat="44.3421626" lon="7.9790142"><ele>754.2</ele><time>2026-04-24T09:20:01.998Z</time></trkpt><trkpt lat="44.3420997" lon="7.9791132"><ele>755.8</ele><time>2026-04-24T09:20:02.995Z</time></trkpt><trkpt lat="44.3420349" lon="7.9792462"><ele>757.4000000000001</ele><time>2026-04-24T09:20:03.996Z</time></trkpt><trkpt lat="44.3419473" lon="7.9793987"><ele>759.0</ele><time>2026-04-24T09:20:04.995Z</time></trkpt><trkpt lat="44.3418611" lon="7.9795101"><ele>759.0</ele><time>2026-04-24T09:20:05.998Z</time></trkpt><trkpt lat="44.3417661" lon="7.9795878"><ele>759.0</ele><time>2026-04-24T09:20:06.991Z</time></trkpt><trkpt lat="44.3416603" lon="7.9796489"><ele>759.0</ele><time>2026-04-24T09:20:07.997Z</time></trkpt><trkpt lat="44.3415484" lon="7.9796816"><ele>759.0</ele><time>2026-04-24T09:20:08.994Z</time></trkpt><trkpt lat="44.3414238" lon="7.9797234"><ele>757.4000000000001</ele><time>2026-04-24T09:20:09.995Z</time></trkpt><trkpt lat="44.341307" lon="7.9797611"><ele>755.8</ele><time>2026-04-24T09:20:10.997Z</time></trkpt><trkpt lat="44.3411812" lon="7.9797853"><ele>754.2</ele><time>2026-04-24T09:20:11.995Z</time></trkpt><trkpt lat="44.3410711" lon="7.9797893"><ele>752.5999999999999</ele><time>2026-04-24T09:20:12.996Z</time></trkpt><trkpt lat="44.3409994" lon="7.9798038"><ele>751.0</ele><time>2026-04-24T09:20:13.993Z</time></trkpt><trkpt lat="44.3409286" lon="7.9797576"><ele>751.0</ele><time>2026-04-24T09:20:14.995Z</time></trkpt><trkpt lat="44.3408434" lon="7.9798049"><ele>751.0</ele><time>2026-04-24T09:20:16.999Z</time></trkpt><trkpt lat="44.3408167" lon="7.9798858"><ele>751.0</ele><time>2026-04-24T09:20:17.995Z</time></trkpt><trkpt lat="44.3408069" lon="7.9799953"><ele>751.0</ele><time>2026-04-24T09:20:18.995Z</time></trkpt><trkpt lat="44.340789" lon="7.9801267"><ele>751.0</ele><time>2026-04-24T09:20:20Z</time></trkpt><trkpt lat="44.3407993" lon="7.9802477"><ele>751.0</ele><time>2026-04-24T09:20:20.996Z</time></trkpt><trkpt lat="44.3408338" lon="7.98039"><ele>752.4</ele><time>2026-04-24T09:20:21.999Z</time></trkpt><trkpt lat="44.3408721" lon="7.9805557"><ele>753.8</ele><time>2026-04-24T09:20:22.999Z</time></trkpt><trkpt lat="44.3408841" lon="7.9806997"><ele>755.1999999999999</ele><time>2026-04-24T09:20:23.998Z</time></trkpt><trkpt lat="44.3408789" lon="7.9807987"><ele>756.5999999999999</ele><time>2026-04-24T09:20:24.995Z</time></trkpt><trkpt lat="44.3408316" lon="7.9808981"><ele>758.0</ele><time>2026-04-24T09:20:25.997Z</time></trkpt><trkpt lat="44.3407695" lon="7.9810247"><ele>754.75</ele><time>2026-04-24T09:20:26.994Z</time></trkpt><trkpt lat="44.3407222" lon="7.9811684"><ele>751.5</ele><time>2026-04-24T09:20:27.997Z</time></trkpt><trkpt lat="44.3406636" lon="7.9813236"><ele>748.25</ele><time>2026-04-24T09:20:28.996Z</time></trkpt><trkpt lat="44.3405875" lon="7.9814789"><ele>745.0</ele><time>2026-04-24T09:20:29.996Z</time></trkpt><trkpt lat="44.3405258" lon="7.9816083"><ele>751.2</ele><time>2026-04-24T09:20:30.995Z</time></trkpt><trkpt lat="44.3404736" lon="7.9817323"><ele>757.4</ele><time>2026-04-24T09:20:31.994Z</time></trkpt><trkpt lat="44.3404267" lon="7.9818433"><ele>763.5999999999999</ele><time>2026-04-24T09:20:32.999Z</time></trkpt><trkpt lat="44.3403682" lon="7.9819452"><ele>769.8</ele><time>2026-04-24T09:20:33.999Z</time></trkpt><trkpt lat="44.3403109" lon="7.9820405"><ele>776.0</ele><time>2026-04-24T09:20:34.994Z</time></trkpt><trkpt lat="44.3402127" lon="7.9821037"><ele>776.0</ele><time>2026-04-24T09:20:35.997Z</time></trkpt><trkpt lat="44.3401113" lon="7.9821717"><ele>776.0</ele><time>2026-04-24T09:20:36.996Z</time></trkpt><trkpt lat="44.3400122" lon="7.9822146"><ele>776.0</ele><time>2026-04-24T09:20:37.993Z</time></trkpt><trkpt lat="44.3399407" lon="7.9821895"><ele>776.0</ele><time>2026-04-24T09:20:38.999Z</time></trkpt><trkpt lat="44.3398595" lon="7.98221"><ele>776.0</ele><time>2026-04-24T09:20:39.996Z</time></trkpt><trkpt lat="44.3397692" lon="7.9822092"><ele>775.4</ele><time>2026-04-24T09:20:40.996Z</time></trkpt><trkpt lat="44.3396743" lon="7.9821972"><ele>774.8</ele><time>2026-04-24T09:20:41.993Z</time></trkpt><trkpt lat="44.3395941" lon="7.9821557"><ele>774.1999999999999</ele><time>2026-04-24T09:20:42.993Z</time></trkpt><trkpt lat="44.3395157" lon="7.9821584"><ele>773.5999999999999</ele><time>2026-04-24T09:20:44.001Z</time></trkpt><trkpt lat="44.339449" lon="7.9821901"><ele>773.0</ele><time>2026-04-24T09:20:44.997Z</time></trkpt><trkpt lat="44.3393291" lon="7.9822179"><ele>773.0</ele><time>2026-04-24T09:20:46.991Z</time></trkpt><trkpt lat="44.339197" lon="7.9821841"><ele>773.0</ele><time>2026-04-24T09:20:48.998Z</time></trkpt><trkpt lat="44.3391162" lon="7.9821763"><ele>773.0</ele><time>2026-04-24T09:20:50.001Z</time></trkpt><trkpt lat="44.3389952" lon="7.9821179"><ele>773.0</ele><time>2026-04-24T09:20:51Z</time></trkpt><trkpt lat="44.338879" lon="7.9820695"><ele>774.0</ele><time>2026-04-24T09:20:52.001Z</time></trkpt><trkpt lat="44.3387758" lon="7.9820243"><ele>775.0</ele><time>2026-04-24T09:20:52.995Z</time></trkpt><trkpt lat="44.338688" lon="7.9819735"><ele>776.0</ele><time>2026-04-24T09:20:53.99Z</time></trkpt><trkpt lat="44.3386117" lon="7.9819415"><ele>777.0</ele><time>2026-04-24T09:20:55.003Z</time></trkpt><trkpt lat="44.3385223" lon="7.9817701"><ele>778.0</ele><time>2026-04-24T09:20:57Z</time></trkpt><trkpt lat="44.3384463" lon="7.9817104"><ele>775.3333333333333</ele><time>2026-04-24T09:20:58Z</time></trkpt><trkpt lat="44.3383657" lon="7.9816581"><ele>772.6666666666666</ele><time>2026-04-24T09:20:58.991Z</time></trkpt><trkpt lat="44.3382983" lon="7.9815762"><ele>770.0</ele><time>2026-04-24T09:20:59.993Z</time></trkpt><trkpt lat="44.3381882" lon="7.9815254"><ele>767.3333333333333</ele><time>2026-04-24T09:21:01.999Z</time></trkpt><trkpt lat="44.338134" lon="7.9814701"><ele>764.6666666666666</ele><time>2026-04-24T09:21:02.999Z</time></trkpt><trkpt lat="44.3380648" lon="7.9814635"><ele>762.0</ele><time>2026-04-24T09:21:03.995Z</time></trkpt><trkpt lat="44.3379892" lon="7.9814311"><ele>762.0</ele><time>2026-04-24T09:21:04.998Z</time></trkpt><trkpt lat="44.3379215" lon="7.981379"><ele>762.0</ele><time>2026-04-24T09:21:05.991Z</time></trkpt><trkpt lat="44.3378165" lon="7.9813562"><ele>762.0</ele><time>2026-04-24T09:21:08Z</time></trkpt><trkpt lat="44.3377401" lon="7.9813359"><ele>762.0</ele><time>2026-04-24T09:21:08.993Z</time></trkpt><trkpt lat="44.3376343" lon="7.9813145"><ele>762.0</ele><time>2026-04-24T09:21:10.008Z</time></trkpt><trkpt lat="44.3375259" lon="7.9812847"><ele>762.0</ele><time>2026-04-24T09:21:10.992Z</time></trkpt><trkpt lat="44.3374122" lon="7.9812729"><ele>762.0</ele><time>2026-04-24T09:21:11.996Z</time></trkpt><trkpt lat="44.3372919" lon="7.9812345"><ele>762.0</ele><time>2026-04-24T09:21:12.991Z</time></trkpt><trkpt lat="44.3371813" lon="7.981195"><ele>762.0</ele><time>2026-04-24T09:21:13.993Z</time></trkpt><trkpt lat="44.3370835" lon="7.9811763"><ele>761.0</ele><time>2026-04-24T09:21:14.992Z</time></trkpt><trkpt lat="44.337011" lon="7.9811359"><ele>760.0</ele><time>2026-04-24T09:21:15.993Z</time></trkpt><trkpt lat="44.3369249" lon="7.9810826"><ele>759.0</ele><time>2026-04-24T09:21:16.996Z</time></trkpt><trkpt lat="44.3368444" lon="7.9810403"><ele>758.0</ele><time>2026-04-24T09:21:17.992Z</time></trkpt><trkpt lat="44.336764" lon="7.9810237"><ele>757.0</ele><time>2026-04-24T09:21:18.994Z</time></trkpt><trkpt lat="44.3366911" lon="7.9809828"><ele>756.0</ele><time>2026-04-24T09:21:19.994Z</time></trkpt><trkpt lat="44.3366089" lon="7.9809885"><ele>756.0</ele><time>2026-04-24T09:21:20.992Z</time></trkpt><trkpt lat="44.3365385" lon="7.9810149"><ele>756.0</ele><time>2026-04-24T09:21:21.995Z</time></trkpt><trkpt lat="44.3364506" lon="7.9810844"><ele>756.0</ele><time>2026-04-24T09:21:23.993Z</time></trkpt><trkpt lat="44.3364037" lon="7.9811985"><ele>756.0</ele><time>2026-04-24T09:21:26.002Z</time></trkpt><trkpt lat="44.3363819" lon="7.9813628"><ele>756.0</ele><time>2026-04-24T09:21:28.003Z</time></trkpt><trkpt lat="44.3363537" lon="7.9814801"><ele>754.0</ele><time>2026-04-24T09:21:28.998Z</time></trkpt><trkpt lat="44.3363397" lon="7.9816048"><ele>752.0</ele><time>2026-04-24T09:21:29.991Z</time></trkpt><trkpt lat="44.3363302" lon="7.9817556"><ele>750.0</ele><time>2026-04-24T09:21:30.993Z</time></trkpt><trkpt lat="44.3363386" lon="7.9818878"><ele>748.0</ele><time>2026-04-24T09:21:31.995Z</time></trkpt><trkpt lat="44.3363416" lon="7.9819863"><ele>746.0</ele><time>2026-04-24T09:21:32.995Z</time></trkpt><trkpt lat="44.3363374" lon="7.9820809"><ele>744.0</ele><time>2026-04-24T09:21:34.006Z</time></trkpt><trkpt lat="44.3362745" lon="7.982211"><ele>744.0</ele><time>2026-04-24T09:21:35.001Z</time></trkpt><trkpt lat="44.3362403" lon="7.9823415"><ele>744.0</ele><time>2026-04-24T09:21:35.997Z</time></trkpt><trkpt lat="44.3362016" lon="7.9824852"><ele>744.0</ele><time>2026-04-24T09:21:36.995Z</time></trkpt><trkpt lat="44.3361569" lon="7.9826711"><ele>744.0</ele><time>2026-04-24T09:21:37.996Z</time></trkpt><trkpt lat="44.3360992" lon="7.9828848"><ele>748.25</ele><time>2026-04-24T09:21:38.994Z</time></trkpt><trkpt lat="44.3360151" lon="7.9830889"><ele>752.5</ele><time>2026-04-24T09:21:39.991Z</time></trkpt><trkpt lat="44.3359466" lon="7.9832512"><ele>756.75</ele><time>2026-04-24T09:21:40.994Z</time></trkpt><trkpt lat="44.3358944" lon="7.9833878"><ele>761.0</ele><time>2026-04-24T09:21:41.993Z</time></trkpt><trkpt lat="44.3358382" lon="7.9835017"><ele>761.1999999999999</ele><time>2026-04-24T09:21:42.993Z</time></trkpt><trkpt lat="44.3357767" lon="7.9835845"><ele>761.4</ele><time>2026-04-24T09:21:43.994Z</time></trkpt><trkpt lat="44.3357165" lon="7.9836364"><ele>761.6</ele><time>2026-04-24T09:21:44.991Z</time></trkpt><trkpt lat="44.3356238" lon="7.9836884"><ele>761.8</ele><time>2026-04-24T09:21:46.011Z</time></trkpt><trkpt lat="44.3354991" lon="7.9837308"><ele>762.0</ele><time>2026-04-24T09:21:46.995Z</time></trkpt><trkpt lat="44.335381" lon="7.9837429"><ele>762.8</ele><time>2026-04-24T09:21:47.994Z</time></trkpt><trkpt lat="44.335267" lon="7.9837369"><ele>763.6</ele><time>2026-04-24T09:21:48.997Z</time></trkpt><trkpt lat="44.3351625" lon="7.9837353"><ele>764.4</ele><time>2026-04-24T09:21:49.995Z</time></trkpt><trkpt lat="44.3350658" lon="7.9837474"><ele>765.1999999999999</ele><time>2026-04-24T09:21:50.993Z</time></trkpt><trkpt lat="44.334983" lon="7.9837888"><ele>766.0</ele><time>2026-04-24T09:21:51.997Z</time></trkpt><trkpt lat="44.3349026" lon="7.9838496"><ele>766.0</ele><time>2026-04-24T09:21:52.993Z</time></trkpt><trkpt lat="44.3348437" lon="7.9839343"><ele>766.0</ele><time>2026-04-24T09:21:53.992Z</time></trkpt><trkpt lat="44.3348175" lon="7.9840249"><ele>766.0</ele><time>2026-04-24T09:21:54.998Z</time></trkpt><trkpt lat="44.3347914" lon="7.9841175"><ele>766.0</ele><time>2026-04-24T09:21:55.993Z</time></trkpt><trkpt lat="44.3347424" lon="7.9841914"><ele>766.0</ele><time>2026-04-24T09:21:56.997Z</time></trkpt><trkpt lat="44.3346952" lon="7.9843006"><ele>766.0</ele><time>2026-04-24T09:21:57.994Z</time></trkpt><trkpt lat="44.334684" lon="7.9844346"><ele>762.0</ele><time>2026-04-24T09:21:58.995Z</time></trkpt><trkpt lat="44.3346675" lon="7.9845814"><ele>758.0</ele><time>2026-04-24T09:21:59.997Z</time></trkpt><trkpt lat="44.3346416" lon="7.9847211"><ele>754.0</ele><time>2026-04-24T09:22:00.996Z</time></trkpt><trkpt lat="44.3346304" lon="7.9848301"><ele>750.0</ele><time>2026-04-24T09:22:01.998Z</time></trkpt><trkpt lat="44.3346357" lon="7.9849509"><ele>746.0</ele><time>2026-04-24T09:22:03.991Z</time></trkpt><trkpt lat="44.3345383" lon="7.9850853"><ele>745.25</ele><time>2026-04-24T09:22:05.997Z</time></trkpt><trkpt lat="44.3344652" lon="7.9851873"><ele>744.5</ele><time>2026-04-24T09:22:07.006Z</time></trkpt><trkpt lat="44.3343842" lon="7.9852878"><ele>743.75</ele><time>2026-04-24T09:22:08.001Z</time></trkpt><trkpt lat="44.334295" lon="7.98537"><ele>743.0</ele><time>2026-04-24T09:22:08.998Z</time></trkpt><trkpt lat="44.3341862" lon="7.9855252"><ele>743.0</ele><time>2026-04-24T09:22:09.998Z</time></trkpt><trkpt lat="44.3341005" lon="7.9856406"><ele>743.0</ele><time>2026-04-24T09:22:10.997Z</time></trkpt><trkpt lat="44.3340255" lon="7.9857571"><ele>743.0</ele><time>2026-04-24T09:22:11.996Z</time></trkpt><trkpt lat="44.3339458" lon="7.9858528"><ele>743.0</ele><time>2026-04-24T09:22:12.996Z</time></trkpt><trkpt lat="44.3338619" lon="7.9859394"><ele>743.0</ele><time>2026-04-24T09:22:13.997Z</time></trkpt><trkpt lat="44.3337883" lon="7.9859814"><ele>743.0</ele><time>2026-04-24T09:22:14.998Z</time></trkpt><trkpt lat="44.3337262" lon="7.9860442"><ele>743.0</ele><time>2026-04-24T09:22:16.012Z</time></trkpt><trkpt lat="44.3336763" lon="7.9861018"><ele>743.0</ele><time>2026-04-24T09:22:16.999Z</time></trkpt><trkpt lat="44.3336275" lon="7.9861598"><ele>743.0</ele><time>2026-04-24T09:22:17.996Z</time></trkpt><trkpt lat="44.3335739" lon="7.9862064"><ele>743.0</ele><time>2026-04-24T09:22:18.998Z</time></trkpt><trkpt lat="44.3335009" lon="7.9862707"><ele>743.0</ele><time>2026-04-24T09:22:19.996Z</time></trkpt><trkpt lat="44.3334331" lon="7.9863362"><ele>743.0</ele><time>2026-04-24T09:22:21.003Z</time></trkpt><trkpt lat="44.3333526" lon="7.9863943"><ele>743.0</ele><time>2026-04-24T09:22:21.997Z</time></trkpt><trkpt lat="44.33328" lon="7.986438"><ele>743.0</ele><time>2026-04-24T09:22:22.995Z</time></trkpt><trkpt lat="44.3331996" lon="7.9864879"><ele>743.0</ele><time>2026-04-24T09:22:23.993Z</time></trkpt><trkpt lat="44.3331076" lon="7.9864889"><ele>743.0</ele><time>2026-04-24T09:22:25Z</time></trkpt><trkpt lat="44.3330256" lon="7.986504"><ele>743.0</ele><time>2026-04-24T09:22:25.994Z</time></trkpt><trkpt lat="44.3329482" lon="7.9865224"><ele>743.0</ele><time>2026-04-24T09:22:26.994Z</time></trkpt><trkpt lat="44.3328771" lon="7.9865342"><ele>741.6666666666666</ele><time>2026-04-24T09:22:27.998Z</time></trkpt><trkpt lat="44.3328109" lon="7.9865434"><ele>740.3333333333333</ele><time>2026-04-24T09:22:28.998Z</time></trkpt><trkpt lat="44.3327366" lon="7.9865571"><ele>739.0</ele><time>2026-04-24T09:22:29.996Z</time></trkpt><trkpt lat="44.3326455" lon="7.9865628"><ele>737.6666666666666</ele><time>2026-04-24T09:22:30.993Z</time></trkpt><trkpt lat="44.3325533" lon="7.986569"><ele>736.3333333333334</ele><time>2026-04-24T09:22:31.992Z</time></trkpt><trkpt lat="44.3324491" lon="7.9865766"><ele>735.0</ele><time>2026-04-24T09:22:32.991Z</time></trkpt><trkpt lat="44.3323515" lon="7.9865785"><ele>735.0</ele><time>2026-04-24T09:22:33.992Z</time></trkpt><trkpt lat="44.3322492" lon="7.9865741"><ele>735.0</ele><time>2026-04-24T09:22:35.001Z</time></trkpt><trkpt lat="44.3321371" lon="7.9865763"><ele>735.0</ele><time>2026-04-24T09:22:35.994Z</time></trkpt><trkpt lat="44.3320236" lon="7.9865924"><ele>735.0</ele><time>2026-04-24T09:22:37.009Z</time></trkpt><trkpt lat="44.3319052" lon="7.9866097"><ele>735.0</ele><time>2026-04-24T09:22:37.993Z</time></trkpt><trkpt lat="44.3317851" lon="7.9866212"><ele>735.25</ele><time>2026-04-24T09:22:39Z</time></trkpt><trkpt lat="44.3316648" lon="7.9866591"><ele>735.5</ele><time>2026-04-24T09:22:39.993Z</time></trkpt><trkpt lat="44.3315371" lon="7.9867093"><ele>735.75</ele><time>2026-04-24T09:22:40.998Z</time></trkpt><trkpt lat="44.3314098" lon="7.9867627"><ele>736.0</ele><time>2026-04-24T09:22:42Z</time></trkpt><trkpt lat="44.3312797" lon="7.9868358"><ele>736.0</ele><time>2026-04-24T09:22:42.993Z</time></trkpt><trkpt lat="44.3311536" lon="7.9869124"><ele>736.0</ele><time>2026-04-24T09:22:43.997Z</time></trkpt><trkpt lat="44.331032" lon="7.9869859"><ele>736.0</ele><time>2026-04-24T09:22:45Z</time></trkpt><trkpt lat="44.3309027" lon="7.9870733"><ele>736.0</ele><time>2026-04-24T09:22:45.995Z</time></trkpt><trkpt lat="44.330758" lon="7.9871649"><ele>736.0</ele><time>2026-04-24T09:22:46.997Z</time></trkpt><trkpt lat="44.3306282" lon="7.9872401"><ele>736.0</ele><time>2026-04-24T09:22:47.999Z</time></trkpt><trkpt lat="44.3305217" lon="7.9873096"><ele>736.0</ele><time>2026-04-24T09:22:48.995Z</time></trkpt><trkpt lat="44.3304293" lon="7.9873681"><ele>736.0</ele><time>2026-04-24T09:22:49.993Z</time></trkpt><trkpt lat="44.3303599" lon="7.9874107"><ele>736.0</ele><time>2026-04-24T09:22:51.004Z</time></trkpt><trkpt lat="44.3302413" lon="7.9875306"><ele>736.8</ele><time>2026-04-24T09:22:52.999Z</time></trkpt><trkpt lat="44.3301662" lon="7.9876322"><ele>737.5999999999999</ele><time>2026-04-24T09:22:53.997Z</time></trkpt><trkpt lat="44.3301035" lon="7.9877393"><ele>738.4</ele><time>2026-04-24T09:22:54.997Z</time></trkpt><trkpt lat="44.3300327" lon="7.9878564"><ele>739.2</ele><time>2026-04-24T09:22:56.003Z</time></trkpt><trkpt lat="44.3299506" lon="7.987988"><ele>740.0</ele><time>2026-04-24T09:22:56.998Z</time></trkpt><trkpt lat="44.3298693" lon="7.9881287"><ele>740.0</ele><time>2026-04-24T09:22:58.003Z</time></trkpt><trkpt lat="44.3297493" lon="7.988278"><ele>740.0</ele><time>2026-04-24T09:22:58.999Z</time></trkpt><trkpt lat="44.329633" lon="7.9884102"><ele>740.0</ele><time>2026-04-24T09:22:59.994Z</time></trkpt><trkpt lat="44.3295116" lon="7.9885413"><ele>740.0</ele><time>2026-04-24T09:23:00.992Z</time></trkpt><trkpt lat="44.3293832" lon="7.9886569"><ele>740.0</ele><time>2026-04-24T09:23:01.992Z</time></trkpt><trkpt lat="44.3292466" lon="7.9887595"><ele>740.0</ele><time>2026-04-24T09:23:02.993Z</time></trkpt><trkpt lat="44.3291067" lon="7.9888566"><ele>740.0</ele><time>2026-04-24T09:23:03.997Z</time></trkpt><trkpt lat="44.3289668" lon="7.9889563"><ele>740.0</ele><time>2026-04-24T09:23:05Z</time></trkpt><trkpt lat="44.3288288" lon="7.9890596"><ele>740.0</ele><time>2026-04-24T09:23:05.996Z</time></trkpt><trkpt lat="44.328695" lon="7.9891822"><ele>740.0</ele><time>2026-04-24T09:23:06.998Z</time></trkpt><trkpt lat="44.328573" lon="7.9893256"><ele>740.0</ele><time>2026-04-24T09:23:07.995Z</time></trkpt><trkpt lat="44.3284542" lon="7.9895101"><ele>740.0</ele><time>2026-04-24T09:23:08.994Z</time></trkpt><trkpt lat="44.3283385" lon="7.9897208"><ele>740.0</ele><time>2026-04-24T09:23:09.999Z</time></trkpt><trkpt lat="44.3282248" lon="7.9899303"><ele>740.0</ele><time>2026-04-24T09:23:10.993Z</time></trkpt><trkpt lat="44.3281081" lon="7.9901309"><ele>740.0</ele><time>2026-04-24T09:23:11.998Z</time></trkpt><trkpt lat="44.3279852" lon="7.9903224"><ele>738.0</ele><time>2026-04-24T09:23:12.997Z</time></trkpt><trkpt lat="44.327848" lon="7.9904954"><ele>736.0</ele><time>2026-04-24T09:23:13.999Z</time></trkpt><trkpt lat="44.3277088" lon="7.9906505"><ele>734.0</ele><time>2026-04-24T09:23:14.993Z</time></trkpt><trkpt lat="44.327574" lon="7.9907835"><ele>733.2</ele><time>2026-04-24T09:23:15.999Z</time></trkpt><trkpt lat="44.3274659" lon="7.990899"><ele>732.4000000000001</ele><time>2026-04-24T09:23:16.996Z</time></trkpt><trkpt lat="44.3273721" lon="7.9909955"><ele>731.6</ele><time>2026-04-24T09:23:17.993Z</time></trkpt><trkpt lat="44.3272971" lon="7.9910709"><ele>730.8</ele><time>2026-04-24T09:23:18.999Z</time></trkpt><trkpt lat="44.3272329" lon="7.9911386"><ele>730.0</ele><time>2026-04-24T09:23:19.994Z</time></trkpt><trkpt lat="44.3271593" lon="7.9912126"><ele>735.75</ele><time>2026-04-24T09:23:21Z</time></trkpt><trkpt lat="44.3270759" lon="7.9913165"><ele>741.5</ele><time>2026-04-24T09:23:21.996Z</time></trkpt><trkpt lat="44.3269832" lon="7.991438"><ele>747.25</ele><time>2026-04-24T09:23:22.996Z</time></trkpt><trkpt lat="44.3268754" lon="7.9915713"><ele>753.0</ele><time>2026-04-24T09:23:24.01Z</time></trkpt><trkpt lat="44.326784" lon="7.9917339"><ele>754.3333333333334</ele><time>2026-04-24T09:23:25.01Z</time></trkpt><trkpt lat="44.3267043" lon="7.9919101"><ele>755.6666666666667</ele><time>2026-04-24T09:23:25.998Z</time></trkpt><trkpt lat="44.3266365" lon="7.9921017"><ele>757.0</ele><time>2026-04-24T09:23:27Z</time></trkpt><trkpt lat="44.3265765" lon="7.9923"><ele>755.25</ele><time>2026-04-24T09:23:27.997Z</time></trkpt><trkpt lat="44.3265358" lon="7.9925093"><ele>753.5</ele><time>2026-04-24T09:23:28.997Z</time></trkpt><trkpt lat="44.3265142" lon="7.9926954"><ele>751.75</ele><time>2026-04-24T09:23:29.994Z</time></trkpt><trkpt lat="44.3264969" lon="7.9928349"><ele>750.0</ele><time>2026-04-24T09:23:30.998Z</time></trkpt><trkpt lat="44.3264821" lon="7.992958"><ele>750.0</ele><time>2026-04-24T09:23:31.998Z</time></trkpt><trkpt lat="44.3264829" lon="7.9930585"><ele>750.0</ele><time>2026-04-24T09:23:33.998Z</time></trkpt><trkpt lat="44.3264652" lon="7.9931929"><ele>750.0</ele><time>2026-04-24T09:23:35.997Z</time></trkpt><trkpt lat="44.3264421" lon="7.9932772"><ele>750.0</ele><time>2026-04-24T09:23:36.998Z</time></trkpt><trkpt lat="44.3263522" lon="7.9933696"><ele>750.0</ele><time>2026-04-24T09:23:38.993Z</time></trkpt><trkpt lat="44.3262839" lon="7.9934004"><ele>750.0</ele><time>2026-04-24T09:23:39.998Z</time></trkpt><trkpt lat="44.3261667" lon="7.9934522"><ele>751.1666666666666</ele><time>2026-04-24T09:23:41.995Z</time></trkpt><trkpt lat="44.326098" lon="7.993493"><ele>752.3333333333334</ele><time>2026-04-24T09:23:42.995Z</time></trkpt><trkpt lat="44.3260193" lon="7.993527"><ele>753.5</ele><time>2026-04-24T09:23:43.998Z</time></trkpt><trkpt lat="44.3259419" lon="7.9935617"><ele>754.6666666666667</ele><time>2026-04-24T09:23:45.993Z</time></trkpt><trkpt lat="44.3258755" lon="7.9935449"><ele>755.8333333333334</ele><time>2026-04-24T09:24:19.998Z</time></trkpt><trkpt lat="44.3258181" lon="7.9935847"><ele>757.0</ele><time>2026-04-24T09:24:21.005Z</time></trkpt><trkpt lat="44.32574" lon="7.9936297"><ele>757.0</ele><time>2026-04-24T09:24:22.003Z</time></trkpt><trkpt lat="44.3256496" lon="7.9936876"><ele>757.0</ele><time>2026-04-24T09:24:23.003Z</time></trkpt><trkpt lat="44.3255461" lon="7.9937593"><ele>757.0</ele><time>2026-04-24T09:24:23.997Z</time></trkpt><trkpt lat="44.3254358" lon="7.993861"><ele>757.0</ele><time>2026-04-24T09:24:24.992Z</time></trkpt><trkpt lat="44.3253412" lon="7.9939936"><ele>763.0</ele><time>2026-04-24T09:24:25.991Z</time></trkpt><trkpt lat="44.3252419" lon="7.9941724"><ele>769.0</ele><time>2026-04-24T09:24:26.995Z</time></trkpt><trkpt lat="44.3251408" lon="7.9943633"><ele>775.0</ele><time>2026-04-24T09:24:27.996Z</time></trkpt><trkpt lat="44.3250482" lon="7.9946118"><ele>775.0</ele><time>2026-04-24T09:24:29.001Z</time></trkpt><trkpt lat="44.3249526" lon="7.9948964"><ele>775.0</ele><time>2026-04-24T09:24:29.996Z</time></trkpt><trkpt lat="44.3248529" lon="7.9952192"><ele>769.0</ele><time>2026-04-24T09:24:30.995Z</time></trkpt><trkpt lat="44.3247367" lon="7.995599"><ele>763.0</ele><time>2026-04-24T09:24:31.994Z</time></trkpt><trkpt lat="44.3246294" lon="7.9959462"><ele>777.0</ele><time>2026-04-24T09:24:32.992Z</time></trkpt><trkpt lat="44.3245297" lon="7.9962641"><ele>791.0</ele><time>2026-04-24T09:24:33.995Z</time></trkpt><trkpt lat="44.3244504" lon="7.9965554"><ele>790.5</ele><time>2026-04-24T09:24:34.994Z</time></trkpt><trkpt lat="44.3243824" lon="7.9968605"><ele>790.0</ele><time>2026-04-24T09:24:35.995Z</time></trkpt><trkpt lat="44.3242964" lon="7.9971847"><ele>790.0</ele><time>2026-04-24T09:24:36.994Z</time></trkpt><trkpt lat="44.3242008" lon="7.9974836"><ele>790.0</ele><time>2026-04-24T09:24:37.998Z</time></trkpt><trkpt lat="44.3241017" lon="7.9977378"><ele>790.0</ele><time>2026-04-24T09:24:38.994Z</time></trkpt><trkpt lat="44.324013" lon="7.9979756"><ele>790.3333333333333</ele><time>2026-04-24T09:24:39.994Z</time></trkpt><trkpt lat="44.3239405" lon="7.9982"><ele>790.6666666666667</ele><time>2026-04-24T09:24:40.997Z</time></trkpt><trkpt lat="44.3238906" lon="7.9984307"><ele>791.0</ele><time>2026-04-24T09:24:41.994Z</time></trkpt><trkpt lat="44.3238757" lon="7.9986659"><ele>799.3333333333334</ele><time>2026-04-24T09:24:43.001Z</time></trkpt><trkpt lat="44.3238699" lon="7.9988822"><ele>807.6666666666667</ele><time>2026-04-24T09:24:43.995Z</time></trkpt><trkpt lat="44.3238668" lon="7.9990962"><ele>816.0</ele><time>2026-04-24T09:24:44.999Z</time></trkpt><trkpt lat="44.3238731" lon="7.999313"><ele>816.75</ele><time>2026-04-24T09:24:45.996Z</time></trkpt><trkpt lat="44.3238651" lon="7.9995212"><ele>817.5</ele><time>2026-04-24T09:24:46.996Z</time></trkpt><trkpt lat="44.3238785" lon="7.9997192"><ele>818.25</ele><time>2026-04-24T09:24:47.995Z</time></trkpt><trkpt lat="44.32388" lon="7.9999185"><ele>819.0</ele><time>2026-04-24T09:24:48.993Z</time></trkpt><trkpt lat="44.3238762" lon="8.000115"><ele>819.0</ele><time>2026-04-24T09:24:49.995Z</time></trkpt><trkpt lat="44.3238231" lon="8.000301"><ele>819.0</ele><time>2026-04-24T09:24:50.996Z</time></trkpt><trkpt lat="44.323762" lon="8.0004592"><ele>819.0</ele><time>2026-04-24T09:24:51.995Z</time></trkpt><trkpt lat="44.323657" lon="8.00056"><ele>819.0</ele><time>2026-04-24T09:24:52.998Z</time></trkpt><trkpt lat="44.3234917" lon="8.0005549"><ele>819.0</ele><time>2026-04-24T09:24:53.998Z</time></trkpt><trkpt lat="44.323345" lon="8.000634"><ele>819.0</ele><time>2026-04-24T09:24:54.997Z</time></trkpt><trkpt lat="44.323211" lon="8.0007561"><ele>819.0</ele><time>2026-04-24T09:24:55.993Z</time></trkpt><trkpt lat="44.3230822" lon="8.0009003"><ele>819.25</ele><time>2026-04-24T09:24:56.993Z</time></trkpt><trkpt lat="44.3229788" lon="8.0010642"><ele>819.5</ele><time>2026-04-24T09:24:57.994Z</time></trkpt><trkpt lat="44.3228925" lon="8.001229"><ele>819.75</ele><time>2026-04-24T09:24:58.995Z</time></trkpt><trkpt lat="44.3228009" lon="8.0013574"><ele>820.0</ele><time>2026-04-24T09:25:00.012Z</time></trkpt><trkpt lat="44.3226854" lon="8.0014665"><ele>820.0</ele><time>2026-04-24T09:25:01.002Z</time></trkpt><trkpt lat="44.3225435" lon="8.0015595"><ele>820.0</ele><time>2026-04-24T09:25:01.999Z</time></trkpt><trkpt lat="44.322387" lon="8.0016703"><ele>820.0</ele><time>2026-04-24T09:25:02.998Z</time></trkpt><trkpt lat="44.3222231" lon="8.0018034"><ele>818.3333333333333</ele><time>2026-04-24T09:25:03.998Z</time></trkpt><trkpt lat="44.3220654" lon="8.0019288"><ele>816.6666666666667</ele><time>2026-04-24T09:25:04.999Z</time></trkpt><trkpt lat="44.3219254" lon="8.0020582"><ele>815.0</ele><time>2026-04-24T09:25:05.996Z</time></trkpt><trkpt lat="44.321797" lon="8.0021941"><ele>815.0</ele><time>2026-04-24T09:25:07Z</time></trkpt><trkpt lat="44.3216825" lon="8.002332"><ele>815.0</ele><time>2026-04-24T09:25:08.001Z</time></trkpt><trkpt lat="44.3215912" lon="8.0024978"><ele>815.0</ele><time>2026-04-24T09:25:08.999Z</time></trkpt><trkpt lat="44.3215299" lon="8.0026912"><ele>817.3333333333334</ele><time>2026-04-24T09:25:10.002Z</time></trkpt><trkpt lat="44.32147" lon="8.002904"><ele>819.6666666666667</ele><time>2026-04-24T09:25:10.996Z</time></trkpt><trkpt lat="44.3214156" lon="8.003127"><ele>822.0</ele><time>2026-04-24T09:25:11.994Z</time></trkpt><trkpt lat="44.3213598" lon="8.0033592"><ele>822.0</ele><time>2026-04-24T09:25:12.995Z</time></trkpt><trkpt lat="44.321309" lon="8.0036029"><ele>822.0</ele><time>2026-04-24T09:25:14.002Z</time></trkpt><trkpt lat="44.3212612" lon="8.0038414"><ele>822.0</ele><time>2026-04-24T09:25:14.998Z</time></trkpt><trkpt lat="44.3212171" lon="8.0040505"><ele>824.25</ele><time>2026-04-24T09:25:15.997Z</time></trkpt><trkpt lat="44.3211741" lon="8.0042517"><ele>826.5</ele><time>2026-04-24T09:25:17.004Z</time></trkpt><trkpt lat="44.3211362" lon="8.0044494"><ele>828.75</ele><time>2026-04-24T09:25:17.999Z</time></trkpt><trkpt lat="44.3210915" lon="8.0046514"><ele>831.0</ele><time>2026-04-24T09:25:18.997Z</time></trkpt><trkpt lat="44.3210541" lon="8.0048529"><ele>834.0</ele><time>2026-04-24T09:25:19.997Z</time></trkpt><trkpt lat="44.3210395" lon="8.0050592"><ele>837.0</ele><time>2026-04-24T09:25:20.998Z</time></trkpt><trkpt lat="44.321048" lon="8.0052636"><ele>840.0</ele><time>2026-04-24T09:25:22Z</time></trkpt><trkpt lat="44.3210832" lon="8.0054862"><ele>840.0</ele><time>2026-04-24T09:25:22.999Z</time></trkpt><trkpt lat="44.3211209" lon="8.0057145"><ele>840.0</ele><time>2026-04-24T09:25:24.002Z</time></trkpt><trkpt lat="44.3211667" lon="8.0059003"><ele>840.0</ele><time>2026-04-24T09:25:25.002Z</time></trkpt><trkpt lat="44.3211987" lon="8.0060614"><ele>840.0</ele><time>2026-04-24T09:25:25.995Z</time></trkpt><trkpt lat="44.3212123" lon="8.006183"><ele>841.1666666666666</ele><time>2026-04-24T09:25:27.001Z</time></trkpt><trkpt lat="44.3212065" lon="8.0063"><ele>842.3333333333333</ele><time>2026-04-24T09:25:27.999Z</time></trkpt><trkpt lat="44.3211999" lon="8.0063925"><ele>843.5</ele><time>2026-04-24T09:25:28.996Z</time></trkpt><trkpt lat="44.3211944" lon="8.0064855"><ele>844.6666666666666</ele><time>2026-04-24T09:25:29.998Z</time></trkpt><trkpt lat="44.3211705" lon="8.0065833"><ele>845.8333333333333</ele><time>2026-04-24T09:25:31Z</time></trkpt><trkpt lat="44.3211754" lon="8.0067416"><ele>847.0</ele><time>2026-04-24T09:25:33.005Z</time></trkpt><trkpt lat="44.3212591" lon="8.0067469"><ele>847.0</ele><time>2026-04-24T09:25:34.999Z</time></trkpt><trkpt lat="44.3212696" lon="8.0065788"><ele>847.0</ele><time>2026-04-24T09:25:37Z</time></trkpt><trkpt lat="44.3212589" lon="8.0064444"><ele>847.0</ele><time>2026-04-24T09:25:38.007Z</time></trkpt><trkpt lat="44.3212404" lon="8.0063114"><ele>847.0</ele><time>2026-04-24T09:25:39.004Z</time></trkpt><trkpt lat="44.3212011" lon="8.0061869"><ele>847.0</ele><time>2026-04-24T09:25:39.998Z</time></trkpt><trkpt lat="44.3211376" lon="8.0060574"><ele>847.0</ele><time>2026-04-24T09:25:40.999Z</time></trkpt><trkpt lat="44.3210766" lon="8.0059158"><ele>847.0</ele><time>2026-04-24T09:25:42.006Z</time></trkpt><trkpt lat="44.3210309" lon="8.0057735"><ele>847.0</ele><time>2026-04-24T09:25:42.998Z</time></trkpt><trkpt lat="44.320995" lon="8.0056602"><ele>847.0</ele><time>2026-04-24T09:25:43.999Z</time></trkpt><trkpt lat="44.3209732" lon="8.0055627"><ele>847.0</ele><time>2026-04-24T09:25:44.994Z</time></trkpt><trkpt lat="44.3209305" lon="8.0054243"><ele>845.8333333333333</ele><time>2026-04-24T09:25:46.994Z</time></trkpt><trkpt lat="44.3208911" lon="8.0052906"><ele>844.6666666666666</ele><time>2026-04-24T09:25:48.994Z</time></trkpt><trkpt lat="44.320816" lon="8.0052019"><ele>843.5</ele><time>2026-04-24T09:25:50.994Z</time></trkpt><trkpt lat="44.3207528" lon="8.0051995"><ele>842.3333333333333</ele><time>2026-04-24T09:25:52.002Z</time></trkpt><trkpt lat="44.3206756" lon="8.0052006"><ele>841.1666666666666</ele><time>2026-04-24T09:25:52.996Z</time></trkpt><trkpt lat="44.3205945" lon="8.0052024"><ele>840.0</ele><time>2026-04-24T09:25:54.003Z</time></trkpt><trkpt lat="44.3204891" lon="8.0051947"><ele>839.6</ele><time>2026-04-24T09:25:55.003Z</time></trkpt><trkpt lat="44.3203902" lon="8.0051919"><ele>839.2</ele><time>2026-04-24T09:25:55.993Z</time></trkpt><trkpt lat="44.3202874" lon="8.0052176"><ele>838.8</ele><time>2026-04-24T09:25:57Z</time></trkpt><trkpt lat="44.3201782" lon="8.0052773"><ele>838.4</ele><time>2026-04-24T09:25:57.996Z</time></trkpt><trkpt lat="44.3200809" lon="8.0053256"><ele>838.0</ele><time>2026-04-24T09:25:58.993Z</time></trkpt><trkpt lat="44.3200022" lon="8.0053631"><ele>837.9999999999999</ele><time>2026-04-24T09:25:59.993Z</time></trkpt><trkpt lat="44.3199143" lon="8.0054233"><ele>838.0</ele><time>2026-04-24T09:26:01.997Z</time></trkpt><trkpt lat="44.3198216" lon="8.0054935"><ele>838.0</ele><time>2026-04-24T09:26:03.992Z</time></trkpt><trkpt lat="44.3197699" lon="8.0055644"><ele>838.0</ele><time>2026-04-24T09:26:05.01Z</time></trkpt><trkpt lat="44.3196937" lon="8.0055996"><ele>837.9999999999999</ele><time>2026-04-24T09:26:06.003Z</time></trkpt><trkpt lat="44.3196124" lon="8.005661"><ele>838.0</ele><time>2026-04-24T09:26:06.998Z</time></trkpt><trkpt lat="44.319513" lon="8.0057248"><ele>836.5999999999999</ele><time>2026-04-24T09:26:07.997Z</time></trkpt><trkpt lat="44.3194187" lon="8.0057902"><ele>835.1999999999999</ele><time>2026-04-24T09:26:08.994Z</time></trkpt><trkpt lat="44.3193127" lon="8.0058362"><ele>833.8</ele><time>2026-04-24T09:26:09.995Z</time></trkpt><trkpt lat="44.3192003" lon="8.0058767"><ele>832.4</ele><time>2026-04-24T09:26:10.993Z</time></trkpt><trkpt lat="44.3190903" lon="8.0058894"><ele>831.0</ele><time>2026-04-24T09:26:11.995Z</time></trkpt><trkpt lat="44.3189835" lon="8.0059059"><ele>832.0</ele><time>2026-04-24T09:26:12.997Z</time></trkpt><trkpt lat="44.3188996" lon="8.005932"><ele>833.0</ele><time>2026-04-24T09:26:13.993Z</time></trkpt><trkpt lat="44.318834" lon="8.0059159"><ele>834.0</ele><time>2026-04-24T09:26:14.998Z</time></trkpt><trkpt lat="44.3187343" lon="8.0059538"><ele>835.0</ele><time>2026-04-24T09:26:16.997Z</time></trkpt><trkpt lat="44.318695" lon="8.0061477"><ele>836.0</ele><time>2026-04-24T09:26:19.003Z</time></trkpt><trkpt lat="44.3186808" lon="8.0062773"><ele>836.0</ele><time>2026-04-24T09:26:19.997Z</time></trkpt><trkpt lat="44.3186785" lon="8.0064373"><ele>836.0</ele><time>2026-04-24T09:26:20.995Z</time></trkpt><trkpt lat="44.3186869" lon="8.0066036"><ele>836.0</ele><time>2026-04-24T09:26:21.993Z</time></trkpt><trkpt lat="44.3186934" lon="8.0067539"><ele>836.0</ele><time>2026-04-24T09:26:22.995Z</time></trkpt><trkpt lat="44.3186759" lon="8.0068931"><ele>836.0</ele><time>2026-04-24T09:26:23.996Z</time></trkpt><trkpt lat="44.3186416" lon="8.0070102"><ele>837.5999999999999</ele><time>2026-04-24T09:26:25.008Z</time></trkpt><trkpt lat="44.3185772" lon="8.0071435"><ele>839.2</ele><time>2026-04-24T09:26:25.996Z</time></trkpt><trkpt lat="44.3184849" lon="8.0072325"><ele>840.8</ele><time>2026-04-24T09:26:26.999Z</time></trkpt><trkpt lat="44.3183922" lon="8.0073197"><ele>842.4000000000001</ele><time>2026-04-24T09:26:27.998Z</time></trkpt><trkpt lat="44.318304" lon="8.0073942"><ele>844.0</ele><time>2026-04-24T09:26:28.997Z</time></trkpt><trkpt lat="44.3182424" lon="8.0074761"><ele>844.1666666666666</ele><time>2026-04-24T09:26:29.996Z</time></trkpt><trkpt lat="44.3181861" lon="8.0075946"><ele>844.3333333333333</ele><time>2026-04-24T09:26:30.994Z</time></trkpt><trkpt lat="44.3181248" lon="8.0077166"><ele>844.5</ele><time>2026-04-24T09:26:31.998Z</time></trkpt><trkpt lat="44.3180573" lon="8.0078012"><ele>844.6666666666667</ele><time>2026-04-24T09:26:32.995Z</time></trkpt><trkpt lat="44.3180054" lon="8.0078724"><ele>844.8333333333334</ele><time>2026-04-24T09:26:34Z</time></trkpt><trkpt lat="44.317983" lon="8.0079611"><ele>845.0</ele><time>2026-04-24T09:26:34.996Z</time></trkpt><trkpt lat="44.3179952" lon="8.0080549"><ele>845.0</ele><time>2026-04-24T09:26:35.996Z</time></trkpt><trkpt lat="44.3179519" lon="8.0082119"><ele>845.0</ele><time>2026-04-24T09:26:37.997Z</time></trkpt><trkpt lat="44.3179" lon="8.0082723"><ele>845.0</ele><time>2026-04-24T09:26:38.995Z</time></trkpt><trkpt lat="44.3178277" lon="8.0083247"><ele>845.0</ele><time>2026-04-24T09:26:40.003Z</time></trkpt><trkpt lat="44.3177326" lon="8.0083963"><ele>845.0</ele><time>2026-04-24T09:26:40.994Z</time></trkpt><trkpt lat="44.3176569" lon="8.0084735"><ele>848.3333333333334</ele><time>2026-04-24T09:26:41.997Z</time></trkpt><trkpt lat="44.3175841" lon="8.0085608"><ele>851.6666666666667</ele><time>2026-04-24T09:26:42.998Z</time></trkpt><trkpt lat="44.3175089" lon="8.0086601"><ele>855.0</ele><time>2026-04-24T09:26:43.995Z</time></trkpt><trkpt lat="44.3174503" lon="8.0087318"><ele>858.3333333333333</ele><time>2026-04-24T09:26:44.994Z</time></trkpt><trkpt lat="44.3173903" lon="8.0087745"><ele>861.6666666666666</ele><time>2026-04-24T09:26:45.995Z</time></trkpt><trkpt lat="44.3173096" lon="8.008782"><ele>865.0</ele><time>2026-04-24T09:26:47.003Z</time></trkpt><trkpt lat="44.3172182" lon="8.0087524"><ele>865.0</ele><time>2026-04-24T09:26:47.999Z</time></trkpt><trkpt lat="44.3171029" lon="8.0087157"><ele>865.0</ele><time>2026-04-24T09:26:48.99Z</time></trkpt><trkpt lat="44.3169914" lon="8.0086869"><ele>865.0</ele><time>2026-04-24T09:26:49.996Z</time></trkpt><trkpt lat="44.3168737" lon="8.0086947"><ele>865.0</ele><time>2026-04-24T09:26:50.991Z</time></trkpt><trkpt lat="44.3167626" lon="8.0087138"><ele>864.9999999999999</ele><time>2026-04-24T09:26:51.999Z</time></trkpt><trkpt lat="44.3166629" lon="8.008731"><ele>865.0</ele><time>2026-04-24T09:26:52.991Z</time></trkpt><trkpt lat="44.3165796" lon="8.0087479"><ele>865.0</ele><time>2026-04-24T09:26:53.999Z</time></trkpt><trkpt lat="44.3164929" lon="8.0087742"><ele>865.0</ele><time>2026-04-24T09:26:54.997Z</time></trkpt><trkpt lat="44.3164199" lon="8.008794"><ele>864.9999999999999</ele><time>2026-04-24T09:26:55.995Z</time></trkpt><trkpt lat="44.3163527" lon="8.0088498"><ele>865.0</ele><time>2026-04-24T09:26:56.993Z</time></trkpt><trkpt lat="44.3162934" lon="8.0089921"><ele>863.25</ele><time>2026-04-24T09:26:58.997Z</time></trkpt><trkpt lat="44.3162776" lon="8.0091111"><ele>861.5</ele><time>2026-04-24T09:26:59.998Z</time></trkpt><trkpt lat="44.3162586" lon="8.009245"><ele>859.75</ele><time>2026-04-24T09:27:00.998Z</time></trkpt><trkpt lat="44.3162634" lon="8.0094511"><ele>858.0</ele><time>2026-04-24T09:27:02.004Z</time></trkpt><trkpt lat="44.316261" lon="8.0096335"><ele>857.6666666666666</ele><time>2026-04-24T09:27:02.993Z</time></trkpt><trkpt lat="44.3162489" lon="8.0097965"><ele>857.3333333333333</ele><time>2026-04-24T09:27:03.993Z</time></trkpt><trkpt lat="44.3162324" lon="8.0099183"><ele>857.0</ele><time>2026-04-24T09:27:04.994Z</time></trkpt><trkpt lat="44.3161997" lon="8.0100293"><ele>856.6666666666666</ele><time>2026-04-24T09:27:05.997Z</time></trkpt><trkpt lat="44.3161888" lon="8.0101274"><ele>856.3333333333333</ele><time>2026-04-24T09:27:06.994Z</time></trkpt><trkpt lat="44.3161844" lon="8.0102289"><ele>856.0</ele><time>2026-04-24T09:27:07.999Z</time></trkpt><trkpt lat="44.3161954" lon="8.0103227"><ele>856.1999999999999</ele><time>2026-04-24T09:27:08.997Z</time></trkpt><trkpt lat="44.3162359" lon="8.0103929"><ele>856.3999999999999</ele><time>2026-04-24T09:27:09.992Z</time></trkpt><trkpt lat="44.316277" lon="8.0104937"><ele>856.6</ele><time>2026-04-24T09:27:10.996Z</time></trkpt><trkpt lat="44.3163166" lon="8.0105925"><ele>856.8</ele><time>2026-04-24T09:27:11.994Z</time></trkpt><trkpt lat="44.3162998" lon="8.0107359"><ele>857.0</ele><time>2026-04-24T09:27:13.995Z</time></trkpt><trkpt lat="44.3162127" lon="8.0108538"><ele>857.0</ele><time>2026-04-24T09:27:16Z</time></trkpt><trkpt lat="44.3161005" lon="8.0109817"><ele>857.0</ele><time>2026-04-24T09:27:17.002Z</time></trkpt><trkpt lat="44.3160134" lon="8.0110728"><ele>857.0</ele><time>2026-04-24T09:27:17.999Z</time></trkpt><trkpt lat="44.3159449" lon="8.0111521"><ele>857.0</ele><time>2026-04-24T09:27:19.005Z</time></trkpt><trkpt lat="44.3158973" lon="8.0112283"><ele>857.0</ele><time>2026-04-24T09:27:19.997Z</time></trkpt><trkpt lat="44.3158533" lon="8.0113272"><ele>857.0</ele><time>2026-04-24T09:27:21.994Z</time></trkpt><trkpt lat="44.3158313" lon="8.0114285"><ele>857.0</ele><time>2026-04-24T09:27:47.994Z</time></trkpt><trkpt lat="44.3157125" lon="8.0115702"><ele>857.0</ele><time>2026-04-24T09:27:49.998Z</time></trkpt><trkpt lat="44.3156492" lon="8.011629"><ele>857.0</ele><time>2026-04-24T09:27:51.993Z</time></trkpt><trkpt lat="44.3155699" lon="8.0116583"><ele>857.0</ele><time>2026-04-24T09:27:55.005Z</time></trkpt><trkpt lat="44.3153845" lon="8.0117858"><ele>861.5</ele><time>2026-04-24T09:27:55.992Z</time></trkpt><trkpt lat="44.3150375" lon="8.012017"><ele>866.0</ele><time>2026-04-24T09:27:57Z</time></trkpt><trkpt lat="44.3149472" lon="8.0120881"><ele>866.0</ele><time>2026-04-24T09:27:57.998Z</time></trkpt><trkpt lat="44.31485" lon="8.0121877"><ele>866.0</ele><time>2026-04-24T09:27:58.992Z</time></trkpt><trkpt lat="44.3147547" lon="8.012306"><ele>866.0</ele><time>2026-04-24T09:27:59.997Z</time></trkpt><trkpt lat="44.3146566" lon="8.0124192"><ele>866.0</ele><time>2026-04-24T09:28:00.999Z</time></trkpt><trkpt lat="44.3145803" lon="8.0124699"><ele>868.1999999999999</ele><time>2026-04-24T09:28:01.997Z</time></trkpt><trkpt lat="44.3144903" lon="8.0125194"><ele>870.3999999999999</ele><time>2026-04-24T09:28:02.994Z</time></trkpt><trkpt lat="44.3143989" lon="8.0125552"><ele>872.6</ele><time>2026-04-24T09:28:03.997Z</time></trkpt><trkpt lat="44.3143025" lon="8.0126095"><ele>874.8</ele><time>2026-04-24T09:28:04.995Z</time></trkpt><trkpt lat="44.3141996" lon="8.012692"><ele>877.0</ele><time>2026-04-24T09:28:05.993Z</time></trkpt><trkpt lat="44.3141087" lon="8.012803"><ele>877.0</ele><time>2026-04-24T09:28:06.99Z</time></trkpt><trkpt lat="44.3140322" lon="8.0129214"><ele>877.0</ele><time>2026-04-24T09:28:07.996Z</time></trkpt><trkpt lat="44.3139394" lon="8.0130199"><ele>877.0</ele><time>2026-04-24T09:28:08.997Z</time></trkpt><trkpt lat="44.3138442" lon="8.013093"><ele>877.0</ele><time>2026-04-24T09:28:09.999Z</time></trkpt><trkpt lat="44.3137367" lon="8.0131405"><ele>877.8</ele><time>2026-04-24T09:28:10.996Z</time></trkpt><trkpt lat="44.3136343" lon="8.0131706"><ele>878.6</ele><time>2026-04-24T09:28:11.994Z</time></trkpt><trkpt lat="44.3135314" lon="8.0132247"><ele>879.3999999999999</ele><time>2026-04-24T09:28:13.003Z</time></trkpt><trkpt lat="44.3134333" lon="8.0132818"><ele>880.1999999999999</ele><time>2026-04-24T09:28:13.994Z</time></trkpt><trkpt lat="44.3133461" lon="8.0133177"><ele>881.0</ele><time>2026-04-24T09:28:14.999Z</time></trkpt><trkpt lat="44.3132625" lon="8.0133335"><ele>881.0000000000001</ele><time>2026-04-24T09:28:15.993Z</time></trkpt><trkpt lat="44.3131839" lon="8.0133464"><ele>881.0</ele><time>2026-04-24T09:28:16.997Z</time></trkpt><trkpt lat="44.3131215" lon="8.0133723"><ele>881.0</ele><time>2026-04-24T09:28:17.997Z</time></trkpt><trkpt lat="44.3130466" lon="8.0135175"><ele>881.0</ele><time>2026-04-24T09:28:19.996Z</time></trkpt><trkpt lat="44.3130082" lon="8.0136167"><ele>881.0000000000001</ele><time>2026-04-24T09:28:21.002Z</time></trkpt><trkpt lat="44.312982" lon="8.0137335"><ele>881.0</ele><time>2026-04-24T09:28:21.996Z</time></trkpt><trkpt lat="44.3129396" lon="8.0138403"><ele>878.8333333333334</ele><time>2026-04-24T09:28:22.999Z</time></trkpt><trkpt lat="44.3128915" lon="8.0139211"><ele>876.6666666666667</ele><time>2026-04-24T09:28:23.998Z</time></trkpt><trkpt lat="44.3128383" lon="8.0139959"><ele>874.5</ele><time>2026-04-24T09:28:24.999Z</time></trkpt><trkpt lat="44.3127778" lon="8.0140591"><ele>872.3333333333333</ele><time>2026-04-24T09:28:26.001Z</time></trkpt><trkpt lat="44.3127001" lon="8.0140914"><ele>870.1666666666666</ele><time>2026-04-24T09:28:26.996Z</time></trkpt><trkpt lat="44.3126057" lon="8.0141406"><ele>868.0</ele><time>2026-04-24T09:28:28.003Z</time></trkpt><trkpt lat="44.3125068" lon="8.0141925"><ele>868.0</ele><time>2026-04-24T09:28:28.995Z</time></trkpt><trkpt lat="44.3123987" lon="8.0142558"><ele>868.0</ele><time>2026-04-24T09:28:29.998Z</time></trkpt><trkpt lat="44.3122839" lon="8.0142955"><ele>868.0</ele><time>2026-04-24T09:28:30.996Z</time></trkpt><trkpt lat="44.3121524" lon="8.0143323"><ele>868.0</ele><time>2026-04-24T09:28:31.993Z</time></trkpt><trkpt lat="44.3120166" lon="8.0143687"><ele>867.5999999999999</ele><time>2026-04-24T09:28:33.01Z</time></trkpt><trkpt lat="44.3118889" lon="8.0143999"><ele>867.1999999999999</ele><time>2026-04-24T09:28:33.998Z</time></trkpt><trkpt lat="44.3117932" lon="8.0144315"><ele>866.8</ele><time>2026-04-24T09:28:34.992Z</time></trkpt><trkpt lat="44.3116818" lon="8.0144572"><ele>866.4</ele><time>2026-04-24T09:28:35.999Z</time></trkpt><trkpt lat="44.3115978" lon="8.0144548"><ele>866.0</ele><time>2026-04-24T09:28:36.998Z</time></trkpt><trkpt lat="44.3115139" lon="8.0144271"><ele>866.0</ele><time>2026-04-24T09:28:38Z</time></trkpt><trkpt lat="44.31143" lon="8.0143556"><ele>866.0</ele><time>2026-04-24T09:28:38.994Z</time></trkpt><trkpt lat="44.3113476" lon="8.0142667"><ele>866.0</ele><time>2026-04-24T09:28:39.995Z</time></trkpt><trkpt lat="44.3112649" lon="8.0141479"><ele>866.0</ele><time>2026-04-24T09:28:40.993Z</time></trkpt><trkpt lat="44.3111791" lon="8.0140086"><ele>870.5</ele><time>2026-04-24T09:28:42.002Z</time></trkpt><trkpt lat="44.3110865" lon="8.0138805"><ele>875.0</ele><time>2026-04-24T09:28:42.993Z</time></trkpt><trkpt lat="44.3110154" lon="8.0137485"><ele>879.5</ele><time>2026-04-24T09:28:43.999Z</time></trkpt><trkpt lat="44.3109424" lon="8.0136124"><ele>884.0</ele><time>2026-04-24T09:28:45.002Z</time></trkpt><trkpt lat="44.3109321" lon="8.0134324"><ele>883.2</ele><time>2026-04-24T09:28:46.001Z</time></trkpt><trkpt lat="44.310889" lon="8.0132801"><ele>882.4000000000001</ele><time>2026-04-24T09:28:46.998Z</time></trkpt><trkpt lat="44.3108515" lon="8.0131471"><ele>881.6</ele><time>2026-04-24T09:28:47.994Z</time></trkpt><trkpt lat="44.3108002" lon="8.0130172"><ele>880.8</ele><time>2026-04-24T09:28:48.998Z</time></trkpt><trkpt lat="44.3107433" lon="8.0128676"><ele>880.0</ele><time>2026-04-24T09:28:49.996Z</time></trkpt><trkpt lat="44.3106815" lon="8.0127055"><ele>880.0</ele><time>2026-04-24T09:28:50.997Z</time></trkpt><trkpt lat="44.3106161" lon="8.0125515"><ele>880.0</ele><time>2026-04-24T09:28:51.996Z</time></trkpt><trkpt lat="44.3105382" lon="8.0123476"><ele>880.0</ele><time>2026-04-24T09:28:53.003Z</time></trkpt><trkpt lat="44.3104795" lon="8.0121821"><ele>880.0</ele><time>2026-04-24T09:28:53.994Z</time></trkpt><trkpt lat="44.3104382" lon="8.0120556"><ele>882.0</ele><time>2026-04-24T09:28:54.993Z</time></trkpt><trkpt lat="44.3103887" lon="8.0119434"><ele>884.0</ele><time>2026-04-24T09:28:55.995Z</time></trkpt><trkpt lat="44.3103268" lon="8.011826"><ele>886.0</ele><time>2026-04-24T09:28:56.995Z</time></trkpt><trkpt lat="44.3102663" lon="8.0117227"><ele>888.0</ele><time>2026-04-24T09:28:57.995Z</time></trkpt><trkpt lat="44.3101609" lon="8.0117122"><ele>890.0</ele><time>2026-04-24T09:28:58.992Z</time></trkpt><trkpt lat="44.3100535" lon="8.0117192"><ele>890.0</ele><time>2026-04-24T09:28:59.998Z</time></trkpt><trkpt lat="44.3099569" lon="8.0117337"><ele>890.0</ele><time>2026-04-24T09:29:00.993Z</time></trkpt><trkpt lat="44.3098299" lon="8.0117475"><ele>890.0</ele><time>2026-04-24T09:29:01.993Z</time></trkpt><trkpt lat="44.3096839" lon="8.0117637"><ele>890.0</ele><time>2026-04-24T09:29:02.995Z</time></trkpt><trkpt lat="44.3095441" lon="8.0117925"><ele>890.5</ele><time>2026-04-24T09:29:03.989Z</time></trkpt><trkpt lat="44.3094199" lon="8.0118345"><ele>891.0</ele><time>2026-04-24T09:29:04.994Z</time></trkpt><trkpt lat="44.3092911" lon="8.0118805"><ele>891.5</ele><time>2026-04-24T09:29:05.991Z</time></trkpt><trkpt lat="44.3091381" lon="8.0119542"><ele>892.0</ele><time>2026-04-24T09:29:06.993Z</time></trkpt><trkpt lat="44.3089973" lon="8.012016"><ele>894.75</ele><time>2026-04-24T09:29:07.994Z</time></trkpt><trkpt lat="44.3088716" lon="8.0120296"><ele>897.5</ele><time>2026-04-24T09:29:08.993Z</time></trkpt><trkpt lat="44.3087409" lon="8.0120244"><ele>900.25</ele><time>2026-04-24T09:29:09.993Z</time></trkpt><trkpt lat="44.3086235" lon="8.0120236"><ele>903.0</ele><time>2026-04-24T09:29:10.995Z</time></trkpt><trkpt lat="44.3085139" lon="8.0120025"><ele>903.0</ele><time>2026-04-24T09:29:11.993Z</time></trkpt><trkpt lat="44.3084021" lon="8.0119952"><ele>903.0</ele><time>2026-04-24T09:29:12.996Z</time></trkpt><trkpt lat="44.3082823" lon="8.012016"><ele>903.0</ele><time>2026-04-24T09:29:13.992Z</time></trkpt><trkpt lat="44.3081532" lon="8.0120471"><ele>903.0</ele><time>2026-04-24T09:29:14.992Z</time></trkpt><trkpt lat="44.3080274" lon="8.0120642"><ele>906.5</ele><time>2026-04-24T09:29:15.999Z</time></trkpt><trkpt lat="44.3078932" lon="8.0120468"><ele>910.0</ele><time>2026-04-24T09:29:16.992Z</time></trkpt><trkpt lat="44.3077525" lon="8.0120317"><ele>913.5</ele><time>2026-04-24T09:29:17.993Z</time></trkpt><trkpt lat="44.3076234" lon="8.0119895"><ele>917.0</ele><time>2026-04-24T09:29:18.994Z</time></trkpt><trkpt lat="44.3074852" lon="8.0119288"><ele>917.0</ele><time>2026-04-24T09:29:19.997Z</time></trkpt><trkpt lat="44.3073756" lon="8.0118852"><ele>917.0</ele><time>2026-04-24T09:29:20.994Z</time></trkpt><trkpt lat="44.3072507" lon="8.0118499"><ele>917.0</ele><time>2026-04-24T09:29:22.007Z</time></trkpt><trkpt lat="44.3071208" lon="8.011806"><ele>917.0</ele><time>2026-04-24T09:29:22.997Z</time></trkpt><trkpt lat="44.3069893" lon="8.0117813"><ele>916.5</ele><time>2026-04-24T09:29:23.994Z</time></trkpt><trkpt lat="44.3068766" lon="8.0117524"><ele>916.0</ele><time>2026-04-24T09:29:24.993Z</time></trkpt><trkpt lat="44.3067708" lon="8.0116923"><ele>915.5</ele><time>2026-04-24T09:29:26Z</time></trkpt><trkpt lat="44.306671" lon="8.0116458"><ele>915.0</ele><time>2026-04-24T09:29:26.992Z</time></trkpt><trkpt lat="44.3065616" lon="8.0115783"><ele>915.0</ele><time>2026-04-24T09:29:27.999Z</time></trkpt><trkpt lat="44.306479" lon="8.0114536"><ele>915.0</ele><time>2026-04-24T09:29:28.994Z</time></trkpt><trkpt lat="44.3063836" lon="8.0113508"><ele>915.0</ele><time>2026-04-24T09:29:29.995Z</time></trkpt><trkpt lat="44.3062938" lon="8.0112568"><ele>915.0</ele><time>2026-04-24T09:29:30.995Z</time></trkpt><trkpt lat="44.3061306" lon="8.01123"><ele>920.0</ele><time>2026-04-24T09:29:31.998Z</time></trkpt><trkpt lat="44.305992" lon="8.011167"><ele>925.0</ele><time>2026-04-24T09:29:32.998Z</time></trkpt><trkpt lat="44.3058467" lon="8.0111211"><ele>930.0</ele><time>2026-04-24T09:29:33.996Z</time></trkpt><trkpt lat="44.3057137" lon="8.0110416"><ele>935.0</ele><time>2026-04-24T09:29:34.997Z</time></trkpt><trkpt lat="44.3056122" lon="8.0110303"><ele>937.6</ele><time>2026-04-24T09:29:35.999Z</time></trkpt><trkpt lat="44.3055401" lon="8.0110115"><ele>940.2</ele><time>2026-04-24T09:29:36.996Z</time></trkpt><trkpt lat="44.3054778" lon="8.0109502"><ele>942.8</ele><time>2026-04-24T09:30:04.002Z</time></trkpt><trkpt lat="44.305415" lon="8.0108216"><ele>945.4</ele><time>2026-04-24T09:30:06.003Z</time></trkpt><trkpt lat="44.3053465" lon="8.0107244"><ele>948.0</ele><time>2026-04-24T09:30:07.002Z</time></trkpt><trkpt lat="44.3052794" lon="8.0106214"><ele>948.0</ele><time>2026-04-24T09:30:08.008Z</time></trkpt><trkpt lat="44.3051972" lon="8.010517"><ele>948.0</ele><time>2026-04-24T09:30:08.992Z</time></trkpt><trkpt lat="44.3051098" lon="8.0104264"><ele>948.0</ele><time>2026-04-24T09:30:09.994Z</time></trkpt><trkpt lat="44.3050129" lon="8.0103366"><ele>948.0</ele><time>2026-04-24T09:30:10.999Z</time></trkpt><trkpt lat="44.3048995" lon="8.010263"><ele>948.0</ele><time>2026-04-24T09:30:11.999Z</time></trkpt><trkpt lat="44.3048045" lon="8.0101726"><ele>948.0</ele><time>2026-04-24T09:30:12.998Z</time></trkpt><trkpt lat="44.304726" lon="8.0100972"><ele>948.0</ele><time>2026-04-24T09:30:13.992Z</time></trkpt><trkpt lat="44.3046606" lon="8.0099966"><ele>948.0</ele><time>2026-04-24T09:30:14.996Z</time></trkpt><trkpt lat="44.3046141" lon="8.0098816"><ele>948.0</ele><time>2026-04-24T09:30:15.996Z</time></trkpt><trkpt lat="44.3045406" lon="8.0097962"><ele>954.75</ele><time>2026-04-24T09:30:16.99Z</time></trkpt><trkpt lat="44.3044861" lon="8.0097174"><ele>961.5</ele><time>2026-04-24T09:30:18Z</time></trkpt><trkpt lat="44.3044292" lon="8.0096097"><ele>968.25</ele><time>2026-04-24T09:30:19.001Z</time></trkpt><trkpt lat="44.3043595" lon="8.00947"><ele>975.0</ele><time>2026-04-24T09:30:19.999Z</time></trkpt><trkpt lat="44.3042685" lon="8.0092963"><ele>975.0</ele><time>2026-04-24T09:30:20.991Z</time></trkpt><trkpt lat="44.3042093" lon="8.0091598"><ele>975.0</ele><time>2026-04-24T09:30:21.993Z</time></trkpt><trkpt lat="44.3041741" lon="8.0090569"><ele>975.0</ele><time>2026-04-24T09:30:22.996Z</time></trkpt><trkpt lat="44.3041216" lon="8.008981"><ele>975.0</ele><time>2026-04-24T09:30:23.993Z</time></trkpt><trkpt lat="44.3040343" lon="8.0089197"><ele>975.0</ele><time>2026-04-24T09:30:24.992Z</time></trkpt><trkpt lat="44.3039844" lon="8.0088501"><ele>975.0</ele><time>2026-04-24T09:30:26.009Z</time></trkpt><trkpt lat="44.3039303" lon="8.008766"><ele>973.0</ele><time>2026-04-24T09:30:27Z</time></trkpt><trkpt lat="44.303859" lon="8.008611"><ele>971.0</ele><time>2026-04-24T09:30:28.001Z</time></trkpt><trkpt lat="44.3038022" lon="8.0084783"><ele>969.0</ele><time>2026-04-24T09:30:28.998Z</time></trkpt><trkpt lat="44.3038119" lon="8.0083509"><ele>967.0</ele><time>2026-04-24T09:30:29.994Z</time></trkpt><trkpt lat="44.3037974" lon="8.0082455"><ele>965.0</ele><time>2026-04-24T09:30:30.996Z</time></trkpt><trkpt lat="44.3037293" lon="8.0081642"><ele>965.0</ele><time>2026-04-24T09:30:32.998Z</time></trkpt><trkpt lat="44.3035989" lon="8.0081252"><ele>965.0</ele><time>2026-04-24T09:30:34.996Z</time></trkpt><trkpt lat="44.3034879" lon="8.0081491"><ele>965.0</ele><time>2026-04-24T09:30:36Z</time></trkpt><trkpt lat="44.3033655" lon="8.0081736"><ele>965.0</ele><time>2026-04-24T09:30:37Z</time></trkpt><trkpt lat="44.3032142" lon="8.0081888"><ele>966.25</ele><time>2026-04-24T09:30:37.993Z</time></trkpt><trkpt lat="44.3030577" lon="8.0081693"><ele>967.5</ele><time>2026-04-24T09:30:38.996Z</time></trkpt><trkpt lat="44.3029277" lon="8.0081442"><ele>968.75</ele><time>2026-04-24T09:30:40Z</time></trkpt><trkpt lat="44.302823" lon="8.0081046"><ele>970.0</ele><time>2026-04-24T09:30:40.994Z</time></trkpt><trkpt lat="44.302734" lon="8.0081053"><ele>970.0</ele><time>2026-04-24T09:30:41.998Z</time></trkpt><trkpt lat="44.3026342" lon="8.0080879"><ele>970.0</ele><time>2026-04-24T09:30:42.995Z</time></trkpt><trkpt lat="44.3025376" lon="8.0081368"><ele>970.0</ele><time>2026-04-24T09:30:44.001Z</time></trkpt><trkpt lat="44.3024733" lon="8.0082508"><ele>970.0</ele><time>2026-04-24T09:30:44.999Z</time></trkpt><trkpt lat="44.3023632" lon="8.0083476"><ele>970.0</ele><time>2026-04-24T09:30:45.996Z</time></trkpt><trkpt lat="44.302232" lon="8.0084225"><ele>973.8</ele><time>2026-04-24T09:30:46.999Z</time></trkpt><trkpt lat="44.3021265" lon="8.0084947"><ele>977.6</ele><time>2026-04-24T09:30:47.998Z</time></trkpt><trkpt lat="44.3020294" lon="8.0085605"><ele>981.4000000000001</ele><time>2026-04-24T09:30:48.993Z</time></trkpt><trkpt lat="44.3019342" lon="8.0086192"><ele>985.2</ele><time>2026-04-24T09:30:49.996Z</time></trkpt><trkpt lat="44.301848" lon="8.0086229"><ele>989.0</ele><time>2026-04-24T09:30:50.998Z</time></trkpt><trkpt lat="44.3017411" lon="8.0086252"><ele>989.0</ele><time>2026-04-24T09:30:51.995Z</time></trkpt><trkpt lat="44.301625" lon="8.0085932"><ele>989.0</ele><time>2026-04-24T09:30:53.003Z</time></trkpt><trkpt lat="44.3014848" lon="8.008566"><ele>989.0</ele><time>2026-04-24T09:30:53.993Z</time></trkpt><trkpt lat="44.3013523" lon="8.0085295"><ele>989.0</ele><time>2026-04-24T09:30:54.998Z</time></trkpt><trkpt lat="44.3012398" lon="8.0085188"><ele>990.0</ele><time>2026-04-24T09:30:55.999Z</time></trkpt><trkpt lat="44.3011197" lon="8.0085301"><ele>991.0</ele><time>2026-04-24T09:30:56.996Z</time></trkpt><trkpt lat="44.3009947" lon="8.0085083"><ele>992.0</ele><time>2026-04-24T09:30:57.999Z</time></trkpt><trkpt lat="44.3008665" lon="8.0084779"><ele>993.0</ele><time>2026-04-24T09:30:58.996Z</time></trkpt><trkpt lat="44.3007214" lon="8.0083792"><ele>994.75</ele><time>2026-04-24T09:31:00.006Z</time></trkpt><trkpt lat="44.3006008" lon="8.0082843"><ele>996.5</ele><time>2026-04-24T09:31:00.994Z</time></trkpt><trkpt lat="44.3004934" lon="8.0082022"><ele>998.25</ele><time>2026-04-24T09:31:02.001Z</time></trkpt><trkpt lat="44.300387" lon="8.0081246"><ele>1000.0</ele><time>2026-04-24T09:31:02.996Z</time></trkpt><trkpt lat="44.3002667" lon="8.0081294"><ele>1000.0</ele><time>2026-04-24T09:31:03.995Z</time></trkpt><trkpt lat="44.300165" lon="8.0081226"><ele>1000.0</ele><time>2026-04-24T09:31:04.994Z</time></trkpt><trkpt lat="44.3000388" lon="8.0080542"><ele>1000.0</ele><time>2026-04-24T09:31:06.007Z</time></trkpt><trkpt lat="44.2999344" lon="8.0079856"><ele>1000.0</ele><time>2026-04-24T09:31:06.995Z</time></trkpt><trkpt lat="44.2998135" lon="8.0079317"><ele>1005.25</ele><time>2026-04-24T09:31:07.994Z</time></trkpt><trkpt lat="44.2997044" lon="8.0078815"><ele>1010.5</ele><time>2026-04-24T09:31:08.994Z</time></trkpt><trkpt lat="44.2996082" lon="8.0078295"><ele>1015.75</ele><time>2026-04-24T09:31:09.995Z</time></trkpt><trkpt lat="44.299532" lon="8.0077743"><ele>1021.0</ele><time>2026-04-24T09:31:11Z</time></trkpt><trkpt lat="44.2993794" lon="8.007725"><ele>1021.0</ele><time>2026-04-24T09:31:13.003Z</time></trkpt><trkpt lat="44.299278" lon="8.0077424"><ele>1021.0</ele><time>2026-04-24T09:31:13.998Z</time></trkpt><trkpt lat="44.2991373" lon="8.0077505"><ele>1021.0</ele><time>2026-04-24T09:31:14.998Z</time></trkpt><trkpt lat="44.2990333" lon="8.0077503"><ele>1021.0</ele><time>2026-04-24T09:31:15.999Z</time></trkpt><trkpt lat="44.298922" lon="8.007732"><ele>1021.0</ele><time>2026-04-24T09:31:17.001Z</time></trkpt><trkpt lat="44.2988078" lon="8.0076948"><ele>1021.0</ele><time>2026-04-24T09:31:18.004Z</time></trkpt><trkpt lat="44.2986714" lon="8.0076782"><ele>1021.0</ele><time>2026-04-24T09:31:18.998Z</time></trkpt><trkpt lat="44.2985349" lon="8.0076771"><ele>1021.0</ele><time>2026-04-24T09:31:19.998Z</time></trkpt><trkpt lat="44.2983931" lon="8.0076774"><ele>1021.0</ele><time>2026-04-24T09:31:20.998Z</time></trkpt><trkpt lat="44.2982689" lon="8.0076656"><ele>1021.0</ele><time>2026-04-24T09:31:21.994Z</time></trkpt><trkpt lat="44.2981448" lon="8.0076315"><ele>1021.0</ele><time>2026-04-24T09:31:22.994Z</time></trkpt><trkpt lat="44.2980177" lon="8.0075818"><ele>1021.0</ele><time>2026-04-24T09:31:23.995Z</time></trkpt><trkpt lat="44.2978856" lon="8.0075408"><ele>1020.25</ele><time>2026-04-24T09:31:24.99Z</time></trkpt><trkpt lat="44.2977706" lon="8.0075177"><ele>1019.5</ele><time>2026-04-24T09:31:25.993Z</time></trkpt><trkpt lat="44.2976378" lon="8.00749"><ele>1018.75</ele><time>2026-04-24T09:31:26.991Z</time></trkpt><trkpt lat="44.2975106" lon="8.0074676"><ele>1018.0</ele><time>2026-04-24T09:31:27.994Z</time></trkpt><trkpt lat="44.2973929" lon="8.0074611"><ele>1012.2</ele><time>2026-04-24T09:31:28.997Z</time></trkpt><trkpt lat="44.2972755" lon="8.0074459"><ele>1006.4</ele><time>2026-04-24T09:31:29.992Z</time></trkpt><trkpt lat="44.2971677" lon="8.0074339"><ele>1000.6000000000001</ele><time>2026-04-24T09:31:31.004Z</time></trkpt><trkpt lat="44.2970778" lon="8.0074132"><ele>994.8000000000001</ele><time>2026-04-24T09:31:31.994Z</time></trkpt><trkpt lat="44.2969959" lon="8.0074194"><ele>989.0</ele><time>2026-04-24T09:31:32.993Z</time></trkpt><trkpt lat="44.2969262" lon="8.0074592"><ele>992.6</ele><time>2026-04-24T09:31:33.998Z</time></trkpt><trkpt lat="44.2968389" lon="8.0075316"><ele>996.2</ele><time>2026-04-24T09:31:34.993Z</time></trkpt><trkpt lat="44.2967529" lon="8.0076071"><ele>999.8000000000001</ele><time>2026-04-24T09:31:35.997Z</time></trkpt><trkpt lat="44.2966645" lon="8.007666"><ele>1003.4000000000001</ele><time>2026-04-24T09:31:36.994Z</time></trkpt><trkpt lat="44.2965756" lon="8.0077023"><ele>1007.0</ele><time>2026-04-24T09:31:37.994Z</time></trkpt><trkpt lat="44.2964476" lon="8.0076716"><ele>1005.4000000000001</ele><time>2026-04-24T09:31:38.993Z</time></trkpt><trkpt lat="44.2963283" lon="8.0076644"><ele>1003.8000000000001</ele><time>2026-04-24T09:31:39.989Z</time></trkpt><trkpt lat="44.2962398" lon="8.0076388"><ele>1002.2</ele><time>2026-04-24T09:31:40.997Z</time></trkpt><trkpt lat="44.2961489" lon="8.0076136"><ele>1000.6</ele><time>2026-04-24T09:31:41.994Z</time></trkpt><trkpt lat="44.2960531" lon="8.0075884"><ele>999.0</ele><time>2026-04-24T09:31:42.988Z</time></trkpt><trkpt lat="44.2959473" lon="8.0075788"><ele>999.0</ele><time>2026-04-24T09:31:43.994Z</time></trkpt><trkpt lat="44.2958149" lon="8.0076014"><ele>999.0</ele><time>2026-04-24T09:31:44.993Z</time></trkpt><trkpt lat="44.2956684" lon="8.0076029"><ele>999.0</ele><time>2026-04-24T09:31:45.993Z</time></trkpt><trkpt lat="44.2955349" lon="8.0075907"><ele>999.0</ele><time>2026-04-24T09:31:46.999Z</time></trkpt><trkpt lat="44.2954148" lon="8.0076028"><ele>997.5</ele><time>2026-04-24T09:31:47.992Z</time></trkpt><trkpt lat="44.2952889" lon="8.0075978"><ele>996.0</ele><time>2026-04-24T09:31:48.995Z</time></trkpt><trkpt lat="44.2951751" lon="8.0075726"><ele>994.5</ele><time>2026-04-24T09:31:50.005Z</time></trkpt><trkpt lat="44.2950491" lon="8.0075613"><ele>993.0</ele><time>2026-04-24T09:31:50.991Z</time></trkpt><trkpt lat="44.294926" lon="8.0075649"><ele>993.0</ele><time>2026-04-24T09:31:51.996Z</time></trkpt><trkpt lat="44.2948191" lon="8.0075548"><ele>993.0</ele><time>2026-04-24T09:31:53.002Z</time></trkpt><trkpt lat="44.2947122" lon="8.0075701"><ele>993.0</ele><time>2026-04-24T09:31:53.992Z</time></trkpt><trkpt lat="44.2946104" lon="8.0075465"><ele>993.0</ele><time>2026-04-24T09:31:55.003Z</time></trkpt><trkpt lat="44.2945024" lon="8.0075236"><ele>993.0</ele><time>2026-04-24T09:31:55.996Z</time></trkpt><trkpt lat="44.2944003" lon="8.0075009"><ele>991.6666666666666</ele><time>2026-04-24T09:31:56.99Z</time></trkpt><trkpt lat="44.2942899" lon="8.007488"><ele>990.3333333333333</ele><time>2026-04-24T09:31:57.993Z</time></trkpt><trkpt lat="44.2942252" lon="8.0075305"><ele>989.0</ele><time>2026-04-24T09:31:58.996Z</time></trkpt><trkpt lat="44.2941493" lon="8.0075782"><ele>987.6666666666666</ele><time>2026-04-24T09:31:59.997Z</time></trkpt><trkpt lat="44.2940991" lon="8.007647"><ele>986.3333333333333</ele><time>2026-04-24T09:32:00.992Z</time></trkpt><trkpt lat="44.2940397" lon="8.0077397"><ele>985.0</ele><time>2026-04-24T09:32:01.994Z</time></trkpt><trkpt lat="44.2940144" lon="8.007901"><ele>985.0</ele><time>2026-04-24T09:32:02.998Z</time></trkpt><trkpt lat="44.2939521" lon="8.0080044"><ele>985.0</ele><time>2026-04-24T09:32:03.994Z</time></trkpt><trkpt lat="44.2939002" lon="8.0080563"><ele>985.0</ele><time>2026-04-24T09:32:04.994Z</time></trkpt><trkpt lat="44.2938162" lon="8.0080915"><ele>985.0</ele><time>2026-04-24T09:32:05.994Z</time></trkpt><trkpt lat="44.2937035" lon="8.008104"><ele>985.0</ele><time>2026-04-24T09:32:06.993Z</time></trkpt><trkpt lat="44.2935992" lon="8.0081091"><ele>983.6</ele><time>2026-04-24T09:32:07.995Z</time></trkpt><trkpt lat="44.2934991" lon="8.0080467"><ele>982.2</ele><time>2026-04-24T09:32:08.994Z</time></trkpt><trkpt lat="44.2934073" lon="8.0080149"><ele>980.8</ele><time>2026-04-24T09:32:09.996Z</time></trkpt><trkpt lat="44.2933496" lon="8.0079748"><ele>979.4</ele><time>2026-04-24T09:32:10.994Z</time></trkpt><trkpt lat="44.293287" lon="8.0078499"><ele>978.0</ele><time>2026-04-24T09:32:11.991Z</time></trkpt><trkpt lat="44.2932581" lon="8.0076753"><ele>978.0</ele><time>2026-04-24T09:32:12.998Z</time></trkpt><trkpt lat="44.2931985" lon="8.0075795"><ele>978.0</ele><time>2026-04-24T09:32:13.993Z</time></trkpt><trkpt lat="44.2931534" lon="8.0075035"><ele>978.0</ele><time>2026-04-24T09:32:14.995Z</time></trkpt><trkpt lat="44.2931056" lon="8.0073999"><ele>978.0</ele><time>2026-04-24T09:32:16.991Z</time></trkpt><trkpt lat="44.2930212" lon="8.0073538"><ele>978.0</ele><time>2026-04-24T09:32:27.002Z</time></trkpt><trkpt lat="44.2929063" lon="8.0073777"><ele>979.5999999999999</ele><time>2026-04-24T09:32:28.996Z</time></trkpt><trkpt lat="44.2927934" lon="8.0073712"><ele>981.1999999999999</ele><time>2026-04-24T09:32:31.004Z</time></trkpt><trkpt lat="44.2926818" lon="8.0073272"><ele>982.8</ele><time>2026-04-24T09:32:32.997Z</time></trkpt><trkpt lat="44.2926035" lon="8.0073358"><ele>984.4</ele><time>2026-04-24T09:32:36Z</time></trkpt><trkpt lat="44.2925318" lon="8.0073464"><ele>986.0</ele><time>2026-04-24T09:32:37.996Z</time></trkpt><trkpt lat="44.2923334" lon="8.0073777"><ele>989.6666666666667</ele><time>2026-04-24T09:32:38.993Z</time></trkpt><trkpt lat="44.2920531" lon="8.0073933"><ele>993.3333333333333</ele><time>2026-04-24T09:32:39.996Z</time></trkpt><trkpt lat="44.2919514" lon="8.0074064"><ele>997.0</ele><time>2026-04-24T09:32:40.991Z</time></trkpt><trkpt lat="44.2918427" lon="8.0074218"><ele>997.0</ele><time>2026-04-24T09:32:41.989Z</time></trkpt><trkpt lat="44.2917391" lon="8.0074447"><ele>997.0</ele><time>2026-04-24T09:32:42.999Z</time></trkpt><trkpt lat="44.2916323" lon="8.0074565"><ele>997.0</ele><time>2026-04-24T09:32:43.998Z</time></trkpt><trkpt lat="44.2915309" lon="8.007471"><ele>997.0</ele><time>2026-04-24T09:32:44.997Z</time></trkpt><trkpt lat="44.2914316" lon="8.0074976"><ele>997.0</ele><time>2026-04-24T09:32:45.995Z</time></trkpt><trkpt lat="44.2913416" lon="8.0075042"><ele>992.8</ele><time>2026-04-24T09:32:46.998Z</time></trkpt><trkpt lat="44.291258" lon="8.0075387"><ele>988.6</ele><time>2026-04-24T09:32:47.991Z</time></trkpt><trkpt lat="44.2911335" lon="8.0075812"><ele>984.3999999999999</ele><time>2026-04-24T09:32:49.993Z</time></trkpt><trkpt lat="44.2910449" lon="8.0076046"><ele>980.1999999999999</ele><time>2026-04-24T09:32:50.996Z</time></trkpt><trkpt lat="44.2909375" lon="8.0076333"><ele>976.0</ele><time>2026-04-24T09:32:51.992Z</time></trkpt><trkpt lat="44.29083" lon="8.0076627"><ele>976.0</ele><time>2026-04-24T09:32:52.99Z</time></trkpt><trkpt lat="44.2907043" lon="8.0077036"><ele>976.0</ele><time>2026-04-24T09:32:54.004Z</time></trkpt><trkpt lat="44.2905596" lon="8.0077321"><ele>976.0</ele><time>2026-04-24T09:32:55Z</time></trkpt><trkpt lat="44.2904421" lon="8.0077903"><ele>976.0</ele><time>2026-04-24T09:32:55.994Z</time></trkpt><trkpt lat="44.2903246" lon="8.0078407"><ele>976.6666666666666</ele><time>2026-04-24T09:32:56.999Z</time></trkpt><trkpt lat="44.2902306" lon="8.0078741"><ele>977.3333333333333</ele><time>2026-04-24T09:32:57.999Z</time></trkpt><trkpt lat="44.2901345" lon="8.0079065"><ele>978.0</ele><time>2026-04-24T09:32:58.994Z</time></trkpt><trkpt lat="44.2900667" lon="8.0079004"><ele>978.6666666666667</ele><time>2026-04-24T09:33:00Z</time></trkpt><trkpt lat="44.2900008" lon="8.0078684"><ele>979.3333333333334</ele><time>2026-04-24T09:33:01.001Z</time></trkpt><trkpt lat="44.2899252" lon="8.0078437"><ele>980.0</ele><time>2026-04-24T09:33:02.002Z</time></trkpt><trkpt lat="44.2898691" lon="8.0077694"><ele>980.0</ele><time>2026-04-24T09:33:03.004Z</time></trkpt><trkpt lat="44.289792" lon="8.0077217"><ele>980.0</ele><time>2026-04-24T09:33:03.992Z</time></trkpt><trkpt lat="44.289721" lon="8.0077288"><ele>980.0</ele><time>2026-04-24T09:33:05Z</time></trkpt><trkpt lat="44.289617" lon="8.007733"><ele>980.0</ele><time>2026-04-24T09:33:05.994Z</time></trkpt><trkpt lat="44.2895031" lon="8.0077534"><ele>980.0</ele><time>2026-04-24T09:33:06.993Z</time></trkpt><trkpt lat="44.2893862" lon="8.0077866"><ele>979.75</ele><time>2026-04-24T09:33:07.997Z</time></trkpt><trkpt lat="44.2893013" lon="8.0078158"><ele>979.5</ele><time>2026-04-24T09:33:08.997Z</time></trkpt><trkpt lat="44.2892128" lon="8.0078028"><ele>979.25</ele><time>2026-04-24T09:33:10Z</time></trkpt><trkpt lat="44.2890968" lon="8.0078036"><ele>979.0</ele><time>2026-04-24T09:33:11.126Z</time></trkpt><trkpt lat="44.28887" lon="8.0077645"><ele>978.5</ele><time>2026-04-24T09:33:12.992Z</time></trkpt><trkpt lat="44.288763" lon="8.0077674"><ele>978.0</ele><time>2026-04-24T09:33:14Z</time></trkpt><trkpt lat="44.2886806" lon="8.0077311"><ele>977.5</ele><time>2026-04-24T09:33:15.995Z</time></trkpt><trkpt lat="44.2885947" lon="8.0076008"><ele>977.0</ele><time>2026-04-24T09:33:18.004Z</time></trkpt><trkpt lat="44.2885393" lon="8.0074012"><ele>981.0</ele><time>2026-04-24T09:33:19.004Z</time></trkpt><trkpt lat="44.2885045" lon="8.0072556"><ele>985.0</ele><time>2026-04-24T09:33:20.014Z</time></trkpt><trkpt lat="44.2884574" lon="8.0071031"><ele>989.0</ele><time>2026-04-24T09:33:21.002Z</time></trkpt><trkpt lat="44.2883974" lon="8.0069525"><ele>993.0</ele><time>2026-04-24T09:33:21.992Z</time></trkpt><trkpt lat="44.2883104" lon="8.0068537"><ele>993.0</ele><time>2026-04-24T09:33:22.99Z</time></trkpt><trkpt lat="44.2882376" lon="8.0067454"><ele>993.0</ele><time>2026-04-24T09:33:23.993Z</time></trkpt><trkpt lat="44.2881591" lon="8.0066405"><ele>993.0</ele><time>2026-04-24T09:33:24.998Z</time></trkpt><trkpt lat="44.2880959" lon="8.006545"><ele>993.0</ele><time>2026-04-24T09:33:25.991Z</time></trkpt><trkpt lat="44.2880156" lon="8.0064642"><ele>993.0</ele><time>2026-04-24T09:33:26.992Z</time></trkpt><trkpt lat="44.2878806" lon="8.0064595"><ele>999.25</ele><time>2026-04-24T09:33:27.998Z</time></trkpt><trkpt lat="44.2877659" lon="8.0064308"><ele>1005.5</ele><time>2026-04-24T09:33:28.991Z</time></trkpt><trkpt lat="44.2876348" lon="8.0064137"><ele>1011.75</ele><time>2026-04-24T09:33:30.005Z</time></trkpt><trkpt lat="44.2875137" lon="8.0064414"><ele>1018.0</ele><time>2026-04-24T09:33:30.995Z</time></trkpt><trkpt lat="44.2873847" lon="8.0064282"><ele>1018.0</ele><time>2026-04-24T09:33:31.992Z</time></trkpt><trkpt lat="44.2872663" lon="8.0064302"><ele>1018.0</ele><time>2026-04-24T09:33:32.992Z</time></trkpt><trkpt lat="44.2871128" lon="8.006486"><ele>1018.0</ele><time>2026-04-24T09:33:34.992Z</time></trkpt><trkpt lat="44.2870193" lon="8.0065123"><ele>1018.0</ele><time>2026-04-24T09:33:35.993Z</time></trkpt><trkpt lat="44.2869364" lon="8.0065766"><ele>1019.3333333333333</ele><time>2026-04-24T09:33:36.997Z</time></trkpt><trkpt lat="44.2868694" lon="8.0066163"><ele>1020.6666666666666</ele><time>2026-04-24T09:33:37.996Z</time></trkpt><trkpt lat="44.2867787" lon="8.0066075"><ele>1022.0</ele><time>2026-04-24T09:33:38.997Z</time></trkpt><trkpt lat="44.2867074" lon="8.0066021"><ele>1023.3333333333333</ele><time>2026-04-24T09:33:39.991Z</time></trkpt><trkpt lat="44.286635" lon="8.0065813"><ele>1024.6666666666667</ele><time>2026-04-24T09:33:40.993Z</time></trkpt><trkpt lat="44.2865713" lon="8.0065331"><ele>1026.0</ele><time>2026-04-24T09:33:41.993Z</time></trkpt><trkpt lat="44.2865162" lon="8.0064658"><ele>1025.2</ele><time>2026-04-24T09:33:42.994Z</time></trkpt><trkpt lat="44.2864167" lon="8.0063682"><ele>1024.3999999999999</ele><time>2026-04-24T09:33:44.993Z</time></trkpt><trkpt lat="44.2863348" lon="8.0063819"><ele>1023.6</ele><time>2026-04-24T09:33:45.994Z</time></trkpt><trkpt lat="44.2862449" lon="8.0063627"><ele>1022.8</ele><time>2026-04-24T09:33:46.999Z</time></trkpt><trkpt lat="44.2861214" lon="8.006367"><ele>1022.0</ele><time>2026-04-24T09:33:48.002Z</time></trkpt><trkpt lat="44.2860191" lon="8.0063935"><ele>1022.0</ele><time>2026-04-24T09:33:48.994Z</time></trkpt><trkpt lat="44.285922" lon="8.0064013"><ele>1022.0</ele><time>2026-04-24T09:33:50.001Z</time></trkpt><trkpt lat="44.285849" lon="8.0063701"><ele>1022.0</ele><time>2026-04-24T09:33:52Z</time></trkpt><trkpt lat="44.2857807" lon="8.0063678"><ele>1022.0</ele><time>2026-04-24T09:33:53.994Z</time></trkpt><trkpt lat="44.2856883" lon="8.0062994"><ele>1022.0</ele><time>2026-04-24T09:33:56.006Z</time></trkpt><trkpt lat="44.2855877" lon="8.0062032"><ele>1023.0</ele><time>2026-04-24T09:33:57.997Z</time></trkpt><trkpt lat="44.2854822" lon="8.0061832"><ele>1024.0</ele><time>2026-04-24T09:33:59.994Z</time></trkpt><trkpt lat="44.2854153" lon="8.0061676"><ele>1025.0</ele><time>2026-04-24T09:34:02.997Z</time></trkpt><trkpt lat="44.2853605" lon="8.0062131"><ele>1026.0</ele><time>2026-04-24T09:34:05.995Z</time></trkpt><trkpt lat="44.2853141" lon="8.0063216"><ele>1027.0</ele><time>2026-04-24T09:34:08.996Z</time></trkpt><trkpt lat="44.2851198" lon="8.0065354"><ele>1025.0</ele><time>2026-04-24T09:34:11.001Z</time></trkpt><trkpt lat="44.2850294" lon="8.0066857"><ele>1023.0</ele><time>2026-04-24T09:34:11.994Z</time></trkpt><trkpt lat="44.284976" lon="8.0067458"><ele>1021.0</ele><time>2026-04-24T09:34:12.995Z</time></trkpt><trkpt lat="44.2849219" lon="8.0068013"><ele>1019.0</ele><time>2026-04-24T09:34:13.993Z</time></trkpt><trkpt lat="44.2848236" lon="8.006875"><ele>1017.0</ele><time>2026-04-24T09:34:16.005Z</time></trkpt><trkpt lat="44.284764" lon="8.0069065"><ele>1018.3333333333334</ele><time>2026-04-24T09:34:16.998Z</time></trkpt><trkpt lat="44.2846838" lon="8.0069493"><ele>1019.6666666666667</ele><time>2026-04-24T09:34:17.996Z</time></trkpt><trkpt lat="44.2845933" lon="8.0070016"><ele>1021.0</ele><time>2026-04-24T09:34:18.997Z</time></trkpt><trkpt lat="44.2845321" lon="8.0070337"><ele>1022.3333333333334</ele><time>2026-04-24T09:34:19.998Z</time></trkpt><trkpt lat="44.2844557" lon="8.0070849"><ele>1023.6666666666667</ele><time>2026-04-24T09:34:20.995Z</time></trkpt><trkpt lat="44.2843808" lon="8.007119"><ele>1025.0</ele><time>2026-04-24T09:34:21.996Z</time></trkpt><trkpt lat="44.2842881" lon="8.0071609"><ele>1025.0</ele><time>2026-04-24T09:34:22.997Z</time></trkpt><trkpt lat="44.2842031" lon="8.0072332"><ele>1025.0</ele><time>2026-04-24T09:34:23.995Z</time></trkpt><trkpt lat="44.2841484" lon="8.0072906"><ele>1025.0</ele><time>2026-04-24T09:34:25.009Z</time></trkpt><trkpt lat="44.2840614" lon="8.0074112"><ele>1025.0</ele><time>2026-04-24T09:34:26.996Z</time></trkpt><trkpt lat="44.2839711" lon="8.0074681"><ele>1025.0</ele><time>2026-04-24T09:34:28.994Z</time></trkpt><trkpt lat="44.2838958" lon="8.0074669"><ele>1023.8</ele><time>2026-04-24T09:34:29.998Z</time></trkpt><trkpt lat="44.2837978" lon="8.007531"><ele>1022.6</ele><time>2026-04-24T09:34:32.006Z</time></trkpt><trkpt lat="44.283751" lon="8.0076018"><ele>1021.4000000000001</ele><time>2026-04-24T09:34:33.999Z</time></trkpt><trkpt lat="44.2837411" lon="8.0077094"><ele>1020.2</ele><time>2026-04-24T09:34:37Z</time></trkpt><trkpt lat="44.283691" lon="8.0077805"><ele>1019.0</ele><time>2026-04-24T09:34:38.997Z</time></trkpt><trkpt lat="44.2835721" lon="8.0078869"><ele>1019.0</ele><time>2026-04-24T09:34:40.999Z</time></trkpt><trkpt lat="44.2834961" lon="8.007949"><ele>1019.0</ele><time>2026-04-24T09:34:41.994Z</time></trkpt><trkpt lat="44.2833416" lon="8.0080692"><ele>1019.0</ele><time>2026-04-24T09:34:42.995Z</time></trkpt><trkpt lat="44.2832378" lon="8.0082103"><ele>1019.0</ele><time>2026-04-24T09:34:43.999Z</time></trkpt><trkpt lat="44.2831875" lon="8.0082837"><ele>1017.5000000000001</ele><time>2026-04-24T09:34:44.995Z</time></trkpt><trkpt lat="44.2831342" lon="8.0083829"><ele>1016.0</ele><time>2026-04-24T09:34:45.994Z</time></trkpt><trkpt lat="44.2830903" lon="8.0084604"><ele>1014.5</ele><time>2026-04-24T09:34:47.001Z</time></trkpt><trkpt lat="44.2830489" lon="8.0085489"><ele>1013.0</ele><time>2026-04-24T09:34:48.002Z</time></trkpt><trkpt lat="44.2830091" lon="8.0086174"><ele>1011.5000000000001</ele><time>2026-04-24T09:34:48.994Z</time></trkpt><trkpt lat="44.28296" lon="8.0086785"><ele>1010.0</ele><time>2026-04-24T09:34:50.001Z</time></trkpt><trkpt lat="44.2828899" lon="8.0087563"><ele>1010.0000000000001</ele><time>2026-04-24T09:34:51.002Z</time></trkpt><trkpt lat="44.2828305" lon="8.0088058"><ele>1010.0</ele><time>2026-04-24T09:34:52Z</time></trkpt><trkpt lat="44.2827101" lon="8.0088831"><ele>1010.0</ele><time>2026-04-24T09:34:53.999Z</time></trkpt><trkpt lat="44.2826391" lon="8.0089093"><ele>1010.0</ele><time>2026-04-24T09:34:54.995Z</time></trkpt><trkpt lat="44.282558" lon="8.008941"><ele>1010.0000000000001</ele><time>2026-04-24T09:34:55.992Z</time></trkpt><trkpt lat="44.282487" lon="8.0089564"><ele>1010.0</ele><time>2026-04-24T09:34:56.999Z</time></trkpt><trkpt lat="44.282388" lon="8.0090437"><ele>1010.0000000000001</ele><time>2026-04-24T09:34:58.994Z</time></trkpt><trkpt lat="44.2823389" lon="8.0091299"><ele>1010.0</ele><time>2026-04-24T09:35:00Z</time></trkpt><trkpt lat="44.2822899" lon="8.0092119"><ele>1010.0</ele><time>2026-04-24T09:35:00.991Z</time></trkpt><trkpt lat="44.282224" lon="8.0092534"><ele>1010.0</ele><time>2026-04-24T09:35:01.996Z</time></trkpt><trkpt lat="44.2821527" lon="8.0092787"><ele>1010.0000000000001</ele><time>2026-04-24T09:35:02.997Z</time></trkpt><trkpt lat="44.2820165" lon="8.0092789"><ele>1010.0</ele><time>2026-04-24T09:35:04.998Z</time></trkpt><trkpt lat="44.2819185" lon="8.009282"><ele>1006.8</ele><time>2026-04-24T09:35:05.994Z</time></trkpt><trkpt lat="44.2818246" lon="8.0093133"><ele>1003.6</ele><time>2026-04-24T09:35:06.996Z</time></trkpt><trkpt lat="44.281731" lon="8.0093502"><ele>1000.4000000000001</ele><time>2026-04-24T09:35:07.996Z</time></trkpt><trkpt lat="44.2816475" lon="8.0094111"><ele>997.2</ele><time>2026-04-24T09:35:08.992Z</time></trkpt><trkpt lat="44.2815597" lon="8.0094622"><ele>994.0</ele><time>2026-04-24T09:35:09.993Z</time></trkpt><trkpt lat="44.2814758" lon="8.0094808"><ele>993.6</ele><time>2026-04-24T09:35:10.992Z</time></trkpt><trkpt lat="44.2814101" lon="8.0095191"><ele>993.2</ele><time>2026-04-24T09:35:11.992Z</time></trkpt><trkpt lat="44.2813215" lon="8.0096497"><ele>992.8000000000001</ele><time>2026-04-24T09:35:14.005Z</time></trkpt><trkpt lat="44.2812654" lon="8.0098297"><ele>992.4000000000001</ele><time>2026-04-24T09:35:15.993Z</time></trkpt><trkpt lat="44.2812426" lon="8.0099349"><ele>992.0</ele><time>2026-04-24T09:35:16.993Z</time></trkpt><trkpt lat="44.2812247" lon="8.0100348"><ele>990.0000000000001</ele><time>2026-04-24T09:35:17.991Z</time></trkpt><trkpt lat="44.2812018" lon="8.0101548"><ele>988.0</ele><time>2026-04-24T09:35:19.995Z</time></trkpt><trkpt lat="44.2811387" lon="8.0102167"><ele>986.0</ele><time>2026-04-24T09:35:22.996Z</time></trkpt><trkpt lat="44.2811623" lon="8.0101238"><ele>984.0</ele><time>2026-04-24T09:35:25.997Z</time></trkpt><trkpt lat="44.2812361" lon="8.0100539"><ele>982.0000000000001</ele><time>2026-04-24T09:35:27.995Z</time></trkpt><trkpt lat="44.281163" lon="8.0100209"><ele>980.0</ele><time>2026-04-24T09:35:31Z</time></trkpt><trkpt lat="44.2810434" lon="8.0100127"><ele>982.4</ele><time>2026-04-24T09:35:32.993Z</time></trkpt><trkpt lat="44.2809482" lon="8.0099405"><ele>984.8</ele><time>2026-04-24T09:35:35Z</time></trkpt><trkpt lat="44.2808697" lon="8.0098742"><ele>987.2</ele><time>2026-04-24T09:35:36.996Z</time></trkpt><trkpt lat="44.2807711" lon="8.0098156"><ele>989.6</ele><time>2026-04-24T09:35:38.992Z</time></trkpt><trkpt lat="44.280656" lon="8.0097573"><ele>992.0</ele><time>2026-04-24T09:35:41.004Z</time></trkpt><trkpt lat="44.2806165" lon="8.0096377"><ele>992.0</ele><time>2026-04-24T09:35:42.996Z</time></trkpt><trkpt lat="44.2806088" lon="8.0094643"><ele>992.0</ele><time>2026-04-24T09:35:45Z</time></trkpt><trkpt lat="44.2805838" lon="8.0093067"><ele>992.0</ele><time>2026-04-24T09:35:46.994Z</time></trkpt><trkpt lat="44.2805592" lon="8.0092208"><ele>992.0</ele><time>2026-04-24T09:35:47.993Z</time></trkpt><trkpt lat="44.2805425" lon="8.009126"><ele>992.0</ele><time>2026-04-24T09:35:48.995Z</time></trkpt><trkpt lat="44.2805347" lon="8.0090183"><ele>988.2</ele><time>2026-04-24T09:35:49.999Z</time></trkpt><trkpt lat="44.2805205" lon="8.0089017"><ele>984.4000000000001</ele><time>2026-04-24T09:35:50.996Z</time></trkpt><trkpt lat="44.280506" lon="8.0087811"><ele>980.5999999999999</ele><time>2026-04-24T09:35:51.991Z</time></trkpt><trkpt lat="44.280481" lon="8.0086507"><ele>976.8</ele><time>2026-04-24T09:35:52.993Z</time></trkpt><trkpt lat="44.2804476" lon="8.008516"><ele>973.0</ele><time>2026-04-24T09:35:54.001Z</time></trkpt><trkpt lat="44.2804262" lon="8.0083637"><ele>975.0</ele><time>2026-04-24T09:35:54.995Z</time></trkpt><trkpt lat="44.2803886" lon="8.0081874"><ele>977.0</ele><time>2026-04-24T09:35:56.002Z</time></trkpt><trkpt lat="44.2803477" lon="8.0080117"><ele>979.0</ele><time>2026-04-24T09:35:56.998Z</time></trkpt><trkpt lat="44.2802926" lon="8.0078087"><ele>981.0</ele><time>2026-04-24T09:35:57.998Z</time></trkpt><trkpt lat="44.2802555" lon="8.00761"><ele>982.5</ele><time>2026-04-24T09:35:58.992Z</time></trkpt><trkpt lat="44.2802292" lon="8.0074216"><ele>984.0</ele><time>2026-04-24T09:35:59.996Z</time></trkpt><trkpt lat="44.2801996" lon="8.007244"><ele>985.5</ele><time>2026-04-24T09:36:01.002Z</time></trkpt><trkpt lat="44.2801771" lon="8.0070553"><ele>987.0</ele><time>2026-04-24T09:36:01.999Z</time></trkpt><trkpt lat="44.2801987" lon="8.0068813"><ele>987.0</ele><time>2026-04-24T09:36:02.99Z</time></trkpt><trkpt lat="44.2802077" lon="8.0066925"><ele>987.0</ele><time>2026-04-24T09:36:03.993Z</time></trkpt><trkpt lat="44.2801909" lon="8.0065556"><ele>987.0</ele><time>2026-04-24T09:36:05.004Z</time></trkpt><trkpt lat="44.2801884" lon="8.0064057"><ele>987.0</ele><time>2026-04-24T09:36:05.997Z</time></trkpt><trkpt lat="44.2801513" lon="8.0062538"><ele>990.5</ele><time>2026-04-24T09:36:06.993Z</time></trkpt><trkpt lat="44.2801076" lon="8.0060989"><ele>994.0</ele><time>2026-04-24T09:36:07.997Z</time></trkpt><trkpt lat="44.2800457" lon="8.0059459"><ele>997.5</ele><time>2026-04-24T09:36:08.993Z</time></trkpt><trkpt lat="44.2799849" lon="8.005816"><ele>1001.0</ele><time>2026-04-24T09:36:09.999Z</time></trkpt><trkpt lat="44.2798637" lon="8.0056503"><ele>1000.25</ele><time>2026-04-24T09:36:10.993Z</time></trkpt><trkpt lat="44.2798156" lon="8.0054644"><ele>999.5</ele><time>2026-04-24T09:36:11.992Z</time></trkpt><trkpt lat="44.2797572" lon="8.0052773"><ele>998.75</ele><time>2026-04-24T09:36:12.998Z</time></trkpt><trkpt lat="44.2797088" lon="8.0051265"><ele>998.0</ele><time>2026-04-24T09:36:13.995Z</time></trkpt><trkpt lat="44.2796741" lon="8.0049785"><ele>1003.5</ele><time>2026-04-24T09:36:15.006Z</time></trkpt><trkpt lat="44.2795725" lon="8.004871"><ele>1009.0</ele><time>2026-04-24T09:36:15.998Z</time></trkpt><trkpt lat="44.2794599" lon="8.0048044"><ele>1014.5</ele><time>2026-04-24T09:36:16.992Z</time></trkpt><trkpt lat="44.2793612" lon="8.0047136"><ele>1020.0</ele><time>2026-04-24T09:36:17.994Z</time></trkpt><trkpt lat="44.279246" lon="8.0046195"><ele>1020.0</ele><time>2026-04-24T09:36:18.992Z</time></trkpt><trkpt lat="44.2791332" lon="8.0045437"><ele>1020.0</ele><time>2026-04-24T09:36:19.989Z</time></trkpt><trkpt lat="44.2790307" lon="8.0044708"><ele>1020.0</ele><time>2026-04-24T09:36:20.992Z</time></trkpt><trkpt lat="44.2789482" lon="8.0043613"><ele>1020.0</ele><time>2026-04-24T09:36:21.999Z</time></trkpt><trkpt lat="44.2788622" lon="8.0042489"><ele>1019.0</ele><time>2026-04-24T09:36:22.995Z</time></trkpt><trkpt lat="44.2787946" lon="8.004041"><ele>1018.0</ele><time>2026-04-24T09:36:23.992Z</time></trkpt><trkpt lat="44.2786977" lon="8.0038652"><ele>1017.0</ele><time>2026-04-24T09:36:25Z</time></trkpt><trkpt lat="44.2785866" lon="8.0036902"><ele>1017.0</ele><time>2026-04-24T09:36:25.995Z</time></trkpt><trkpt lat="44.2784459" lon="8.003515"><ele>1017.0</ele><time>2026-04-24T09:36:26.998Z</time></trkpt><trkpt lat="44.2783171" lon="8.0033706"><ele>1017.0</ele><time>2026-04-24T09:36:27.995Z</time></trkpt><trkpt lat="44.2782007" lon="8.0032689"><ele>1016.25</ele><time>2026-04-24T09:36:28.993Z</time></trkpt><trkpt lat="44.2780862" lon="8.0031649"><ele>1015.5</ele><time>2026-04-24T09:36:30.003Z</time></trkpt><trkpt lat="44.2779995" lon="8.0030685"><ele>1014.75</ele><time>2026-04-24T09:36:30.99Z</time></trkpt><trkpt lat="44.277901" lon="8.0029541"><ele>1014.0</ele><time>2026-04-24T09:36:32Z</time></trkpt><trkpt lat="44.2778215" lon="8.0028321"><ele>1014.0</ele><time>2026-04-24T09:36:32.996Z</time></trkpt><trkpt lat="44.2777097" lon="8.0026541"><ele>1014.0</ele><time>2026-04-24T09:36:33.991Z</time></trkpt><trkpt lat="44.2775911" lon="8.0024756"><ele>1014.0</ele><time>2026-04-24T09:36:34.992Z</time></trkpt><trkpt lat="44.2774811" lon="8.0023008"><ele>1016.0</ele><time>2026-04-24T09:36:35.991Z</time></trkpt><trkpt lat="44.2773805" lon="8.0021377"><ele>1018.0</ele><time>2026-04-24T09:36:37.001Z</time></trkpt><trkpt lat="44.2772865" lon="8.001981"><ele>1020.0</ele><time>2026-04-24T09:36:37.994Z</time></trkpt><trkpt lat="44.2771544" lon="8.0018913"><ele>1022.0</ele><time>2026-04-24T09:36:38.995Z</time></trkpt><trkpt lat="44.2770195" lon="8.0018328"><ele>1022.0</ele><time>2026-04-24T09:36:39.992Z</time></trkpt><trkpt lat="44.2768591" lon="8.0017846"><ele>1022.0</ele><time>2026-04-24T09:36:40.994Z</time></trkpt><trkpt lat="44.2766899" lon="8.0017337"><ele>1022.0</ele><time>2026-04-24T09:36:41.998Z</time></trkpt><trkpt lat="44.2765428" lon="8.0016861"><ele>1023.25</ele><time>2026-04-24T09:36:42.991Z</time></trkpt><trkpt lat="44.2764079" lon="8.0016238"><ele>1024.5</ele><time>2026-04-24T09:36:43.994Z</time></trkpt><trkpt lat="44.2762776" lon="8.0015309"><ele>1025.75</ele><time>2026-04-24T09:36:44.995Z</time></trkpt><trkpt lat="44.2761447" lon="8.0014151"><ele>1027.0</ele><time>2026-04-24T09:36:45.994Z</time></trkpt><trkpt lat="44.2760066" lon="8.0012864"><ele>1027.0</ele><time>2026-04-24T09:36:46.995Z</time></trkpt><trkpt lat="44.2758618" lon="8.0011524"><ele>1027.0</ele><time>2026-04-24T09:36:47.994Z</time></trkpt><trkpt lat="44.2757376" lon="8.0010377"><ele>1027.0</ele><time>2026-04-24T09:36:48.99Z</time></trkpt><trkpt lat="44.2756213" lon="8.0009382"><ele>1025.0</ele><time>2026-04-24T09:36:49.994Z</time></trkpt><trkpt lat="44.2755076" lon="8.0008362"><ele>1023.0</ele><time>2026-04-24T09:36:50.993Z</time></trkpt><trkpt lat="44.2754837" lon="8.0007544"><ele>1021.0</ele><time>2026-04-24T09:36:51.998Z</time></trkpt><trkpt lat="44.275432" lon="8.0006779"><ele>1019.0</ele><time>2026-04-24T09:36:52.998Z</time></trkpt><trkpt lat="44.2753822" lon="8.0005917"><ele>1016.9999999999999</ele><time>2026-04-24T09:36:55.996Z</time></trkpt><trkpt lat="44.275353" lon="8.0004926"><ele>1015.0</ele><time>2026-04-24T09:37:12.989Z</time></trkpt><trkpt lat="44.2752835" lon="8.0004475"><ele>1015.0</ele><time>2026-04-24T09:37:45.993Z</time></trkpt><trkpt lat="44.2752484" lon="8.0003571"><ele>1015.0</ele><time>2026-04-24T09:37:48.995Z</time></trkpt><trkpt lat="44.2752066" lon="8.0001646"><ele>1015.0</ele><time>2026-04-24T09:37:49.994Z</time></trkpt><trkpt lat="44.2751739" lon="7.9999442"><ele>1015.0</ele><time>2026-04-24T09:37:51.001Z</time></trkpt><trkpt lat="44.2751517" lon="7.9997457"><ele>1015.0</ele><time>2026-04-24T09:37:52.002Z</time></trkpt><trkpt lat="44.2751208" lon="7.9994922"><ele>1015.0</ele><time>2026-04-24T09:37:53.002Z</time></trkpt><trkpt lat="44.2750894" lon="7.999275"><ele>1015.0</ele><time>2026-04-24T09:37:53.99Z</time></trkpt><trkpt lat="44.2750595" lon="7.9990669"><ele>1016.75</ele><time>2026-04-24T09:37:54.992Z</time></trkpt><trkpt lat="44.2750377" lon="7.9988713"><ele>1018.5</ele><time>2026-04-24T09:37:55.99Z</time></trkpt><trkpt lat="44.2750198" lon="7.9986818"><ele>1020.25</ele><time>2026-04-24T09:37:56.994Z</time></trkpt><trkpt lat="44.2750217" lon="7.9984828"><ele>1022.0</ele><time>2026-04-24T09:37:57.995Z</time></trkpt><trkpt lat="44.2750469" lon="7.9982864"><ele>1023.0</ele><time>2026-04-24T09:37:58.995Z</time></trkpt><trkpt lat="44.2750677" lon="7.9980793"><ele>1024.0</ele><time>2026-04-24T09:37:59.989Z</time></trkpt><trkpt lat="44.2750619" lon="7.9978671"><ele>1025.0</ele><time>2026-04-24T09:38:01.001Z</time></trkpt><trkpt lat="44.2750534" lon="7.9976713"><ele>1026.0</ele><time>2026-04-24T09:38:01.994Z</time></trkpt><trkpt lat="44.2750523" lon="7.9974766"><ele>1029.3333333333333</ele><time>2026-04-24T09:38:02.993Z</time></trkpt><trkpt lat="44.2750339" lon="7.9972641"><ele>1032.6666666666665</ele><time>2026-04-24T09:38:03.996Z</time></trkpt><trkpt lat="44.2749968" lon="7.9970566"><ele>1036.0</ele><time>2026-04-24T09:38:04.994Z</time></trkpt><trkpt lat="44.2749609" lon="7.9968377"><ele>1038.6666666666665</ele><time>2026-04-24T09:38:05.992Z</time></trkpt><trkpt lat="44.2749299" lon="7.9966215"><ele>1041.3333333333333</ele><time>2026-04-24T09:38:06.99Z</time></trkpt><trkpt lat="44.2748968" lon="7.9964248"><ele>1044.0</ele><time>2026-04-24T09:38:07.998Z</time></trkpt><trkpt lat="44.2748817" lon="7.9962186"><ele>1044.0</ele><time>2026-04-24T09:38:08.992Z</time></trkpt><trkpt lat="44.2748725" lon="7.9960326"><ele>1044.0</ele><time>2026-04-24T09:38:10.001Z</time></trkpt><trkpt lat="44.2748375" lon="7.9958606"><ele>1044.0</ele><time>2026-04-24T09:38:10.994Z</time></trkpt><trkpt lat="44.2747839" lon="7.99569"><ele>1044.0</ele><time>2026-04-24T09:38:11.995Z</time></trkpt><trkpt lat="44.274722" lon="7.9955086"><ele>1045.6666666666667</ele><time>2026-04-24T09:38:12.992Z</time></trkpt><trkpt lat="44.2746346" lon="7.9953306"><ele>1047.3333333333335</ele><time>2026-04-24T09:38:13.994Z</time></trkpt><trkpt lat="44.2745221" lon="7.9951572"><ele>1049.0</ele><time>2026-04-24T09:38:14.999Z</time></trkpt><trkpt lat="44.2744113" lon="7.9949597"><ele>1049.0</ele><time>2026-04-24T09:38:15.994Z</time></trkpt><trkpt lat="44.2743074" lon="7.9947616"><ele>1049.0</ele><time>2026-04-24T09:38:16.997Z</time></trkpt><trkpt lat="44.2742111" lon="7.9945755"><ele>1049.0</ele><time>2026-04-24T09:38:17.993Z</time></trkpt><trkpt lat="44.2741169" lon="7.994416"><ele>1049.0</ele><time>2026-04-24T09:38:18.995Z</time></trkpt><trkpt lat="44.27405" lon="7.9942607"><ele>1049.0</ele><time>2026-04-24T09:38:19.993Z</time></trkpt><trkpt lat="44.2739912" lon="7.9941011"><ele>1049.0</ele><time>2026-04-24T09:38:20.997Z</time></trkpt><trkpt lat="44.2739579" lon="7.9939333"><ele>1049.0</ele><time>2026-04-24T09:38:21.997Z</time></trkpt><trkpt lat="44.2739177" lon="7.9937539"><ele>1048.5</ele><time>2026-04-24T09:38:22.996Z</time></trkpt><trkpt lat="44.2738834" lon="7.9935676"><ele>1048.0</ele><time>2026-04-24T09:38:23.992Z</time></trkpt><trkpt lat="44.2738477" lon="7.9934137"><ele>1047.5</ele><time>2026-04-24T09:38:24.996Z</time></trkpt><trkpt lat="44.2737957" lon="7.9932672"><ele>1047.0</ele><time>2026-04-24T09:38:25.995Z</time></trkpt><trkpt lat="44.273742" lon="7.9931415"><ele>1049.0</ele><time>2026-04-24T09:38:26.999Z</time></trkpt><trkpt lat="44.2737015" lon="7.9930531"><ele>1051.0</ele><time>2026-04-24T09:38:27.994Z</time></trkpt><trkpt lat="44.273642" lon="7.9929466"><ele>1053.0</ele><time>2026-04-24T09:38:28.993Z</time></trkpt><trkpt lat="44.2735714" lon="7.9928489"><ele>1055.0</ele><time>2026-04-24T09:38:30.001Z</time></trkpt><trkpt lat="44.2734906" lon="7.9927543"><ele>1057.0</ele><time>2026-04-24T09:38:30.995Z</time></trkpt><trkpt lat="44.2733955" lon="7.9926559"><ele>1057.0</ele><time>2026-04-24T09:38:31.994Z</time></trkpt><trkpt lat="44.2732772" lon="7.9925788"><ele>1057.0</ele><time>2026-04-24T09:38:32.993Z</time></trkpt><trkpt lat="44.2731725" lon="7.9925029"><ele>1057.0</ele><time>2026-04-24T09:38:33.996Z</time></trkpt><trkpt lat="44.2730637" lon="7.9924378"><ele>1057.0</ele><time>2026-04-24T09:38:34.991Z</time></trkpt><trkpt lat="44.2729457" lon="7.992371"><ele>1058.0</ele><time>2026-04-24T09:38:35.993Z</time></trkpt><trkpt lat="44.2728395" lon="7.9923432"><ele>1059.0</ele><time>2026-04-24T09:38:36.998Z</time></trkpt><trkpt lat="44.2727212" lon="7.9922977"><ele>1060.0</ele><time>2026-04-24T09:38:37.994Z</time></trkpt><trkpt lat="44.2726028" lon="7.9922496"><ele>1061.0</ele><time>2026-04-24T09:38:38.999Z</time></trkpt><trkpt lat="44.2725003" lon="7.9921613"><ele>1061.0</ele><time>2026-04-24T09:38:39.997Z</time></trkpt><trkpt lat="44.2724164" lon="7.9920917"><ele>1061.0</ele><time>2026-04-24T09:38:40.994Z</time></trkpt><trkpt lat="44.2723047" lon="7.9920442"><ele>1061.0</ele><time>2026-04-24T09:38:41.995Z</time></trkpt><trkpt lat="44.2721994" lon="7.9920043"><ele>1061.0</ele><time>2026-04-24T09:38:42.994Z</time></trkpt><trkpt lat="44.2720071" lon="7.9920657"><ele>1060.0</ele><time>2026-04-24T09:38:43.993Z</time></trkpt><trkpt lat="44.2718565" lon="7.9920973"><ele>1059.0</ele><time>2026-04-24T09:38:44.997Z</time></trkpt><trkpt lat="44.271709" lon="7.9921301"><ele>1058.0</ele><time>2026-04-24T09:38:46.002Z</time></trkpt><trkpt lat="44.2715749" lon="7.992136"><ele>1057.0</ele><time>2026-04-24T09:38:46.996Z</time></trkpt><trkpt lat="44.271453" lon="7.99211"><ele>1056.5</ele><time>2026-04-24T09:38:47.998Z</time></trkpt><trkpt lat="44.2713339" lon="7.9920887"><ele>1056.0</ele><time>2026-04-24T09:38:48.996Z</time></trkpt><trkpt lat="44.2712205" lon="7.9919717"><ele>1055.5</ele><time>2026-04-24T09:38:49.996Z</time></trkpt><trkpt lat="44.2710941" lon="7.9918753"><ele>1055.0</ele><time>2026-04-24T09:38:50.995Z</time></trkpt><trkpt lat="44.2709136" lon="7.9918162"><ele>1055.0</ele><time>2026-04-24T09:38:52.001Z</time></trkpt><trkpt lat="44.2707448" lon="7.9917699"><ele>1055.0</ele><time>2026-04-24T09:38:52.995Z</time></trkpt><trkpt lat="44.2705841" lon="7.9917218"><ele>1055.0</ele><time>2026-04-24T09:38:53.994Z</time></trkpt><trkpt lat="44.2704271" lon="7.9916759"><ele>1058.0</ele><time>2026-04-24T09:38:54.996Z</time></trkpt><trkpt lat="44.2702662" lon="7.9916137"><ele>1061.0</ele><time>2026-04-24T09:38:55.997Z</time></trkpt><trkpt lat="44.2701146" lon="7.9915319"><ele>1064.0</ele><time>2026-04-24T09:38:57.004Z</time></trkpt><trkpt lat="44.2699645" lon="7.9914351"><ele>1064.0</ele><time>2026-04-24T09:38:57.997Z</time></trkpt><trkpt lat="44.2698003" lon="7.9913374"><ele>1064.0</ele><time>2026-04-24T09:38:59Z</time></trkpt><trkpt lat="44.2696282" lon="7.9912633"><ele>1064.0</ele><time>2026-04-24T09:38:59.998Z</time></trkpt><trkpt lat="44.269436" lon="7.9912064"><ele>1060.6666666666667</ele><time>2026-04-24T09:39:00.996Z</time></trkpt><trkpt lat="44.2692711" lon="7.9911564"><ele>1057.3333333333333</ele><time>2026-04-24T09:39:02.004Z</time></trkpt><trkpt lat="44.2691195" lon="7.9910989"><ele>1054.0</ele><time>2026-04-24T09:39:02.998Z</time></trkpt><trkpt lat="44.2689833" lon="7.991037"><ele>1053.75</ele><time>2026-04-24T09:39:03.998Z</time></trkpt><trkpt lat="44.2688688" lon="7.9910062"><ele>1053.5</ele><time>2026-04-24T09:39:04.998Z</time></trkpt><trkpt lat="44.268746" lon="7.9910228"><ele>1053.25</ele><time>2026-04-24T09:39:05.994Z</time></trkpt><trkpt lat="44.2686038" lon="7.9910652"><ele>1053.0</ele><time>2026-04-24T09:39:06.997Z</time></trkpt><trkpt lat="44.2684507" lon="7.9911108"><ele>1053.0</ele><time>2026-04-24T09:39:08.001Z</time></trkpt><trkpt lat="44.2682984" lon="7.9911953"><ele>1053.0</ele><time>2026-04-24T09:39:08.999Z</time></trkpt><trkpt lat="44.2681497" lon="7.9913"><ele>1053.0</ele><time>2026-04-24T09:39:09.999Z</time></trkpt><trkpt lat="44.2679976" lon="7.9913805"><ele>1055.6666666666667</ele><time>2026-04-24T09:39:10.999Z</time></trkpt><trkpt lat="44.2678342" lon="7.9914312"><ele>1058.3333333333335</ele><time>2026-04-24T09:39:11.997Z</time></trkpt><trkpt lat="44.267666" lon="7.9914534"><ele>1061.0</ele><time>2026-04-24T09:39:12.993Z</time></trkpt><trkpt lat="44.267505" lon="7.9914832"><ele>1061.0</ele><time>2026-04-24T09:39:13.998Z</time></trkpt><trkpt lat="44.2673102" lon="7.9915279"><ele>1061.0</ele><time>2026-04-24T09:39:14.998Z</time></trkpt><trkpt lat="44.2671463" lon="7.9915612"><ele>1061.0</ele><time>2026-04-24T09:39:15.991Z</time></trkpt><trkpt lat="44.2669838" lon="7.9916307"><ele>1057.6666666666667</ele><time>2026-04-24T09:39:16.995Z</time></trkpt><trkpt lat="44.2668368" lon="7.9917203"><ele>1054.3333333333333</ele><time>2026-04-24T09:39:18Z</time></trkpt><trkpt lat="44.266677" lon="7.9918445"><ele>1051.0</ele><time>2026-04-24T09:39:18.995Z</time></trkpt><trkpt lat="44.2664762" lon="7.9919944"><ele>1059.6666666666665</ele><time>2026-04-24T09:39:20.002Z</time></trkpt><trkpt lat="44.2662915" lon="7.9921354"><ele>1068.3333333333333</ele><time>2026-04-24T09:39:20.994Z</time></trkpt><trkpt lat="44.2661292" lon="7.9922968"><ele>1077.0</ele><time>2026-04-24T09:39:21.99Z</time></trkpt><trkpt lat="44.2659641" lon="7.992467"><ele>1077.3333333333333</ele><time>2026-04-24T09:39:22.993Z</time></trkpt><trkpt lat="44.2657983" lon="7.9926143"><ele>1077.6666666666665</ele><time>2026-04-24T09:39:23.995Z</time></trkpt><trkpt lat="44.2656579" lon="7.9927876"><ele>1078.0</ele><time>2026-04-24T09:39:24.993Z</time></trkpt><trkpt lat="44.2655217" lon="7.9929989"><ele>1078.0</ele><time>2026-04-24T09:39:25.994Z</time></trkpt><trkpt lat="44.2653848" lon="7.9931957"><ele>1078.0</ele><time>2026-04-24T09:39:26.99Z</time></trkpt><trkpt lat="44.2652362" lon="7.9934127"><ele>1078.0</ele><time>2026-04-24T09:39:27.998Z</time></trkpt><trkpt lat="44.2650828" lon="7.9935776"><ele>1076.0</ele><time>2026-04-24T09:39:28.995Z</time></trkpt><trkpt lat="44.2649353" lon="7.9937422"><ele>1074.0</ele><time>2026-04-24T09:39:29.992Z</time></trkpt><trkpt lat="44.2647914" lon="7.9939167"><ele>1072.0</ele><time>2026-04-24T09:39:30.999Z</time></trkpt><trkpt lat="44.2646499" lon="7.9940513"><ele>1072.0</ele><time>2026-04-24T09:39:31.991Z</time></trkpt><trkpt lat="44.2645497" lon="7.9941347"><ele>1072.0</ele><time>2026-04-24T09:39:32.994Z</time></trkpt><trkpt lat="44.2644299" lon="7.9942222"><ele>1072.0</ele><time>2026-04-24T09:39:33.994Z</time></trkpt><trkpt lat="44.2643035" lon="7.9942767"><ele>1072.0</ele><time>2026-04-24T09:39:34.993Z</time></trkpt><trkpt lat="44.2641546" lon="7.9943122"><ele>1064.6666666666665</ele><time>2026-04-24T09:39:35.992Z</time></trkpt><trkpt lat="44.2640048" lon="7.9943997"><ele>1057.3333333333333</ele><time>2026-04-24T09:39:36.996Z</time></trkpt><trkpt lat="44.2638362" lon="7.9945063"><ele>1050.0</ele><time>2026-04-24T09:39:37.991Z</time></trkpt><trkpt lat="44.2636671" lon="7.9945972"><ele>1050.0</ele><time>2026-04-24T09:39:38.992Z</time></trkpt><trkpt lat="44.2635008" lon="7.9946643"><ele>1050.0</ele><time>2026-04-24T09:39:39.992Z</time></trkpt><trkpt lat="44.2633408" lon="7.9947056"><ele>1050.0</ele><time>2026-04-24T09:39:40.999Z</time></trkpt><trkpt lat="44.2631867" lon="7.9947077"><ele>1048.5</ele><time>2026-04-24T09:39:41.989Z</time></trkpt><trkpt lat="44.2630345" lon="7.9946966"><ele>1047.0</ele><time>2026-04-24T09:39:42.991Z</time></trkpt><trkpt lat="44.2628834" lon="7.994677"><ele>1045.5</ele><time>2026-04-24T09:39:43.994Z</time></trkpt><trkpt lat="44.2627472" lon="7.9946293"><ele>1044.0</ele><time>2026-04-24T09:39:44.993Z</time></trkpt><trkpt lat="44.2626112" lon="7.9945812"><ele>1044.0</ele><time>2026-04-24T09:39:45.998Z</time></trkpt><trkpt lat="44.2624831" lon="7.9944674"><ele>1044.0</ele><time>2026-04-24T09:39:46.997Z</time></trkpt><trkpt lat="44.2623435" lon="7.9943594"><ele>1044.0</ele><time>2026-04-24T09:39:47.991Z</time></trkpt><trkpt lat="44.2621752" lon="7.9942372"><ele>1047.0</ele><time>2026-04-24T09:39:48.993Z</time></trkpt><trkpt lat="44.2619902" lon="7.9941318"><ele>1050.0</ele><time>2026-04-24T09:39:49.992Z</time></trkpt><trkpt lat="44.2618053" lon="7.9940738"><ele>1053.0</ele><time>2026-04-24T09:39:50.993Z</time></trkpt><trkpt lat="44.2616389" lon="7.9940016"><ele>1053.0</ele><time>2026-04-24T09:39:51.994Z</time></trkpt><trkpt lat="44.2614989" lon="7.9939415"><ele>1053.0</ele><time>2026-04-24T09:39:52.994Z</time></trkpt><trkpt lat="44.2613968" lon="7.9938838"><ele>1053.0</ele><time>2026-04-24T09:39:54.001Z</time></trkpt><trkpt lat="44.2613261" lon="7.9938365"><ele>1053.0</ele><time>2026-04-24T09:39:54.992Z</time></trkpt><trkpt lat="44.261233" lon="7.9938051"><ele>1053.0</ele><time>2026-04-24T09:39:56.996Z</time></trkpt><trkpt lat="44.2612407" lon="7.9939112"><ele>1051.2</ele><time>2026-04-24T09:39:59.997Z</time></trkpt><trkpt lat="44.261303" lon="7.9940111"><ele>1049.4</ele><time>2026-04-24T09:40:01.998Z</time></trkpt><trkpt lat="44.2613673" lon="7.9940831"><ele>1047.6000000000001</ele><time>2026-04-24T09:40:04.994Z</time></trkpt><trkpt lat="44.2614394" lon="7.9941662"><ele>1045.8</ele><time>2026-04-24T09:40:07.996Z</time></trkpt><trkpt lat="44.2615292" lon="7.9942596"><ele>1044.0</ele><time>2026-04-24T09:40:08.995Z</time></trkpt><trkpt lat="44.2620162" lon="7.9944879"><ele>1044.0</ele><time>2026-04-24T09:40:09.995Z</time></trkpt><trkpt lat="44.2620761" lon="7.9945755"><ele>1044.0</ele><time>2026-04-24T09:40:10.993Z</time></trkpt><trkpt lat="44.2621347" lon="7.9946954"><ele>1044.0</ele><time>2026-04-24T09:40:11.991Z</time></trkpt><trkpt lat="44.2622074" lon="7.9947936"><ele>1044.0</ele><time>2026-04-24T09:40:12.996Z</time></trkpt><trkpt lat="44.2622837" lon="7.9948819"><ele>1044.0</ele><time>2026-04-24T09:40:13.998Z</time></trkpt><trkpt lat="44.262374" lon="7.9949414"><ele>1039.2</ele><time>2026-04-24T09:40:14.997Z</time></trkpt><trkpt lat="44.2624579" lon="7.9950162"><ele>1034.4</ele><time>2026-04-24T09:40:15.993Z</time></trkpt><trkpt lat="44.2625375" lon="7.9950823"><ele>1029.6</ele><time>2026-04-24T09:40:16.993Z</time></trkpt><trkpt lat="44.2626335" lon="7.9951307"><ele>1024.8</ele><time>2026-04-24T09:40:17.997Z</time></trkpt><trkpt lat="44.2627086" lon="7.9951898"><ele>1020.0</ele><time>2026-04-24T09:40:18.994Z</time></trkpt><trkpt lat="44.2627864" lon="7.9952677"><ele>1020.0</ele><time>2026-04-24T09:40:19.997Z</time></trkpt><trkpt lat="44.2628245" lon="7.9953379"><ele>1020.0</ele><time>2026-04-24T09:40:20.996Z</time></trkpt><trkpt lat="44.2628875" lon="7.9954126"><ele>1020.0</ele><time>2026-04-24T09:40:21.998Z</time></trkpt><trkpt lat="44.2629619" lon="7.9954323"><ele>1020.0</ele><time>2026-04-24T09:40:22.995Z</time></trkpt><trkpt lat="44.2630235" lon="7.995491"><ele>1020.0</ele><time>2026-04-24T09:40:23.991Z</time></trkpt><trkpt lat="44.2631975" lon="7.9955303"><ele>1021.2</ele><time>2026-04-24T09:40:24.996Z</time></trkpt><trkpt lat="44.2633191" lon="7.9955942"><ele>1022.4</ele><time>2026-04-24T09:40:25.996Z</time></trkpt><trkpt lat="44.2634335" lon="7.9956272"><ele>1023.5999999999999</ele><time>2026-04-24T09:40:27.006Z</time></trkpt><trkpt lat="44.2635415" lon="7.9956652"><ele>1024.8</ele><time>2026-04-24T09:40:27.999Z</time></trkpt><trkpt lat="44.263602" lon="7.9957595"><ele>1026.0</ele><time>2026-04-24T09:40:28.993Z</time></trkpt><trkpt lat="44.2636713" lon="7.9958404"><ele>1021.5999999999999</ele><time>2026-04-24T09:40:29.997Z</time></trkpt><trkpt lat="44.2637495" lon="7.9959145"><ele>1017.1999999999999</ele><time>2026-04-24T09:40:30.997Z</time></trkpt><trkpt lat="44.2638511" lon="7.9959876"><ele>1012.8000000000001</ele><time>2026-04-24T09:40:31.996Z</time></trkpt><trkpt lat="44.2639143" lon="7.9960641"><ele>1008.4000000000001</ele><time>2026-04-24T09:40:32.999Z</time></trkpt><trkpt lat="44.2639851" lon="7.9960757"><ele>1004.0</ele><time>2026-04-24T09:40:33.999Z</time></trkpt><trkpt lat="44.2640911" lon="7.9960158"><ele>1004.0000000000001</ele><time>2026-04-24T09:40:34.997Z</time></trkpt><trkpt lat="44.2641764" lon="7.9959942"><ele>1004.0</ele><time>2026-04-24T09:40:35.996Z</time></trkpt><trkpt lat="44.2642533" lon="7.995975"><ele>1004.0</ele><time>2026-04-24T09:40:37.015Z</time></trkpt><trkpt lat="44.2643222" lon="7.9959312"><ele>1004.0</ele><time>2026-04-24T09:40:37.999Z</time></trkpt><trkpt lat="44.2643735" lon="7.9958629"><ele>1004.0000000000001</ele><time>2026-04-24T09:40:38.998Z</time></trkpt><trkpt lat="44.2644502" lon="7.995828"><ele>1004.0</ele><time>2026-04-24T09:40:40.001Z</time></trkpt><trkpt lat="44.2645105" lon="7.9958016"><ele>1004.0</ele><time>2026-04-24T09:40:40.993Z</time></trkpt><trkpt lat="44.2644862" lon="7.9959286"><ele>1004.0000000000001</ele><time>2026-04-24T09:40:42.993Z</time></trkpt><trkpt lat="44.2644314" lon="7.9960503"><ele>1004.0000000000001</ele><time>2026-04-24T09:40:44.991Z</time></trkpt><trkpt lat="44.2644094" lon="7.9961737"><ele>1004.0</ele><time>2026-04-24T09:40:47.993Z</time></trkpt><trkpt lat="44.2643646" lon="7.9962767"><ele>1004.0</ele><time>2026-04-24T09:40:49.992Z</time></trkpt><trkpt lat="44.2642425" lon="7.9964463"><ele>996.3333333333334</ele><time>2026-04-24T09:40:50.994Z</time></trkpt><trkpt lat="44.2640666" lon="7.9967875"><ele>988.6666666666667</ele><time>2026-04-24T09:40:51.99Z</time></trkpt><trkpt lat="44.2640009" lon="7.9968982"><ele>981.0</ele><time>2026-04-24T09:40:52.988Z</time></trkpt><trkpt lat="44.2639435" lon="7.9969894"><ele>980.5</ele><time>2026-04-24T09:40:53.993Z</time></trkpt><trkpt lat="44.2638712" lon="7.9970611"><ele>980.0</ele><time>2026-04-24T09:40:54.999Z</time></trkpt><trkpt lat="44.2637775" lon="7.9971096"><ele>979.5</ele><time>2026-04-24T09:40:55.997Z</time></trkpt><trkpt lat="44.263702" lon="7.9971333"><ele>979.0</ele><time>2026-04-24T09:40:56.997Z</time></trkpt><trkpt lat="44.2636206" lon="7.9971485"><ele>978.5</ele><time>2026-04-24T09:40:57.996Z</time></trkpt><trkpt lat="44.2635225" lon="7.9971316"><ele>978.0</ele><time>2026-04-24T09:40:59.006Z</time></trkpt><trkpt lat="44.2634212" lon="7.9971151"><ele>978.0</ele><time>2026-04-24T09:41:00.001Z</time></trkpt><trkpt lat="44.2632887" lon="7.997051"><ele>978.0</ele><time>2026-04-24T09:41:01.001Z</time></trkpt><trkpt lat="44.2631722" lon="7.9970274"><ele>978.0</ele><time>2026-04-24T09:41:01.995Z</time></trkpt><trkpt lat="44.2630663" lon="7.996993"><ele>978.0</ele><time>2026-04-24T09:41:02.991Z</time></trkpt><trkpt lat="44.262963" lon="7.9970016"><ele>974.75</ele><time>2026-04-24T09:41:03.994Z</time></trkpt><trkpt lat="44.2628481" lon="7.9970014"><ele>971.5</ele><time>2026-04-24T09:41:04.993Z</time></trkpt><trkpt lat="44.2627402" lon="7.9969772"><ele>968.25</ele><time>2026-04-24T09:41:05.999Z</time></trkpt><trkpt lat="44.2626243" lon="7.9969422"><ele>965.0</ele><time>2026-04-24T09:41:06.994Z</time></trkpt><trkpt lat="44.2625052" lon="7.996932"><ele>965.0</ele><time>2026-04-24T09:41:07.993Z</time></trkpt><trkpt lat="44.262412" lon="7.9969179"><ele>965.0</ele><time>2026-04-24T09:41:08.993Z</time></trkpt><trkpt lat="44.2623372" lon="7.9968742"><ele>965.0</ele><time>2026-04-24T09:41:09.994Z</time></trkpt><trkpt lat="44.2622308" lon="7.9968479"><ele>965.0</ele><time>2026-04-24T09:41:10.998Z</time></trkpt><trkpt lat="44.2621249" lon="7.9967976"><ele>965.0</ele><time>2026-04-24T09:41:11.995Z</time></trkpt><trkpt lat="44.2619923" lon="7.9967845"><ele>966.6</ele><time>2026-04-24T09:41:12.991Z</time></trkpt><trkpt lat="44.261883" lon="7.9967675"><ele>968.2</ele><time>2026-04-24T09:41:13.997Z</time></trkpt><trkpt lat="44.2617847" lon="7.9967636"><ele>969.8</ele><time>2026-04-24T09:41:14.992Z</time></trkpt><trkpt lat="44.2616515" lon="7.9966994"><ele>971.4</ele><time>2026-04-24T09:41:16.994Z</time></trkpt><trkpt lat="44.2615922" lon="7.9966019"><ele>973.0</ele><time>2026-04-24T09:41:17.99Z</time></trkpt><trkpt lat="44.261517" lon="7.996428"><ele>970.8333333333333</ele><time>2026-04-24T09:41:18.996Z</time></trkpt><trkpt lat="44.2614471" lon="7.996317"><ele>968.6666666666666</ele><time>2026-04-24T09:41:19.992Z</time></trkpt><trkpt lat="44.2613809" lon="7.9962183"><ele>966.5</ele><time>2026-04-24T09:41:21.001Z</time></trkpt><trkpt lat="44.2613082" lon="7.9961361"><ele>964.3333333333333</ele><time>2026-04-24T09:41:21.99Z</time></trkpt><trkpt lat="44.2612371" lon="7.9961226"><ele>962.1666666666666</ele><time>2026-04-24T09:41:22.994Z</time></trkpt><trkpt lat="44.2611743" lon="7.9961542"><ele>960.0</ele><time>2026-04-24T09:41:23.993Z</time></trkpt><trkpt lat="44.2611008" lon="7.9962088"><ele>960.0</ele><time>2026-04-24T09:41:24.992Z</time></trkpt><trkpt lat="44.2609868" lon="7.9962747"><ele>960.0</ele><time>2026-04-24T09:41:25.994Z</time></trkpt><trkpt lat="44.2608885" lon="7.9963445"><ele>960.0</ele><time>2026-04-24T09:41:26.994Z</time></trkpt><trkpt lat="44.2608054" lon="7.9963913"><ele>960.0</ele><time>2026-04-24T09:41:27.993Z</time></trkpt><trkpt lat="44.2607369" lon="7.996422"><ele>960.0</ele><time>2026-04-24T09:41:28.994Z</time></trkpt><trkpt lat="44.2606692" lon="7.9965209"><ele>960.0</ele><time>2026-04-24T09:41:30.996Z</time></trkpt><trkpt lat="44.2607164" lon="7.9966409"><ele>960.0</ele><time>2026-04-24T09:41:32.992Z</time></trkpt><trkpt lat="44.2607734" lon="7.9967356"><ele>960.0</ele><time>2026-04-24T09:41:34.994Z</time></trkpt><trkpt lat="44.2608422" lon="7.9967541"><ele>960.0</ele><time>2026-04-24T09:41:37.995Z</time></trkpt><trkpt lat="44.2609775" lon="7.996715"><ele>960.0</ele><time>2026-04-24T09:41:40.022Z</time></trkpt><trkpt lat="44.2613374" lon="7.9968312"><ele>959.0</ele><time>2026-04-24T09:41:40.993Z</time></trkpt><trkpt lat="44.2613932" lon="7.9969229"><ele>958.0</ele><time>2026-04-24T09:41:41.99Z</time></trkpt><trkpt lat="44.2614126" lon="7.9970081"><ele>957.0</ele><time>2026-04-24T09:41:42.986Z</time></trkpt><trkpt lat="44.2614571" lon="7.9971237"><ele>956.0</ele><time>2026-04-24T09:41:44.002Z</time></trkpt><trkpt lat="44.2614867" lon="7.9973058"><ele>955.0</ele><time>2026-04-24T09:41:45.004Z</time></trkpt><trkpt lat="44.2615467" lon="7.9974645"><ele>950.75</ele><time>2026-04-24T09:41:45.993Z</time></trkpt><trkpt lat="44.2616126" lon="7.9976159"><ele>946.5</ele><time>2026-04-24T09:41:46.997Z</time></trkpt><trkpt lat="44.2616824" lon="7.9977496"><ele>942.25</ele><time>2026-04-24T09:41:48Z</time></trkpt><trkpt lat="44.2617325" lon="7.9978955"><ele>938.0</ele><time>2026-04-24T09:41:48.994Z</time></trkpt><trkpt lat="44.2617837" lon="7.9980306"><ele>938.0000000000001</ele><time>2026-04-24T09:41:49.991Z</time></trkpt><trkpt lat="44.2618454" lon="7.9981417"><ele>938.0</ele><time>2026-04-24T09:41:50.996Z</time></trkpt><trkpt lat="44.2619083" lon="7.9982429"><ele>938.0</ele><time>2026-04-24T09:41:51.991Z</time></trkpt><trkpt lat="44.261961" lon="7.9983094"><ele>938.0</ele><time>2026-04-24T09:41:52.996Z</time></trkpt><trkpt lat="44.262045" lon="7.9982872"><ele>938.0000000000001</ele><time>2026-04-24T09:41:53.998Z</time></trkpt><trkpt lat="44.2620958" lon="7.9983637"><ele>938.0</ele><time>2026-04-24T09:41:56Z</time></trkpt><trkpt lat="44.2620291" lon="7.9984723"><ele>935.0</ele><time>2026-04-24T09:41:57.995Z</time></trkpt><trkpt lat="44.2619425" lon="7.9985428"><ele>932.0</ele><time>2026-04-24T09:41:58.998Z</time></trkpt><trkpt lat="44.2618598" lon="7.9985958"><ele>929.0</ele><time>2026-04-24T09:42:00Z</time></trkpt><trkpt lat="44.2617349" lon="7.9985846"><ele>926.0</ele><time>2026-04-24T09:42:01.994Z</time></trkpt><trkpt lat="44.2616209" lon="7.9985031"><ele>923.0</ele><time>2026-04-24T09:42:02.993Z</time></trkpt><trkpt lat="44.261525" lon="7.9984332"><ele>922.5999999999999</ele><time>2026-04-24T09:42:04.003Z</time></trkpt><trkpt lat="44.2614423" lon="7.9983578"><ele>922.1999999999999</ele><time>2026-04-24T09:42:04.993Z</time></trkpt><trkpt lat="44.2613842" lon="7.9982691"><ele>921.8</ele><time>2026-04-24T09:42:05.991Z</time></trkpt><trkpt lat="44.261313" lon="7.9982235"><ele>921.4</ele><time>2026-04-24T09:42:06.999Z</time></trkpt><trkpt lat="44.2612762" lon="7.9983535"><ele>921.0</ele><time>2026-04-24T09:42:09.991Z</time></trkpt><trkpt lat="44.2613244" lon="7.9984956"><ele>921.5</ele><time>2026-04-24T09:42:11.991Z</time></trkpt><trkpt lat="44.2614153" lon="7.9986776"><ele>922.0</ele><time>2026-04-24T09:42:12.997Z</time></trkpt><trkpt lat="44.2614799" lon="7.9988366"><ele>922.5</ele><time>2026-04-24T09:42:14.001Z</time></trkpt><trkpt lat="44.2615376" lon="7.9990072"><ele>923.0</ele><time>2026-04-24T09:42:15.001Z</time></trkpt><trkpt lat="44.2615943" lon="7.9991854"><ele>920.5999999999999</ele><time>2026-04-24T09:42:15.996Z</time></trkpt><trkpt lat="44.2616483" lon="7.9993399"><ele>918.1999999999999</ele><time>2026-04-24T09:42:16.995Z</time></trkpt><trkpt lat="44.2616894" lon="7.9994821"><ele>915.8</ele><time>2026-04-24T09:42:17.993Z</time></trkpt><trkpt lat="44.2617563" lon="7.9995894"><ele>913.4</ele><time>2026-04-24T09:42:18.995Z</time></trkpt><trkpt lat="44.2618228" lon="7.999649"><ele>911.0</ele><time>2026-04-24T09:42:19.994Z</time></trkpt><trkpt lat="44.2618904" lon="7.9996969"><ele>911.0</ele><time>2026-04-24T09:42:20.992Z</time></trkpt><trkpt lat="44.2620132" lon="7.9996729"><ele>911.0</ele><time>2026-04-24T09:42:21.991Z</time></trkpt><trkpt lat="44.262123" lon="7.9996409"><ele>911.0</ele><time>2026-04-24T09:42:22.992Z</time></trkpt><trkpt lat="44.2622424" lon="7.9995944"><ele>911.0</ele><time>2026-04-24T09:42:23.996Z</time></trkpt><trkpt lat="44.2623402" lon="7.9995597"><ele>909.8</ele><time>2026-04-24T09:42:24.991Z</time></trkpt><trkpt lat="44.2624193" lon="7.9995168"><ele>908.5999999999999</ele><time>2026-04-24T09:42:25.997Z</time></trkpt><trkpt lat="44.2625152" lon="7.9994579"><ele>907.4</ele><time>2026-04-24T09:42:26.991Z</time></trkpt><trkpt lat="44.2626012" lon="7.9994088"><ele>906.2</ele><time>2026-04-24T09:42:27.992Z</time></trkpt><trkpt lat="44.2626907" lon="7.9994054"><ele>905.0</ele><time>2026-04-24T09:42:28.992Z</time></trkpt><trkpt lat="44.2628034" lon="7.9995122"><ele>905.0</ele><time>2026-04-24T09:42:30.997Z</time></trkpt><trkpt lat="44.2629081" lon="7.9995703"><ele>905.0</ele><time>2026-04-24T09:42:31.993Z</time></trkpt><trkpt lat="44.2629971" lon="7.9996005"><ele>905.0</ele><time>2026-04-24T09:42:32.99Z</time></trkpt><trkpt lat="44.2630957" lon="7.9996219"><ele>905.0</ele><time>2026-04-24T09:42:33.991Z</time></trkpt><trkpt lat="44.2632222" lon="7.9995997"><ele>905.0</ele><time>2026-04-24T09:42:34.991Z</time></trkpt><trkpt lat="44.2633384" lon="7.9995822"><ele>900.75</ele><time>2026-04-24T09:42:35.997Z</time></trkpt><trkpt lat="44.2634546" lon="7.9995505"><ele>896.5</ele><time>2026-04-24T09:42:36.992Z</time></trkpt><trkpt lat="44.2635553" lon="7.9994988"><ele>892.25</ele><time>2026-04-24T09:42:37.992Z</time></trkpt><trkpt lat="44.2636939" lon="7.9994267"><ele>888.0</ele><time>2026-04-24T09:42:38.993Z</time></trkpt><trkpt lat="44.2637769" lon="7.999384"><ele>888.0</ele><time>2026-04-24T09:42:39.996Z</time></trkpt><trkpt lat="44.2638704" lon="7.9993737"><ele>888.0</ele><time>2026-04-24T09:42:40.994Z</time></trkpt><trkpt lat="44.2639724" lon="7.9993889"><ele>888.0</ele><time>2026-04-24T09:42:41.996Z</time></trkpt><trkpt lat="44.2641147" lon="7.9994115"><ele>888.0</ele><time>2026-04-24T09:42:42.993Z</time></trkpt><trkpt lat="44.2642363" lon="7.9994389"><ele>885.75</ele><time>2026-04-24T09:42:43.992Z</time></trkpt><trkpt lat="44.264369" lon="7.999444"><ele>883.5</ele><time>2026-04-24T09:42:44.994Z</time></trkpt><trkpt lat="44.2644972" lon="7.9994509"><ele>881.25</ele><time>2026-04-24T09:42:45.991Z</time></trkpt><trkpt lat="44.2646257" lon="7.9994795"><ele>879.0</ele><time>2026-04-24T09:42:46.997Z</time></trkpt><trkpt lat="44.2647099" lon="7.9995204"><ele>878.1666666666666</ele><time>2026-04-24T09:42:47.996Z</time></trkpt><trkpt lat="44.2648242" lon="7.9995598"><ele>877.3333333333333</ele><time>2026-04-24T09:42:48.996Z</time></trkpt><trkpt lat="44.2649059" lon="7.9995832"><ele>876.5</ele><time>2026-04-24T09:42:49.994Z</time></trkpt><trkpt lat="44.2649906" lon="7.9996022"><ele>875.6666666666666</ele><time>2026-04-24T09:42:50.995Z</time></trkpt><trkpt lat="44.2650533" lon="7.9995911"><ele>874.8333333333333</ele><time>2026-04-24T09:42:51.994Z</time></trkpt><trkpt lat="44.2651327" lon="7.9995419"><ele>874.0</ele><time>2026-04-24T09:42:52.99Z</time></trkpt><trkpt lat="44.2652156" lon="7.9994902"><ele>874.0</ele><time>2026-04-24T09:42:53.991Z</time></trkpt><trkpt lat="44.2652844" lon="7.999388"><ele>874.0</ele><time>2026-04-24T09:42:54.992Z</time></trkpt><trkpt lat="44.2653563" lon="7.999233"><ele>874.0</ele><time>2026-04-24T09:42:55.996Z</time></trkpt><trkpt lat="44.2654875" lon="7.9990937"><ele>874.0</ele><time>2026-04-24T09:42:56.991Z</time></trkpt><trkpt lat="44.2656063" lon="7.998986"><ele>874.6</ele><time>2026-04-24T09:42:57.995Z</time></trkpt><trkpt lat="44.2657306" lon="7.9989071"><ele>875.2</ele><time>2026-04-24T09:42:58.991Z</time></trkpt><trkpt lat="44.2658131" lon="7.9988485"><ele>875.8000000000001</ele><time>2026-04-24T09:42:59.997Z</time></trkpt><trkpt lat="44.2658979" lon="7.9987933"><ele>876.4000000000001</ele><time>2026-04-24T09:43:00.994Z</time></trkpt><trkpt lat="44.2659684" lon="7.9987621"><ele>877.0</ele><time>2026-04-24T09:43:01.992Z</time></trkpt><trkpt lat="44.2659727" lon="7.9988536"><ele>877.0</ele><time>2026-04-24T09:43:03.992Z</time></trkpt><trkpt lat="44.2658963" lon="7.9990232"><ele>877.0</ele><time>2026-04-24T09:43:06.004Z</time></trkpt><trkpt lat="44.2658374" lon="7.9991242"><ele>877.0</ele><time>2026-04-24T09:43:07.001Z</time></trkpt><trkpt lat="44.2657208" lon="7.9992266"><ele>877.0</ele><time>2026-04-24T09:43:07.994Z</time></trkpt><trkpt lat="44.2656731" lon="7.9993613"><ele>876.25</ele><time>2026-04-24T09:43:08.995Z</time></trkpt><trkpt lat="44.265549" lon="7.9995338"><ele>875.5</ele><time>2026-04-24T09:43:09.996Z</time></trkpt><trkpt lat="44.2654658" lon="7.9996971"><ele>874.75</ele><time>2026-04-24T09:43:10.996Z</time></trkpt><trkpt lat="44.2654471" lon="7.9998313"><ele>874.0</ele><time>2026-04-24T09:43:11.994Z</time></trkpt><trkpt lat="44.2654166" lon="7.9999836"><ele>873.9999999999999</ele><time>2026-04-24T09:43:12.996Z</time></trkpt><trkpt lat="44.265377" lon="8.0001325"><ele>874.0</ele><time>2026-04-24T09:43:13.994Z</time></trkpt><trkpt lat="44.2653392" lon="8.0002247"><ele>874.0</ele><time>2026-04-24T09:43:14.996Z</time></trkpt><trkpt lat="44.2652849" lon="8.0003031"><ele>874.0</ele><time>2026-04-24T09:43:15.996Z</time></trkpt><trkpt lat="44.2652172" lon="8.0003584"><ele>873.9999999999999</ele><time>2026-04-24T09:43:16.995Z</time></trkpt><trkpt lat="44.2651367" lon="8.000416"><ele>874.0</ele><time>2026-04-24T09:43:17.999Z</time></trkpt><trkpt lat="44.265034" lon="8.0004604"><ele>874.0</ele><time>2026-04-24T09:43:18.998Z</time></trkpt><trkpt lat="44.2649306" lon="8.0004561"><ele>874.0</ele><time>2026-04-24T09:43:19.994Z</time></trkpt><trkpt lat="44.2648041" lon="8.0004649"><ele>874.0</ele><time>2026-04-24T09:43:20.998Z</time></trkpt><trkpt lat="44.2646818" lon="8.0004639"><ele>874.0</ele><time>2026-04-24T09:43:21.991Z</time></trkpt><trkpt lat="44.2645636" lon="8.0004687"><ele>875.25</ele><time>2026-04-24T09:43:22.996Z</time></trkpt><trkpt lat="44.2644418" lon="8.0004429"><ele>876.5</ele><time>2026-04-24T09:43:23.997Z</time></trkpt><trkpt lat="44.2643309" lon="8.0004226"><ele>877.75</ele><time>2026-04-24T09:43:24.991Z</time></trkpt><trkpt lat="44.2642184" lon="8.000425"><ele>879.0</ele><time>2026-04-24T09:43:25.99Z</time></trkpt><trkpt lat="44.2641032" lon="8.0004471"><ele>879.0</ele><time>2026-04-24T09:43:26.997Z</time></trkpt><trkpt lat="44.2640073" lon="8.0004591"><ele>879.0000000000001</ele><time>2026-04-24T09:43:27.992Z</time></trkpt><trkpt lat="44.2639264" lon="8.0005315"><ele>879.0000000000001</ele><time>2026-04-24T09:43:28.995Z</time></trkpt><trkpt lat="44.2638449" lon="8.0006351"><ele>879.0</ele><time>2026-04-24T09:43:29.99Z</time></trkpt><trkpt lat="44.2637976" lon="8.0007317"><ele>879.0</ele><time>2026-04-24T09:43:30.99Z</time></trkpt><trkpt lat="44.263731" lon="8.0008407"><ele>876.3333333333334</ele><time>2026-04-24T09:43:31.999Z</time></trkpt><trkpt lat="44.2636664" lon="8.0009007"><ele>873.6666666666667</ele><time>2026-04-24T09:43:32.993Z</time></trkpt><trkpt lat="44.2635923" lon="8.0009628"><ele>871.0</ele><time>2026-04-24T09:43:34.002Z</time></trkpt><trkpt lat="44.2634869" lon="8.0010212"><ele>868.3333333333334</ele><time>2026-04-24T09:43:34.995Z</time></trkpt><trkpt lat="44.2634197" lon="8.0010611"><ele>865.6666666666667</ele><time>2026-04-24T09:43:35.989Z</time></trkpt><trkpt lat="44.2633384" lon="8.0011368"><ele>863.0</ele><time>2026-04-24T09:43:36.992Z</time></trkpt><trkpt lat="44.2632907" lon="8.0013308"><ele>863.0</ele><time>2026-04-24T09:43:37.995Z</time></trkpt><trkpt lat="44.2632835" lon="8.0014969"><ele>863.0</ele><time>2026-04-24T09:43:38.99Z</time></trkpt><trkpt lat="44.2632402" lon="8.0016359"><ele>863.0</ele><time>2026-04-24T09:43:40.004Z</time></trkpt><trkpt lat="44.2631743" lon="8.001772"><ele>863.0</ele><time>2026-04-24T09:43:40.992Z</time></trkpt><trkpt lat="44.2631035" lon="8.0018887"><ele>862.75</ele><time>2026-04-24T09:43:41.991Z</time></trkpt><trkpt lat="44.2630076" lon="8.0019934"><ele>862.5</ele><time>2026-04-24T09:43:42.99Z</time></trkpt><trkpt lat="44.2629113" lon="8.0021195"><ele>862.25</ele><time>2026-04-24T09:43:43.995Z</time></trkpt><trkpt lat="44.262813" lon="8.0022519"><ele>862.0</ele><time>2026-04-24T09:43:44.993Z</time></trkpt><trkpt lat="44.2627121" lon="8.0023759"><ele>862.0</ele><time>2026-04-24T09:43:45.996Z</time></trkpt><trkpt lat="44.2625973" lon="8.002477"><ele>862.0</ele><time>2026-04-24T09:43:46.995Z</time></trkpt><trkpt lat="44.2624731" lon="8.0026071"><ele>862.0</ele><time>2026-04-24T09:43:47.989Z</time></trkpt><trkpt lat="44.2623788" lon="8.0027077"><ele>862.0</ele><time>2026-04-24T09:43:48.991Z</time></trkpt><trkpt lat="44.2622772" lon="8.002827"><ele>859.0</ele><time>2026-04-24T09:43:49.99Z</time></trkpt><trkpt lat="44.2621627" lon="8.0029706"><ele>856.0</ele><time>2026-04-24T09:43:50.993Z</time></trkpt><trkpt lat="44.2620668" lon="8.0030916"><ele>853.0</ele><time>2026-04-24T09:43:51.994Z</time></trkpt><trkpt lat="44.2619504" lon="8.0032153"><ele>850.0</ele><time>2026-04-24T09:43:52.991Z</time></trkpt><trkpt lat="44.2618273" lon="8.0033318"><ele>844.75</ele><time>2026-04-24T09:43:53.99Z</time></trkpt><trkpt lat="44.2617446" lon="8.0034616"><ele>839.5</ele><time>2026-04-24T09:43:54.989Z</time></trkpt><trkpt lat="44.2616604" lon="8.0035889"><ele>834.25</ele><time>2026-04-24T09:43:55.991Z</time></trkpt><trkpt lat="44.2615653" lon="8.0037232"><ele>829.0</ele><time>2026-04-24T09:43:56.99Z</time></trkpt><trkpt lat="44.2614819" lon="8.003812"><ele>829.2</ele><time>2026-04-24T09:43:58.003Z</time></trkpt><trkpt lat="44.2613832" lon="8.0038901"><ele>829.4000000000001</ele><time>2026-04-24T09:43:58.992Z</time></trkpt><trkpt lat="44.261297" lon="8.0039776"><ele>829.6</ele><time>2026-04-24T09:43:59.99Z</time></trkpt><trkpt lat="44.2612378" lon="8.0040605"><ele>829.8</ele><time>2026-04-24T09:44:00.991Z</time></trkpt><trkpt lat="44.2611688" lon="8.0041137"><ele>830.0</ele><time>2026-04-24T09:44:01.991Z</time></trkpt><trkpt lat="44.2610992" lon="8.0041268"><ele>830.0000000000001</ele><time>2026-04-24T09:44:02.998Z</time></trkpt><trkpt lat="44.2610295" lon="8.0041549"><ele>830.0</ele><time>2026-04-24T09:44:03.992Z</time></trkpt><trkpt lat="44.2610216" lon="8.004254"><ele>830.0</ele><time>2026-04-24T09:44:05.994Z</time></trkpt><trkpt lat="44.2611027" lon="8.0043034"><ele>830.0</ele><time>2026-04-24T09:44:07.995Z</time></trkpt><trkpt lat="44.2612146" lon="8.0043187"><ele>830.0000000000001</ele><time>2026-04-24T09:44:09.991Z</time></trkpt><trkpt lat="44.2612913" lon="8.0042851"><ele>830.0</ele><time>2026-04-24T09:44:11.994Z</time></trkpt><trkpt lat="44.2613785" lon="8.0042644"><ele>829.5</ele><time>2026-04-24T09:44:13.998Z</time></trkpt><trkpt lat="44.261632" lon="8.0040953"><ele>829.0</ele><time>2026-04-24T09:44:14.993Z</time></trkpt><trkpt lat="44.2620132" lon="8.003968"><ele>829.0</ele><time>2026-04-24T09:44:15.991Z</time></trkpt><trkpt lat="44.262161" lon="8.0039043"><ele>829.0</ele><time>2026-04-24T09:44:16.995Z</time></trkpt><trkpt lat="44.2622882" lon="8.0038544"><ele>829.0</ele><time>2026-04-24T09:44:17.99Z</time></trkpt><trkpt lat="44.2624138" lon="8.0038293"><ele>829.0</ele><time>2026-04-24T09:44:18.996Z</time></trkpt><trkpt lat="44.2625307" lon="8.0038183"><ele>826.0</ele><time>2026-04-24T09:44:19.991Z</time></trkpt><trkpt lat="44.2626337" lon="8.0038063"><ele>823.0</ele><time>2026-04-24T09:44:20.994Z</time></trkpt><trkpt lat="44.2627301" lon="8.0037793"><ele>820.0</ele><time>2026-04-24T09:44:21.99Z</time></trkpt><trkpt lat="44.2628234" lon="8.0037448"><ele>817.0</ele><time>2026-04-24T09:44:22.994Z</time></trkpt><trkpt lat="44.2629232" lon="8.0036865"><ele>814.0</ele><time>2026-04-24T09:44:23.994Z</time></trkpt><trkpt lat="44.263023" lon="8.0036603"><ele>811.8000000000001</ele><time>2026-04-24T09:44:24.992Z</time></trkpt><trkpt lat="44.2631225" lon="8.0036742"><ele>809.6</ele><time>2026-04-24T09:44:25.992Z</time></trkpt><trkpt lat="44.2631957" lon="8.0036999"><ele>807.4</ele><time>2026-04-24T09:44:26.995Z</time></trkpt><trkpt lat="44.2632919" lon="8.0037867"><ele>805.2</ele><time>2026-04-24T09:44:27.991Z</time></trkpt><trkpt lat="44.2633704" lon="8.0038699"><ele>803.0</ele><time>2026-04-24T09:44:28.994Z</time></trkpt><trkpt lat="44.2634407" lon="8.0039478"><ele>803.0000000000001</ele><time>2026-04-24T09:44:29.992Z</time></trkpt><trkpt lat="44.2635059" lon="8.0039912"><ele>803.0</ele><time>2026-04-24T09:44:30.99Z</time></trkpt><trkpt lat="44.263581" lon="8.0040062"><ele>803.0</ele><time>2026-04-24T09:44:31.995Z</time></trkpt><trkpt lat="44.2636637" lon="8.0040188"><ele>803.0</ele><time>2026-04-24T09:44:32.991Z</time></trkpt><trkpt lat="44.2637458" lon="8.0040033"><ele>803.0000000000001</ele><time>2026-04-24T09:44:33.996Z</time></trkpt><trkpt lat="44.2638495" lon="8.0039543"><ele>803.0</ele><time>2026-04-24T09:44:34.997Z</time></trkpt><trkpt lat="44.2639343" lon="8.0039531"><ele>801.0000000000001</ele><time>2026-04-24T09:44:35.996Z</time></trkpt><trkpt lat="44.2640125" lon="8.0038979"><ele>799.0</ele><time>2026-04-24T09:44:36.995Z</time></trkpt><trkpt lat="44.2640681" lon="8.0038426"><ele>797.0</ele><time>2026-04-24T09:44:38.998Z</time></trkpt><trkpt lat="44.2641059" lon="8.0039203"><ele>795.0</ele><time>2026-04-24T09:44:40.992Z</time></trkpt><trkpt lat="44.2640211" lon="8.0040646"><ele>793.0000000000001</ele><time>2026-04-24T09:44:42.998Z</time></trkpt><trkpt lat="44.263958" lon="8.0041235"><ele>791.0</ele><time>2026-04-24T09:44:43.999Z</time></trkpt><trkpt lat="44.2638739" lon="8.0042162"><ele>789.1999999999999</ele><time>2026-04-24T09:44:44.995Z</time></trkpt><trkpt lat="44.26378" lon="8.0043157"><ele>787.4</ele><time>2026-04-24T09:44:45.993Z</time></trkpt><trkpt lat="44.2636985" lon="8.004388"><ele>785.6</ele><time>2026-04-24T09:44:46.998Z</time></trkpt><trkpt lat="44.2636279" lon="8.0044823"><ele>783.8</ele><time>2026-04-24T09:44:47.995Z</time></trkpt><trkpt lat="44.2635433" lon="8.0045299"><ele>782.0</ele><time>2026-04-24T09:44:48.997Z</time></trkpt><trkpt lat="44.2634781" lon="8.0045648"><ele>782.0</ele><time>2026-04-24T09:44:49.997Z</time></trkpt><trkpt lat="44.2634562" lon="8.0046869"><ele>782.0</ele><time>2026-04-24T09:44:51.991Z</time></trkpt><trkpt lat="44.2635396" lon="8.0047151"><ele>782.0</ele><time>2026-04-24T09:44:53.996Z</time></trkpt><trkpt lat="44.2636012" lon="8.0047453"><ele>782.0</ele><time>2026-04-24T09:44:54.993Z</time></trkpt><trkpt lat="44.2636989" lon="8.0047697"><ele>782.0</ele><time>2026-04-24T09:44:56.002Z</time></trkpt><trkpt lat="44.2638067" lon="8.0047993"><ele>780.25</ele><time>2026-04-24T09:44:56.999Z</time></trkpt><trkpt lat="44.264027" lon="8.0047314"><ele>778.5</ele><time>2026-04-24T09:44:57.99Z</time></trkpt><trkpt lat="44.2641292" lon="8.0047646"><ele>776.75</ele><time>2026-04-24T09:44:58.997Z</time></trkpt><trkpt lat="44.2642261" lon="8.0048378"><ele>775.0</ele><time>2026-04-24T09:44:59.999Z</time></trkpt><trkpt lat="44.2643027" lon="8.004909"><ele>775.0</ele><time>2026-04-24T09:45:00.998Z</time></trkpt><trkpt lat="44.2644094" lon="8.0049546"><ele>775.0</ele><time>2026-04-24T09:45:01.998Z</time></trkpt><trkpt lat="44.2644988" lon="8.0049649"><ele>775.0</ele><time>2026-04-24T09:45:02.997Z</time></trkpt><trkpt lat="44.2646129" lon="8.0048784"><ele>775.0</ele><time>2026-04-24T09:45:03.995Z</time></trkpt><trkpt lat="44.2647128" lon="8.0048139"><ele>775.0</ele><time>2026-04-24T09:45:04.996Z</time></trkpt><trkpt lat="44.2648171" lon="8.0047426"><ele>772.4</ele><time>2026-04-24T09:45:05.994Z</time></trkpt><trkpt lat="44.2649074" lon="8.0046665"><ele>769.8</ele><time>2026-04-24T09:45:07.99Z</time></trkpt><trkpt lat="44.2649787" lon="8.004684"><ele>767.2</ele><time>2026-04-24T09:45:08.997Z</time></trkpt><trkpt lat="44.2649693" lon="8.0048762"><ele>764.6</ele><time>2026-04-24T09:45:10.997Z</time></trkpt><trkpt lat="44.2649801" lon="8.0049885"><ele>762.0</ele><time>2026-04-24T09:45:11.999Z</time></trkpt><trkpt lat="44.2649532" lon="8.0051126"><ele>761.2</ele><time>2026-04-24T09:45:12.996Z</time></trkpt><trkpt lat="44.2649278" lon="8.0052469"><ele>760.4000000000001</ele><time>2026-04-24T09:45:14Z</time></trkpt><trkpt lat="44.2648908" lon="8.0053839"><ele>759.5999999999999</ele><time>2026-04-24T09:45:14.997Z</time></trkpt><trkpt lat="44.2648468" lon="8.0055118"><ele>758.8</ele><time>2026-04-24T09:45:15.999Z</time></trkpt><trkpt lat="44.2647816" lon="8.0056165"><ele>758.0</ele><time>2026-04-24T09:45:16.988Z</time></trkpt><trkpt lat="44.2647111" lon="8.0057231"><ele>752.25</ele><time>2026-04-24T09:45:17.991Z</time></trkpt><trkpt lat="44.2645969" lon="8.0058518"><ele>746.5</ele><time>2026-04-24T09:45:18.998Z</time></trkpt><trkpt lat="44.2644809" lon="8.0059754"><ele>740.75</ele><time>2026-04-24T09:45:19.99Z</time></trkpt><trkpt lat="44.2643696" lon="8.0061049"><ele>735.0</ele><time>2026-04-24T09:45:21.003Z</time></trkpt><trkpt lat="44.2642554" lon="8.0061989"><ele>735.0</ele><time>2026-04-24T09:45:21.989Z</time></trkpt><trkpt lat="44.2641685" lon="8.0063078"><ele>735.0</ele><time>2026-04-24T09:45:22.993Z</time></trkpt><trkpt lat="44.2640872" lon="8.0064165"><ele>735.0</ele><time>2026-04-24T09:45:23.992Z</time></trkpt><trkpt lat="44.2640082" lon="8.0064974"><ele>735.0</ele><time>2026-04-24T09:45:24.99Z</time></trkpt><trkpt lat="44.2639109" lon="8.0065617"><ele>735.0</ele><time>2026-04-24T09:45:25.993Z</time></trkpt><trkpt lat="44.2638362" lon="8.0066333"><ele>731.0</ele><time>2026-04-24T09:45:26.991Z</time></trkpt><trkpt lat="44.2637556" lon="8.0067436"><ele>727.0</ele><time>2026-04-24T09:45:27.998Z</time></trkpt><trkpt lat="44.2636815" lon="8.0068847"><ele>723.0</ele><time>2026-04-24T09:45:28.988Z</time></trkpt><trkpt lat="44.2636021" lon="8.0070229"><ele>719.0</ele><time>2026-04-24T09:45:29.994Z</time></trkpt><trkpt lat="44.26354" lon="8.0071571"><ele>719.0</ele><time>2026-04-24T09:45:30.988Z</time></trkpt><trkpt lat="44.2634676" lon="8.0072806"><ele>719.0</ele><time>2026-04-24T09:45:31.992Z</time></trkpt><trkpt lat="44.2633752" lon="8.0073726"><ele>719.0</ele><time>2026-04-24T09:45:32.991Z</time></trkpt><trkpt lat="44.2632888" lon="8.0074737"><ele>719.0</ele><time>2026-04-24T09:45:33.99Z</time></trkpt><trkpt lat="44.2632061" lon="8.0075959"><ele>716.8000000000001</ele><time>2026-04-24T09:45:34.996Z</time></trkpt><trkpt lat="44.2631202" lon="8.0076797"><ele>714.6</ele><time>2026-04-24T09:45:35.99Z</time></trkpt><trkpt lat="44.2630156" lon="8.007747"><ele>712.4</ele><time>2026-04-24T09:45:36.992Z</time></trkpt><trkpt lat="44.2629406" lon="8.0077778"><ele>710.2</ele><time>2026-04-24T09:45:37.994Z</time></trkpt><trkpt lat="44.2628921" lon="8.0079296"><ele>708.0</ele><time>2026-04-24T09:45:39.994Z</time></trkpt><trkpt lat="44.2628389" lon="8.0080164"><ele>708.0</ele><time>2026-04-24T09:45:40.99Z</time></trkpt><trkpt lat="44.2627704" lon="8.0081392"><ele>708.0</ele><time>2026-04-24T09:45:41.995Z</time></trkpt><trkpt lat="44.262683" lon="8.008275"><ele>708.0</ele><time>2026-04-24T09:45:42.994Z</time></trkpt><trkpt lat="44.2625668" lon="8.0083906"><ele>708.0</ele><time>2026-04-24T09:45:43.993Z</time></trkpt><trkpt lat="44.2624572" lon="8.0084893"><ele>703.75</ele><time>2026-04-24T09:45:44.995Z</time></trkpt><trkpt lat="44.2623354" lon="8.0085604"><ele>699.5</ele><time>2026-04-24T09:45:45.991Z</time></trkpt><trkpt lat="44.2622457" lon="8.0086603"><ele>695.25</ele><time>2026-04-24T09:45:46.991Z</time></trkpt><trkpt lat="44.2621854" lon="8.008769"><ele>691.0</ele><time>2026-04-24T09:45:47.991Z</time></trkpt><trkpt lat="44.2621171" lon="8.0088823"><ele>690.5999999999999</ele><time>2026-04-24T09:45:48.994Z</time></trkpt><trkpt lat="44.2620379" lon="8.0089732"><ele>690.2</ele><time>2026-04-24T09:45:49.994Z</time></trkpt><trkpt lat="44.2619443" lon="8.0090592"><ele>689.8</ele><time>2026-04-24T09:45:50.994Z</time></trkpt><trkpt lat="44.2618453" lon="8.0091518"><ele>689.4000000000001</ele><time>2026-04-24T09:45:51.995Z</time></trkpt><trkpt lat="44.2617628" lon="8.0092526"><ele>689.0</ele><time>2026-04-24T09:45:52.993Z</time></trkpt><trkpt lat="44.2616989" lon="8.0093515"><ele>685.4000000000001</ele><time>2026-04-24T09:45:53.994Z</time></trkpt><trkpt lat="44.2616467" lon="8.0094851"><ele>681.8</ele><time>2026-04-24T09:45:54.992Z</time></trkpt><trkpt lat="44.2616001" lon="8.0096127"><ele>678.2</ele><time>2026-04-24T09:45:55.998Z</time></trkpt><trkpt lat="44.2615402" lon="8.0097304"><ele>674.5999999999999</ele><time>2026-04-24T09:45:56.993Z</time></trkpt><trkpt lat="44.2614608" lon="8.009831"><ele>671.0</ele><time>2026-04-24T09:45:57.992Z</time></trkpt><trkpt lat="44.2613659" lon="8.0099222"><ele>667.1666666666666</ele><time>2026-04-24T09:45:58.992Z</time></trkpt><trkpt lat="44.2612825" lon="8.0099931"><ele>663.3333333333333</ele><time>2026-04-24T09:45:59.989Z</time></trkpt><trkpt lat="44.2612224" lon="8.0100452"><ele>659.5</ele><time>2026-04-24T09:46:00.993Z</time></trkpt><trkpt lat="44.2611516" lon="8.0100916"><ele>655.6666666666666</ele><time>2026-04-24T09:46:01.992Z</time></trkpt><trkpt lat="44.2610728" lon="8.0100964"><ele>651.8333333333334</ele><time>2026-04-24T09:46:02.994Z</time></trkpt><trkpt lat="44.260971" lon="8.0100832"><ele>648.0</ele><time>2026-04-24T09:46:03.992Z</time></trkpt><trkpt lat="44.2608648" lon="8.0100746"><ele>648.0</ele><time>2026-04-24T09:46:04.99Z</time></trkpt><trkpt lat="44.2607478" lon="8.0101017"><ele>648.0</ele><time>2026-04-24T09:46:05.997Z</time></trkpt><trkpt lat="44.2606352" lon="8.0101452"><ele>648.0</ele><time>2026-04-24T09:46:06.997Z</time></trkpt><trkpt lat="44.260452" lon="8.0102566"><ele>648.0</ele><time>2026-04-24T09:46:07.995Z</time></trkpt><trkpt lat="44.2602875" lon="8.010322"><ele>649.5</ele><time>2026-04-24T09:46:08.993Z</time></trkpt><trkpt lat="44.2601563" lon="8.0104056"><ele>651.0</ele><time>2026-04-24T09:46:09.993Z</time></trkpt><trkpt lat="44.2600518" lon="8.0104774"><ele>652.5</ele><time>2026-04-24T09:46:11Z</time></trkpt><trkpt lat="44.2599791" lon="8.0105554"><ele>654.0</ele><time>2026-04-24T09:46:11.996Z</time></trkpt><trkpt lat="44.2599951" lon="8.0107526"><ele>653.0</ele><time>2026-04-24T09:46:13.995Z</time></trkpt><trkpt lat="44.2600402" lon="8.0109247"><ele>652.0</ele><time>2026-04-24T09:46:14.994Z</time></trkpt><trkpt lat="44.2601092" lon="8.0111079"><ele>651.0</ele><time>2026-04-24T09:46:15.994Z</time></trkpt><trkpt lat="44.2601954" lon="8.0113169"><ele>651.0</ele><time>2026-04-24T09:46:16.993Z</time></trkpt><trkpt lat="44.2602503" lon="8.0115015"><ele>651.0</ele><time>2026-04-24T09:46:17.996Z</time></trkpt><trkpt lat="44.2603182" lon="8.0116736"><ele>651.0</ele><time>2026-04-24T09:46:19.008Z</time></trkpt><trkpt lat="44.2603665" lon="8.0118592"><ele>651.0</ele><time>2026-04-24T09:46:20Z</time></trkpt><trkpt lat="44.2604174" lon="8.0120229"><ele>650.0</ele><time>2026-04-24T09:46:20.991Z</time></trkpt><trkpt lat="44.2604864" lon="8.0121998"><ele>649.0</ele><time>2026-04-24T09:46:21.996Z</time></trkpt><trkpt lat="44.2605503" lon="8.0123371"><ele>648.0</ele><time>2026-04-24T09:46:22.994Z</time></trkpt><trkpt lat="44.2606281" lon="8.012467"><ele>647.0</ele><time>2026-04-24T09:46:23.996Z</time></trkpt><trkpt lat="44.2607083" lon="8.012577"><ele>641.25</ele><time>2026-04-24T09:46:24.99Z</time></trkpt><trkpt lat="44.2607923" lon="8.0126955"><ele>635.5</ele><time>2026-04-24T09:46:25.996Z</time></trkpt><trkpt lat="44.2608731" lon="8.0128113"><ele>629.75</ele><time>2026-04-24T09:46:26.995Z</time></trkpt><trkpt lat="44.2609486" lon="8.0129454"><ele>624.0</ele><time>2026-04-24T09:46:27.996Z</time></trkpt><trkpt lat="44.2610278" lon="8.0130952"><ele>624.0</ele><time>2026-04-24T09:46:28.994Z</time></trkpt><trkpt lat="44.2610531" lon="8.0132731"><ele>624.0</ele><time>2026-04-24T09:46:29.99Z</time></trkpt><trkpt lat="44.2610793" lon="8.0135234"><ele>624.0</ele><time>2026-04-24T09:46:30.994Z</time></trkpt><trkpt lat="44.2611463" lon="8.0137111"><ele>622.8333333333334</ele><time>2026-04-24T09:46:31.988Z</time></trkpt><trkpt lat="44.2611665" lon="8.0138512"><ele>621.6666666666666</ele><time>2026-04-24T09:46:32.989Z</time></trkpt><trkpt lat="44.2612049" lon="8.0139599"><ele>620.5</ele><time>2026-04-24T09:46:33.998Z</time></trkpt><trkpt lat="44.2612371" lon="8.0140696"><ele>619.3333333333333</ele><time>2026-04-24T09:46:34.993Z</time></trkpt><trkpt lat="44.261186" lon="8.0141481"><ele>618.1666666666666</ele><time>2026-04-24T09:46:35.998Z</time></trkpt><trkpt lat="44.2611324" lon="8.0142369"><ele>617.0</ele><time>2026-04-24T09:46:36.987Z</time></trkpt><trkpt lat="44.261081" lon="8.0143438"><ele>615.75</ele><time>2026-04-24T09:46:37.995Z</time></trkpt><trkpt lat="44.2609794" lon="8.0144593"><ele>614.5</ele><time>2026-04-24T09:46:38.991Z</time></trkpt><trkpt lat="44.2608747" lon="8.0146208"><ele>613.25</ele><time>2026-04-24T09:46:39.988Z</time></trkpt><trkpt lat="44.2607756" lon="8.0147725"><ele>612.0</ele><time>2026-04-24T09:46:40.998Z</time></trkpt><trkpt lat="44.2606898" lon="8.0149499"><ele>613.75</ele><time>2026-04-24T09:46:41.999Z</time></trkpt><trkpt lat="44.2606329" lon="8.0151247"><ele>615.5</ele><time>2026-04-24T09:46:42.989Z</time></trkpt><trkpt lat="44.2605616" lon="8.0152994"><ele>617.25</ele><time>2026-04-24T09:46:43.992Z</time></trkpt><trkpt lat="44.2604878" lon="8.015472"><ele>619.0</ele><time>2026-04-24T09:46:44.988Z</time></trkpt><trkpt lat="44.2604293" lon="8.0156243"><ele>619.0</ele><time>2026-04-24T09:46:46.008Z</time></trkpt><trkpt lat="44.260382" lon="8.0157621"><ele>619.0</ele><time>2026-04-24T09:46:46.991Z</time></trkpt><trkpt lat="44.2603415" lon="8.0158996"><ele>619.0</ele><time>2026-04-24T09:46:47.988Z</time></trkpt><trkpt lat="44.2603182" lon="8.0160618"><ele>619.0</ele><time>2026-04-24T09:46:48.987Z</time></trkpt><trkpt lat="44.2602938" lon="8.0162028"><ele>619.0</ele><time>2026-04-24T09:46:49.991Z</time></trkpt><trkpt lat="44.2602952" lon="8.0163485"><ele>616.2</ele><time>2026-04-24T09:46:50.993Z</time></trkpt><trkpt lat="44.2602895" lon="8.0164999"><ele>613.4</ele><time>2026-04-24T09:46:51.99Z</time></trkpt><trkpt lat="44.2602777" lon="8.016652"><ele>610.6</ele><time>2026-04-24T09:46:52.993Z</time></trkpt><trkpt lat="44.2602567" lon="8.0167894"><ele>607.8</ele><time>2026-04-24T09:46:53.999Z</time></trkpt><trkpt lat="44.2602255" lon="8.0169332"><ele>605.0</ele><time>2026-04-24T09:46:54.991Z</time></trkpt><trkpt lat="44.2601719" lon="8.0170816"><ele>602.25</ele><time>2026-04-24T09:46:55.989Z</time></trkpt><trkpt lat="44.260093" lon="8.0172213"><ele>599.5</ele><time>2026-04-24T09:46:56.989Z</time></trkpt><trkpt lat="44.2600217" lon="8.0173726"><ele>596.75</ele><time>2026-04-24T09:46:57.989Z</time></trkpt><trkpt lat="44.2599629" lon="8.0175426"><ele>594.0</ele><time>2026-04-24T09:46:58.99Z</time></trkpt><trkpt lat="44.2599394" lon="8.0177042"><ele>594.25</ele><time>2026-04-24T09:46:59.996Z</time></trkpt><trkpt lat="44.2598945" lon="8.0178908"><ele>594.5</ele><time>2026-04-24T09:47:00.993Z</time></trkpt><trkpt lat="44.2598561" lon="8.0180622"><ele>594.75</ele><time>2026-04-24T09:47:01.996Z</time></trkpt><trkpt lat="44.2598105" lon="8.0182529"><ele>595.0</ele><time>2026-04-24T09:47:02.99Z</time></trkpt><trkpt lat="44.2597782" lon="8.0184387"><ele>595.0</ele><time>2026-04-24T09:47:03.988Z</time></trkpt><trkpt lat="44.2597379" lon="8.0186271"><ele>595.0</ele><time>2026-04-24T09:47:04.994Z</time></trkpt><trkpt lat="44.2597048" lon="8.0187728"><ele>595.0</ele><time>2026-04-24T09:47:05.987Z</time></trkpt><trkpt lat="44.2596774" lon="8.0189012"><ele>595.0</ele><time>2026-04-24T09:47:06.992Z</time></trkpt><trkpt lat="44.2596506" lon="8.0190336"><ele>595.0</ele><time>2026-04-24T09:47:07.992Z</time></trkpt><trkpt lat="44.2596186" lon="8.019176"><ele>589.75</ele><time>2026-04-24T09:47:08.99Z</time></trkpt><trkpt lat="44.2595801" lon="8.019332"><ele>584.5</ele><time>2026-04-24T09:47:09.989Z</time></trkpt><trkpt lat="44.2595399" lon="8.0195112"><ele>579.25</ele><time>2026-04-24T09:47:10.994Z</time></trkpt><trkpt lat="44.2595075" lon="8.019679"><ele>574.0</ele><time>2026-04-24T09:47:11.994Z</time></trkpt><trkpt lat="44.2594662" lon="8.0198253"><ele>574.0</ele><time>2026-04-24T09:47:13.004Z</time></trkpt><trkpt lat="44.2593999" lon="8.019925"><ele>574.0</ele><time>2026-04-24T09:47:13.993Z</time></trkpt><trkpt lat="44.2592948" lon="8.020016"><ele>574.0</ele><time>2026-04-24T09:47:14.996Z</time></trkpt><trkpt lat="44.2591799" lon="8.0200863"><ele>574.0</ele><time>2026-04-24T09:47:15.987Z</time></trkpt><trkpt lat="44.2590546" lon="8.0201296"><ele>570.4</ele><time>2026-04-24T09:47:16.99Z</time></trkpt><trkpt lat="44.258941" lon="8.0201375"><ele>566.8</ele><time>2026-04-24T09:47:17.993Z</time></trkpt><trkpt lat="44.2588417" lon="8.0201787"><ele>563.2</ele><time>2026-04-24T09:47:18.99Z</time></trkpt><trkpt lat="44.2587449" lon="8.0202481"><ele>559.6</ele><time>2026-04-24T09:47:19.996Z</time></trkpt><trkpt lat="44.2586623" lon="8.0203573"><ele>556.0</ele><time>2026-04-24T09:47:20.991Z</time></trkpt><trkpt lat="44.2585908" lon="8.0205021"><ele>556.0</ele><time>2026-04-24T09:47:21.99Z</time></trkpt><trkpt lat="44.2584959" lon="8.0206753"><ele>556.0</ele><time>2026-04-24T09:47:22.994Z</time></trkpt><trkpt lat="44.2584128" lon="8.0208241"><ele>556.0</ele><time>2026-04-24T09:47:23.995Z</time></trkpt><trkpt lat="44.2583597" lon="8.0209589"><ele>556.0</ele><time>2026-04-24T09:47:24.993Z</time></trkpt><trkpt lat="44.2583105" lon="8.0210805"><ele>554.0</ele><time>2026-04-24T09:47:25.998Z</time></trkpt><trkpt lat="44.2582582" lon="8.0212014"><ele>552.0</ele><time>2026-04-24T09:47:26.995Z</time></trkpt><trkpt lat="44.2582278" lon="8.0212994"><ele>550.0</ele><time>2026-04-24T09:47:28.003Z</time></trkpt><trkpt lat="44.2581949" lon="8.0213891"><ele>548.0</ele><time>2026-04-24T09:47:28.993Z</time></trkpt><trkpt lat="44.2581556" lon="8.0214705"><ele>546.0</ele><time>2026-04-24T09:47:29.994Z</time></trkpt><trkpt lat="44.2581123" lon="8.0215998"><ele>544.0</ele><time>2026-04-24T09:47:31.994Z</time></trkpt><trkpt lat="44.2580514" lon="8.0216732"><ele>534.0</ele><time>2026-04-24T09:47:33.996Z</time></trkpt></trkseg></trk></gpx>